<?xml version="1.0" encoding="UTF-8" standalone="no" ?>
<gpx xmlns="http://www.topografix.com/GPX/1/1" xmlns:xsi="http://www.w3.org/2001/XMLSchema-instance" xsi:schemaLocation="http://www.topografix.com/GPX/1/1 http://www.topografix.com/GPX/1/1/gpx.xsd" version="1.1" creator="VisuGPX - https://www.visugpx.com">
  <metadata>
    <name>2018-06-27 Bike ride-Amberieux-Savigneux O 33k</name>
    <desc><![CDATA[2018-06-27 Bike ride-Amberieux-Savigneux O 33k]]></desc>
  </metadata>
  <wpt lat="45.92463" lon="4.73701">
    <ele>174</ele>
    <name><![CDATA[2018-06-27 10:23 (Start)]]></name>
  </wpt>
  <wpt lat="45.92457" lon="4.7371">
    <ele>174</ele>
    <name><![CDATA[2018-06-27 10:23 (End)]]></name>
  </wpt>
  <trk>
    <name><![CDATA[2018-06-27 10:23]]></name>
    <trkseg>
      <trkpt lat="45.92463" lon="4.73701">
        <ele>174</ele>
        <time>2018-06-27T08:23:40.4Z</time>
      </trkpt>
      <trkpt lat="45.92461" lon="4.73709">
        <ele>174</ele>
        <time>2018-06-27T08:23:44.645Z</time>
      </trkpt>
      <trkpt lat="45.92459" lon="4.73714">
        <ele>174</ele>
        <time>2018-06-27T08:23:45Z</time>
      </trkpt>
      <trkpt lat="45.9246" lon="4.73713">
        <ele>174</ele>
        <time>2018-06-27T08:23:52Z</time>
      </trkpt>
      <trkpt lat="45.92459" lon="4.73713">
        <ele>174</ele>
        <time>2018-06-27T08:23:53Z</time>
      </trkpt>
      <trkpt lat="45.92459" lon="4.73712">
        <ele>174</ele>
        <time>2018-06-27T08:23:54Z</time>
      </trkpt>
      <trkpt lat="45.92459" lon="4.73712">
        <ele>174</ele>
        <time>2018-06-27T08:23:55Z</time>
      </trkpt>
      <trkpt lat="45.92459" lon="4.73712">
        <ele>174</ele>
        <time>2018-06-27T08:23:56Z</time>
      </trkpt>
      <trkpt lat="45.92459" lon="4.73711">
        <ele>174</ele>
        <time>2018-06-27T08:23:57Z</time>
      </trkpt>
      <trkpt lat="45.92464" lon="4.73702">
        <ele>174</ele>
        <time>2018-06-27T08:24:05Z</time>
      </trkpt>
      <trkpt lat="45.92464" lon="4.73699">
        <ele>174</ele>
        <time>2018-06-27T08:24:06Z</time>
      </trkpt>
      <trkpt lat="45.92465" lon="4.73686">
        <ele>174</ele>
        <time>2018-06-27T08:24:08Z</time>
      </trkpt>
      <trkpt lat="45.92466" lon="4.73684">
        <ele>174</ele>
        <time>2018-06-27T08:24:09Z</time>
      </trkpt>
      <trkpt lat="45.92469" lon="4.73672">
        <ele>174</ele>
        <time>2018-06-27T08:24:13Z</time>
      </trkpt>
      <trkpt lat="45.9247" lon="4.73669">
        <ele>174</ele>
        <time>2018-06-27T08:24:14Z</time>
      </trkpt>
      <trkpt lat="45.92472" lon="4.73658">
        <ele>174</ele>
        <time>2018-06-27T08:24:15Z</time>
      </trkpt>
      <trkpt lat="45.92472" lon="4.73653">
        <ele>174</ele>
        <time>2018-06-27T08:24:16Z</time>
      </trkpt>
      <trkpt lat="45.92472" lon="4.73642">
        <ele>174</ele>
        <time>2018-06-27T08:24:18Z</time>
      </trkpt>
      <trkpt lat="45.92473" lon="4.73636">
        <ele>174</ele>
        <time>2018-06-27T08:24:19Z</time>
      </trkpt>
      <trkpt lat="45.92473" lon="4.7363">
        <ele>174</ele>
        <time>2018-06-27T08:24:20Z</time>
      </trkpt>
      <trkpt lat="45.92473" lon="4.73622">
        <ele>174</ele>
        <time>2018-06-27T08:24:21Z</time>
      </trkpt>
      <trkpt lat="45.92472" lon="4.73615">
        <ele>174</ele>
        <time>2018-06-27T08:24:22Z</time>
      </trkpt>
      <trkpt lat="45.92471" lon="4.73609">
        <ele>174</ele>
        <time>2018-06-27T08:24:23Z</time>
      </trkpt>
      <trkpt lat="45.92471" lon="4.73602">
        <ele>174</ele>
        <time>2018-06-27T08:24:24Z</time>
      </trkpt>
      <trkpt lat="45.9247" lon="4.73595">
        <ele>174</ele>
        <time>2018-06-27T08:24:25Z</time>
      </trkpt>
      <trkpt lat="45.92469" lon="4.73588">
        <ele>174</ele>
        <time>2018-06-27T08:24:26Z</time>
      </trkpt>
      <trkpt lat="45.92468" lon="4.73581">
        <ele>173</ele>
        <time>2018-06-27T08:24:27Z</time>
      </trkpt>
      <trkpt lat="45.92468" lon="4.73575">
        <ele>173</ele>
        <time>2018-06-27T08:24:28Z</time>
      </trkpt>
      <trkpt lat="45.92467" lon="4.73568">
        <ele>173</ele>
        <time>2018-06-27T08:24:29Z</time>
      </trkpt>
      <trkpt lat="45.92467" lon="4.73556">
        <ele>173</ele>
        <time>2018-06-27T08:24:31Z</time>
      </trkpt>
      <trkpt lat="45.92467" lon="4.73553">
        <ele>173</ele>
        <time>2018-06-27T08:24:32Z</time>
      </trkpt>
      <trkpt lat="45.92467" lon="4.73545">
        <ele>173</ele>
        <time>2018-06-27T08:24:33Z</time>
      </trkpt>
      <trkpt lat="45.92467" lon="4.7354">
        <ele>174</ele>
        <time>2018-06-27T08:24:34Z</time>
      </trkpt>
      <trkpt lat="45.92467" lon="4.73528">
        <ele>174</ele>
        <time>2018-06-27T08:24:36Z</time>
      </trkpt>
      <trkpt lat="45.92467" lon="4.73522">
        <ele>174</ele>
        <time>2018-06-27T08:24:37Z</time>
      </trkpt>
      <trkpt lat="45.92467" lon="4.73516">
        <ele>174</ele>
        <time>2018-06-27T08:24:38Z</time>
      </trkpt>
      <trkpt lat="45.92467" lon="4.73508">
        <ele>174</ele>
        <time>2018-06-27T08:24:39Z</time>
      </trkpt>
      <trkpt lat="45.92468" lon="4.735">
        <ele>174</ele>
        <time>2018-06-27T08:24:40Z</time>
      </trkpt>
      <trkpt lat="45.92467" lon="4.73493">
        <ele>173</ele>
        <time>2018-06-27T08:24:41Z</time>
      </trkpt>
      <trkpt lat="45.92467" lon="4.73487">
        <ele>173</ele>
        <time>2018-06-27T08:24:42Z</time>
      </trkpt>
      <trkpt lat="45.92468" lon="4.7348">
        <ele>173</ele>
        <time>2018-06-27T08:24:43Z</time>
      </trkpt>
      <trkpt lat="45.92468" lon="4.73473">
        <ele>173</ele>
        <time>2018-06-27T08:24:44Z</time>
      </trkpt>
      <trkpt lat="45.92468" lon="4.73465">
        <ele>173</ele>
        <time>2018-06-27T08:24:45Z</time>
      </trkpt>
      <trkpt lat="45.92469" lon="4.73458">
        <ele>173</ele>
        <time>2018-06-27T08:24:46Z</time>
      </trkpt>
      <trkpt lat="45.92468" lon="4.73452">
        <ele>173</ele>
        <time>2018-06-27T08:24:47Z</time>
      </trkpt>
      <trkpt lat="45.92466" lon="4.73446">
        <ele>173</ele>
        <time>2018-06-27T08:24:48Z</time>
      </trkpt>
      <trkpt lat="45.92464" lon="4.73439">
        <ele>173</ele>
        <time>2018-06-27T08:24:49Z</time>
      </trkpt>
      <trkpt lat="45.92462" lon="4.73433">
        <ele>173</ele>
        <time>2018-06-27T08:24:50Z</time>
      </trkpt>
      <trkpt lat="45.92459" lon="4.73427">
        <ele>173</ele>
        <time>2018-06-27T08:24:51Z</time>
      </trkpt>
      <trkpt lat="45.92455" lon="4.73423">
        <ele>173</ele>
        <time>2018-06-27T08:24:52Z</time>
      </trkpt>
      <trkpt lat="45.92451" lon="4.73419">
        <ele>173</ele>
        <time>2018-06-27T08:24:53Z</time>
      </trkpt>
      <trkpt lat="45.92447" lon="4.73415">
        <ele>172</ele>
        <time>2018-06-27T08:24:54Z</time>
      </trkpt>
      <trkpt lat="45.92442" lon="4.73413">
        <ele>172</ele>
        <time>2018-06-27T08:24:55Z</time>
      </trkpt>
      <trkpt lat="45.92437" lon="4.7341">
        <ele>172</ele>
        <time>2018-06-27T08:24:56Z</time>
      </trkpt>
      <trkpt lat="45.92434" lon="4.73404">
        <ele>172</ele>
        <time>2018-06-27T08:24:57Z</time>
      </trkpt>
      <trkpt lat="45.9243" lon="4.734">
        <ele>172</ele>
        <time>2018-06-27T08:24:58Z</time>
      </trkpt>
      <trkpt lat="45.92427" lon="4.73392">
        <ele>172</ele>
        <time>2018-06-27T08:24:59Z</time>
      </trkpt>
      <trkpt lat="45.92426" lon="4.73386">
        <ele>172</ele>
        <time>2018-06-27T08:25:00Z</time>
      </trkpt>
      <trkpt lat="45.92424" lon="4.73379">
        <ele>172</ele>
        <time>2018-06-27T08:25:01Z</time>
      </trkpt>
      <trkpt lat="45.92423" lon="4.73371">
        <ele>172</ele>
        <time>2018-06-27T08:25:02Z</time>
      </trkpt>
      <trkpt lat="45.92422" lon="4.73365">
        <ele>172</ele>
        <time>2018-06-27T08:25:03Z</time>
      </trkpt>
      <trkpt lat="45.92419" lon="4.73355">
        <ele>171</ele>
        <time>2018-06-27T08:25:04Z</time>
      </trkpt>
      <trkpt lat="45.92419" lon="4.73346">
        <ele>171</ele>
        <time>2018-06-27T08:25:05Z</time>
      </trkpt>
      <trkpt lat="45.92418" lon="4.73338">
        <ele>171</ele>
        <time>2018-06-27T08:25:06Z</time>
      </trkpt>
      <trkpt lat="45.92416" lon="4.73332">
        <ele>171</ele>
        <time>2018-06-27T08:25:07Z</time>
      </trkpt>
      <trkpt lat="45.92415" lon="4.73319">
        <ele>171</ele>
        <time>2018-06-27T08:25:09Z</time>
      </trkpt>
      <trkpt lat="45.92414" lon="4.73312">
        <ele>171</ele>
        <time>2018-06-27T08:25:10Z</time>
      </trkpt>
      <trkpt lat="45.92414" lon="4.73305">
        <ele>171</ele>
        <time>2018-06-27T08:25:11Z</time>
      </trkpt>
      <trkpt lat="45.92414" lon="4.73298">
        <ele>171</ele>
        <time>2018-06-27T08:25:12Z</time>
      </trkpt>
      <trkpt lat="45.92413" lon="4.73292">
        <ele>171</ele>
        <time>2018-06-27T08:25:13Z</time>
      </trkpt>
      <trkpt lat="45.92412" lon="4.73285">
        <ele>171</ele>
        <time>2018-06-27T08:25:14Z</time>
      </trkpt>
      <trkpt lat="45.92412" lon="4.73278">
        <ele>171</ele>
        <time>2018-06-27T08:25:15Z</time>
      </trkpt>
      <trkpt lat="45.92412" lon="4.73272">
        <ele>171</ele>
        <time>2018-06-27T08:25:16Z</time>
      </trkpt>
      <trkpt lat="45.92411" lon="4.73265">
        <ele>171</ele>
        <time>2018-06-27T08:25:17Z</time>
      </trkpt>
      <trkpt lat="45.9241" lon="4.73257">
        <ele>171</ele>
        <time>2018-06-27T08:25:18Z</time>
      </trkpt>
      <trkpt lat="45.92409" lon="4.7325">
        <ele>171</ele>
        <time>2018-06-27T08:25:19Z</time>
      </trkpt>
      <trkpt lat="45.9241" lon="4.73243">
        <ele>171</ele>
        <time>2018-06-27T08:25:20Z</time>
      </trkpt>
      <trkpt lat="45.9241" lon="4.73235">
        <ele>171</ele>
        <time>2018-06-27T08:25:21Z</time>
      </trkpt>
      <trkpt lat="45.92409" lon="4.73227">
        <ele>171</ele>
        <time>2018-06-27T08:25:22Z</time>
      </trkpt>
      <trkpt lat="45.92409" lon="4.7322">
        <ele>171</ele>
        <time>2018-06-27T08:25:23Z</time>
      </trkpt>
      <trkpt lat="45.92408" lon="4.73212">
        <ele>171</ele>
        <time>2018-06-27T08:25:24Z</time>
      </trkpt>
      <trkpt lat="45.92408" lon="4.73205">
        <ele>171</ele>
        <time>2018-06-27T08:25:25Z</time>
      </trkpt>
      <trkpt lat="45.92408" lon="4.73197">
        <ele>171</ele>
        <time>2018-06-27T08:25:26Z</time>
      </trkpt>
      <trkpt lat="45.92406" lon="4.7319">
        <ele>171</ele>
        <time>2018-06-27T08:25:27Z</time>
      </trkpt>
      <trkpt lat="45.92406" lon="4.73182">
        <ele>171</ele>
        <time>2018-06-27T08:25:28Z</time>
      </trkpt>
      <trkpt lat="45.92405" lon="4.73174">
        <ele>171</ele>
        <time>2018-06-27T08:25:29Z</time>
      </trkpt>
      <trkpt lat="45.92406" lon="4.73168">
        <ele>170</ele>
        <time>2018-06-27T08:25:30Z</time>
      </trkpt>
      <trkpt lat="45.92407" lon="4.73161">
        <ele>170</ele>
        <time>2018-06-27T08:25:31Z</time>
      </trkpt>
      <trkpt lat="45.92407" lon="4.73154">
        <ele>171</ele>
        <time>2018-06-27T08:25:32Z</time>
      </trkpt>
      <trkpt lat="45.92407" lon="4.73147">
        <ele>171</ele>
        <time>2018-06-27T08:25:33Z</time>
      </trkpt>
      <trkpt lat="45.92407" lon="4.7314">
        <ele>171</ele>
        <time>2018-06-27T08:25:34Z</time>
      </trkpt>
      <trkpt lat="45.92408" lon="4.73127">
        <ele>171</ele>
        <time>2018-06-27T08:25:36Z</time>
      </trkpt>
      <trkpt lat="45.92409" lon="4.73122">
        <ele>171</ele>
        <time>2018-06-27T08:25:37Z</time>
      </trkpt>
      <trkpt lat="45.92415" lon="4.73113">
        <ele>171</ele>
        <time>2018-06-27T08:25:39Z</time>
      </trkpt>
      <trkpt lat="45.92418" lon="4.7311">
        <ele>170</ele>
        <time>2018-06-27T08:25:40Z</time>
      </trkpt>
      <trkpt lat="45.92426" lon="4.73104">
        <ele>171</ele>
        <time>2018-06-27T08:25:42Z</time>
      </trkpt>
      <trkpt lat="45.9243" lon="4.73101">
        <ele>171</ele>
        <time>2018-06-27T08:25:43Z</time>
      </trkpt>
      <trkpt lat="45.92435" lon="4.73097">
        <ele>171</ele>
        <time>2018-06-27T08:25:44Z</time>
      </trkpt>
      <trkpt lat="45.9244" lon="4.73094">
        <ele>170</ele>
        <time>2018-06-27T08:25:45Z</time>
      </trkpt>
      <trkpt lat="45.92445" lon="4.73091">
        <ele>170</ele>
        <time>2018-06-27T08:25:46Z</time>
      </trkpt>
      <trkpt lat="45.92449" lon="4.73086">
        <ele>170</ele>
        <time>2018-06-27T08:25:47Z</time>
      </trkpt>
      <trkpt lat="45.92453" lon="4.73081">
        <ele>170</ele>
        <time>2018-06-27T08:25:48Z</time>
      </trkpt>
      <trkpt lat="45.92458" lon="4.73077">
        <ele>170</ele>
        <time>2018-06-27T08:25:49Z</time>
      </trkpt>
      <trkpt lat="45.92462" lon="4.73073">
        <ele>170</ele>
        <time>2018-06-27T08:25:50Z</time>
      </trkpt>
      <trkpt lat="45.92468" lon="4.73069">
        <ele>170</ele>
        <time>2018-06-27T08:25:51Z</time>
      </trkpt>
      <trkpt lat="45.92472" lon="4.73064">
        <ele>170</ele>
        <time>2018-06-27T08:25:52Z</time>
      </trkpt>
      <trkpt lat="45.92477" lon="4.7306">
        <ele>170</ele>
        <time>2018-06-27T08:25:53Z</time>
      </trkpt>
      <trkpt lat="45.92482" lon="4.73056">
        <ele>170</ele>
        <time>2018-06-27T08:25:54Z</time>
      </trkpt>
      <trkpt lat="45.92487" lon="4.73053">
        <ele>170</ele>
        <time>2018-06-27T08:25:55Z</time>
      </trkpt>
      <trkpt lat="45.92492" lon="4.73048">
        <ele>170</ele>
        <time>2018-06-27T08:25:56Z</time>
      </trkpt>
      <trkpt lat="45.92496" lon="4.73044">
        <ele>170</ele>
        <time>2018-06-27T08:25:57Z</time>
      </trkpt>
      <trkpt lat="45.92501" lon="4.7304">
        <ele>169</ele>
        <time>2018-06-27T08:25:58Z</time>
      </trkpt>
      <trkpt lat="45.92506" lon="4.73036">
        <ele>169</ele>
        <time>2018-06-27T08:25:59Z</time>
      </trkpt>
      <trkpt lat="45.92511" lon="4.73031">
        <ele>169</ele>
        <time>2018-06-27T08:26:00Z</time>
      </trkpt>
      <trkpt lat="45.92516" lon="4.73027">
        <ele>169</ele>
        <time>2018-06-27T08:26:01Z</time>
      </trkpt>
      <trkpt lat="45.92521" lon="4.73023">
        <ele>169</ele>
        <time>2018-06-27T08:26:02Z</time>
      </trkpt>
      <trkpt lat="45.92526" lon="4.73018">
        <ele>169</ele>
        <time>2018-06-27T08:26:03Z</time>
      </trkpt>
      <trkpt lat="45.92531" lon="4.73013">
        <ele>169</ele>
        <time>2018-06-27T08:26:04Z</time>
      </trkpt>
      <trkpt lat="45.92536" lon="4.73007">
        <ele>169</ele>
        <time>2018-06-27T08:26:05Z</time>
      </trkpt>
      <trkpt lat="45.9254" lon="4.73003">
        <ele>169</ele>
        <time>2018-06-27T08:26:06Z</time>
      </trkpt>
      <trkpt lat="45.92545" lon="4.72999">
        <ele>169</ele>
        <time>2018-06-27T08:26:07Z</time>
      </trkpt>
      <trkpt lat="45.9255" lon="4.72995">
        <ele>169</ele>
        <time>2018-06-27T08:26:08Z</time>
      </trkpt>
      <trkpt lat="45.92555" lon="4.7299">
        <ele>169</ele>
        <time>2018-06-27T08:26:09Z</time>
      </trkpt>
      <trkpt lat="45.92559" lon="4.72985">
        <ele>169</ele>
        <time>2018-06-27T08:26:10Z</time>
      </trkpt>
      <trkpt lat="45.92564" lon="4.7298">
        <ele>169</ele>
        <time>2018-06-27T08:26:11Z</time>
      </trkpt>
      <trkpt lat="45.92568" lon="4.72976">
        <ele>169</ele>
        <time>2018-06-27T08:26:12Z</time>
      </trkpt>
      <trkpt lat="45.92573" lon="4.72972">
        <ele>169</ele>
        <time>2018-06-27T08:26:13Z</time>
      </trkpt>
      <trkpt lat="45.92577" lon="4.72967">
        <ele>169</ele>
        <time>2018-06-27T08:26:14Z</time>
      </trkpt>
      <trkpt lat="45.92581" lon="4.72962">
        <ele>169</ele>
        <time>2018-06-27T08:26:15Z</time>
      </trkpt>
      <trkpt lat="45.92585" lon="4.72957">
        <ele>169</ele>
        <time>2018-06-27T08:26:16Z</time>
      </trkpt>
      <trkpt lat="45.92589" lon="4.72952">
        <ele>169</ele>
        <time>2018-06-27T08:26:17Z</time>
      </trkpt>
      <trkpt lat="45.92595" lon="4.72947">
        <ele>169</ele>
        <time>2018-06-27T08:26:18Z</time>
      </trkpt>
      <trkpt lat="45.92599" lon="4.72941">
        <ele>169</ele>
        <time>2018-06-27T08:26:19Z</time>
      </trkpt>
      <trkpt lat="45.92603" lon="4.72937">
        <ele>169</ele>
        <time>2018-06-27T08:26:20Z</time>
      </trkpt>
      <trkpt lat="45.92607" lon="4.72932">
        <ele>169</ele>
        <time>2018-06-27T08:26:21Z</time>
      </trkpt>
      <trkpt lat="45.92613" lon="4.72927">
        <ele>169</ele>
        <time>2018-06-27T08:26:22Z</time>
      </trkpt>
      <trkpt lat="45.92616" lon="4.72923">
        <ele>169</ele>
        <time>2018-06-27T08:26:23Z</time>
      </trkpt>
      <trkpt lat="45.9262" lon="4.72919">
        <ele>169</ele>
        <time>2018-06-27T08:26:24Z</time>
      </trkpt>
      <trkpt lat="45.92625" lon="4.72915">
        <ele>169</ele>
        <time>2018-06-27T08:26:25Z</time>
      </trkpt>
      <trkpt lat="45.9263" lon="4.72911">
        <ele>169</ele>
        <time>2018-06-27T08:26:26Z</time>
      </trkpt>
      <trkpt lat="45.92635" lon="4.72907">
        <ele>169</ele>
        <time>2018-06-27T08:26:27Z</time>
      </trkpt>
      <trkpt lat="45.9264" lon="4.72903">
        <ele>169</ele>
        <time>2018-06-27T08:26:28Z</time>
      </trkpt>
      <trkpt lat="45.92645" lon="4.72899">
        <ele>169</ele>
        <time>2018-06-27T08:26:29Z</time>
      </trkpt>
      <trkpt lat="45.92649" lon="4.72894">
        <ele>169</ele>
        <time>2018-06-27T08:26:30Z</time>
      </trkpt>
      <trkpt lat="45.92655" lon="4.72889">
        <ele>169</ele>
        <time>2018-06-27T08:26:31Z</time>
      </trkpt>
      <trkpt lat="45.92659" lon="4.72886">
        <ele>169</ele>
        <time>2018-06-27T08:26:32Z</time>
      </trkpt>
      <trkpt lat="45.92664" lon="4.72882">
        <ele>169</ele>
        <time>2018-06-27T08:26:33Z</time>
      </trkpt>
      <trkpt lat="45.92668" lon="4.7288">
        <ele>170</ele>
        <time>2018-06-27T08:26:34Z</time>
      </trkpt>
      <trkpt lat="45.92673" lon="4.72876">
        <ele>170</ele>
        <time>2018-06-27T08:26:35Z</time>
      </trkpt>
      <trkpt lat="45.92678" lon="4.72872">
        <ele>169</ele>
        <time>2018-06-27T08:26:36Z</time>
      </trkpt>
      <trkpt lat="45.92683" lon="4.72868">
        <ele>169</ele>
        <time>2018-06-27T08:26:37Z</time>
      </trkpt>
      <trkpt lat="45.92687" lon="4.72865">
        <ele>169</ele>
        <time>2018-06-27T08:26:38Z</time>
      </trkpt>
      <trkpt lat="45.92691" lon="4.72861">
        <ele>169</ele>
        <time>2018-06-27T08:26:39Z</time>
      </trkpt>
      <trkpt lat="45.92695" lon="4.72857">
        <ele>169</ele>
        <time>2018-06-27T08:26:40Z</time>
      </trkpt>
      <trkpt lat="45.92699" lon="4.72854">
        <ele>169</ele>
        <time>2018-06-27T08:26:41Z</time>
      </trkpt>
      <trkpt lat="45.92707" lon="4.72849">
        <ele>169</ele>
        <time>2018-06-27T08:26:43Z</time>
      </trkpt>
      <trkpt lat="45.92712" lon="4.72844">
        <ele>169</ele>
        <time>2018-06-27T08:26:44Z</time>
      </trkpt>
      <trkpt lat="45.92717" lon="4.72841">
        <ele>169</ele>
        <time>2018-06-27T08:26:45Z</time>
      </trkpt>
      <trkpt lat="45.92721" lon="4.72839">
        <ele>169</ele>
        <time>2018-06-27T08:26:46Z</time>
      </trkpt>
      <trkpt lat="45.92726" lon="4.72836">
        <ele>169</ele>
        <time>2018-06-27T08:26:47Z</time>
      </trkpt>
      <trkpt lat="45.92731" lon="4.72832">
        <ele>169</ele>
        <time>2018-06-27T08:26:48Z</time>
      </trkpt>
      <trkpt lat="45.92736" lon="4.72828">
        <ele>169</ele>
        <time>2018-06-27T08:26:49Z</time>
      </trkpt>
      <trkpt lat="45.92741" lon="4.72825">
        <ele>169</ele>
        <time>2018-06-27T08:26:50Z</time>
      </trkpt>
      <trkpt lat="45.92746" lon="4.72821">
        <ele>169</ele>
        <time>2018-06-27T08:26:51Z</time>
      </trkpt>
      <trkpt lat="45.92751" lon="4.72817">
        <ele>170</ele>
        <time>2018-06-27T08:26:52Z</time>
      </trkpt>
      <trkpt lat="45.92756" lon="4.72814">
        <ele>170</ele>
        <time>2018-06-27T08:26:53Z</time>
      </trkpt>
      <trkpt lat="45.9276" lon="4.7281">
        <ele>170</ele>
        <time>2018-06-27T08:26:54Z</time>
      </trkpt>
      <trkpt lat="45.92765" lon="4.72806">
        <ele>170</ele>
        <time>2018-06-27T08:26:55Z</time>
      </trkpt>
      <trkpt lat="45.9277" lon="4.72803">
        <ele>170</ele>
        <time>2018-06-27T08:26:56Z</time>
      </trkpt>
      <trkpt lat="45.92774" lon="4.72799">
        <ele>170</ele>
        <time>2018-06-27T08:26:57Z</time>
      </trkpt>
      <trkpt lat="45.92779" lon="4.72794">
        <ele>170</ele>
        <time>2018-06-27T08:26:58Z</time>
      </trkpt>
      <trkpt lat="45.92783" lon="4.7279">
        <ele>170</ele>
        <time>2018-06-27T08:26:59Z</time>
      </trkpt>
      <trkpt lat="45.92787" lon="4.72788">
        <ele>170</ele>
        <time>2018-06-27T08:27:00Z</time>
      </trkpt>
      <trkpt lat="45.92795" lon="4.72786">
        <ele>171</ele>
        <time>2018-06-27T08:27:02Z</time>
      </trkpt>
      <trkpt lat="45.928" lon="4.72787">
        <ele>171</ele>
        <time>2018-06-27T08:27:03Z</time>
      </trkpt>
      <trkpt lat="45.92806" lon="4.72795">
        <ele>171</ele>
        <time>2018-06-27T08:27:05Z</time>
      </trkpt>
      <trkpt lat="45.92807" lon="4.72803">
        <ele>171</ele>
        <time>2018-06-27T08:27:06Z</time>
      </trkpt>
      <trkpt lat="45.92809" lon="4.72815">
        <ele>171</ele>
        <time>2018-06-27T08:27:08Z</time>
      </trkpt>
      <trkpt lat="45.9281" lon="4.72821">
        <ele>171</ele>
        <time>2018-06-27T08:27:09Z</time>
      </trkpt>
      <trkpt lat="45.92812" lon="4.72833">
        <ele>171</ele>
        <time>2018-06-27T08:27:11Z</time>
      </trkpt>
      <trkpt lat="45.92812" lon="4.7284">
        <ele>170</ele>
        <time>2018-06-27T08:27:12Z</time>
      </trkpt>
      <trkpt lat="45.92813" lon="4.72847">
        <ele>170</ele>
        <time>2018-06-27T08:27:13Z</time>
      </trkpt>
      <trkpt lat="45.92814" lon="4.72855">
        <ele>170</ele>
        <time>2018-06-27T08:27:14Z</time>
      </trkpt>
      <trkpt lat="45.92816" lon="4.72862">
        <ele>170</ele>
        <time>2018-06-27T08:27:15Z</time>
      </trkpt>
      <trkpt lat="45.92818" lon="4.7287">
        <ele>170</ele>
        <time>2018-06-27T08:27:16Z</time>
      </trkpt>
      <trkpt lat="45.9282" lon="4.72878">
        <ele>170</ele>
        <time>2018-06-27T08:27:17Z</time>
      </trkpt>
      <trkpt lat="45.92821" lon="4.72885">
        <ele>170</ele>
        <time>2018-06-27T08:27:18Z</time>
      </trkpt>
      <trkpt lat="45.92822" lon="4.72897">
        <ele>170</ele>
        <time>2018-06-27T08:27:20Z</time>
      </trkpt>
      <trkpt lat="45.92823" lon="4.72905">
        <ele>170</ele>
        <time>2018-06-27T08:27:21Z</time>
      </trkpt>
      <trkpt lat="45.92826" lon="4.72911">
        <ele>170</ele>
        <time>2018-06-27T08:27:22Z</time>
      </trkpt>
      <trkpt lat="45.92826" lon="4.72919">
        <ele>170</ele>
        <time>2018-06-27T08:27:23Z</time>
      </trkpt>
      <trkpt lat="45.92827" lon="4.72927">
        <ele>170</ele>
        <time>2018-06-27T08:27:24Z</time>
      </trkpt>
      <trkpt lat="45.92828" lon="4.72936">
        <ele>170</ele>
        <time>2018-06-27T08:27:25Z</time>
      </trkpt>
      <trkpt lat="45.92828" lon="4.72944">
        <ele>170</ele>
        <time>2018-06-27T08:27:26Z</time>
      </trkpt>
      <trkpt lat="45.92828" lon="4.72952">
        <ele>170</ele>
        <time>2018-06-27T08:27:27Z</time>
      </trkpt>
      <trkpt lat="45.92828" lon="4.7296">
        <ele>170</ele>
        <time>2018-06-27T08:27:28Z</time>
      </trkpt>
      <trkpt lat="45.92829" lon="4.72967">
        <ele>170</ele>
        <time>2018-06-27T08:27:29Z</time>
      </trkpt>
      <trkpt lat="45.9283" lon="4.72975">
        <ele>170</ele>
        <time>2018-06-27T08:27:30Z</time>
      </trkpt>
      <trkpt lat="45.92831" lon="4.72981">
        <ele>170</ele>
        <time>2018-06-27T08:27:31Z</time>
      </trkpt>
      <trkpt lat="45.92832" lon="4.72989">
        <ele>170</ele>
        <time>2018-06-27T08:27:32Z</time>
      </trkpt>
      <trkpt lat="45.92833" lon="4.72997">
        <ele>170</ele>
        <time>2018-06-27T08:27:33Z</time>
      </trkpt>
      <trkpt lat="45.92834" lon="4.73005">
        <ele>170</ele>
        <time>2018-06-27T08:27:34Z</time>
      </trkpt>
      <trkpt lat="45.92835" lon="4.73011">
        <ele>171</ele>
        <time>2018-06-27T08:27:35Z</time>
      </trkpt>
      <trkpt lat="45.92837" lon="4.7302">
        <ele>171</ele>
        <time>2018-06-27T08:27:36Z</time>
      </trkpt>
      <trkpt lat="45.92837" lon="4.73025">
        <ele>171</ele>
        <time>2018-06-27T08:27:37Z</time>
      </trkpt>
      <trkpt lat="45.92839" lon="4.73033">
        <ele>171</ele>
        <time>2018-06-27T08:27:38Z</time>
      </trkpt>
      <trkpt lat="45.92841" lon="4.73041">
        <ele>171</ele>
        <time>2018-06-27T08:27:39Z</time>
      </trkpt>
      <trkpt lat="45.92842" lon="4.73048">
        <ele>171</ele>
        <time>2018-06-27T08:27:40Z</time>
      </trkpt>
      <trkpt lat="45.92843" lon="4.73055">
        <ele>171</ele>
        <time>2018-06-27T08:27:41Z</time>
      </trkpt>
      <trkpt lat="45.92845" lon="4.73065">
        <ele>171</ele>
        <time>2018-06-27T08:27:42Z</time>
      </trkpt>
      <trkpt lat="45.92845" lon="4.73073">
        <ele>171</ele>
        <time>2018-06-27T08:27:43Z</time>
      </trkpt>
      <trkpt lat="45.92847" lon="4.73081">
        <ele>171</ele>
        <time>2018-06-27T08:27:44Z</time>
      </trkpt>
      <trkpt lat="45.92848" lon="4.73088">
        <ele>171</ele>
        <time>2018-06-27T08:27:45Z</time>
      </trkpt>
      <trkpt lat="45.92851" lon="4.73096">
        <ele>171</ele>
        <time>2018-06-27T08:27:47Z</time>
      </trkpt>
      <trkpt lat="45.92854" lon="4.73101">
        <ele>171</ele>
        <time>2018-06-27T08:27:48Z</time>
      </trkpt>
      <trkpt lat="45.92862" lon="4.73098">
        <ele>171</ele>
        <time>2018-06-27T08:27:51Z</time>
      </trkpt>
      <trkpt lat="45.92864" lon="4.73097">
        <ele>171</ele>
        <time>2018-06-27T08:27:52Z</time>
      </trkpt>
      <trkpt lat="45.92869" lon="4.73086">
        <ele>172</ele>
        <time>2018-06-27T08:27:56Z</time>
      </trkpt>
      <trkpt lat="45.9287" lon="4.73084">
        <ele>172</ele>
        <time>2018-06-27T08:27:57Z</time>
      </trkpt>
      <trkpt lat="45.92875" lon="4.73078">
        <ele>172</ele>
        <time>2018-06-27T08:28:00Z</time>
      </trkpt>
      <trkpt lat="45.92882" lon="4.73075">
        <ele>172</ele>
        <time>2018-06-27T08:28:01Z</time>
      </trkpt>
      <trkpt lat="45.9289" lon="4.73073">
        <ele>172</ele>
        <time>2018-06-27T08:28:03Z</time>
      </trkpt>
      <trkpt lat="45.92894" lon="4.73067">
        <ele>172</ele>
        <time>2018-06-27T08:28:04Z</time>
      </trkpt>
      <trkpt lat="45.92896" lon="4.73062">
        <ele>172</ele>
        <time>2018-06-27T08:28:05Z</time>
      </trkpt>
      <trkpt lat="45.929" lon="4.73055">
        <ele>172</ele>
        <time>2018-06-27T08:28:06Z</time>
      </trkpt>
      <trkpt lat="45.92903" lon="4.73049">
        <ele>172</ele>
        <time>2018-06-27T08:28:07Z</time>
      </trkpt>
      <trkpt lat="45.92907" lon="4.73043">
        <ele>172</ele>
        <time>2018-06-27T08:28:08Z</time>
      </trkpt>
      <trkpt lat="45.9291" lon="4.73039">
        <ele>172</ele>
        <time>2018-06-27T08:28:09Z</time>
      </trkpt>
      <trkpt lat="45.92914" lon="4.73033">
        <ele>172</ele>
        <time>2018-06-27T08:28:10Z</time>
      </trkpt>
      <trkpt lat="45.92918" lon="4.73028">
        <ele>172</ele>
        <time>2018-06-27T08:28:11Z</time>
      </trkpt>
      <trkpt lat="45.92922" lon="4.73023">
        <ele>171</ele>
        <time>2018-06-27T08:28:12Z</time>
      </trkpt>
      <trkpt lat="45.92927" lon="4.73017">
        <ele>171</ele>
        <time>2018-06-27T08:28:13Z</time>
      </trkpt>
      <trkpt lat="45.92932" lon="4.73011">
        <ele>171</ele>
        <time>2018-06-27T08:28:14Z</time>
      </trkpt>
      <trkpt lat="45.92937" lon="4.73005">
        <ele>171</ele>
        <time>2018-06-27T08:28:15Z</time>
      </trkpt>
      <trkpt lat="45.92941" lon="4.73">
        <ele>171</ele>
        <time>2018-06-27T08:28:16Z</time>
      </trkpt>
      <trkpt lat="45.92945" lon="4.72996">
        <ele>171</ele>
        <time>2018-06-27T08:28:17Z</time>
      </trkpt>
      <trkpt lat="45.92949" lon="4.72991">
        <ele>171</ele>
        <time>2018-06-27T08:28:18Z</time>
      </trkpt>
      <trkpt lat="45.92953" lon="4.72986">
        <ele>171</ele>
        <time>2018-06-27T08:28:19Z</time>
      </trkpt>
      <trkpt lat="45.92958" lon="4.72982">
        <ele>171</ele>
        <time>2018-06-27T08:28:20Z</time>
      </trkpt>
      <trkpt lat="45.92962" lon="4.72976">
        <ele>171</ele>
        <time>2018-06-27T08:28:21Z</time>
      </trkpt>
      <trkpt lat="45.92967" lon="4.7297">
        <ele>171</ele>
        <time>2018-06-27T08:28:22Z</time>
      </trkpt>
      <trkpt lat="45.9297" lon="4.72965">
        <ele>171</ele>
        <time>2018-06-27T08:28:23Z</time>
      </trkpt>
      <trkpt lat="45.92976" lon="4.7296">
        <ele>171</ele>
        <time>2018-06-27T08:28:24Z</time>
      </trkpt>
      <trkpt lat="45.92979" lon="4.72955">
        <ele>171</ele>
        <time>2018-06-27T08:28:25Z</time>
      </trkpt>
      <trkpt lat="45.92984" lon="4.7295">
        <ele>171</ele>
        <time>2018-06-27T08:28:26Z</time>
      </trkpt>
      <trkpt lat="45.92987" lon="4.72947">
        <ele>171</ele>
        <time>2018-06-27T08:28:27Z</time>
      </trkpt>
      <trkpt lat="45.9299" lon="4.72941">
        <ele>171</ele>
        <time>2018-06-27T08:28:28Z</time>
      </trkpt>
      <trkpt lat="45.92995" lon="4.72936">
        <ele>171</ele>
        <time>2018-06-27T08:28:29Z</time>
      </trkpt>
      <trkpt lat="45.92999" lon="4.72931">
        <ele>171</ele>
        <time>2018-06-27T08:28:30Z</time>
      </trkpt>
      <trkpt lat="45.93004" lon="4.72924">
        <ele>170</ele>
        <time>2018-06-27T08:28:31Z</time>
      </trkpt>
      <trkpt lat="45.93008" lon="4.72918">
        <ele>170</ele>
        <time>2018-06-27T08:28:32Z</time>
      </trkpt>
      <trkpt lat="45.93013" lon="4.72913">
        <ele>171</ele>
        <time>2018-06-27T08:28:33Z</time>
      </trkpt>
      <trkpt lat="45.93017" lon="4.72908">
        <ele>171</ele>
        <time>2018-06-27T08:28:34Z</time>
      </trkpt>
      <trkpt lat="45.93021" lon="4.72901">
        <ele>172</ele>
        <time>2018-06-27T08:28:35Z</time>
      </trkpt>
      <trkpt lat="45.93026" lon="4.72895">
        <ele>172</ele>
        <time>2018-06-27T08:28:36Z</time>
      </trkpt>
      <trkpt lat="45.9303" lon="4.7289">
        <ele>172</ele>
        <time>2018-06-27T08:28:37Z</time>
      </trkpt>
      <trkpt lat="45.93035" lon="4.72883">
        <ele>172</ele>
        <time>2018-06-27T08:28:38Z</time>
      </trkpt>
      <trkpt lat="45.9304" lon="4.72878">
        <ele>172</ele>
        <time>2018-06-27T08:28:39Z</time>
      </trkpt>
      <trkpt lat="45.93044" lon="4.72873">
        <ele>172</ele>
        <time>2018-06-27T08:28:40Z</time>
      </trkpt>
      <trkpt lat="45.93048" lon="4.72868">
        <ele>172</ele>
        <time>2018-06-27T08:28:41Z</time>
      </trkpt>
      <trkpt lat="45.93053" lon="4.72865">
        <ele>172</ele>
        <time>2018-06-27T08:28:42Z</time>
      </trkpt>
      <trkpt lat="45.93057" lon="4.72861">
        <ele>172</ele>
        <time>2018-06-27T08:28:43Z</time>
      </trkpt>
      <trkpt lat="45.93061" lon="4.72856">
        <ele>172</ele>
        <time>2018-06-27T08:28:44Z</time>
      </trkpt>
      <trkpt lat="45.93065" lon="4.72851">
        <ele>172</ele>
        <time>2018-06-27T08:28:45Z</time>
      </trkpt>
      <trkpt lat="45.93069" lon="4.72847">
        <ele>172</ele>
        <time>2018-06-27T08:28:46Z</time>
      </trkpt>
      <trkpt lat="45.93106" lon="4.72803">
        <ele>171</ele>
        <time>2018-06-27T08:28:54Z</time>
      </trkpt>
      <trkpt lat="45.9311" lon="4.72801">
        <ele>171</ele>
        <time>2018-06-27T08:28:55Z</time>
      </trkpt>
      <trkpt lat="45.93115" lon="4.72796">
        <ele>171</ele>
        <time>2018-06-27T08:28:56Z</time>
      </trkpt>
      <trkpt lat="45.93119" lon="4.72791">
        <ele>171</ele>
        <time>2018-06-27T08:28:57Z</time>
      </trkpt>
      <trkpt lat="45.93124" lon="4.72785">
        <ele>171</ele>
        <time>2018-06-27T08:28:58Z</time>
      </trkpt>
      <trkpt lat="45.93129" lon="4.72778">
        <ele>171</ele>
        <time>2018-06-27T08:28:59Z</time>
      </trkpt>
      <trkpt lat="45.93133" lon="4.72774">
        <ele>171</ele>
        <time>2018-06-27T08:29:00Z</time>
      </trkpt>
      <trkpt lat="45.93138" lon="4.72768">
        <ele>171</ele>
        <time>2018-06-27T08:29:01Z</time>
      </trkpt>
      <trkpt lat="45.93143" lon="4.72763">
        <ele>171</ele>
        <time>2018-06-27T08:29:02Z</time>
      </trkpt>
      <trkpt lat="45.93148" lon="4.72757">
        <ele>170</ele>
        <time>2018-06-27T08:29:03Z</time>
      </trkpt>
      <trkpt lat="45.93153" lon="4.72751">
        <ele>170</ele>
        <time>2018-06-27T08:29:04Z</time>
      </trkpt>
      <trkpt lat="45.93157" lon="4.72746">
        <ele>170</ele>
        <time>2018-06-27T08:29:05Z</time>
      </trkpt>
      <trkpt lat="45.93162" lon="4.7274">
        <ele>170</ele>
        <time>2018-06-27T08:29:06Z</time>
      </trkpt>
      <trkpt lat="45.93166" lon="4.72735">
        <ele>170</ele>
        <time>2018-06-27T08:29:07Z</time>
      </trkpt>
      <trkpt lat="45.9317" lon="4.72731">
        <ele>170</ele>
        <time>2018-06-27T08:29:08Z</time>
      </trkpt>
      <trkpt lat="45.93177" lon="4.72722">
        <ele>170</ele>
        <time>2018-06-27T08:29:10Z</time>
      </trkpt>
      <trkpt lat="45.93181" lon="4.72718">
        <ele>169</ele>
        <time>2018-06-27T08:29:11Z</time>
      </trkpt>
      <trkpt lat="45.93184" lon="4.72715">
        <ele>169</ele>
        <time>2018-06-27T08:29:12Z</time>
      </trkpt>
      <trkpt lat="45.93188" lon="4.72709">
        <ele>169</ele>
        <time>2018-06-27T08:29:13Z</time>
      </trkpt>
      <trkpt lat="45.93192" lon="4.72704">
        <ele>169</ele>
        <time>2018-06-27T08:29:14Z</time>
      </trkpt>
      <trkpt lat="45.93196" lon="4.72698">
        <ele>169</ele>
        <time>2018-06-27T08:29:15Z</time>
      </trkpt>
      <trkpt lat="45.93202" lon="4.72692">
        <ele>169</ele>
        <time>2018-06-27T08:29:16Z</time>
      </trkpt>
      <trkpt lat="45.93206" lon="4.72688">
        <ele>169</ele>
        <time>2018-06-27T08:29:17Z</time>
      </trkpt>
      <trkpt lat="45.93211" lon="4.72682">
        <ele>169</ele>
        <time>2018-06-27T08:29:18Z</time>
      </trkpt>
      <trkpt lat="45.93215" lon="4.72677">
        <ele>169</ele>
        <time>2018-06-27T08:29:19Z</time>
      </trkpt>
      <trkpt lat="45.93219" lon="4.72672">
        <ele>169</ele>
        <time>2018-06-27T08:29:20Z</time>
      </trkpt>
      <trkpt lat="45.93225" lon="4.72665">
        <ele>170</ele>
        <time>2018-06-27T08:29:21Z</time>
      </trkpt>
      <trkpt lat="45.93229" lon="4.72661">
        <ele>169</ele>
        <time>2018-06-27T08:29:22Z</time>
      </trkpt>
      <trkpt lat="45.93232" lon="4.72656">
        <ele>169</ele>
        <time>2018-06-27T08:29:23Z</time>
      </trkpt>
      <trkpt lat="45.93236" lon="4.72652">
        <ele>169</ele>
        <time>2018-06-27T08:29:24Z</time>
      </trkpt>
      <trkpt lat="45.9324" lon="4.72647">
        <ele>170</ele>
        <time>2018-06-27T08:29:25Z</time>
      </trkpt>
      <trkpt lat="45.93245" lon="4.72642">
        <ele>170</ele>
        <time>2018-06-27T08:29:26Z</time>
      </trkpt>
      <trkpt lat="45.93248" lon="4.72637">
        <ele>170</ele>
        <time>2018-06-27T08:29:27Z</time>
      </trkpt>
      <trkpt lat="45.93252" lon="4.72632">
        <ele>170</ele>
        <time>2018-06-27T08:29:28Z</time>
      </trkpt>
      <trkpt lat="45.93256" lon="4.72628">
        <ele>170</ele>
        <time>2018-06-27T08:29:29Z</time>
      </trkpt>
      <trkpt lat="45.93261" lon="4.72623">
        <ele>170</ele>
        <time>2018-06-27T08:29:30Z</time>
      </trkpt>
      <trkpt lat="45.93265" lon="4.72617">
        <ele>170</ele>
        <time>2018-06-27T08:29:31Z</time>
      </trkpt>
      <trkpt lat="45.9327" lon="4.72612">
        <ele>170</ele>
        <time>2018-06-27T08:29:32Z</time>
      </trkpt>
      <trkpt lat="45.93277" lon="4.72606">
        <ele>170</ele>
        <time>2018-06-27T08:29:33Z</time>
      </trkpt>
      <trkpt lat="45.93282" lon="4.726">
        <ele>170</ele>
        <time>2018-06-27T08:29:34Z</time>
      </trkpt>
      <trkpt lat="45.93288" lon="4.7259">
        <ele>170</ele>
        <time>2018-06-27T08:29:35Z</time>
      </trkpt>
      <trkpt lat="45.93293" lon="4.72584">
        <ele>170</ele>
        <time>2018-06-27T08:29:36Z</time>
      </trkpt>
      <trkpt lat="45.93295" lon="4.72582">
        <ele>171</ele>
        <time>2018-06-27T08:29:37Z</time>
      </trkpt>
      <trkpt lat="45.933" lon="4.72577">
        <ele>171</ele>
        <time>2018-06-27T08:29:38Z</time>
      </trkpt>
      <trkpt lat="45.93305" lon="4.72572">
        <ele>171</ele>
        <time>2018-06-27T08:29:39Z</time>
      </trkpt>
      <trkpt lat="45.93309" lon="4.72568">
        <ele>171</ele>
        <time>2018-06-27T08:29:40Z</time>
      </trkpt>
      <trkpt lat="45.93313" lon="4.7256">
        <ele>171</ele>
        <time>2018-06-27T08:29:41Z</time>
      </trkpt>
      <trkpt lat="45.93317" lon="4.72555">
        <ele>172</ele>
        <time>2018-06-27T08:29:42Z</time>
      </trkpt>
      <trkpt lat="45.93322" lon="4.7255">
        <ele>172</ele>
        <time>2018-06-27T08:29:43Z</time>
      </trkpt>
      <trkpt lat="45.93326" lon="4.72545">
        <ele>172</ele>
        <time>2018-06-27T08:29:44Z</time>
      </trkpt>
      <trkpt lat="45.9333" lon="4.72541">
        <ele>172</ele>
        <time>2018-06-27T08:29:45Z</time>
      </trkpt>
      <trkpt lat="45.93335" lon="4.72535">
        <ele>172</ele>
        <time>2018-06-27T08:29:46Z</time>
      </trkpt>
      <trkpt lat="45.93339" lon="4.72532">
        <ele>172</ele>
        <time>2018-06-27T08:29:47Z</time>
      </trkpt>
      <trkpt lat="45.93344" lon="4.72527">
        <ele>172</ele>
        <time>2018-06-27T08:29:48Z</time>
      </trkpt>
      <trkpt lat="45.93348" lon="4.72521">
        <ele>172</ele>
        <time>2018-06-27T08:29:49Z</time>
      </trkpt>
      <trkpt lat="45.93353" lon="4.72516">
        <ele>172</ele>
        <time>2018-06-27T08:29:50Z</time>
      </trkpt>
      <trkpt lat="45.93357" lon="4.72511">
        <ele>172</ele>
        <time>2018-06-27T08:29:51Z</time>
      </trkpt>
      <trkpt lat="45.9336" lon="4.72506">
        <ele>172</ele>
        <time>2018-06-27T08:29:52Z</time>
      </trkpt>
      <trkpt lat="45.93364" lon="4.72502">
        <ele>172</ele>
        <time>2018-06-27T08:29:53Z</time>
      </trkpt>
      <trkpt lat="45.93371" lon="4.72494">
        <ele>173</ele>
        <time>2018-06-27T08:29:55Z</time>
      </trkpt>
      <trkpt lat="45.93375" lon="4.72489">
        <ele>173</ele>
        <time>2018-06-27T08:29:56Z</time>
      </trkpt>
      <trkpt lat="45.93378" lon="4.72484">
        <ele>173</ele>
        <time>2018-06-27T08:29:57Z</time>
      </trkpt>
      <trkpt lat="45.93382" lon="4.7248">
        <ele>173</ele>
        <time>2018-06-27T08:29:58Z</time>
      </trkpt>
      <trkpt lat="45.93387" lon="4.72475">
        <ele>173</ele>
        <time>2018-06-27T08:29:59Z</time>
      </trkpt>
      <trkpt lat="45.93389" lon="4.7247">
        <ele>173</ele>
        <time>2018-06-27T08:30:00Z</time>
      </trkpt>
      <trkpt lat="45.93393" lon="4.72463">
        <ele>173</ele>
        <time>2018-06-27T08:30:01Z</time>
      </trkpt>
      <trkpt lat="45.93396" lon="4.72455">
        <ele>173</ele>
        <time>2018-06-27T08:30:02Z</time>
      </trkpt>
      <trkpt lat="45.93398" lon="4.72443">
        <ele>173</ele>
        <time>2018-06-27T08:30:04Z</time>
      </trkpt>
      <trkpt lat="45.93403" lon="4.72434">
        <ele>173</ele>
        <time>2018-06-27T08:30:05Z</time>
      </trkpt>
      <trkpt lat="45.93406" lon="4.72428">
        <ele>173</ele>
        <time>2018-06-27T08:30:06Z</time>
      </trkpt>
      <trkpt lat="45.9341" lon="4.72422">
        <ele>174</ele>
        <time>2018-06-27T08:30:07Z</time>
      </trkpt>
      <trkpt lat="45.93415" lon="4.72418">
        <ele>174</ele>
        <time>2018-06-27T08:30:08Z</time>
      </trkpt>
      <trkpt lat="45.9342" lon="4.72415">
        <ele>174</ele>
        <time>2018-06-27T08:30:09Z</time>
      </trkpt>
      <trkpt lat="45.93425" lon="4.72412">
        <ele>174</ele>
        <time>2018-06-27T08:30:10Z</time>
      </trkpt>
      <trkpt lat="45.93431" lon="4.72409">
        <ele>174</ele>
        <time>2018-06-27T08:30:11Z</time>
      </trkpt>
      <trkpt lat="45.93435" lon="4.72407">
        <ele>174</ele>
        <time>2018-06-27T08:30:12Z</time>
      </trkpt>
      <trkpt lat="45.93441" lon="4.72404">
        <ele>173</ele>
        <time>2018-06-27T08:30:13Z</time>
      </trkpt>
      <trkpt lat="45.93446" lon="4.72401">
        <ele>173</ele>
        <time>2018-06-27T08:30:14Z</time>
      </trkpt>
      <trkpt lat="45.93452" lon="4.72397">
        <ele>173</ele>
        <time>2018-06-27T08:30:15Z</time>
      </trkpt>
      <trkpt lat="45.93456" lon="4.72392">
        <ele>173</ele>
        <time>2018-06-27T08:30:16Z</time>
      </trkpt>
      <trkpt lat="45.9346" lon="4.72389">
        <ele>173</ele>
        <time>2018-06-27T08:30:17Z</time>
      </trkpt>
      <trkpt lat="45.93464" lon="4.72384">
        <ele>173</ele>
        <time>2018-06-27T08:30:18Z</time>
      </trkpt>
      <trkpt lat="45.93467" lon="4.7238">
        <ele>173</ele>
        <time>2018-06-27T08:30:19Z</time>
      </trkpt>
      <trkpt lat="45.93471" lon="4.72374">
        <ele>173</ele>
        <time>2018-06-27T08:30:20Z</time>
      </trkpt>
      <trkpt lat="45.93474" lon="4.72371">
        <ele>173</ele>
        <time>2018-06-27T08:30:21Z</time>
      </trkpt>
      <trkpt lat="45.93479" lon="4.72365">
        <ele>173</ele>
        <time>2018-06-27T08:30:22Z</time>
      </trkpt>
      <trkpt lat="45.93484" lon="4.72359">
        <ele>173</ele>
        <time>2018-06-27T08:30:23Z</time>
      </trkpt>
      <trkpt lat="45.93488" lon="4.72353">
        <ele>173</ele>
        <time>2018-06-27T08:30:24Z</time>
      </trkpt>
      <trkpt lat="45.93494" lon="4.7234">
        <ele>173</ele>
        <time>2018-06-27T08:30:25Z</time>
      </trkpt>
      <trkpt lat="45.935" lon="4.72333">
        <ele>173</ele>
        <time>2018-06-27T08:30:26Z</time>
      </trkpt>
      <trkpt lat="45.93504" lon="4.7233">
        <ele>173</ele>
        <time>2018-06-27T08:30:27Z</time>
      </trkpt>
      <trkpt lat="45.93509" lon="4.7232">
        <ele>173</ele>
        <time>2018-06-27T08:30:29Z</time>
      </trkpt>
      <trkpt lat="45.93512" lon="4.72314">
        <ele>173</ele>
        <time>2018-06-27T08:30:30Z</time>
      </trkpt>
      <trkpt lat="45.93516" lon="4.72309">
        <ele>173</ele>
        <time>2018-06-27T08:30:31Z</time>
      </trkpt>
      <trkpt lat="45.93518" lon="4.72304">
        <ele>173</ele>
        <time>2018-06-27T08:30:32Z</time>
      </trkpt>
      <trkpt lat="45.93522" lon="4.72298">
        <ele>172</ele>
        <time>2018-06-27T08:30:33Z</time>
      </trkpt>
      <trkpt lat="45.93524" lon="4.72292">
        <ele>172</ele>
        <time>2018-06-27T08:30:34Z</time>
      </trkpt>
      <trkpt lat="45.93526" lon="4.72284">
        <ele>172</ele>
        <time>2018-06-27T08:30:35Z</time>
      </trkpt>
      <trkpt lat="45.93529" lon="4.72278">
        <ele>172</ele>
        <time>2018-06-27T08:30:36Z</time>
      </trkpt>
      <trkpt lat="45.93532" lon="4.72272">
        <ele>172</ele>
        <time>2018-06-27T08:30:37Z</time>
      </trkpt>
      <trkpt lat="45.93534" lon="4.72266">
        <ele>172</ele>
        <time>2018-06-27T08:30:38Z</time>
      </trkpt>
      <trkpt lat="45.93538" lon="4.72258">
        <ele>172</ele>
        <time>2018-06-27T08:30:39Z</time>
      </trkpt>
      <trkpt lat="45.93541" lon="4.72252">
        <ele>172</ele>
        <time>2018-06-27T08:30:40Z</time>
      </trkpt>
      <trkpt lat="45.93545" lon="4.72241">
        <ele>172</ele>
        <time>2018-06-27T08:30:42Z</time>
      </trkpt>
      <trkpt lat="45.93548" lon="4.72235">
        <ele>172</ele>
        <time>2018-06-27T08:30:43Z</time>
      </trkpt>
      <trkpt lat="45.93551" lon="4.72229">
        <ele>172</ele>
        <time>2018-06-27T08:30:44Z</time>
      </trkpt>
      <trkpt lat="45.93554" lon="4.72226">
        <ele>173</ele>
        <time>2018-06-27T08:30:45Z</time>
      </trkpt>
      <trkpt lat="45.93559" lon="4.72221">
        <ele>173</ele>
        <time>2018-06-27T08:30:46Z</time>
      </trkpt>
      <trkpt lat="45.93564" lon="4.72223">
        <ele>173</ele>
        <time>2018-06-27T08:30:47Z</time>
      </trkpt>
      <trkpt lat="45.9357" lon="4.72224">
        <ele>173</ele>
        <time>2018-06-27T08:30:48Z</time>
      </trkpt>
      <trkpt lat="45.93574" lon="4.72228">
        <ele>173</ele>
        <time>2018-06-27T08:30:49Z</time>
      </trkpt>
      <trkpt lat="45.93578" lon="4.72233">
        <ele>173</ele>
        <time>2018-06-27T08:30:50Z</time>
      </trkpt>
      <trkpt lat="45.93582" lon="4.72239">
        <ele>173</ele>
        <time>2018-06-27T08:30:51Z</time>
      </trkpt>
      <trkpt lat="45.93589" lon="4.72246">
        <ele>173</ele>
        <time>2018-06-27T08:30:53Z</time>
      </trkpt>
      <trkpt lat="45.93594" lon="4.7225">
        <ele>173</ele>
        <time>2018-06-27T08:30:54Z</time>
      </trkpt>
      <trkpt lat="45.93599" lon="4.72256">
        <ele>173</ele>
        <time>2018-06-27T08:30:56Z</time>
      </trkpt>
      <trkpt lat="45.93603" lon="4.7226">
        <ele>173</ele>
        <time>2018-06-27T08:30:57Z</time>
      </trkpt>
      <trkpt lat="45.93607" lon="4.72263">
        <ele>173</ele>
        <time>2018-06-27T08:30:58Z</time>
      </trkpt>
      <trkpt lat="45.93611" lon="4.72268">
        <ele>172</ele>
        <time>2018-06-27T08:30:59Z</time>
      </trkpt>
      <trkpt lat="45.93615" lon="4.72273">
        <ele>172</ele>
        <time>2018-06-27T08:31:00Z</time>
      </trkpt>
      <trkpt lat="45.93618" lon="4.72276">
        <ele>172</ele>
        <time>2018-06-27T08:31:01Z</time>
      </trkpt>
      <trkpt lat="45.93622" lon="4.7228">
        <ele>172</ele>
        <time>2018-06-27T08:31:02Z</time>
      </trkpt>
      <trkpt lat="45.93626" lon="4.72285">
        <ele>172</ele>
        <time>2018-06-27T08:31:03Z</time>
      </trkpt>
      <trkpt lat="45.93631" lon="4.72291">
        <ele>172</ele>
        <time>2018-06-27T08:31:04Z</time>
      </trkpt>
      <trkpt lat="45.93636" lon="4.72295">
        <ele>172</ele>
        <time>2018-06-27T08:31:05Z</time>
      </trkpt>
      <trkpt lat="45.93641" lon="4.723">
        <ele>172</ele>
        <time>2018-06-27T08:31:06Z</time>
      </trkpt>
      <trkpt lat="45.93646" lon="4.72306">
        <ele>172</ele>
        <time>2018-06-27T08:31:07Z</time>
      </trkpt>
      <trkpt lat="45.9365" lon="4.7231">
        <ele>172</ele>
        <time>2018-06-27T08:31:08Z</time>
      </trkpt>
      <trkpt lat="45.93655" lon="4.72314">
        <ele>172</ele>
        <time>2018-06-27T08:31:09Z</time>
      </trkpt>
      <trkpt lat="45.9366" lon="4.72318">
        <ele>172</ele>
        <time>2018-06-27T08:31:10Z</time>
      </trkpt>
      <trkpt lat="45.93664" lon="4.72322">
        <ele>171</ele>
        <time>2018-06-27T08:31:11Z</time>
      </trkpt>
      <trkpt lat="45.9367" lon="4.72329">
        <ele>171</ele>
        <time>2018-06-27T08:31:13Z</time>
      </trkpt>
      <trkpt lat="45.93674" lon="4.72333">
        <ele>171</ele>
        <time>2018-06-27T08:31:14Z</time>
      </trkpt>
      <trkpt lat="45.93677" lon="4.72338">
        <ele>171</ele>
        <time>2018-06-27T08:31:15Z</time>
      </trkpt>
      <trkpt lat="45.93682" lon="4.72342">
        <ele>171</ele>
        <time>2018-06-27T08:31:16Z</time>
      </trkpt>
      <trkpt lat="45.93686" lon="4.72347">
        <ele>171</ele>
        <time>2018-06-27T08:31:17Z</time>
      </trkpt>
      <trkpt lat="45.93709" lon="4.72368">
        <ele>172</ele>
        <time>2018-06-27T08:31:22Z</time>
      </trkpt>
      <trkpt lat="45.93716" lon="4.72372">
        <ele>172</ele>
        <time>2018-06-27T08:31:23Z</time>
      </trkpt>
      <trkpt lat="45.93723" lon="4.72377">
        <ele>171</ele>
        <time>2018-06-27T08:31:24Z</time>
      </trkpt>
      <trkpt lat="45.93728" lon="4.72382">
        <ele>171</ele>
        <time>2018-06-27T08:31:25Z</time>
      </trkpt>
      <trkpt lat="45.93733" lon="4.72387">
        <ele>171</ele>
        <time>2018-06-27T08:31:26Z</time>
      </trkpt>
      <trkpt lat="45.9374" lon="4.72396">
        <ele>171</ele>
        <time>2018-06-27T08:31:28Z</time>
      </trkpt>
      <trkpt lat="45.93744" lon="4.724">
        <ele>171</ele>
        <time>2018-06-27T08:31:29Z</time>
      </trkpt>
      <trkpt lat="45.93749" lon="4.72405">
        <ele>171</ele>
        <time>2018-06-27T08:31:30Z</time>
      </trkpt>
      <trkpt lat="45.93754" lon="4.72411">
        <ele>171</ele>
        <time>2018-06-27T08:31:31Z</time>
      </trkpt>
      <trkpt lat="45.93758" lon="4.72414">
        <ele>171</ele>
        <time>2018-06-27T08:31:32Z</time>
      </trkpt>
      <trkpt lat="45.93762" lon="4.72417">
        <ele>171</ele>
        <time>2018-06-27T08:31:33Z</time>
      </trkpt>
      <trkpt lat="45.93768" lon="4.72426">
        <ele>171</ele>
        <time>2018-06-27T08:31:35Z</time>
      </trkpt>
      <trkpt lat="45.93772" lon="4.72429">
        <ele>171</ele>
        <time>2018-06-27T08:31:36Z</time>
      </trkpt>
      <trkpt lat="45.93779" lon="4.72435">
        <ele>172</ele>
        <time>2018-06-27T08:31:38Z</time>
      </trkpt>
      <trkpt lat="45.93785" lon="4.72438">
        <ele>172</ele>
        <time>2018-06-27T08:31:39Z</time>
      </trkpt>
      <trkpt lat="45.93789" lon="4.72442">
        <ele>172</ele>
        <time>2018-06-27T08:31:40Z</time>
      </trkpt>
      <trkpt lat="45.93793" lon="4.72447">
        <ele>172</ele>
        <time>2018-06-27T08:31:41Z</time>
      </trkpt>
      <trkpt lat="45.93799" lon="4.72452">
        <ele>172</ele>
        <time>2018-06-27T08:31:42Z</time>
      </trkpt>
      <trkpt lat="45.93803" lon="4.72456">
        <ele>172</ele>
        <time>2018-06-27T08:31:43Z</time>
      </trkpt>
      <trkpt lat="45.93811" lon="4.72463">
        <ele>172</ele>
        <time>2018-06-27T08:31:45Z</time>
      </trkpt>
      <trkpt lat="45.93815" lon="4.72468">
        <ele>172</ele>
        <time>2018-06-27T08:31:46Z</time>
      </trkpt>
      <trkpt lat="45.93819" lon="4.72474">
        <ele>172</ele>
        <time>2018-06-27T08:31:47Z</time>
      </trkpt>
      <trkpt lat="45.93824" lon="4.7248">
        <ele>173</ele>
        <time>2018-06-27T08:31:48Z</time>
      </trkpt>
      <trkpt lat="45.93826" lon="4.72484">
        <ele>173</ele>
        <time>2018-06-27T08:31:49Z</time>
      </trkpt>
      <trkpt lat="45.93831" lon="4.72487">
        <ele>173</ele>
        <time>2018-06-27T08:31:50Z</time>
      </trkpt>
      <trkpt lat="45.93857" lon="4.72504">
        <ele>173</ele>
        <time>2018-06-27T08:31:57Z</time>
      </trkpt>
      <trkpt lat="45.93864" lon="4.72515">
        <ele>173</ele>
        <time>2018-06-27T08:31:58Z</time>
      </trkpt>
      <trkpt lat="45.93869" lon="4.72516">
        <ele>173</ele>
        <time>2018-06-27T08:31:59Z</time>
      </trkpt>
      <trkpt lat="45.93873" lon="4.72515">
        <ele>173</ele>
        <time>2018-06-27T08:32:00Z</time>
      </trkpt>
      <trkpt lat="45.93879" lon="4.72513">
        <ele>173</ele>
        <time>2018-06-27T08:32:01Z</time>
      </trkpt>
      <trkpt lat="45.93883" lon="4.72509">
        <ele>173</ele>
        <time>2018-06-27T08:32:02Z</time>
      </trkpt>
      <trkpt lat="45.93888" lon="4.72504">
        <ele>173</ele>
        <time>2018-06-27T08:32:03Z</time>
      </trkpt>
      <trkpt lat="45.93892" lon="4.72498">
        <ele>172</ele>
        <time>2018-06-27T08:32:04Z</time>
      </trkpt>
      <trkpt lat="45.93898" lon="4.72492">
        <ele>172</ele>
        <time>2018-06-27T08:32:05Z</time>
      </trkpt>
      <trkpt lat="45.93902" lon="4.72486">
        <ele>172</ele>
        <time>2018-06-27T08:32:06Z</time>
      </trkpt>
      <trkpt lat="45.93905" lon="4.7248">
        <ele>172</ele>
        <time>2018-06-27T08:32:07Z</time>
      </trkpt>
      <trkpt lat="45.9391" lon="4.72474">
        <ele>172</ele>
        <time>2018-06-27T08:32:08Z</time>
      </trkpt>
      <trkpt lat="45.93915" lon="4.72469">
        <ele>172</ele>
        <time>2018-06-27T08:32:09Z</time>
      </trkpt>
      <trkpt lat="45.93919" lon="4.72464">
        <ele>171</ele>
        <time>2018-06-27T08:32:10Z</time>
      </trkpt>
      <trkpt lat="45.93924" lon="4.72459">
        <ele>171</ele>
        <time>2018-06-27T08:32:11Z</time>
      </trkpt>
      <trkpt lat="45.93928" lon="4.72453">
        <ele>171</ele>
        <time>2018-06-27T08:32:12Z</time>
      </trkpt>
      <trkpt lat="45.93932" lon="4.72447">
        <ele>171</ele>
        <time>2018-06-27T08:32:13Z</time>
      </trkpt>
      <trkpt lat="45.93937" lon="4.72442">
        <ele>171</ele>
        <time>2018-06-27T08:32:14Z</time>
      </trkpt>
      <trkpt lat="45.93942" lon="4.72436">
        <ele>171</ele>
        <time>2018-06-27T08:32:15Z</time>
      </trkpt>
      <trkpt lat="45.93946" lon="4.72429">
        <ele>171</ele>
        <time>2018-06-27T08:32:16Z</time>
      </trkpt>
      <trkpt lat="45.93951" lon="4.72423">
        <ele>171</ele>
        <time>2018-06-27T08:32:17Z</time>
      </trkpt>
      <trkpt lat="45.93957" lon="4.72418">
        <ele>171</ele>
        <time>2018-06-27T08:32:18Z</time>
      </trkpt>
      <trkpt lat="45.93962" lon="4.72413">
        <ele>171</ele>
        <time>2018-06-27T08:32:19Z</time>
      </trkpt>
      <trkpt lat="45.93967" lon="4.72406">
        <ele>171</ele>
        <time>2018-06-27T08:32:20Z</time>
      </trkpt>
      <trkpt lat="45.93972" lon="4.72401">
        <ele>171</ele>
        <time>2018-06-27T08:32:21Z</time>
      </trkpt>
      <trkpt lat="45.93976" lon="4.72396">
        <ele>171</ele>
        <time>2018-06-27T08:32:22Z</time>
      </trkpt>
      <trkpt lat="45.93981" lon="4.7239">
        <ele>171</ele>
        <time>2018-06-27T08:32:23Z</time>
      </trkpt>
      <trkpt lat="45.93985" lon="4.72385">
        <ele>171</ele>
        <time>2018-06-27T08:32:24Z</time>
      </trkpt>
      <trkpt lat="45.93989" lon="4.7238">
        <ele>171</ele>
        <time>2018-06-27T08:32:25Z</time>
      </trkpt>
      <trkpt lat="45.93994" lon="4.72374">
        <ele>171</ele>
        <time>2018-06-27T08:32:26Z</time>
      </trkpt>
      <trkpt lat="45.93999" lon="4.72368">
        <ele>171</ele>
        <time>2018-06-27T08:32:27Z</time>
      </trkpt>
      <trkpt lat="45.94004" lon="4.72363">
        <ele>171</ele>
        <time>2018-06-27T08:32:28Z</time>
      </trkpt>
      <trkpt lat="45.94008" lon="4.72357">
        <ele>171</ele>
        <time>2018-06-27T08:32:29Z</time>
      </trkpt>
      <trkpt lat="45.94014" lon="4.7235">
        <ele>171</ele>
        <time>2018-06-27T08:32:30Z</time>
      </trkpt>
      <trkpt lat="45.94018" lon="4.72345">
        <ele>171</ele>
        <time>2018-06-27T08:32:31Z</time>
      </trkpt>
      <trkpt lat="45.94022" lon="4.72339">
        <ele>171</ele>
        <time>2018-06-27T08:32:32Z</time>
      </trkpt>
      <trkpt lat="45.94027" lon="4.72334">
        <ele>171</ele>
        <time>2018-06-27T08:32:33Z</time>
      </trkpt>
      <trkpt lat="45.94031" lon="4.72326">
        <ele>171</ele>
        <time>2018-06-27T08:32:34Z</time>
      </trkpt>
      <trkpt lat="45.94035" lon="4.72321">
        <ele>171</ele>
        <time>2018-06-27T08:32:35Z</time>
      </trkpt>
      <trkpt lat="45.94039" lon="4.72317">
        <ele>171</ele>
        <time>2018-06-27T08:32:36Z</time>
      </trkpt>
      <trkpt lat="45.94043" lon="4.72312">
        <ele>171</ele>
        <time>2018-06-27T08:32:37Z</time>
      </trkpt>
      <trkpt lat="45.94047" lon="4.72307">
        <ele>171</ele>
        <time>2018-06-27T08:32:38Z</time>
      </trkpt>
      <trkpt lat="45.94051" lon="4.723">
        <ele>171</ele>
        <time>2018-06-27T08:32:39Z</time>
      </trkpt>
      <trkpt lat="45.94055" lon="4.72296">
        <ele>171</ele>
        <time>2018-06-27T08:32:40Z</time>
      </trkpt>
      <trkpt lat="45.94061" lon="4.72288">
        <ele>171</ele>
        <time>2018-06-27T08:32:42Z</time>
      </trkpt>
      <trkpt lat="45.94066" lon="4.72283">
        <ele>171</ele>
        <time>2018-06-27T08:32:43Z</time>
      </trkpt>
      <trkpt lat="45.9407" lon="4.72277">
        <ele>171</ele>
        <time>2018-06-27T08:32:44Z</time>
      </trkpt>
      <trkpt lat="45.94075" lon="4.72276">
        <ele>171</ele>
        <time>2018-06-27T08:32:45Z</time>
      </trkpt>
      <trkpt lat="45.94079" lon="4.72271">
        <ele>171</ele>
        <time>2018-06-27T08:32:46Z</time>
      </trkpt>
      <trkpt lat="45.94085" lon="4.72268">
        <ele>171</ele>
        <time>2018-06-27T08:32:47Z</time>
      </trkpt>
      <trkpt lat="45.9409" lon="4.72267">
        <ele>171</ele>
        <time>2018-06-27T08:32:48Z</time>
      </trkpt>
      <trkpt lat="45.94095" lon="4.72266">
        <ele>171</ele>
        <time>2018-06-27T08:32:49Z</time>
      </trkpt>
      <trkpt lat="45.94099" lon="4.72267">
        <ele>171</ele>
        <time>2018-06-27T08:32:50Z</time>
      </trkpt>
      <trkpt lat="45.94106" lon="4.72266">
        <ele>171</ele>
        <time>2018-06-27T08:32:51Z</time>
      </trkpt>
      <trkpt lat="45.94111" lon="4.72268">
        <ele>171</ele>
        <time>2018-06-27T08:32:52Z</time>
      </trkpt>
      <trkpt lat="45.94117" lon="4.72266">
        <ele>171</ele>
        <time>2018-06-27T08:32:53Z</time>
      </trkpt>
      <trkpt lat="45.94122" lon="4.72268">
        <ele>171</ele>
        <time>2018-06-27T08:32:54Z</time>
      </trkpt>
      <trkpt lat="45.94127" lon="4.72271">
        <ele>171</ele>
        <time>2018-06-27T08:32:55Z</time>
      </trkpt>
      <trkpt lat="45.94132" lon="4.72274">
        <ele>171</ele>
        <time>2018-06-27T08:32:56Z</time>
      </trkpt>
      <trkpt lat="45.94136" lon="4.72277">
        <ele>171</ele>
        <time>2018-06-27T08:32:57Z</time>
      </trkpt>
      <trkpt lat="45.94142" lon="4.7228">
        <ele>171</ele>
        <time>2018-06-27T08:32:58Z</time>
      </trkpt>
      <trkpt lat="45.94147" lon="4.72283">
        <ele>171</ele>
        <time>2018-06-27T08:32:59Z</time>
      </trkpt>
      <trkpt lat="45.94151" lon="4.72286">
        <ele>171</ele>
        <time>2018-06-27T08:33:00Z</time>
      </trkpt>
      <trkpt lat="45.94157" lon="4.72288">
        <ele>171</ele>
        <time>2018-06-27T08:33:01Z</time>
      </trkpt>
      <trkpt lat="45.94162" lon="4.72289">
        <ele>171</ele>
        <time>2018-06-27T08:33:02Z</time>
      </trkpt>
      <trkpt lat="45.94167" lon="4.7229">
        <ele>171</ele>
        <time>2018-06-27T08:33:03Z</time>
      </trkpt>
      <trkpt lat="45.94173" lon="4.72291">
        <ele>171</ele>
        <time>2018-06-27T08:33:04Z</time>
      </trkpt>
      <trkpt lat="45.94178" lon="4.72291">
        <ele>171</ele>
        <time>2018-06-27T08:33:05Z</time>
      </trkpt>
      <trkpt lat="45.94184" lon="4.72292">
        <ele>171</ele>
        <time>2018-06-27T08:33:06Z</time>
      </trkpt>
      <trkpt lat="45.94188" lon="4.72293">
        <ele>171</ele>
        <time>2018-06-27T08:33:07Z</time>
      </trkpt>
      <trkpt lat="45.94193" lon="4.72294">
        <ele>171</ele>
        <time>2018-06-27T08:33:08Z</time>
      </trkpt>
      <trkpt lat="45.94197" lon="4.72293">
        <ele>171</ele>
        <time>2018-06-27T08:33:09Z</time>
      </trkpt>
      <trkpt lat="45.94203" lon="4.72293">
        <ele>171</ele>
        <time>2018-06-27T08:33:10Z</time>
      </trkpt>
      <trkpt lat="45.94209" lon="4.72293">
        <ele>171</ele>
        <time>2018-06-27T08:33:11Z</time>
      </trkpt>
      <trkpt lat="45.94214" lon="4.72292">
        <ele>171</ele>
        <time>2018-06-27T08:33:12Z</time>
      </trkpt>
      <trkpt lat="45.94219" lon="4.72292">
        <ele>171</ele>
        <time>2018-06-27T08:33:13Z</time>
      </trkpt>
      <trkpt lat="45.94224" lon="4.72292">
        <ele>171</ele>
        <time>2018-06-27T08:33:14Z</time>
      </trkpt>
      <trkpt lat="45.94229" lon="4.72291">
        <ele>171</ele>
        <time>2018-06-27T08:33:15Z</time>
      </trkpt>
      <trkpt lat="45.94233" lon="4.72291">
        <ele>171</ele>
        <time>2018-06-27T08:33:16Z</time>
      </trkpt>
      <trkpt lat="45.94238" lon="4.7229">
        <ele>171</ele>
        <time>2018-06-27T08:33:17Z</time>
      </trkpt>
      <trkpt lat="45.94243" lon="4.72287">
        <ele>171</ele>
        <time>2018-06-27T08:33:18Z</time>
      </trkpt>
      <trkpt lat="45.94247" lon="4.72285">
        <ele>171</ele>
        <time>2018-06-27T08:33:19Z</time>
      </trkpt>
      <trkpt lat="45.94251" lon="4.72282">
        <ele>171</ele>
        <time>2018-06-27T08:33:20Z</time>
      </trkpt>
      <trkpt lat="45.94256" lon="4.7228">
        <ele>171</ele>
        <time>2018-06-27T08:33:21Z</time>
      </trkpt>
      <trkpt lat="45.94263" lon="4.72277">
        <ele>171</ele>
        <time>2018-06-27T08:33:23Z</time>
      </trkpt>
      <trkpt lat="45.94268" lon="4.72277">
        <ele>171</ele>
        <time>2018-06-27T08:33:24Z</time>
      </trkpt>
      <trkpt lat="45.94276" lon="4.72282">
        <ele>171</ele>
        <time>2018-06-27T08:33:26Z</time>
      </trkpt>
      <trkpt lat="45.94279" lon="4.72287">
        <ele>171</ele>
        <time>2018-06-27T08:33:27Z</time>
      </trkpt>
      <trkpt lat="45.94282" lon="4.72294">
        <ele>171</ele>
        <time>2018-06-27T08:33:28Z</time>
      </trkpt>
      <trkpt lat="45.94287" lon="4.72299">
        <ele>171</ele>
        <time>2018-06-27T08:33:29Z</time>
      </trkpt>
      <trkpt lat="45.9429" lon="4.72305">
        <ele>171</ele>
        <time>2018-06-27T08:33:30Z</time>
      </trkpt>
      <trkpt lat="45.94293" lon="4.72311">
        <ele>171</ele>
        <time>2018-06-27T08:33:31Z</time>
      </trkpt>
      <trkpt lat="45.94295" lon="4.72317">
        <ele>171</ele>
        <time>2018-06-27T08:33:32Z</time>
      </trkpt>
      <trkpt lat="45.94297" lon="4.72324">
        <ele>171</ele>
        <time>2018-06-27T08:33:33Z</time>
      </trkpt>
      <trkpt lat="45.94299" lon="4.7233">
        <ele>171</ele>
        <time>2018-06-27T08:33:34Z</time>
      </trkpt>
      <trkpt lat="45.94302" lon="4.72336">
        <ele>172</ele>
        <time>2018-06-27T08:33:35Z</time>
      </trkpt>
      <trkpt lat="45.94304" lon="4.72341">
        <ele>172</ele>
        <time>2018-06-27T08:33:36Z</time>
      </trkpt>
      <trkpt lat="45.94307" lon="4.72347">
        <ele>172</ele>
        <time>2018-06-27T08:33:37Z</time>
      </trkpt>
      <trkpt lat="45.94309" lon="4.72352">
        <ele>172</ele>
        <time>2018-06-27T08:33:38Z</time>
      </trkpt>
      <trkpt lat="45.94312" lon="4.72359">
        <ele>172</ele>
        <time>2018-06-27T08:33:39Z</time>
      </trkpt>
      <trkpt lat="45.94314" lon="4.72365">
        <ele>172</ele>
        <time>2018-06-27T08:33:40Z</time>
      </trkpt>
      <trkpt lat="45.94318" lon="4.72369">
        <ele>172</ele>
        <time>2018-06-27T08:33:41Z</time>
      </trkpt>
      <trkpt lat="45.94322" lon="4.72374">
        <ele>172</ele>
        <time>2018-06-27T08:33:42Z</time>
      </trkpt>
      <trkpt lat="45.94325" lon="4.7238">
        <ele>172</ele>
        <time>2018-06-27T08:33:43Z</time>
      </trkpt>
      <trkpt lat="45.94328" lon="4.72388">
        <ele>172</ele>
        <time>2018-06-27T08:33:44Z</time>
      </trkpt>
      <trkpt lat="45.94331" lon="4.72395">
        <ele>172</ele>
        <time>2018-06-27T08:33:45Z</time>
      </trkpt>
      <trkpt lat="45.94334" lon="4.72402">
        <ele>173</ele>
        <time>2018-06-27T08:33:46Z</time>
      </trkpt>
      <trkpt lat="45.94337" lon="4.72408">
        <ele>173</ele>
        <time>2018-06-27T08:33:47Z</time>
      </trkpt>
      <trkpt lat="45.94339" lon="4.72414">
        <ele>173</ele>
        <time>2018-06-27T08:33:48Z</time>
      </trkpt>
      <trkpt lat="45.94342" lon="4.7242">
        <ele>173</ele>
        <time>2018-06-27T08:33:49Z</time>
      </trkpt>
      <trkpt lat="45.94345" lon="4.72427">
        <ele>173</ele>
        <time>2018-06-27T08:33:50Z</time>
      </trkpt>
      <trkpt lat="45.94347" lon="4.72433">
        <ele>173</ele>
        <time>2018-06-27T08:33:51Z</time>
      </trkpt>
      <trkpt lat="45.94351" lon="4.7244">
        <ele>173</ele>
        <time>2018-06-27T08:33:52Z</time>
      </trkpt>
      <trkpt lat="45.94353" lon="4.72446">
        <ele>173</ele>
        <time>2018-06-27T08:33:53Z</time>
      </trkpt>
      <trkpt lat="45.94356" lon="4.72452">
        <ele>173</ele>
        <time>2018-06-27T08:33:54Z</time>
      </trkpt>
      <trkpt lat="45.94359" lon="4.72458">
        <ele>173</ele>
        <time>2018-06-27T08:33:55Z</time>
      </trkpt>
      <trkpt lat="45.94361" lon="4.72465">
        <ele>173</ele>
        <time>2018-06-27T08:33:56Z</time>
      </trkpt>
      <trkpt lat="45.94364" lon="4.72471">
        <ele>173</ele>
        <time>2018-06-27T08:33:57Z</time>
      </trkpt>
      <trkpt lat="45.94368" lon="4.72478">
        <ele>173</ele>
        <time>2018-06-27T08:33:58Z</time>
      </trkpt>
      <trkpt lat="45.94371" lon="4.72486">
        <ele>173</ele>
        <time>2018-06-27T08:33:59Z</time>
      </trkpt>
      <trkpt lat="45.94374" lon="4.72492">
        <ele>173</ele>
        <time>2018-06-27T08:34:00Z</time>
      </trkpt>
      <trkpt lat="45.94375" lon="4.72497">
        <ele>173</ele>
        <time>2018-06-27T08:34:01Z</time>
      </trkpt>
      <trkpt lat="45.94378" lon="4.72504">
        <ele>174</ele>
        <time>2018-06-27T08:34:02Z</time>
      </trkpt>
      <trkpt lat="45.9438" lon="4.72512">
        <ele>174</ele>
        <time>2018-06-27T08:34:03Z</time>
      </trkpt>
      <trkpt lat="45.94382" lon="4.7252">
        <ele>174</ele>
        <time>2018-06-27T08:34:04Z</time>
      </trkpt>
      <trkpt lat="45.94385" lon="4.72527">
        <ele>174</ele>
        <time>2018-06-27T08:34:05Z</time>
      </trkpt>
      <trkpt lat="45.94385" lon="4.72537">
        <ele>174</ele>
        <time>2018-06-27T08:34:06Z</time>
      </trkpt>
      <trkpt lat="45.94389" lon="4.72545">
        <ele>173</ele>
        <time>2018-06-27T08:34:07Z</time>
      </trkpt>
      <trkpt lat="45.9439" lon="4.72553">
        <ele>173</ele>
        <time>2018-06-27T08:34:08Z</time>
      </trkpt>
      <trkpt lat="45.94392" lon="4.72562">
        <ele>173</ele>
        <time>2018-06-27T08:34:09Z</time>
      </trkpt>
      <trkpt lat="45.94392" lon="4.7257">
        <ele>173</ele>
        <time>2018-06-27T08:34:10Z</time>
      </trkpt>
      <trkpt lat="45.94393" lon="4.7258">
        <ele>173</ele>
        <time>2018-06-27T08:34:11Z</time>
      </trkpt>
      <trkpt lat="45.94394" lon="4.72588">
        <ele>173</ele>
        <time>2018-06-27T08:34:12Z</time>
      </trkpt>
      <trkpt lat="45.94396" lon="4.72596">
        <ele>173</ele>
        <time>2018-06-27T08:34:13Z</time>
      </trkpt>
      <trkpt lat="45.94397" lon="4.72603">
        <ele>173</ele>
        <time>2018-06-27T08:34:14Z</time>
      </trkpt>
      <trkpt lat="45.94399" lon="4.72611">
        <ele>173</ele>
        <time>2018-06-27T08:34:15Z</time>
      </trkpt>
      <trkpt lat="45.944" lon="4.72617">
        <ele>173</ele>
        <time>2018-06-27T08:34:16Z</time>
      </trkpt>
      <trkpt lat="45.94401" lon="4.72625">
        <ele>173</ele>
        <time>2018-06-27T08:34:17Z</time>
      </trkpt>
      <trkpt lat="45.94401" lon="4.72632">
        <ele>174</ele>
        <time>2018-06-27T08:34:18Z</time>
      </trkpt>
      <trkpt lat="45.94403" lon="4.72641">
        <ele>174</ele>
        <time>2018-06-27T08:34:19Z</time>
      </trkpt>
      <trkpt lat="45.94405" lon="4.72649">
        <ele>174</ele>
        <time>2018-06-27T08:34:20Z</time>
      </trkpt>
      <trkpt lat="45.94405" lon="4.72657">
        <ele>174</ele>
        <time>2018-06-27T08:34:21Z</time>
      </trkpt>
      <trkpt lat="45.94406" lon="4.72664">
        <ele>174</ele>
        <time>2018-06-27T08:34:22Z</time>
      </trkpt>
      <trkpt lat="45.94407" lon="4.72672">
        <ele>173</ele>
        <time>2018-06-27T08:34:23Z</time>
      </trkpt>
      <trkpt lat="45.94408" lon="4.7268">
        <ele>173</ele>
        <time>2018-06-27T08:34:24Z</time>
      </trkpt>
      <trkpt lat="45.94409" lon="4.72688">
        <ele>173</ele>
        <time>2018-06-27T08:34:25Z</time>
      </trkpt>
      <trkpt lat="45.94409" lon="4.72696">
        <ele>173</ele>
        <time>2018-06-27T08:34:26Z</time>
      </trkpt>
      <trkpt lat="45.94409" lon="4.72704">
        <ele>172</ele>
        <time>2018-06-27T08:34:27Z</time>
      </trkpt>
      <trkpt lat="45.94411" lon="4.72713">
        <ele>172</ele>
        <time>2018-06-27T08:34:28Z</time>
      </trkpt>
      <trkpt lat="45.94413" lon="4.72722">
        <ele>172</ele>
        <time>2018-06-27T08:34:29Z</time>
      </trkpt>
      <trkpt lat="45.94415" lon="4.7273">
        <ele>172</ele>
        <time>2018-06-27T08:34:30Z</time>
      </trkpt>
      <trkpt lat="45.94417" lon="4.72737">
        <ele>171</ele>
        <time>2018-06-27T08:34:31Z</time>
      </trkpt>
      <trkpt lat="45.94419" lon="4.72746">
        <ele>171</ele>
        <time>2018-06-27T08:34:32Z</time>
      </trkpt>
      <trkpt lat="45.94421" lon="4.72753">
        <ele>170</ele>
        <time>2018-06-27T08:34:33Z</time>
      </trkpt>
      <trkpt lat="45.94422" lon="4.72761">
        <ele>170</ele>
        <time>2018-06-27T08:34:34Z</time>
      </trkpt>
      <trkpt lat="45.94422" lon="4.7277">
        <ele>169</ele>
        <time>2018-06-27T08:34:35Z</time>
      </trkpt>
      <trkpt lat="45.94423" lon="4.72777">
        <ele>168</ele>
        <time>2018-06-27T08:34:36Z</time>
      </trkpt>
      <trkpt lat="45.94425" lon="4.72785">
        <ele>168</ele>
        <time>2018-06-27T08:34:37Z</time>
      </trkpt>
      <trkpt lat="45.94426" lon="4.72792">
        <ele>168</ele>
        <time>2018-06-27T08:34:38Z</time>
      </trkpt>
      <trkpt lat="45.94426" lon="4.72798">
        <ele>167</ele>
        <time>2018-06-27T08:34:39Z</time>
      </trkpt>
      <trkpt lat="45.94427" lon="4.72805">
        <ele>167</ele>
        <time>2018-06-27T08:34:40Z</time>
      </trkpt>
      <trkpt lat="45.94427" lon="4.72813">
        <ele>167</ele>
        <time>2018-06-27T08:34:41Z</time>
      </trkpt>
      <trkpt lat="45.94428" lon="4.72819">
        <ele>167</ele>
        <time>2018-06-27T08:34:42Z</time>
      </trkpt>
      <trkpt lat="45.94429" lon="4.72825">
        <ele>167</ele>
        <time>2018-06-27T08:34:43Z</time>
      </trkpt>
      <trkpt lat="45.9443" lon="4.72834">
        <ele>166</ele>
        <time>2018-06-27T08:34:44Z</time>
      </trkpt>
      <trkpt lat="45.94431" lon="4.72841">
        <ele>166</ele>
        <time>2018-06-27T08:34:45Z</time>
      </trkpt>
      <trkpt lat="45.94433" lon="4.72852">
        <ele>166</ele>
        <time>2018-06-27T08:34:47Z</time>
      </trkpt>
      <trkpt lat="45.94434" lon="4.7286">
        <ele>166</ele>
        <time>2018-06-27T08:34:48Z</time>
      </trkpt>
      <trkpt lat="45.94435" lon="4.72867">
        <ele>166</ele>
        <time>2018-06-27T08:34:49Z</time>
      </trkpt>
      <trkpt lat="45.94436" lon="4.72874">
        <ele>166</ele>
        <time>2018-06-27T08:34:50Z</time>
      </trkpt>
      <trkpt lat="45.94437" lon="4.72881">
        <ele>166</ele>
        <time>2018-06-27T08:34:51Z</time>
      </trkpt>
      <trkpt lat="45.94438" lon="4.72889">
        <ele>166</ele>
        <time>2018-06-27T08:34:52Z</time>
      </trkpt>
      <trkpt lat="45.94438" lon="4.72896">
        <ele>166</ele>
        <time>2018-06-27T08:34:53Z</time>
      </trkpt>
      <trkpt lat="45.94439" lon="4.72903">
        <ele>166</ele>
        <time>2018-06-27T08:34:54Z</time>
      </trkpt>
      <trkpt lat="45.9444" lon="4.7291">
        <ele>166</ele>
        <time>2018-06-27T08:34:55Z</time>
      </trkpt>
      <trkpt lat="45.9444" lon="4.72917">
        <ele>167</ele>
        <time>2018-06-27T08:34:56Z</time>
      </trkpt>
      <trkpt lat="45.94441" lon="4.72925">
        <ele>167</ele>
        <time>2018-06-27T08:34:57Z</time>
      </trkpt>
      <trkpt lat="45.94442" lon="4.72932">
        <ele>167</ele>
        <time>2018-06-27T08:34:58Z</time>
      </trkpt>
      <trkpt lat="45.94443" lon="4.7294">
        <ele>167</ele>
        <time>2018-06-27T08:34:59Z</time>
      </trkpt>
      <trkpt lat="45.94444" lon="4.72948">
        <ele>167</ele>
        <time>2018-06-27T08:35:00Z</time>
      </trkpt>
      <trkpt lat="45.94445" lon="4.72956">
        <ele>167</ele>
        <time>2018-06-27T08:35:01Z</time>
      </trkpt>
      <trkpt lat="45.94446" lon="4.72965">
        <ele>167</ele>
        <time>2018-06-27T08:35:02Z</time>
      </trkpt>
      <trkpt lat="45.94447" lon="4.72974">
        <ele>167</ele>
        <time>2018-06-27T08:35:03Z</time>
      </trkpt>
      <trkpt lat="45.94448" lon="4.72983">
        <ele>167</ele>
        <time>2018-06-27T08:35:04Z</time>
      </trkpt>
      <trkpt lat="45.9445" lon="4.72991">
        <ele>167</ele>
        <time>2018-06-27T08:35:05Z</time>
      </trkpt>
      <trkpt lat="45.94451" lon="4.73">
        <ele>167</ele>
        <time>2018-06-27T08:35:06Z</time>
      </trkpt>
      <trkpt lat="45.94452" lon="4.73009">
        <ele>169</ele>
        <time>2018-06-27T08:35:07Z</time>
      </trkpt>
      <trkpt lat="45.94453" lon="4.73018">
        <ele>169</ele>
        <time>2018-06-27T08:35:08Z</time>
      </trkpt>
      <trkpt lat="45.94454" lon="4.73027">
        <ele>169</ele>
        <time>2018-06-27T08:35:09Z</time>
      </trkpt>
      <trkpt lat="45.94455" lon="4.73037">
        <ele>169</ele>
        <time>2018-06-27T08:35:10Z</time>
      </trkpt>
      <trkpt lat="45.94457" lon="4.73047">
        <ele>170</ele>
        <time>2018-06-27T08:35:11Z</time>
      </trkpt>
      <trkpt lat="45.94457" lon="4.73056">
        <ele>170</ele>
        <time>2018-06-27T08:35:12Z</time>
      </trkpt>
      <trkpt lat="45.94458" lon="4.73065">
        <ele>170</ele>
        <time>2018-06-27T08:35:13Z</time>
      </trkpt>
      <trkpt lat="45.94459" lon="4.73075">
        <ele>170</ele>
        <time>2018-06-27T08:35:14Z</time>
      </trkpt>
      <trkpt lat="45.94462" lon="4.73086">
        <ele>171</ele>
        <time>2018-06-27T08:35:15Z</time>
      </trkpt>
      <trkpt lat="45.94463" lon="4.73097">
        <ele>171</ele>
        <time>2018-06-27T08:35:16Z</time>
      </trkpt>
      <trkpt lat="45.94464" lon="4.73107">
        <ele>172</ele>
        <time>2018-06-27T08:35:17Z</time>
      </trkpt>
      <trkpt lat="45.94465" lon="4.73115">
        <ele>172</ele>
        <time>2018-06-27T08:35:18Z</time>
      </trkpt>
      <trkpt lat="45.94466" lon="4.73124">
        <ele>172</ele>
        <time>2018-06-27T08:35:19Z</time>
      </trkpt>
      <trkpt lat="45.94467" lon="4.73133">
        <ele>172</ele>
        <time>2018-06-27T08:35:20Z</time>
      </trkpt>
      <trkpt lat="45.94468" lon="4.73141">
        <ele>172</ele>
        <time>2018-06-27T08:35:21Z</time>
      </trkpt>
      <trkpt lat="45.9447" lon="4.73148">
        <ele>172</ele>
        <time>2018-06-27T08:35:22Z</time>
      </trkpt>
      <trkpt lat="45.94472" lon="4.73156">
        <ele>172</ele>
        <time>2018-06-27T08:35:23Z</time>
      </trkpt>
      <trkpt lat="45.94473" lon="4.73164">
        <ele>173</ele>
        <time>2018-06-27T08:35:24Z</time>
      </trkpt>
      <trkpt lat="45.94474" lon="4.73173">
        <ele>174</ele>
        <time>2018-06-27T08:35:25Z</time>
      </trkpt>
      <trkpt lat="45.94476" lon="4.7318">
        <ele>174</ele>
        <time>2018-06-27T08:35:26Z</time>
      </trkpt>
      <trkpt lat="45.94476" lon="4.73188">
        <ele>174</ele>
        <time>2018-06-27T08:35:27Z</time>
      </trkpt>
      <trkpt lat="45.94477" lon="4.73196">
        <ele>174</ele>
        <time>2018-06-27T08:35:28Z</time>
      </trkpt>
      <trkpt lat="45.94478" lon="4.73204">
        <ele>175</ele>
        <time>2018-06-27T08:35:29Z</time>
      </trkpt>
      <trkpt lat="45.94479" lon="4.73211">
        <ele>175</ele>
        <time>2018-06-27T08:35:30Z</time>
      </trkpt>
      <trkpt lat="45.9448" lon="4.73217">
        <ele>175</ele>
        <time>2018-06-27T08:35:31Z</time>
      </trkpt>
      <trkpt lat="45.94481" lon="4.73225">
        <ele>175</ele>
        <time>2018-06-27T08:35:32Z</time>
      </trkpt>
      <trkpt lat="45.94482" lon="4.73231">
        <ele>175</ele>
        <time>2018-06-27T08:35:33Z</time>
      </trkpt>
      <trkpt lat="45.94482" lon="4.73237">
        <ele>175</ele>
        <time>2018-06-27T08:35:34Z</time>
      </trkpt>
      <trkpt lat="45.94483" lon="4.73244">
        <ele>175</ele>
        <time>2018-06-27T08:35:35Z</time>
      </trkpt>
      <trkpt lat="45.94484" lon="4.73251">
        <ele>176</ele>
        <time>2018-06-27T08:35:36Z</time>
      </trkpt>
      <trkpt lat="45.94485" lon="4.73257">
        <ele>176</ele>
        <time>2018-06-27T08:35:37Z</time>
      </trkpt>
      <trkpt lat="45.94486" lon="4.73263">
        <ele>176</ele>
        <time>2018-06-27T08:35:38Z</time>
      </trkpt>
      <trkpt lat="45.94487" lon="4.73272">
        <ele>177</ele>
        <time>2018-06-27T08:35:39Z</time>
      </trkpt>
      <trkpt lat="45.94488" lon="4.73278">
        <ele>177</ele>
        <time>2018-06-27T08:35:40Z</time>
      </trkpt>
      <trkpt lat="45.94487" lon="4.73285">
        <ele>177</ele>
        <time>2018-06-27T08:35:41Z</time>
      </trkpt>
      <trkpt lat="45.94488" lon="4.73292">
        <ele>177</ele>
        <time>2018-06-27T08:35:42Z</time>
      </trkpt>
      <trkpt lat="45.9449" lon="4.73297">
        <ele>177</ele>
        <time>2018-06-27T08:35:43Z</time>
      </trkpt>
      <trkpt lat="45.9449" lon="4.73304">
        <ele>177</ele>
        <time>2018-06-27T08:35:44Z</time>
      </trkpt>
      <trkpt lat="45.94492" lon="4.73316">
        <ele>177</ele>
        <time>2018-06-27T08:35:46Z</time>
      </trkpt>
      <trkpt lat="45.94492" lon="4.73322">
        <ele>177</ele>
        <time>2018-06-27T08:35:47Z</time>
      </trkpt>
      <trkpt lat="45.94494" lon="4.73334">
        <ele>177</ele>
        <time>2018-06-27T08:35:49Z</time>
      </trkpt>
      <trkpt lat="45.94494" lon="4.7334">
        <ele>178</ele>
        <time>2018-06-27T08:35:50Z</time>
      </trkpt>
      <trkpt lat="45.94496" lon="4.73352">
        <ele>178</ele>
        <time>2018-06-27T08:35:52Z</time>
      </trkpt>
      <trkpt lat="45.94497" lon="4.73358">
        <ele>178</ele>
        <time>2018-06-27T08:35:53Z</time>
      </trkpt>
      <trkpt lat="45.94497" lon="4.7337">
        <ele>179</ele>
        <time>2018-06-27T08:35:55Z</time>
      </trkpt>
      <trkpt lat="45.94497" lon="4.73377">
        <ele>179</ele>
        <time>2018-06-27T08:35:56Z</time>
      </trkpt>
      <trkpt lat="45.94499" lon="4.73386">
        <ele>179</ele>
        <time>2018-06-27T08:35:58Z</time>
      </trkpt>
      <trkpt lat="45.94499" lon="4.73394">
        <ele>179</ele>
        <time>2018-06-27T08:35:59Z</time>
      </trkpt>
      <trkpt lat="45.945" lon="4.734">
        <ele>179</ele>
        <time>2018-06-27T08:36:00Z</time>
      </trkpt>
      <trkpt lat="45.94501" lon="4.73407">
        <ele>179</ele>
        <time>2018-06-27T08:36:01Z</time>
      </trkpt>
      <trkpt lat="45.94501" lon="4.73419">
        <ele>180</ele>
        <time>2018-06-27T08:36:03Z</time>
      </trkpt>
      <trkpt lat="45.94501" lon="4.73425">
        <ele>180</ele>
        <time>2018-06-27T08:36:04Z</time>
      </trkpt>
      <trkpt lat="45.94501" lon="4.73437">
        <ele>181</ele>
        <time>2018-06-27T08:36:06Z</time>
      </trkpt>
      <trkpt lat="45.94501" lon="4.73443">
        <ele>181</ele>
        <time>2018-06-27T08:36:07Z</time>
      </trkpt>
      <trkpt lat="45.94502" lon="4.73455">
        <ele>181</ele>
        <time>2018-06-27T08:36:09Z</time>
      </trkpt>
      <trkpt lat="45.94502" lon="4.73462">
        <ele>181</ele>
        <time>2018-06-27T08:36:10Z</time>
      </trkpt>
      <trkpt lat="45.94502" lon="4.73474">
        <ele>182</ele>
        <time>2018-06-27T08:36:12Z</time>
      </trkpt>
      <trkpt lat="45.94503" lon="4.7348">
        <ele>182</ele>
        <time>2018-06-27T08:36:13Z</time>
      </trkpt>
      <trkpt lat="45.94506" lon="4.73486">
        <ele>182</ele>
        <time>2018-06-27T08:36:14Z</time>
      </trkpt>
      <trkpt lat="45.94506" lon="4.73492">
        <ele>182</ele>
        <time>2018-06-27T08:36:15Z</time>
      </trkpt>
      <trkpt lat="45.94505" lon="4.73505">
        <ele>183</ele>
        <time>2018-06-27T08:36:17Z</time>
      </trkpt>
      <trkpt lat="45.94505" lon="4.73511">
        <ele>183</ele>
        <time>2018-06-27T08:36:18Z</time>
      </trkpt>
      <trkpt lat="45.94505" lon="4.73523">
        <ele>183</ele>
        <time>2018-06-27T08:36:20Z</time>
      </trkpt>
      <trkpt lat="45.94505" lon="4.7353">
        <ele>183</ele>
        <time>2018-06-27T08:36:21Z</time>
      </trkpt>
      <trkpt lat="45.94504" lon="4.73541">
        <ele>183</ele>
        <time>2018-06-27T08:36:23Z</time>
      </trkpt>
      <trkpt lat="45.94504" lon="4.73547">
        <ele>183</ele>
        <time>2018-06-27T08:36:24Z</time>
      </trkpt>
      <trkpt lat="45.94503" lon="4.73559">
        <ele>184</ele>
        <time>2018-06-27T08:36:26Z</time>
      </trkpt>
      <trkpt lat="45.94503" lon="4.73566">
        <ele>184</ele>
        <time>2018-06-27T08:36:27Z</time>
      </trkpt>
      <trkpt lat="45.94503" lon="4.73574">
        <ele>184</ele>
        <time>2018-06-27T08:36:28Z</time>
      </trkpt>
      <trkpt lat="45.94503" lon="4.73581">
        <ele>185</ele>
        <time>2018-06-27T08:36:29Z</time>
      </trkpt>
      <trkpt lat="45.94502" lon="4.73587">
        <ele>185</ele>
        <time>2018-06-27T08:36:30Z</time>
      </trkpt>
      <trkpt lat="45.94502" lon="4.73593">
        <ele>184</ele>
        <time>2018-06-27T08:36:31Z</time>
      </trkpt>
      <trkpt lat="45.945" lon="4.73604">
        <ele>184</ele>
        <time>2018-06-27T08:36:33Z</time>
      </trkpt>
      <trkpt lat="45.94499" lon="4.7361">
        <ele>186</ele>
        <time>2018-06-27T08:36:34Z</time>
      </trkpt>
      <trkpt lat="45.94498" lon="4.73623">
        <ele>186</ele>
        <time>2018-06-27T08:36:36Z</time>
      </trkpt>
      <trkpt lat="45.94497" lon="4.73629">
        <ele>186</ele>
        <time>2018-06-27T08:36:37Z</time>
      </trkpt>
      <trkpt lat="45.94496" lon="4.73635">
        <ele>186</ele>
        <time>2018-06-27T08:36:38Z</time>
      </trkpt>
      <trkpt lat="45.94495" lon="4.73643">
        <ele>186</ele>
        <time>2018-06-27T08:36:39Z</time>
      </trkpt>
      <trkpt lat="45.94494" lon="4.73649">
        <ele>185</ele>
        <time>2018-06-27T08:36:40Z</time>
      </trkpt>
      <trkpt lat="45.94493" lon="4.73656">
        <ele>185</ele>
        <time>2018-06-27T08:36:41Z</time>
      </trkpt>
      <trkpt lat="45.94492" lon="4.73663">
        <ele>185</ele>
        <time>2018-06-27T08:36:42Z</time>
      </trkpt>
      <trkpt lat="45.94492" lon="4.73671">
        <ele>185</ele>
        <time>2018-06-27T08:36:43Z</time>
      </trkpt>
      <trkpt lat="45.94491" lon="4.73677">
        <ele>185</ele>
        <time>2018-06-27T08:36:44Z</time>
      </trkpt>
      <trkpt lat="45.94491" lon="4.73685">
        <ele>186</ele>
        <time>2018-06-27T08:36:45Z</time>
      </trkpt>
      <trkpt lat="45.9449" lon="4.73693">
        <ele>186</ele>
        <time>2018-06-27T08:36:46Z</time>
      </trkpt>
      <trkpt lat="45.94488" lon="4.73699">
        <ele>186</ele>
        <time>2018-06-27T08:36:47Z</time>
      </trkpt>
      <trkpt lat="45.94486" lon="4.73708">
        <ele>186</ele>
        <time>2018-06-27T08:36:48Z</time>
      </trkpt>
      <trkpt lat="45.94488" lon="4.73716">
        <ele>186</ele>
        <time>2018-06-27T08:36:49Z</time>
      </trkpt>
      <trkpt lat="45.94487" lon="4.73724">
        <ele>186</ele>
        <time>2018-06-27T08:36:50Z</time>
      </trkpt>
      <trkpt lat="45.94486" lon="4.73731">
        <ele>186</ele>
        <time>2018-06-27T08:36:51Z</time>
      </trkpt>
      <trkpt lat="45.94485" lon="4.73739">
        <ele>186</ele>
        <time>2018-06-27T08:36:52Z</time>
      </trkpt>
      <trkpt lat="45.94483" lon="4.73745">
        <ele>186</ele>
        <time>2018-06-27T08:36:53Z</time>
      </trkpt>
      <trkpt lat="45.94481" lon="4.73752">
        <ele>186</ele>
        <time>2018-06-27T08:36:54Z</time>
      </trkpt>
      <trkpt lat="45.9448" lon="4.73758">
        <ele>186</ele>
        <time>2018-06-27T08:36:55Z</time>
      </trkpt>
      <trkpt lat="45.94482" lon="4.73769">
        <ele>186</ele>
        <time>2018-06-27T08:36:57Z</time>
      </trkpt>
      <trkpt lat="45.94485" lon="4.73775">
        <ele>186</ele>
        <time>2018-06-27T08:36:58Z</time>
      </trkpt>
      <trkpt lat="45.94489" lon="4.7378">
        <ele>186</ele>
        <time>2018-06-27T08:36:59Z</time>
      </trkpt>
      <trkpt lat="45.94493" lon="4.73782">
        <ele>186</ele>
        <time>2018-06-27T08:37:00Z</time>
      </trkpt>
      <trkpt lat="45.94501" lon="4.73789">
        <ele>186</ele>
        <time>2018-06-27T08:37:02Z</time>
      </trkpt>
      <trkpt lat="45.94505" lon="4.73792">
        <ele>186</ele>
        <time>2018-06-27T08:37:03Z</time>
      </trkpt>
      <trkpt lat="45.94509" lon="4.73796">
        <ele>186</ele>
        <time>2018-06-27T08:37:04Z</time>
      </trkpt>
      <trkpt lat="45.94513" lon="4.738">
        <ele>186</ele>
        <time>2018-06-27T08:37:05Z</time>
      </trkpt>
      <trkpt lat="45.94516" lon="4.73803">
        <ele>186</ele>
        <time>2018-06-27T08:37:06Z</time>
      </trkpt>
      <trkpt lat="45.9452" lon="4.73808">
        <ele>186</ele>
        <time>2018-06-27T08:37:07Z</time>
      </trkpt>
      <trkpt lat="45.94523" lon="4.73812">
        <ele>186</ele>
        <time>2018-06-27T08:37:08Z</time>
      </trkpt>
      <trkpt lat="45.94527" lon="4.73815">
        <ele>186</ele>
        <time>2018-06-27T08:37:09Z</time>
      </trkpt>
      <trkpt lat="45.94535" lon="4.73823">
        <ele>186</ele>
        <time>2018-06-27T08:37:11Z</time>
      </trkpt>
      <trkpt lat="45.94539" lon="4.73827">
        <ele>186</ele>
        <time>2018-06-27T08:37:12Z</time>
      </trkpt>
      <trkpt lat="45.94547" lon="4.73832">
        <ele>186</ele>
        <time>2018-06-27T08:37:14Z</time>
      </trkpt>
      <trkpt lat="45.9455" lon="4.73835">
        <ele>186</ele>
        <time>2018-06-27T08:37:15Z</time>
      </trkpt>
      <trkpt lat="45.94555" lon="4.7384">
        <ele>186</ele>
        <time>2018-06-27T08:37:16Z</time>
      </trkpt>
      <trkpt lat="45.94557" lon="4.73845">
        <ele>186</ele>
        <time>2018-06-27T08:37:17Z</time>
      </trkpt>
      <trkpt lat="45.94561" lon="4.73849">
        <ele>186</ele>
        <time>2018-06-27T08:37:18Z</time>
      </trkpt>
      <trkpt lat="45.94565" lon="4.73853">
        <ele>186</ele>
        <time>2018-06-27T08:37:19Z</time>
      </trkpt>
      <trkpt lat="45.94569" lon="4.73858">
        <ele>186</ele>
        <time>2018-06-27T08:37:20Z</time>
      </trkpt>
      <trkpt lat="45.94573" lon="4.73862">
        <ele>186</ele>
        <time>2018-06-27T08:37:21Z</time>
      </trkpt>
      <trkpt lat="45.94581" lon="4.73868">
        <ele>186</ele>
        <time>2018-06-27T08:37:23Z</time>
      </trkpt>
      <trkpt lat="45.94584" lon="4.73872">
        <ele>187</ele>
        <time>2018-06-27T08:37:24Z</time>
      </trkpt>
      <trkpt lat="45.94591" lon="4.73879">
        <ele>187</ele>
        <time>2018-06-27T08:37:26Z</time>
      </trkpt>
      <trkpt lat="45.94594" lon="4.73883">
        <ele>187</ele>
        <time>2018-06-27T08:37:27Z</time>
      </trkpt>
      <trkpt lat="45.94597" lon="4.73888">
        <ele>187</ele>
        <time>2018-06-27T08:37:28Z</time>
      </trkpt>
      <trkpt lat="45.94601" lon="4.73892">
        <ele>187</ele>
        <time>2018-06-27T08:37:29Z</time>
      </trkpt>
      <trkpt lat="45.94608" lon="4.739">
        <ele>187</ele>
        <time>2018-06-27T08:37:31Z</time>
      </trkpt>
      <trkpt lat="45.94612" lon="4.73905">
        <ele>187</ele>
        <time>2018-06-27T08:37:32Z</time>
      </trkpt>
      <trkpt lat="45.94619" lon="4.73913">
        <ele>187</ele>
        <time>2018-06-27T08:37:34Z</time>
      </trkpt>
      <trkpt lat="45.94623" lon="4.73918">
        <ele>187</ele>
        <time>2018-06-27T08:37:35Z</time>
      </trkpt>
      <trkpt lat="45.9463" lon="4.73924">
        <ele>187</ele>
        <time>2018-06-27T08:37:37Z</time>
      </trkpt>
      <trkpt lat="45.94633" lon="4.73929">
        <ele>187</ele>
        <time>2018-06-27T08:37:38Z</time>
      </trkpt>
      <trkpt lat="45.94637" lon="4.73934">
        <ele>187</ele>
        <time>2018-06-27T08:37:39Z</time>
      </trkpt>
      <trkpt lat="45.94641" lon="4.73938">
        <ele>187</ele>
        <time>2018-06-27T08:37:40Z</time>
      </trkpt>
      <trkpt lat="45.94646" lon="4.73947">
        <ele>187</ele>
        <time>2018-06-27T08:37:42Z</time>
      </trkpt>
      <trkpt lat="45.9465" lon="4.73952">
        <ele>187</ele>
        <time>2018-06-27T08:37:43Z</time>
      </trkpt>
      <trkpt lat="45.94653" lon="4.73958">
        <ele>187</ele>
        <time>2018-06-27T08:37:44Z</time>
      </trkpt>
      <trkpt lat="45.94656" lon="4.73962">
        <ele>187</ele>
        <time>2018-06-27T08:37:45Z</time>
      </trkpt>
      <trkpt lat="45.9466" lon="4.73966">
        <ele>187</ele>
        <time>2018-06-27T08:37:46Z</time>
      </trkpt>
      <trkpt lat="45.94664" lon="4.73971">
        <ele>187</ele>
        <time>2018-06-27T08:37:47Z</time>
      </trkpt>
      <trkpt lat="45.9467" lon="4.73979">
        <ele>187</ele>
        <time>2018-06-27T08:37:49Z</time>
      </trkpt>
      <trkpt lat="45.94673" lon="4.73983">
        <ele>187</ele>
        <time>2018-06-27T08:37:50Z</time>
      </trkpt>
      <trkpt lat="45.94679" lon="4.73992">
        <ele>187</ele>
        <time>2018-06-27T08:37:52Z</time>
      </trkpt>
      <trkpt lat="45.94682" lon="4.73996">
        <ele>187</ele>
        <time>2018-06-27T08:37:53Z</time>
      </trkpt>
      <trkpt lat="45.94685" lon="4.74001">
        <ele>187</ele>
        <time>2018-06-27T08:37:54Z</time>
      </trkpt>
      <trkpt lat="45.94689" lon="4.74006">
        <ele>187</ele>
        <time>2018-06-27T08:37:55Z</time>
      </trkpt>
      <trkpt lat="45.94692" lon="4.74011">
        <ele>187</ele>
        <time>2018-06-27T08:37:56Z</time>
      </trkpt>
      <trkpt lat="45.94695" lon="4.74016">
        <ele>187</ele>
        <time>2018-06-27T08:37:57Z</time>
      </trkpt>
      <trkpt lat="45.94699" lon="4.74022">
        <ele>187</ele>
        <time>2018-06-27T08:37:58Z</time>
      </trkpt>
      <trkpt lat="45.94702" lon="4.74025">
        <ele>187</ele>
        <time>2018-06-27T08:37:59Z</time>
      </trkpt>
      <trkpt lat="45.94706" lon="4.74029">
        <ele>187</ele>
        <time>2018-06-27T08:38:00Z</time>
      </trkpt>
      <trkpt lat="45.94709" lon="4.74034">
        <ele>187</ele>
        <time>2018-06-27T08:38:01Z</time>
      </trkpt>
      <trkpt lat="45.94713" lon="4.74039">
        <ele>187</ele>
        <time>2018-06-27T08:38:02Z</time>
      </trkpt>
      <trkpt lat="45.94717" lon="4.74043">
        <ele>187</ele>
        <time>2018-06-27T08:38:03Z</time>
      </trkpt>
      <trkpt lat="45.9472" lon="4.74048">
        <ele>187</ele>
        <time>2018-06-27T08:38:04Z</time>
      </trkpt>
      <trkpt lat="45.94724" lon="4.74053">
        <ele>188</ele>
        <time>2018-06-27T08:38:05Z</time>
      </trkpt>
      <trkpt lat="45.94727" lon="4.74057">
        <ele>188</ele>
        <time>2018-06-27T08:38:06Z</time>
      </trkpt>
      <trkpt lat="45.94731" lon="4.74062">
        <ele>188</ele>
        <time>2018-06-27T08:38:07Z</time>
      </trkpt>
      <trkpt lat="45.94734" lon="4.74067">
        <ele>188</ele>
        <time>2018-06-27T08:38:08Z</time>
      </trkpt>
      <trkpt lat="45.94737" lon="4.74072">
        <ele>188</ele>
        <time>2018-06-27T08:38:09Z</time>
      </trkpt>
      <trkpt lat="45.94741" lon="4.74077">
        <ele>188</ele>
        <time>2018-06-27T08:38:10Z</time>
      </trkpt>
      <trkpt lat="45.94745" lon="4.74082">
        <ele>189</ele>
        <time>2018-06-27T08:38:11Z</time>
      </trkpt>
      <trkpt lat="45.94749" lon="4.74087">
        <ele>189</ele>
        <time>2018-06-27T08:38:12Z</time>
      </trkpt>
      <trkpt lat="45.94752" lon="4.74092">
        <ele>189</ele>
        <time>2018-06-27T08:38:13Z</time>
      </trkpt>
      <trkpt lat="45.94758" lon="4.741">
        <ele>189</ele>
        <time>2018-06-27T08:38:15Z</time>
      </trkpt>
      <trkpt lat="45.94761" lon="4.74105">
        <ele>189</ele>
        <time>2018-06-27T08:38:16Z</time>
      </trkpt>
      <trkpt lat="45.94767" lon="4.74113">
        <ele>189</ele>
        <time>2018-06-27T08:38:18Z</time>
      </trkpt>
      <trkpt lat="45.94768" lon="4.74118">
        <ele>189</ele>
        <time>2018-06-27T08:38:19Z</time>
      </trkpt>
      <trkpt lat="45.94772" lon="4.74122">
        <ele>189</ele>
        <time>2018-06-27T08:38:20Z</time>
      </trkpt>
      <trkpt lat="45.94776" lon="4.74125">
        <ele>189</ele>
        <time>2018-06-27T08:38:21Z</time>
      </trkpt>
      <trkpt lat="45.94783" lon="4.74134">
        <ele>189</ele>
        <time>2018-06-27T08:38:23Z</time>
      </trkpt>
      <trkpt lat="45.94785" lon="4.74138">
        <ele>189</ele>
        <time>2018-06-27T08:38:24Z</time>
      </trkpt>
      <trkpt lat="45.94789" lon="4.74142">
        <ele>189</ele>
        <time>2018-06-27T08:38:25Z</time>
      </trkpt>
      <trkpt lat="45.94792" lon="4.74146">
        <ele>189</ele>
        <time>2018-06-27T08:38:26Z</time>
      </trkpt>
      <trkpt lat="45.94796" lon="4.74151">
        <ele>189</ele>
        <time>2018-06-27T08:38:27Z</time>
      </trkpt>
      <trkpt lat="45.94799" lon="4.74156">
        <ele>189</ele>
        <time>2018-06-27T08:38:28Z</time>
      </trkpt>
      <trkpt lat="45.94801" lon="4.74162">
        <ele>189</ele>
        <time>2018-06-27T08:38:29Z</time>
      </trkpt>
      <trkpt lat="45.94804" lon="4.74167">
        <ele>189</ele>
        <time>2018-06-27T08:38:30Z</time>
      </trkpt>
      <trkpt lat="45.94808" lon="4.74173">
        <ele>189</ele>
        <time>2018-06-27T08:38:31Z</time>
      </trkpt>
      <trkpt lat="45.94811" lon="4.74177">
        <ele>189</ele>
        <time>2018-06-27T08:38:32Z</time>
      </trkpt>
      <trkpt lat="45.94815" lon="4.74189">
        <ele>189</ele>
        <time>2018-06-27T08:38:34Z</time>
      </trkpt>
      <trkpt lat="45.94818" lon="4.74194">
        <ele>189</ele>
        <time>2018-06-27T08:38:35Z</time>
      </trkpt>
      <trkpt lat="45.94822" lon="4.742">
        <ele>189</ele>
        <time>2018-06-27T08:38:36Z</time>
      </trkpt>
      <trkpt lat="45.94825" lon="4.74206">
        <ele>189</ele>
        <time>2018-06-27T08:38:37Z</time>
      </trkpt>
      <trkpt lat="45.94829" lon="4.74211">
        <ele>189</ele>
        <time>2018-06-27T08:38:38Z</time>
      </trkpt>
      <trkpt lat="45.94832" lon="4.74218">
        <ele>188</ele>
        <time>2018-06-27T08:38:39Z</time>
      </trkpt>
      <trkpt lat="45.94834" lon="4.74224">
        <ele>190</ele>
        <time>2018-06-27T08:38:40Z</time>
      </trkpt>
      <trkpt lat="45.94838" lon="4.74231">
        <ele>190</ele>
        <time>2018-06-27T08:38:41Z</time>
      </trkpt>
      <trkpt lat="45.94842" lon="4.74237">
        <ele>190</ele>
        <time>2018-06-27T08:38:42Z</time>
      </trkpt>
      <trkpt lat="45.94846" lon="4.74243">
        <ele>190</ele>
        <time>2018-06-27T08:38:43Z</time>
      </trkpt>
      <trkpt lat="45.94849" lon="4.74251">
        <ele>190</ele>
        <time>2018-06-27T08:38:44Z</time>
      </trkpt>
      <trkpt lat="45.94854" lon="4.74257">
        <ele>190</ele>
        <time>2018-06-27T08:38:45Z</time>
      </trkpt>
      <trkpt lat="45.94858" lon="4.74263">
        <ele>190</ele>
        <time>2018-06-27T08:38:46Z</time>
      </trkpt>
      <trkpt lat="45.94862" lon="4.74269">
        <ele>190</ele>
        <time>2018-06-27T08:38:47Z</time>
      </trkpt>
      <trkpt lat="45.94865" lon="4.74275">
        <ele>191</ele>
        <time>2018-06-27T08:38:48Z</time>
      </trkpt>
      <trkpt lat="45.94869" lon="4.74281">
        <ele>191</ele>
        <time>2018-06-27T08:38:49Z</time>
      </trkpt>
      <trkpt lat="45.94872" lon="4.74287">
        <ele>191</ele>
        <time>2018-06-27T08:38:50Z</time>
      </trkpt>
      <trkpt lat="45.94874" lon="4.74293">
        <ele>191</ele>
        <time>2018-06-27T08:38:51Z</time>
      </trkpt>
      <trkpt lat="45.94878" lon="4.74301">
        <ele>191</ele>
        <time>2018-06-27T08:38:52Z</time>
      </trkpt>
      <trkpt lat="45.94882" lon="4.74307">
        <ele>191</ele>
        <time>2018-06-27T08:38:53Z</time>
      </trkpt>
      <trkpt lat="45.94885" lon="4.74313">
        <ele>191</ele>
        <time>2018-06-27T08:38:54Z</time>
      </trkpt>
      <trkpt lat="45.94888" lon="4.74319">
        <ele>191</ele>
        <time>2018-06-27T08:38:55Z</time>
      </trkpt>
      <trkpt lat="45.94891" lon="4.74325">
        <ele>191</ele>
        <time>2018-06-27T08:38:56Z</time>
      </trkpt>
      <trkpt lat="45.94894" lon="4.74331">
        <ele>191</ele>
        <time>2018-06-27T08:38:57Z</time>
      </trkpt>
      <trkpt lat="45.94898" lon="4.74336">
        <ele>191</ele>
        <time>2018-06-27T08:38:58Z</time>
      </trkpt>
      <trkpt lat="45.949" lon="4.74342">
        <ele>191</ele>
        <time>2018-06-27T08:38:59Z</time>
      </trkpt>
      <trkpt lat="45.94903" lon="4.74347">
        <ele>191</ele>
        <time>2018-06-27T08:39:00Z</time>
      </trkpt>
      <trkpt lat="45.94906" lon="4.74351">
        <ele>191</ele>
        <time>2018-06-27T08:39:01Z</time>
      </trkpt>
      <trkpt lat="45.94908" lon="4.74358">
        <ele>191</ele>
        <time>2018-06-27T08:39:02Z</time>
      </trkpt>
      <trkpt lat="45.94911" lon="4.74362">
        <ele>191</ele>
        <time>2018-06-27T08:39:03Z</time>
      </trkpt>
      <trkpt lat="45.94914" lon="4.74368">
        <ele>191</ele>
        <time>2018-06-27T08:39:04Z</time>
      </trkpt>
      <trkpt lat="45.94917" lon="4.74373">
        <ele>192</ele>
        <time>2018-06-27T08:39:05Z</time>
      </trkpt>
      <trkpt lat="45.9492" lon="4.74378">
        <ele>192</ele>
        <time>2018-06-27T08:39:06Z</time>
      </trkpt>
      <trkpt lat="45.94923" lon="4.74384">
        <ele>192</ele>
        <time>2018-06-27T08:39:07Z</time>
      </trkpt>
      <trkpt lat="45.94927" lon="4.7439">
        <ele>192</ele>
        <time>2018-06-27T08:39:08Z</time>
      </trkpt>
      <trkpt lat="45.9493" lon="4.74394">
        <ele>192</ele>
        <time>2018-06-27T08:39:09Z</time>
      </trkpt>
      <trkpt lat="45.94935" lon="4.74404">
        <ele>192</ele>
        <time>2018-06-27T08:39:11Z</time>
      </trkpt>
      <trkpt lat="45.94937" lon="4.74411">
        <ele>192</ele>
        <time>2018-06-27T08:39:12Z</time>
      </trkpt>
      <trkpt lat="45.9494" lon="4.74417">
        <ele>192</ele>
        <time>2018-06-27T08:39:13Z</time>
      </trkpt>
      <trkpt lat="45.94944" lon="4.74421">
        <ele>192</ele>
        <time>2018-06-27T08:39:14Z</time>
      </trkpt>
      <trkpt lat="45.94947" lon="4.74427">
        <ele>192</ele>
        <time>2018-06-27T08:39:15Z</time>
      </trkpt>
      <trkpt lat="45.94948" lon="4.74433">
        <ele>192</ele>
        <time>2018-06-27T08:39:16Z</time>
      </trkpt>
      <trkpt lat="45.9495" lon="4.74439">
        <ele>192</ele>
        <time>2018-06-27T08:39:17Z</time>
      </trkpt>
      <trkpt lat="45.94953" lon="4.74445">
        <ele>192</ele>
        <time>2018-06-27T08:39:18Z</time>
      </trkpt>
      <trkpt lat="45.94959" lon="4.74454">
        <ele>192</ele>
        <time>2018-06-27T08:39:20Z</time>
      </trkpt>
      <trkpt lat="45.94962" lon="4.7446">
        <ele>193</ele>
        <time>2018-06-27T08:39:21Z</time>
      </trkpt>
      <trkpt lat="45.94965" lon="4.74466">
        <ele>193</ele>
        <time>2018-06-27T08:39:22Z</time>
      </trkpt>
      <trkpt lat="45.94968" lon="4.74471">
        <ele>193</ele>
        <time>2018-06-27T08:39:23Z</time>
      </trkpt>
      <trkpt lat="45.94971" lon="4.74477">
        <ele>193</ele>
        <time>2018-06-27T08:39:24Z</time>
      </trkpt>
      <trkpt lat="45.94974" lon="4.74482">
        <ele>193</ele>
        <time>2018-06-27T08:39:25Z</time>
      </trkpt>
      <trkpt lat="45.94978" lon="4.74493">
        <ele>193</ele>
        <time>2018-06-27T08:39:27Z</time>
      </trkpt>
      <trkpt lat="45.9498" lon="4.74497">
        <ele>193</ele>
        <time>2018-06-27T08:39:28Z</time>
      </trkpt>
      <trkpt lat="45.94985" lon="4.74506">
        <ele>193</ele>
        <time>2018-06-27T08:39:30Z</time>
      </trkpt>
      <trkpt lat="45.94988" lon="4.74512">
        <ele>193</ele>
        <time>2018-06-27T08:39:31Z</time>
      </trkpt>
      <trkpt lat="45.9499" lon="4.74517">
        <ele>193</ele>
        <time>2018-06-27T08:39:32Z</time>
      </trkpt>
      <trkpt lat="45.94993" lon="4.74523">
        <ele>193</ele>
        <time>2018-06-27T08:39:33Z</time>
      </trkpt>
      <trkpt lat="45.94998" lon="4.74533">
        <ele>193</ele>
        <time>2018-06-27T08:39:35Z</time>
      </trkpt>
      <trkpt lat="45.95001" lon="4.74539">
        <ele>194</ele>
        <time>2018-06-27T08:39:36Z</time>
      </trkpt>
      <trkpt lat="45.95004" lon="4.74546">
        <ele>194</ele>
        <time>2018-06-27T08:39:37Z</time>
      </trkpt>
      <trkpt lat="45.95007" lon="4.74552">
        <ele>194</ele>
        <time>2018-06-27T08:39:38Z</time>
      </trkpt>
      <trkpt lat="45.9501" lon="4.74557">
        <ele>194</ele>
        <time>2018-06-27T08:39:39Z</time>
      </trkpt>
      <trkpt lat="45.95013" lon="4.74563">
        <ele>194</ele>
        <time>2018-06-27T08:39:40Z</time>
      </trkpt>
      <trkpt lat="45.95019" lon="4.74572">
        <ele>194</ele>
        <time>2018-06-27T08:39:42Z</time>
      </trkpt>
      <trkpt lat="45.95023" lon="4.74578">
        <ele>194</ele>
        <time>2018-06-27T08:39:43Z</time>
      </trkpt>
      <trkpt lat="45.95026" lon="4.74584">
        <ele>194</ele>
        <time>2018-06-27T08:39:44Z</time>
      </trkpt>
      <trkpt lat="45.95029" lon="4.74591">
        <ele>194</ele>
        <time>2018-06-27T08:39:45Z</time>
      </trkpt>
      <trkpt lat="45.95031" lon="4.74598">
        <ele>194</ele>
        <time>2018-06-27T08:39:46Z</time>
      </trkpt>
      <trkpt lat="45.95034" lon="4.74606">
        <ele>194</ele>
        <time>2018-06-27T08:39:47Z</time>
      </trkpt>
      <trkpt lat="45.95037" lon="4.74613">
        <ele>194</ele>
        <time>2018-06-27T08:39:48Z</time>
      </trkpt>
      <trkpt lat="45.9504" lon="4.7462">
        <ele>194</ele>
        <time>2018-06-27T08:39:49Z</time>
      </trkpt>
      <trkpt lat="45.95043" lon="4.74626">
        <ele>194</ele>
        <time>2018-06-27T08:39:50Z</time>
      </trkpt>
      <trkpt lat="45.95046" lon="4.74632">
        <ele>194</ele>
        <time>2018-06-27T08:39:51Z</time>
      </trkpt>
      <trkpt lat="45.9505" lon="4.74639">
        <ele>194</ele>
        <time>2018-06-27T08:39:52Z</time>
      </trkpt>
      <trkpt lat="45.95053" lon="4.74645">
        <ele>194</ele>
        <time>2018-06-27T08:39:53Z</time>
      </trkpt>
      <trkpt lat="45.95056" lon="4.74651">
        <ele>194</ele>
        <time>2018-06-27T08:39:54Z</time>
      </trkpt>
      <trkpt lat="45.9506" lon="4.74657">
        <ele>194</ele>
        <time>2018-06-27T08:39:55Z</time>
      </trkpt>
      <trkpt lat="45.95064" lon="4.74662">
        <ele>195</ele>
        <time>2018-06-27T08:39:56Z</time>
      </trkpt>
      <trkpt lat="45.95067" lon="4.74667">
        <ele>194</ele>
        <time>2018-06-27T08:39:57Z</time>
      </trkpt>
      <trkpt lat="45.9507" lon="4.74672">
        <ele>194</ele>
        <time>2018-06-27T08:39:58Z</time>
      </trkpt>
      <trkpt lat="45.95073" lon="4.74679">
        <ele>194</ele>
        <time>2018-06-27T08:39:59Z</time>
      </trkpt>
      <trkpt lat="45.95076" lon="4.74684">
        <ele>194</ele>
        <time>2018-06-27T08:40:00Z</time>
      </trkpt>
      <trkpt lat="45.9508" lon="4.7469">
        <ele>194</ele>
        <time>2018-06-27T08:40:01Z</time>
      </trkpt>
      <trkpt lat="45.95084" lon="4.74695">
        <ele>194</ele>
        <time>2018-06-27T08:40:02Z</time>
      </trkpt>
      <trkpt lat="45.95088" lon="4.74702">
        <ele>194</ele>
        <time>2018-06-27T08:40:03Z</time>
      </trkpt>
      <trkpt lat="45.95091" lon="4.74708">
        <ele>194</ele>
        <time>2018-06-27T08:40:04Z</time>
      </trkpt>
      <trkpt lat="45.95094" lon="4.74714">
        <ele>194</ele>
        <time>2018-06-27T08:40:05Z</time>
      </trkpt>
      <trkpt lat="45.95097" lon="4.74719">
        <ele>194</ele>
        <time>2018-06-27T08:40:06Z</time>
      </trkpt>
      <trkpt lat="45.95101" lon="4.74724">
        <ele>194</ele>
        <time>2018-06-27T08:40:07Z</time>
      </trkpt>
      <trkpt lat="45.95104" lon="4.74729">
        <ele>194</ele>
        <time>2018-06-27T08:40:08Z</time>
      </trkpt>
      <trkpt lat="45.95108" lon="4.74735">
        <ele>194</ele>
        <time>2018-06-27T08:40:09Z</time>
      </trkpt>
      <trkpt lat="45.95111" lon="4.74742">
        <ele>194</ele>
        <time>2018-06-27T08:40:10Z</time>
      </trkpt>
      <trkpt lat="45.95114" lon="4.74747">
        <ele>194</ele>
        <time>2018-06-27T08:40:11Z</time>
      </trkpt>
      <trkpt lat="45.95118" lon="4.74753">
        <ele>194</ele>
        <time>2018-06-27T08:40:12Z</time>
      </trkpt>
      <trkpt lat="45.95121" lon="4.74759">
        <ele>194</ele>
        <time>2018-06-27T08:40:13Z</time>
      </trkpt>
      <trkpt lat="45.95124" lon="4.74766">
        <ele>194</ele>
        <time>2018-06-27T08:40:14Z</time>
      </trkpt>
      <trkpt lat="45.95128" lon="4.74771">
        <ele>194</ele>
        <time>2018-06-27T08:40:15Z</time>
      </trkpt>
      <trkpt lat="45.95131" lon="4.74777">
        <ele>194</ele>
        <time>2018-06-27T08:40:16Z</time>
      </trkpt>
      <trkpt lat="45.95134" lon="4.74782">
        <ele>194</ele>
        <time>2018-06-27T08:40:17Z</time>
      </trkpt>
      <trkpt lat="45.95137" lon="4.74787">
        <ele>194</ele>
        <time>2018-06-27T08:40:18Z</time>
      </trkpt>
      <trkpt lat="45.9514" lon="4.74793">
        <ele>194</ele>
        <time>2018-06-27T08:40:19Z</time>
      </trkpt>
      <trkpt lat="45.95144" lon="4.74797">
        <ele>194</ele>
        <time>2018-06-27T08:40:20Z</time>
      </trkpt>
      <trkpt lat="45.95148" lon="4.74803">
        <ele>194</ele>
        <time>2018-06-27T08:40:21Z</time>
      </trkpt>
      <trkpt lat="45.95151" lon="4.7481">
        <ele>194</ele>
        <time>2018-06-27T08:40:22Z</time>
      </trkpt>
      <trkpt lat="45.95155" lon="4.74814">
        <ele>194</ele>
        <time>2018-06-27T08:40:23Z</time>
      </trkpt>
      <trkpt lat="45.95158" lon="4.7482">
        <ele>194</ele>
        <time>2018-06-27T08:40:24Z</time>
      </trkpt>
      <trkpt lat="45.95162" lon="4.74826">
        <ele>194</ele>
        <time>2018-06-27T08:40:25Z</time>
      </trkpt>
      <trkpt lat="45.95165" lon="4.74831">
        <ele>194</ele>
        <time>2018-06-27T08:40:26Z</time>
      </trkpt>
      <trkpt lat="45.95168" lon="4.74838">
        <ele>194</ele>
        <time>2018-06-27T08:40:27Z</time>
      </trkpt>
      <trkpt lat="45.95171" lon="4.74844">
        <ele>194</ele>
        <time>2018-06-27T08:40:28Z</time>
      </trkpt>
      <trkpt lat="45.95175" lon="4.74849">
        <ele>194</ele>
        <time>2018-06-27T08:40:29Z</time>
      </trkpt>
      <trkpt lat="45.95178" lon="4.74854">
        <ele>194</ele>
        <time>2018-06-27T08:40:30Z</time>
      </trkpt>
      <trkpt lat="45.95182" lon="4.74859">
        <ele>194</ele>
        <time>2018-06-27T08:40:31Z</time>
      </trkpt>
      <trkpt lat="45.95187" lon="4.74865">
        <ele>194</ele>
        <time>2018-06-27T08:40:32Z</time>
      </trkpt>
      <trkpt lat="45.9519" lon="4.7487">
        <ele>194</ele>
        <time>2018-06-27T08:40:33Z</time>
      </trkpt>
      <trkpt lat="45.95193" lon="4.74874">
        <ele>194</ele>
        <time>2018-06-27T08:40:34Z</time>
      </trkpt>
      <trkpt lat="45.95197" lon="4.74879">
        <ele>194</ele>
        <time>2018-06-27T08:40:35Z</time>
      </trkpt>
      <trkpt lat="45.95201" lon="4.74885">
        <ele>194</ele>
        <time>2018-06-27T08:40:36Z</time>
      </trkpt>
      <trkpt lat="45.95204" lon="4.74891">
        <ele>194</ele>
        <time>2018-06-27T08:40:37Z</time>
      </trkpt>
      <trkpt lat="45.95208" lon="4.74896">
        <ele>194</ele>
        <time>2018-06-27T08:40:38Z</time>
      </trkpt>
      <trkpt lat="45.95213" lon="4.74902">
        <ele>193</ele>
        <time>2018-06-27T08:40:39Z</time>
      </trkpt>
      <trkpt lat="45.95214" lon="4.74908">
        <ele>193</ele>
        <time>2018-06-27T08:40:40Z</time>
      </trkpt>
      <trkpt lat="45.95218" lon="4.74914">
        <ele>193</ele>
        <time>2018-06-27T08:40:41Z</time>
      </trkpt>
      <trkpt lat="45.95223" lon="4.74924">
        <ele>192</ele>
        <time>2018-06-27T08:40:43Z</time>
      </trkpt>
      <trkpt lat="45.95226" lon="4.74929">
        <ele>192</ele>
        <time>2018-06-27T08:40:44Z</time>
      </trkpt>
      <trkpt lat="45.95229" lon="4.74934">
        <ele>192</ele>
        <time>2018-06-27T08:40:45Z</time>
      </trkpt>
      <trkpt lat="45.95234" lon="4.7494">
        <ele>192</ele>
        <time>2018-06-27T08:40:46Z</time>
      </trkpt>
      <trkpt lat="45.95238" lon="4.74946">
        <ele>192</ele>
        <time>2018-06-27T08:40:47Z</time>
      </trkpt>
      <trkpt lat="45.95241" lon="4.74951">
        <ele>192</ele>
        <time>2018-06-27T08:40:48Z</time>
      </trkpt>
      <trkpt lat="45.95245" lon="4.74957">
        <ele>192</ele>
        <time>2018-06-27T08:40:49Z</time>
      </trkpt>
      <trkpt lat="45.9525" lon="4.74962">
        <ele>191</ele>
        <time>2018-06-27T08:40:50Z</time>
      </trkpt>
      <trkpt lat="45.95254" lon="4.74968">
        <ele>192</ele>
        <time>2018-06-27T08:40:51Z</time>
      </trkpt>
      <trkpt lat="45.95257" lon="4.74974">
        <ele>192</ele>
        <time>2018-06-27T08:40:52Z</time>
      </trkpt>
      <trkpt lat="45.9526" lon="4.7498">
        <ele>192</ele>
        <time>2018-06-27T08:40:53Z</time>
      </trkpt>
      <trkpt lat="45.95264" lon="4.74986">
        <ele>192</ele>
        <time>2018-06-27T08:40:54Z</time>
      </trkpt>
      <trkpt lat="45.95267" lon="4.74991">
        <ele>192</ele>
        <time>2018-06-27T08:40:55Z</time>
      </trkpt>
      <trkpt lat="45.9527" lon="4.74997">
        <ele>192</ele>
        <time>2018-06-27T08:40:56Z</time>
      </trkpt>
      <trkpt lat="45.95274" lon="4.75002">
        <ele>191</ele>
        <time>2018-06-27T08:40:57Z</time>
      </trkpt>
      <trkpt lat="45.95277" lon="4.75007">
        <ele>191</ele>
        <time>2018-06-27T08:40:58Z</time>
      </trkpt>
      <trkpt lat="45.95281" lon="4.75012">
        <ele>191</ele>
        <time>2018-06-27T08:40:59Z</time>
      </trkpt>
      <trkpt lat="45.95285" lon="4.75017">
        <ele>191</ele>
        <time>2018-06-27T08:41:00Z</time>
      </trkpt>
      <trkpt lat="45.95288" lon="4.75023">
        <ele>191</ele>
        <time>2018-06-27T08:41:01Z</time>
      </trkpt>
      <trkpt lat="45.95292" lon="4.75029">
        <ele>191</ele>
        <time>2018-06-27T08:41:02Z</time>
      </trkpt>
      <trkpt lat="45.95295" lon="4.75034">
        <ele>191</ele>
        <time>2018-06-27T08:41:03Z</time>
      </trkpt>
      <trkpt lat="45.95299" lon="4.7504">
        <ele>191</ele>
        <time>2018-06-27T08:41:04Z</time>
      </trkpt>
      <trkpt lat="45.95304" lon="4.75046">
        <ele>191</ele>
        <time>2018-06-27T08:41:05Z</time>
      </trkpt>
      <trkpt lat="45.95307" lon="4.75051">
        <ele>192</ele>
        <time>2018-06-27T08:41:06Z</time>
      </trkpt>
      <trkpt lat="45.95311" lon="4.75057">
        <ele>192</ele>
        <time>2018-06-27T08:41:07Z</time>
      </trkpt>
      <trkpt lat="45.95315" lon="4.75064">
        <ele>192</ele>
        <time>2018-06-27T08:41:08Z</time>
      </trkpt>
      <trkpt lat="45.95319" lon="4.7507">
        <ele>192</ele>
        <time>2018-06-27T08:41:09Z</time>
      </trkpt>
      <trkpt lat="45.95322" lon="4.75075">
        <ele>192</ele>
        <time>2018-06-27T08:41:10Z</time>
      </trkpt>
      <trkpt lat="45.95327" lon="4.75079">
        <ele>192</ele>
        <time>2018-06-27T08:41:11Z</time>
      </trkpt>
      <trkpt lat="45.9533" lon="4.75084">
        <ele>192</ele>
        <time>2018-06-27T08:41:12Z</time>
      </trkpt>
      <trkpt lat="45.95333" lon="4.7509">
        <ele>192</ele>
        <time>2018-06-27T08:41:13Z</time>
      </trkpt>
      <trkpt lat="45.95336" lon="4.75095">
        <ele>192</ele>
        <time>2018-06-27T08:41:14Z</time>
      </trkpt>
      <trkpt lat="45.9534" lon="4.75101">
        <ele>192</ele>
        <time>2018-06-27T08:41:15Z</time>
      </trkpt>
      <trkpt lat="45.95342" lon="4.75107">
        <ele>192</ele>
        <time>2018-06-27T08:41:16Z</time>
      </trkpt>
      <trkpt lat="45.95346" lon="4.75112">
        <ele>192</ele>
        <time>2018-06-27T08:41:17Z</time>
      </trkpt>
      <trkpt lat="45.95349" lon="4.75117">
        <ele>192</ele>
        <time>2018-06-27T08:41:18Z</time>
      </trkpt>
      <trkpt lat="45.95353" lon="4.75122">
        <ele>191</ele>
        <time>2018-06-27T08:41:19Z</time>
      </trkpt>
      <trkpt lat="45.95358" lon="4.75126">
        <ele>191</ele>
        <time>2018-06-27T08:41:20Z</time>
      </trkpt>
      <trkpt lat="45.95361" lon="4.75131">
        <ele>191</ele>
        <time>2018-06-27T08:41:21Z</time>
      </trkpt>
      <trkpt lat="45.95365" lon="4.75136">
        <ele>191</ele>
        <time>2018-06-27T08:41:22Z</time>
      </trkpt>
      <trkpt lat="45.95367" lon="4.75141">
        <ele>191</ele>
        <time>2018-06-27T08:41:23Z</time>
      </trkpt>
      <trkpt lat="45.95371" lon="4.75146">
        <ele>191</ele>
        <time>2018-06-27T08:41:24Z</time>
      </trkpt>
      <trkpt lat="45.95374" lon="4.75151">
        <ele>191</ele>
        <time>2018-06-27T08:41:25Z</time>
      </trkpt>
      <trkpt lat="45.95378" lon="4.75156">
        <ele>191</ele>
        <time>2018-06-27T08:41:26Z</time>
      </trkpt>
      <trkpt lat="45.95381" lon="4.75162">
        <ele>191</ele>
        <time>2018-06-27T08:41:27Z</time>
      </trkpt>
      <trkpt lat="45.95385" lon="4.75168">
        <ele>189</ele>
        <time>2018-06-27T08:41:28Z</time>
      </trkpt>
      <trkpt lat="45.95388" lon="4.75174">
        <ele>189</ele>
        <time>2018-06-27T08:41:29Z</time>
      </trkpt>
      <trkpt lat="45.95391" lon="4.7518">
        <ele>189</ele>
        <time>2018-06-27T08:41:30Z</time>
      </trkpt>
      <trkpt lat="45.95395" lon="4.75187">
        <ele>189</ele>
        <time>2018-06-27T08:41:31Z</time>
      </trkpt>
      <trkpt lat="45.95397" lon="4.75193">
        <ele>189</ele>
        <time>2018-06-27T08:41:32Z</time>
      </trkpt>
      <trkpt lat="45.95401" lon="4.75198">
        <ele>189</ele>
        <time>2018-06-27T08:41:33Z</time>
      </trkpt>
      <trkpt lat="45.95405" lon="4.75205">
        <ele>189</ele>
        <time>2018-06-27T08:41:34Z</time>
      </trkpt>
      <trkpt lat="45.9541" lon="4.75213">
        <ele>189</ele>
        <time>2018-06-27T08:41:35Z</time>
      </trkpt>
      <trkpt lat="45.95413" lon="4.75219">
        <ele>189</ele>
        <time>2018-06-27T08:41:36Z</time>
      </trkpt>
      <trkpt lat="45.95416" lon="4.75225">
        <ele>189</ele>
        <time>2018-06-27T08:41:37Z</time>
      </trkpt>
      <trkpt lat="45.9542" lon="4.75232">
        <ele>190</ele>
        <time>2018-06-27T08:41:38Z</time>
      </trkpt>
      <trkpt lat="45.95423" lon="4.75239">
        <ele>190</ele>
        <time>2018-06-27T08:41:39Z</time>
      </trkpt>
      <trkpt lat="45.95427" lon="4.75245">
        <ele>190</ele>
        <time>2018-06-27T08:41:40Z</time>
      </trkpt>
      <trkpt lat="45.9543" lon="4.75253">
        <ele>189</ele>
        <time>2018-06-27T08:41:41Z</time>
      </trkpt>
      <trkpt lat="45.95434" lon="4.75261">
        <ele>189</ele>
        <time>2018-06-27T08:41:42Z</time>
      </trkpt>
      <trkpt lat="45.95436" lon="4.75267">
        <ele>189</ele>
        <time>2018-06-27T08:41:43Z</time>
      </trkpt>
      <trkpt lat="45.95439" lon="4.75273">
        <ele>189</ele>
        <time>2018-06-27T08:41:44Z</time>
      </trkpt>
      <trkpt lat="45.95443" lon="4.75279">
        <ele>188</ele>
        <time>2018-06-27T08:41:45Z</time>
      </trkpt>
      <trkpt lat="45.95447" lon="4.75286">
        <ele>188</ele>
        <time>2018-06-27T08:41:46Z</time>
      </trkpt>
      <trkpt lat="45.9545" lon="4.75291">
        <ele>188</ele>
        <time>2018-06-27T08:41:47Z</time>
      </trkpt>
      <trkpt lat="45.95454" lon="4.75298">
        <ele>188</ele>
        <time>2018-06-27T08:41:48Z</time>
      </trkpt>
      <trkpt lat="45.95457" lon="4.75304">
        <ele>188</ele>
        <time>2018-06-27T08:41:49Z</time>
      </trkpt>
      <trkpt lat="45.95462" lon="4.75311">
        <ele>188</ele>
        <time>2018-06-27T08:41:50Z</time>
      </trkpt>
      <trkpt lat="45.95465" lon="4.75318">
        <ele>188</ele>
        <time>2018-06-27T08:41:51Z</time>
      </trkpt>
      <trkpt lat="45.95469" lon="4.75325">
        <ele>188</ele>
        <time>2018-06-27T08:41:52Z</time>
      </trkpt>
      <trkpt lat="45.95473" lon="4.75332">
        <ele>188</ele>
        <time>2018-06-27T08:41:53Z</time>
      </trkpt>
      <trkpt lat="45.95476" lon="4.75339">
        <ele>186</ele>
        <time>2018-06-27T08:41:54Z</time>
      </trkpt>
      <trkpt lat="45.9548" lon="4.75346">
        <ele>186</ele>
        <time>2018-06-27T08:41:55Z</time>
      </trkpt>
      <trkpt lat="45.95484" lon="4.75352">
        <ele>186</ele>
        <time>2018-06-27T08:41:56Z</time>
      </trkpt>
      <trkpt lat="45.95488" lon="4.7536">
        <ele>186</ele>
        <time>2018-06-27T08:41:57Z</time>
      </trkpt>
      <trkpt lat="45.95491" lon="4.75366">
        <ele>186</ele>
        <time>2018-06-27T08:41:58Z</time>
      </trkpt>
      <trkpt lat="45.95494" lon="4.75373">
        <ele>185</ele>
        <time>2018-06-27T08:41:59Z</time>
      </trkpt>
      <trkpt lat="45.95498" lon="4.7538">
        <ele>185</ele>
        <time>2018-06-27T08:42:00Z</time>
      </trkpt>
      <trkpt lat="45.955" lon="4.75389">
        <ele>188</ele>
        <time>2018-06-27T08:42:01Z</time>
      </trkpt>
      <trkpt lat="45.95503" lon="4.75396">
        <ele>188</ele>
        <time>2018-06-27T08:42:02Z</time>
      </trkpt>
      <trkpt lat="45.95506" lon="4.75404">
        <ele>187</ele>
        <time>2018-06-27T08:42:03Z</time>
      </trkpt>
      <trkpt lat="45.95508" lon="4.75412">
        <ele>186</ele>
        <time>2018-06-27T08:42:04Z</time>
      </trkpt>
      <trkpt lat="45.9551" lon="4.7542">
        <ele>186</ele>
        <time>2018-06-27T08:42:05Z</time>
      </trkpt>
      <trkpt lat="45.95512" lon="4.7543">
        <ele>186</ele>
        <time>2018-06-27T08:42:06Z</time>
      </trkpt>
      <trkpt lat="45.95513" lon="4.75437">
        <ele>187</ele>
        <time>2018-06-27T08:42:07Z</time>
      </trkpt>
      <trkpt lat="45.95514" lon="4.75443">
        <ele>187</ele>
        <time>2018-06-27T08:42:08Z</time>
      </trkpt>
      <trkpt lat="45.95515" lon="4.75449">
        <ele>187</ele>
        <time>2018-06-27T08:42:09Z</time>
      </trkpt>
      <trkpt lat="45.95514" lon="4.75456">
        <ele>187</ele>
        <time>2018-06-27T08:42:10Z</time>
      </trkpt>
      <trkpt lat="45.95513" lon="4.75463">
        <ele>187</ele>
        <time>2018-06-27T08:42:11Z</time>
      </trkpt>
      <trkpt lat="45.95513" lon="4.7547">
        <ele>186</ele>
        <time>2018-06-27T08:42:12Z</time>
      </trkpt>
      <trkpt lat="45.95514" lon="4.75477">
        <ele>186</ele>
        <time>2018-06-27T08:42:13Z</time>
      </trkpt>
      <trkpt lat="45.95516" lon="4.75485">
        <ele>186</ele>
        <time>2018-06-27T08:42:14Z</time>
      </trkpt>
      <trkpt lat="45.9552" lon="4.75493">
        <ele>186</ele>
        <time>2018-06-27T08:42:15Z</time>
      </trkpt>
      <trkpt lat="45.95523" lon="4.75499">
        <ele>186</ele>
        <time>2018-06-27T08:42:16Z</time>
      </trkpt>
      <trkpt lat="45.95531" lon="4.75503">
        <ele>185</ele>
        <time>2018-06-27T08:42:18Z</time>
      </trkpt>
      <trkpt lat="45.95535" lon="4.75507">
        <ele>186</ele>
        <time>2018-06-27T08:42:19Z</time>
      </trkpt>
      <trkpt lat="45.9554" lon="4.75511">
        <ele>186</ele>
        <time>2018-06-27T08:42:20Z</time>
      </trkpt>
      <trkpt lat="45.95544" lon="4.75516">
        <ele>186</ele>
        <time>2018-06-27T08:42:21Z</time>
      </trkpt>
      <trkpt lat="45.95549" lon="4.7552">
        <ele>186</ele>
        <time>2018-06-27T08:42:22Z</time>
      </trkpt>
      <trkpt lat="45.95554" lon="4.75525">
        <ele>186</ele>
        <time>2018-06-27T08:42:23Z</time>
      </trkpt>
      <trkpt lat="45.95558" lon="4.7553">
        <ele>186</ele>
        <time>2018-06-27T08:42:24Z</time>
      </trkpt>
      <trkpt lat="45.95562" lon="4.75534">
        <ele>186</ele>
        <time>2018-06-27T08:42:25Z</time>
      </trkpt>
      <trkpt lat="45.95566" lon="4.75539">
        <ele>186</ele>
        <time>2018-06-27T08:42:26Z</time>
      </trkpt>
      <trkpt lat="45.9557" lon="4.75543">
        <ele>186</ele>
        <time>2018-06-27T08:42:27Z</time>
      </trkpt>
      <trkpt lat="45.95574" lon="4.75547">
        <ele>186</ele>
        <time>2018-06-27T08:42:28Z</time>
      </trkpt>
      <trkpt lat="45.95578" lon="4.75551">
        <ele>186</ele>
        <time>2018-06-27T08:42:29Z</time>
      </trkpt>
      <trkpt lat="45.95582" lon="4.75556">
        <ele>186</ele>
        <time>2018-06-27T08:42:30Z</time>
      </trkpt>
      <trkpt lat="45.95585" lon="4.75561">
        <ele>188</ele>
        <time>2018-06-27T08:42:31Z</time>
      </trkpt>
      <trkpt lat="45.95591" lon="4.75569">
        <ele>188</ele>
        <time>2018-06-27T08:42:33Z</time>
      </trkpt>
      <trkpt lat="45.95595" lon="4.75575">
        <ele>188</ele>
        <time>2018-06-27T08:42:34Z</time>
      </trkpt>
      <trkpt lat="45.95598" lon="4.75581">
        <ele>188</ele>
        <time>2018-06-27T08:42:35Z</time>
      </trkpt>
      <trkpt lat="45.956" lon="4.75588">
        <ele>187</ele>
        <time>2018-06-27T08:42:36Z</time>
      </trkpt>
      <trkpt lat="45.95603" lon="4.75594">
        <ele>187</ele>
        <time>2018-06-27T08:42:37Z</time>
      </trkpt>
      <trkpt lat="45.95605" lon="4.756">
        <ele>187</ele>
        <time>2018-06-27T08:42:38Z</time>
      </trkpt>
      <trkpt lat="45.95608" lon="4.75608">
        <ele>188</ele>
        <time>2018-06-27T08:42:39Z</time>
      </trkpt>
      <trkpt lat="45.95611" lon="4.75615">
        <ele>188</ele>
        <time>2018-06-27T08:42:40Z</time>
      </trkpt>
      <trkpt lat="45.95612" lon="4.75622">
        <ele>188</ele>
        <time>2018-06-27T08:42:41Z</time>
      </trkpt>
      <trkpt lat="45.95614" lon="4.75629">
        <ele>188</ele>
        <time>2018-06-27T08:42:42Z</time>
      </trkpt>
      <trkpt lat="45.95617" lon="4.75634">
        <ele>188</ele>
        <time>2018-06-27T08:42:43Z</time>
      </trkpt>
      <trkpt lat="45.95618" lon="4.75642">
        <ele>188</ele>
        <time>2018-06-27T08:42:44Z</time>
      </trkpt>
      <trkpt lat="45.95619" lon="4.75654">
        <ele>188</ele>
        <time>2018-06-27T08:42:45Z</time>
      </trkpt>
      <trkpt lat="45.95621" lon="4.75662">
        <ele>188</ele>
        <time>2018-06-27T08:42:46Z</time>
      </trkpt>
      <trkpt lat="45.95622" lon="4.75669">
        <ele>187</ele>
        <time>2018-06-27T08:42:47Z</time>
      </trkpt>
      <trkpt lat="45.95624" lon="4.75676">
        <ele>187</ele>
        <time>2018-06-27T08:42:48Z</time>
      </trkpt>
      <trkpt lat="45.95625" lon="4.75685">
        <ele>187</ele>
        <time>2018-06-27T08:42:49Z</time>
      </trkpt>
      <trkpt lat="45.95626" lon="4.75693">
        <ele>187</ele>
        <time>2018-06-27T08:42:50Z</time>
      </trkpt>
      <trkpt lat="45.95628" lon="4.75702">
        <ele>187</ele>
        <time>2018-06-27T08:42:51Z</time>
      </trkpt>
      <trkpt lat="45.95629" lon="4.75709">
        <ele>187</ele>
        <time>2018-06-27T08:42:52Z</time>
      </trkpt>
      <trkpt lat="45.9563" lon="4.75717">
        <ele>187</ele>
        <time>2018-06-27T08:42:53Z</time>
      </trkpt>
      <trkpt lat="45.95632" lon="4.75725">
        <ele>187</ele>
        <time>2018-06-27T08:42:54Z</time>
      </trkpt>
      <trkpt lat="45.95632" lon="4.75732">
        <ele>187</ele>
        <time>2018-06-27T08:42:55Z</time>
      </trkpt>
      <trkpt lat="45.95634" lon="4.7574">
        <ele>187</ele>
        <time>2018-06-27T08:42:56Z</time>
      </trkpt>
      <trkpt lat="45.95634" lon="4.75747">
        <ele>187</ele>
        <time>2018-06-27T08:42:57Z</time>
      </trkpt>
      <trkpt lat="45.95636" lon="4.75758">
        <ele>186</ele>
        <time>2018-06-27T08:42:58Z</time>
      </trkpt>
      <trkpt lat="45.95638" lon="4.75768">
        <ele>186</ele>
        <time>2018-06-27T08:42:59Z</time>
      </trkpt>
      <trkpt lat="45.9564" lon="4.75778">
        <ele>186</ele>
        <time>2018-06-27T08:43:00Z</time>
      </trkpt>
      <trkpt lat="45.95641" lon="4.75786">
        <ele>185</ele>
        <time>2018-06-27T08:43:01Z</time>
      </trkpt>
      <trkpt lat="45.95642" lon="4.75795">
        <ele>185</ele>
        <time>2018-06-27T08:43:02Z</time>
      </trkpt>
      <trkpt lat="45.95644" lon="4.75803">
        <ele>185</ele>
        <time>2018-06-27T08:43:03Z</time>
      </trkpt>
      <trkpt lat="45.95646" lon="4.75813">
        <ele>185</ele>
        <time>2018-06-27T08:43:04Z</time>
      </trkpt>
      <trkpt lat="45.95648" lon="4.7582">
        <ele>185</ele>
        <time>2018-06-27T08:43:05Z</time>
      </trkpt>
      <trkpt lat="45.95649" lon="4.75829">
        <ele>185</ele>
        <time>2018-06-27T08:43:06Z</time>
      </trkpt>
      <trkpt lat="45.95651" lon="4.75837">
        <ele>185</ele>
        <time>2018-06-27T08:43:07Z</time>
      </trkpt>
      <trkpt lat="45.95653" lon="4.75845">
        <ele>185</ele>
        <time>2018-06-27T08:43:08Z</time>
      </trkpt>
      <trkpt lat="45.95654" lon="4.75852">
        <ele>184</ele>
        <time>2018-06-27T08:43:09Z</time>
      </trkpt>
      <trkpt lat="45.95656" lon="4.75861">
        <ele>184</ele>
        <time>2018-06-27T08:43:10Z</time>
      </trkpt>
      <trkpt lat="45.95658" lon="4.75868">
        <ele>184</ele>
        <time>2018-06-27T08:43:11Z</time>
      </trkpt>
      <trkpt lat="45.95661" lon="4.75876">
        <ele>184</ele>
        <time>2018-06-27T08:43:12Z</time>
      </trkpt>
      <trkpt lat="45.95664" lon="4.75883">
        <ele>184</ele>
        <time>2018-06-27T08:43:13Z</time>
      </trkpt>
      <trkpt lat="45.95667" lon="4.75891">
        <ele>186</ele>
        <time>2018-06-27T08:43:14Z</time>
      </trkpt>
      <trkpt lat="45.9567" lon="4.75897">
        <ele>185</ele>
        <time>2018-06-27T08:43:15Z</time>
      </trkpt>
      <trkpt lat="45.95672" lon="4.75905">
        <ele>185</ele>
        <time>2018-06-27T08:43:16Z</time>
      </trkpt>
      <trkpt lat="45.95675" lon="4.75911">
        <ele>185</ele>
        <time>2018-06-27T08:43:17Z</time>
      </trkpt>
      <trkpt lat="45.95678" lon="4.75918">
        <ele>185</ele>
        <time>2018-06-27T08:43:18Z</time>
      </trkpt>
      <trkpt lat="45.95681" lon="4.75924">
        <ele>185</ele>
        <time>2018-06-27T08:43:19Z</time>
      </trkpt>
      <trkpt lat="45.95684" lon="4.75931">
        <ele>185</ele>
        <time>2018-06-27T08:43:20Z</time>
      </trkpt>
      <trkpt lat="45.95687" lon="4.75937">
        <ele>185</ele>
        <time>2018-06-27T08:43:21Z</time>
      </trkpt>
      <trkpt lat="45.95689" lon="4.75944">
        <ele>185</ele>
        <time>2018-06-27T08:43:22Z</time>
      </trkpt>
      <trkpt lat="45.95692" lon="4.75949">
        <ele>185</ele>
        <time>2018-06-27T08:43:23Z</time>
      </trkpt>
      <trkpt lat="45.95695" lon="4.75956">
        <ele>185</ele>
        <time>2018-06-27T08:43:24Z</time>
      </trkpt>
      <trkpt lat="45.95698" lon="4.75962">
        <ele>185</ele>
        <time>2018-06-27T08:43:25Z</time>
      </trkpt>
      <trkpt lat="45.95701" lon="4.75969">
        <ele>185</ele>
        <time>2018-06-27T08:43:26Z</time>
      </trkpt>
      <trkpt lat="45.95704" lon="4.75975">
        <ele>185</ele>
        <time>2018-06-27T08:43:27Z</time>
      </trkpt>
      <trkpt lat="45.95707" lon="4.75981">
        <ele>185</ele>
        <time>2018-06-27T08:43:28Z</time>
      </trkpt>
      <trkpt lat="45.9571" lon="4.75988">
        <ele>185</ele>
        <time>2018-06-27T08:43:29Z</time>
      </trkpt>
      <trkpt lat="45.95713" lon="4.75995">
        <ele>185</ele>
        <time>2018-06-27T08:43:30Z</time>
      </trkpt>
      <trkpt lat="45.95717" lon="4.76002">
        <ele>184</ele>
        <time>2018-06-27T08:43:31Z</time>
      </trkpt>
      <trkpt lat="45.9572" lon="4.76009">
        <ele>184</ele>
        <time>2018-06-27T08:43:32Z</time>
      </trkpt>
      <trkpt lat="45.95723" lon="4.76016">
        <ele>185</ele>
        <time>2018-06-27T08:43:33Z</time>
      </trkpt>
      <trkpt lat="45.95725" lon="4.76022">
        <ele>184</ele>
        <time>2018-06-27T08:43:34Z</time>
      </trkpt>
      <trkpt lat="45.95728" lon="4.76027">
        <ele>184</ele>
        <time>2018-06-27T08:43:35Z</time>
      </trkpt>
      <trkpt lat="45.95731" lon="4.76033">
        <ele>184</ele>
        <time>2018-06-27T08:43:36Z</time>
      </trkpt>
      <trkpt lat="45.95733" lon="4.76039">
        <ele>184</ele>
        <time>2018-06-27T08:43:37Z</time>
      </trkpt>
      <trkpt lat="45.95736" lon="4.76045">
        <ele>184</ele>
        <time>2018-06-27T08:43:38Z</time>
      </trkpt>
      <trkpt lat="45.9574" lon="4.7605">
        <ele>184</ele>
        <time>2018-06-27T08:43:39Z</time>
      </trkpt>
      <trkpt lat="45.95742" lon="4.76056">
        <ele>184</ele>
        <time>2018-06-27T08:43:40Z</time>
      </trkpt>
      <trkpt lat="45.95745" lon="4.76064">
        <ele>185</ele>
        <time>2018-06-27T08:43:41Z</time>
      </trkpt>
      <trkpt lat="45.95747" lon="4.76069">
        <ele>185</ele>
        <time>2018-06-27T08:43:42Z</time>
      </trkpt>
      <trkpt lat="45.95749" lon="4.76075">
        <ele>185</ele>
        <time>2018-06-27T08:43:43Z</time>
      </trkpt>
      <trkpt lat="45.95751" lon="4.76081">
        <ele>185</ele>
        <time>2018-06-27T08:43:44Z</time>
      </trkpt>
      <trkpt lat="45.95753" lon="4.76088">
        <ele>185</ele>
        <time>2018-06-27T08:43:45Z</time>
      </trkpt>
      <trkpt lat="45.95755" lon="4.76094">
        <ele>186</ele>
        <time>2018-06-27T08:43:46Z</time>
      </trkpt>
      <trkpt lat="45.95758" lon="4.76106">
        <ele>186</ele>
        <time>2018-06-27T08:43:48Z</time>
      </trkpt>
      <trkpt lat="45.9576" lon="4.76113">
        <ele>186</ele>
        <time>2018-06-27T08:43:49Z</time>
      </trkpt>
      <trkpt lat="45.95761" lon="4.7612">
        <ele>186</ele>
        <time>2018-06-27T08:43:50Z</time>
      </trkpt>
      <trkpt lat="45.95762" lon="4.76127">
        <ele>186</ele>
        <time>2018-06-27T08:43:51Z</time>
      </trkpt>
      <trkpt lat="45.95762" lon="4.76135">
        <ele>186</ele>
        <time>2018-06-27T08:43:52Z</time>
      </trkpt>
      <trkpt lat="45.95763" lon="4.76142">
        <ele>186</ele>
        <time>2018-06-27T08:43:53Z</time>
      </trkpt>
      <trkpt lat="45.95764" lon="4.7615">
        <ele>186</ele>
        <time>2018-06-27T08:43:54Z</time>
      </trkpt>
      <trkpt lat="45.95764" lon="4.76158">
        <ele>186</ele>
        <time>2018-06-27T08:43:55Z</time>
      </trkpt>
      <trkpt lat="45.95765" lon="4.76165">
        <ele>186</ele>
        <time>2018-06-27T08:43:56Z</time>
      </trkpt>
      <trkpt lat="45.95765" lon="4.76171">
        <ele>185</ele>
        <time>2018-06-27T08:43:57Z</time>
      </trkpt>
      <trkpt lat="45.95765" lon="4.76178">
        <ele>186</ele>
        <time>2018-06-27T08:43:58Z</time>
      </trkpt>
      <trkpt lat="45.95766" lon="4.76184">
        <ele>186</ele>
        <time>2018-06-27T08:43:59Z</time>
      </trkpt>
      <trkpt lat="45.95766" lon="4.76197">
        <ele>186</ele>
        <time>2018-06-27T08:44:01Z</time>
      </trkpt>
      <trkpt lat="45.95767" lon="4.76207">
        <ele>186</ele>
        <time>2018-06-27T08:44:02Z</time>
      </trkpt>
      <trkpt lat="45.95768" lon="4.76215">
        <ele>186</ele>
        <time>2018-06-27T08:44:03Z</time>
      </trkpt>
      <trkpt lat="45.95769" lon="4.76223">
        <ele>186</ele>
        <time>2018-06-27T08:44:04Z</time>
      </trkpt>
      <trkpt lat="45.95769" lon="4.7623">
        <ele>186</ele>
        <time>2018-06-27T08:44:05Z</time>
      </trkpt>
      <trkpt lat="45.95769" lon="4.76238">
        <ele>186</ele>
        <time>2018-06-27T08:44:06Z</time>
      </trkpt>
      <trkpt lat="45.95769" lon="4.76246">
        <ele>186</ele>
        <time>2018-06-27T08:44:07Z</time>
      </trkpt>
      <trkpt lat="45.95769" lon="4.76255">
        <ele>185</ele>
        <time>2018-06-27T08:44:08Z</time>
      </trkpt>
      <trkpt lat="45.95769" lon="4.76263">
        <ele>185</ele>
        <time>2018-06-27T08:44:09Z</time>
      </trkpt>
      <trkpt lat="45.9577" lon="4.76271">
        <ele>186</ele>
        <time>2018-06-27T08:44:10Z</time>
      </trkpt>
      <trkpt lat="45.9577" lon="4.76279">
        <ele>186</ele>
        <time>2018-06-27T08:44:11Z</time>
      </trkpt>
      <trkpt lat="45.9577" lon="4.76286">
        <ele>186</ele>
        <time>2018-06-27T08:44:12Z</time>
      </trkpt>
      <trkpt lat="45.95771" lon="4.76294">
        <ele>186</ele>
        <time>2018-06-27T08:44:13Z</time>
      </trkpt>
      <trkpt lat="45.95772" lon="4.76301">
        <ele>186</ele>
        <time>2018-06-27T08:44:14Z</time>
      </trkpt>
      <trkpt lat="45.95772" lon="4.76308">
        <ele>186</ele>
        <time>2018-06-27T08:44:15Z</time>
      </trkpt>
      <trkpt lat="45.95772" lon="4.76316">
        <ele>185</ele>
        <time>2018-06-27T08:44:16Z</time>
      </trkpt>
      <trkpt lat="45.95773" lon="4.76323">
        <ele>185</ele>
        <time>2018-06-27T08:44:17Z</time>
      </trkpt>
      <trkpt lat="45.95773" lon="4.7633">
        <ele>185</ele>
        <time>2018-06-27T08:44:18Z</time>
      </trkpt>
      <trkpt lat="45.95773" lon="4.76338">
        <ele>186</ele>
        <time>2018-06-27T08:44:19Z</time>
      </trkpt>
      <trkpt lat="45.95774" lon="4.76345">
        <ele>186</ele>
        <time>2018-06-27T08:44:20Z</time>
      </trkpt>
      <trkpt lat="45.95775" lon="4.76353">
        <ele>186</ele>
        <time>2018-06-27T08:44:21Z</time>
      </trkpt>
      <trkpt lat="45.95775" lon="4.7636">
        <ele>186</ele>
        <time>2018-06-27T08:44:22Z</time>
      </trkpt>
      <trkpt lat="45.95775" lon="4.76368">
        <ele>186</ele>
        <time>2018-06-27T08:44:23Z</time>
      </trkpt>
      <trkpt lat="45.95776" lon="4.76375">
        <ele>186</ele>
        <time>2018-06-27T08:44:24Z</time>
      </trkpt>
      <trkpt lat="45.95776" lon="4.76382">
        <ele>186</ele>
        <time>2018-06-27T08:44:25Z</time>
      </trkpt>
      <trkpt lat="45.95776" lon="4.76389">
        <ele>186</ele>
        <time>2018-06-27T08:44:26Z</time>
      </trkpt>
      <trkpt lat="45.95776" lon="4.76401">
        <ele>186</ele>
        <time>2018-06-27T08:44:28Z</time>
      </trkpt>
      <trkpt lat="45.95776" lon="4.76409">
        <ele>186</ele>
        <time>2018-06-27T08:44:29Z</time>
      </trkpt>
      <trkpt lat="45.95777" lon="4.76416">
        <ele>186</ele>
        <time>2018-06-27T08:44:30Z</time>
      </trkpt>
      <trkpt lat="45.95778" lon="4.76423">
        <ele>186</ele>
        <time>2018-06-27T08:44:31Z</time>
      </trkpt>
      <trkpt lat="45.9578" lon="4.76431">
        <ele>186</ele>
        <time>2018-06-27T08:44:32Z</time>
      </trkpt>
      <trkpt lat="45.95781" lon="4.76438">
        <ele>186</ele>
        <time>2018-06-27T08:44:33Z</time>
      </trkpt>
      <trkpt lat="45.95783" lon="4.76446">
        <ele>186</ele>
        <time>2018-06-27T08:44:34Z</time>
      </trkpt>
      <trkpt lat="45.95784" lon="4.76454">
        <ele>186</ele>
        <time>2018-06-27T08:44:35Z</time>
      </trkpt>
      <trkpt lat="45.95785" lon="4.76461">
        <ele>186</ele>
        <time>2018-06-27T08:44:36Z</time>
      </trkpt>
      <trkpt lat="45.95787" lon="4.76471">
        <ele>186</ele>
        <time>2018-06-27T08:44:37Z</time>
      </trkpt>
      <trkpt lat="45.95789" lon="4.7648">
        <ele>186</ele>
        <time>2018-06-27T08:44:38Z</time>
      </trkpt>
      <trkpt lat="45.95789" lon="4.76486">
        <ele>186</ele>
        <time>2018-06-27T08:44:39Z</time>
      </trkpt>
      <trkpt lat="45.9579" lon="4.76494">
        <ele>186</ele>
        <time>2018-06-27T08:44:40Z</time>
      </trkpt>
      <trkpt lat="45.95791" lon="4.76501">
        <ele>187</ele>
        <time>2018-06-27T08:44:41Z</time>
      </trkpt>
      <trkpt lat="45.95792" lon="4.76508">
        <ele>187</ele>
        <time>2018-06-27T08:44:42Z</time>
      </trkpt>
      <trkpt lat="45.95794" lon="4.76515">
        <ele>187</ele>
        <time>2018-06-27T08:44:43Z</time>
      </trkpt>
      <trkpt lat="45.95795" lon="4.76522">
        <ele>187</ele>
        <time>2018-06-27T08:44:44Z</time>
      </trkpt>
      <trkpt lat="45.95796" lon="4.76529">
        <ele>187</ele>
        <time>2018-06-27T08:44:45Z</time>
      </trkpt>
      <trkpt lat="45.95797" lon="4.76536">
        <ele>187</ele>
        <time>2018-06-27T08:44:46Z</time>
      </trkpt>
      <trkpt lat="45.95798" lon="4.76543">
        <ele>187</ele>
        <time>2018-06-27T08:44:47Z</time>
      </trkpt>
      <trkpt lat="45.95799" lon="4.7655">
        <ele>187</ele>
        <time>2018-06-27T08:44:48Z</time>
      </trkpt>
      <trkpt lat="45.95801" lon="4.76555">
        <ele>187</ele>
        <time>2018-06-27T08:44:49Z</time>
      </trkpt>
      <trkpt lat="45.95802" lon="4.76562">
        <ele>187</ele>
        <time>2018-06-27T08:44:50Z</time>
      </trkpt>
      <trkpt lat="45.95803" lon="4.7657">
        <ele>187</ele>
        <time>2018-06-27T08:44:51Z</time>
      </trkpt>
      <trkpt lat="45.95804" lon="4.76578">
        <ele>187</ele>
        <time>2018-06-27T08:44:52Z</time>
      </trkpt>
      <trkpt lat="45.95804" lon="4.76584">
        <ele>188</ele>
        <time>2018-06-27T08:44:53Z</time>
      </trkpt>
      <trkpt lat="45.95805" lon="4.76591">
        <ele>188</ele>
        <time>2018-06-27T08:44:54Z</time>
      </trkpt>
      <trkpt lat="45.95806" lon="4.76599">
        <ele>188</ele>
        <time>2018-06-27T08:44:55Z</time>
      </trkpt>
      <trkpt lat="45.95807" lon="4.76607">
        <ele>188</ele>
        <time>2018-06-27T08:44:56Z</time>
      </trkpt>
      <trkpt lat="45.95808" lon="4.76614">
        <ele>188</ele>
        <time>2018-06-27T08:44:57Z</time>
      </trkpt>
      <trkpt lat="45.95809" lon="4.76622">
        <ele>188</ele>
        <time>2018-06-27T08:44:58Z</time>
      </trkpt>
      <trkpt lat="45.9581" lon="4.76628">
        <ele>188</ele>
        <time>2018-06-27T08:44:59Z</time>
      </trkpt>
      <trkpt lat="45.95811" lon="4.76636">
        <ele>188</ele>
        <time>2018-06-27T08:45:00Z</time>
      </trkpt>
      <trkpt lat="45.95812" lon="4.76643">
        <ele>188</ele>
        <time>2018-06-27T08:45:01Z</time>
      </trkpt>
      <trkpt lat="45.95813" lon="4.76651">
        <ele>188</ele>
        <time>2018-06-27T08:45:02Z</time>
      </trkpt>
      <trkpt lat="45.95814" lon="4.76658">
        <ele>188</ele>
        <time>2018-06-27T08:45:03Z</time>
      </trkpt>
      <trkpt lat="45.95815" lon="4.76665">
        <ele>188</ele>
        <time>2018-06-27T08:45:04Z</time>
      </trkpt>
      <trkpt lat="45.95817" lon="4.76673">
        <ele>189</ele>
        <time>2018-06-27T08:45:05Z</time>
      </trkpt>
      <trkpt lat="45.95818" lon="4.76685">
        <ele>189</ele>
        <time>2018-06-27T08:45:07Z</time>
      </trkpt>
      <trkpt lat="45.95819" lon="4.76692">
        <ele>189</ele>
        <time>2018-06-27T08:45:08Z</time>
      </trkpt>
      <trkpt lat="45.9582" lon="4.76704">
        <ele>189</ele>
        <time>2018-06-27T08:45:10Z</time>
      </trkpt>
      <trkpt lat="45.95821" lon="4.76711">
        <ele>189</ele>
        <time>2018-06-27T08:45:11Z</time>
      </trkpt>
      <trkpt lat="45.95823" lon="4.76719">
        <ele>189</ele>
        <time>2018-06-27T08:45:12Z</time>
      </trkpt>
      <trkpt lat="45.95824" lon="4.76728">
        <ele>190</ele>
        <time>2018-06-27T08:45:13Z</time>
      </trkpt>
      <trkpt lat="45.95826" lon="4.76736">
        <ele>190</ele>
        <time>2018-06-27T08:45:14Z</time>
      </trkpt>
      <trkpt lat="45.95829" lon="4.76744">
        <ele>190</ele>
        <time>2018-06-27T08:45:15Z</time>
      </trkpt>
      <trkpt lat="45.9583" lon="4.76752">
        <ele>191</ele>
        <time>2018-06-27T08:45:16Z</time>
      </trkpt>
      <trkpt lat="45.95831" lon="4.76758">
        <ele>191</ele>
        <time>2018-06-27T08:45:17Z</time>
      </trkpt>
      <trkpt lat="45.95833" lon="4.76771">
        <ele>190</ele>
        <time>2018-06-27T08:45:19Z</time>
      </trkpt>
      <trkpt lat="45.95835" lon="4.76777">
        <ele>191</ele>
        <time>2018-06-27T08:45:20Z</time>
      </trkpt>
      <trkpt lat="45.95839" lon="4.76788">
        <ele>191</ele>
        <time>2018-06-27T08:45:22Z</time>
      </trkpt>
      <trkpt lat="45.95842" lon="4.76793">
        <ele>191</ele>
        <time>2018-06-27T08:45:23Z</time>
      </trkpt>
      <trkpt lat="45.95846" lon="4.76797">
        <ele>191</ele>
        <time>2018-06-27T08:45:24Z</time>
      </trkpt>
      <trkpt lat="45.9585" lon="4.76801">
        <ele>191</ele>
        <time>2018-06-27T08:45:25Z</time>
      </trkpt>
      <trkpt lat="45.95853" lon="4.76805">
        <ele>191</ele>
        <time>2018-06-27T08:45:26Z</time>
      </trkpt>
      <trkpt lat="45.95858" lon="4.76809">
        <ele>191</ele>
        <time>2018-06-27T08:45:27Z</time>
      </trkpt>
      <trkpt lat="45.95862" lon="4.76813">
        <ele>191</ele>
        <time>2018-06-27T08:45:28Z</time>
      </trkpt>
      <trkpt lat="45.95866" lon="4.76817">
        <ele>191</ele>
        <time>2018-06-27T08:45:29Z</time>
      </trkpt>
      <trkpt lat="45.9587" lon="4.7682">
        <ele>191</ele>
        <time>2018-06-27T08:45:30Z</time>
      </trkpt>
      <trkpt lat="45.95874" lon="4.76825">
        <ele>191</ele>
        <time>2018-06-27T08:45:31Z</time>
      </trkpt>
      <trkpt lat="45.95878" lon="4.76829">
        <ele>191</ele>
        <time>2018-06-27T08:45:32Z</time>
      </trkpt>
      <trkpt lat="45.95881" lon="4.76833">
        <ele>191</ele>
        <time>2018-06-27T08:45:33Z</time>
      </trkpt>
      <trkpt lat="45.95888" lon="4.76841">
        <ele>191</ele>
        <time>2018-06-27T08:45:35Z</time>
      </trkpt>
      <trkpt lat="45.95892" lon="4.76845">
        <ele>191</ele>
        <time>2018-06-27T08:45:36Z</time>
      </trkpt>
      <trkpt lat="45.95895" lon="4.76849">
        <ele>191</ele>
        <time>2018-06-27T08:45:37Z</time>
      </trkpt>
      <trkpt lat="45.95899" lon="4.76853">
        <ele>191</ele>
        <time>2018-06-27T08:45:38Z</time>
      </trkpt>
      <trkpt lat="45.95904" lon="4.76859">
        <ele>191</ele>
        <time>2018-06-27T08:45:39Z</time>
      </trkpt>
      <trkpt lat="45.95907" lon="4.76863">
        <ele>191</ele>
        <time>2018-06-27T08:45:40Z</time>
      </trkpt>
      <trkpt lat="45.95914" lon="4.76868">
        <ele>191</ele>
        <time>2018-06-27T08:45:42Z</time>
      </trkpt>
      <trkpt lat="45.95918" lon="4.76872">
        <ele>192</ele>
        <time>2018-06-27T08:45:43Z</time>
      </trkpt>
      <trkpt lat="45.95924" lon="4.7688">
        <ele>192</ele>
        <time>2018-06-27T08:45:45Z</time>
      </trkpt>
      <trkpt lat="45.95928" lon="4.76883">
        <ele>192</ele>
        <time>2018-06-27T08:45:46Z</time>
      </trkpt>
      <trkpt lat="45.95934" lon="4.76891">
        <ele>192</ele>
        <time>2018-06-27T08:45:48Z</time>
      </trkpt>
      <trkpt lat="45.95937" lon="4.76894">
        <ele>192</ele>
        <time>2018-06-27T08:45:49Z</time>
      </trkpt>
      <trkpt lat="45.95943" lon="4.769">
        <ele>192</ele>
        <time>2018-06-27T08:45:51Z</time>
      </trkpt>
      <trkpt lat="45.95946" lon="4.76903">
        <ele>193</ele>
        <time>2018-06-27T08:45:52Z</time>
      </trkpt>
      <trkpt lat="45.9595" lon="4.76908">
        <ele>193</ele>
        <time>2018-06-27T08:45:54Z</time>
      </trkpt>
      <trkpt lat="45.95954" lon="4.76913">
        <ele>193</ele>
        <time>2018-06-27T08:45:55Z</time>
      </trkpt>
      <trkpt lat="45.9596" lon="4.76919">
        <ele>195</ele>
        <time>2018-06-27T08:45:58Z</time>
      </trkpt>
      <trkpt lat="45.95962" lon="4.76921">
        <ele>195</ele>
        <time>2018-06-27T08:45:59Z</time>
      </trkpt>
      <trkpt lat="45.95967" lon="4.76926">
        <ele>195</ele>
        <time>2018-06-27T08:46:01Z</time>
      </trkpt>
      <trkpt lat="45.95969" lon="4.76929">
        <ele>195</ele>
        <time>2018-06-27T08:46:02Z</time>
      </trkpt>
      <trkpt lat="45.95974" lon="4.76935">
        <ele>196</ele>
        <time>2018-06-27T08:46:04Z</time>
      </trkpt>
      <trkpt lat="45.95976" lon="4.76939">
        <ele>196</ele>
        <time>2018-06-27T08:46:05Z</time>
      </trkpt>
      <trkpt lat="45.9598" lon="4.76946">
        <ele>196</ele>
        <time>2018-06-27T08:46:07Z</time>
      </trkpt>
      <trkpt lat="45.95981" lon="4.76951">
        <ele>196</ele>
        <time>2018-06-27T08:46:08Z</time>
      </trkpt>
      <trkpt lat="45.95983" lon="4.76959">
        <ele>196</ele>
        <time>2018-06-27T08:46:10Z</time>
      </trkpt>
      <trkpt lat="45.95983" lon="4.76964">
        <ele>197</ele>
        <time>2018-06-27T08:46:11Z</time>
      </trkpt>
      <trkpt lat="45.95983" lon="4.76972">
        <ele>197</ele>
        <time>2018-06-27T08:46:13Z</time>
      </trkpt>
      <trkpt lat="45.95982" lon="4.76977">
        <ele>197</ele>
        <time>2018-06-27T08:46:14Z</time>
      </trkpt>
      <trkpt lat="45.95981" lon="4.76985">
        <ele>197</ele>
        <time>2018-06-27T08:46:16Z</time>
      </trkpt>
      <trkpt lat="45.9598" lon="4.76989">
        <ele>198</ele>
        <time>2018-06-27T08:46:17Z</time>
      </trkpt>
      <trkpt lat="45.95978" lon="4.76997">
        <ele>198</ele>
        <time>2018-06-27T08:46:19Z</time>
      </trkpt>
      <trkpt lat="45.95976" lon="4.77001">
        <ele>200</ele>
        <time>2018-06-27T08:46:20Z</time>
      </trkpt>
      <trkpt lat="45.95974" lon="4.7701">
        <ele>200</ele>
        <time>2018-06-27T08:46:22Z</time>
      </trkpt>
      <trkpt lat="45.95972" lon="4.77014">
        <ele>200</ele>
        <time>2018-06-27T08:46:23Z</time>
      </trkpt>
      <trkpt lat="45.95969" lon="4.77023">
        <ele>200</ele>
        <time>2018-06-27T08:46:25Z</time>
      </trkpt>
      <trkpt lat="45.95967" lon="4.77027">
        <ele>200</ele>
        <time>2018-06-27T08:46:26Z</time>
      </trkpt>
      <trkpt lat="45.95964" lon="4.77035">
        <ele>200</ele>
        <time>2018-06-27T08:46:28Z</time>
      </trkpt>
      <trkpt lat="45.95963" lon="4.77039">
        <ele>200</ele>
        <time>2018-06-27T08:46:29Z</time>
      </trkpt>
      <trkpt lat="45.95961" lon="4.77043">
        <ele>200</ele>
        <time>2018-06-27T08:46:30Z</time>
      </trkpt>
      <trkpt lat="45.95957" lon="4.77055">
        <ele>200</ele>
        <time>2018-06-27T08:46:31Z</time>
      </trkpt>
      <trkpt lat="45.95953" lon="4.77067">
        <ele>200</ele>
        <time>2018-06-27T08:46:35Z</time>
      </trkpt>
      <trkpt lat="45.95952" lon="4.7707">
        <ele>200</ele>
        <time>2018-06-27T08:46:36Z</time>
      </trkpt>
      <trkpt lat="45.95949" lon="4.77082">
        <ele>200</ele>
        <time>2018-06-27T08:46:39Z</time>
      </trkpt>
      <trkpt lat="45.95948" lon="4.77086">
        <ele>201</ele>
        <time>2018-06-27T08:46:40Z</time>
      </trkpt>
      <trkpt lat="45.95946" lon="4.77094">
        <ele>201</ele>
        <time>2018-06-27T08:46:42Z</time>
      </trkpt>
      <trkpt lat="45.95946" lon="4.77099">
        <ele>201</ele>
        <time>2018-06-27T08:46:43Z</time>
      </trkpt>
      <trkpt lat="45.95944" lon="4.77108">
        <ele>201</ele>
        <time>2018-06-27T08:46:45Z</time>
      </trkpt>
      <trkpt lat="45.95944" lon="4.77112">
        <ele>201</ele>
        <time>2018-06-27T08:46:46Z</time>
      </trkpt>
      <trkpt lat="45.95944" lon="4.77122">
        <ele>201</ele>
        <time>2018-06-27T08:46:48Z</time>
      </trkpt>
      <trkpt lat="45.95944" lon="4.77127">
        <ele>201</ele>
        <time>2018-06-27T08:46:49Z</time>
      </trkpt>
      <trkpt lat="45.95944" lon="4.77136">
        <ele>201</ele>
        <time>2018-06-27T08:46:51Z</time>
      </trkpt>
      <trkpt lat="45.95944" lon="4.77141">
        <ele>201</ele>
        <time>2018-06-27T08:46:52Z</time>
      </trkpt>
      <trkpt lat="45.95945" lon="4.7715">
        <ele>201</ele>
        <time>2018-06-27T08:46:54Z</time>
      </trkpt>
      <trkpt lat="45.95945" lon="4.77155">
        <ele>201</ele>
        <time>2018-06-27T08:46:55Z</time>
      </trkpt>
      <trkpt lat="45.95946" lon="4.77164">
        <ele>201</ele>
        <time>2018-06-27T08:46:57Z</time>
      </trkpt>
      <trkpt lat="45.95947" lon="4.77168">
        <ele>200</ele>
        <time>2018-06-27T08:46:58Z</time>
      </trkpt>
      <trkpt lat="45.95949" lon="4.77181">
        <ele>201</ele>
        <time>2018-06-27T08:47:01Z</time>
      </trkpt>
      <trkpt lat="45.95949" lon="4.77185">
        <ele>201</ele>
        <time>2018-06-27T08:47:02Z</time>
      </trkpt>
      <trkpt lat="45.95952" lon="4.77196">
        <ele>201</ele>
        <time>2018-06-27T08:47:05Z</time>
      </trkpt>
      <trkpt lat="45.95953" lon="4.772">
        <ele>201</ele>
        <time>2018-06-27T08:47:06Z</time>
      </trkpt>
      <trkpt lat="45.95958" lon="4.7721">
        <ele>201</ele>
        <time>2018-06-27T08:47:09Z</time>
      </trkpt>
      <trkpt lat="45.95959" lon="4.77213">
        <ele>201</ele>
        <time>2018-06-27T08:47:10Z</time>
      </trkpt>
      <trkpt lat="45.95965" lon="4.77222">
        <ele>201</ele>
        <time>2018-06-27T08:47:13Z</time>
      </trkpt>
      <trkpt lat="45.95967" lon="4.77224">
        <ele>201</ele>
        <time>2018-06-27T08:47:14Z</time>
      </trkpt>
      <trkpt lat="45.95973" lon="4.77231">
        <ele>202</ele>
        <time>2018-06-27T08:47:17Z</time>
      </trkpt>
      <trkpt lat="45.95975" lon="4.77233">
        <ele>202</ele>
        <time>2018-06-27T08:47:18Z</time>
      </trkpt>
      <trkpt lat="45.95983" lon="4.77238">
        <ele>202</ele>
        <time>2018-06-27T08:47:21Z</time>
      </trkpt>
      <trkpt lat="45.95986" lon="4.7724">
        <ele>202</ele>
        <time>2018-06-27T08:47:22Z</time>
      </trkpt>
      <trkpt lat="45.95994" lon="4.77243">
        <ele>203</ele>
        <time>2018-06-27T08:47:25Z</time>
      </trkpt>
      <trkpt lat="45.95997" lon="4.77244">
        <ele>203</ele>
        <time>2018-06-27T08:47:26Z</time>
      </trkpt>
      <trkpt lat="45.96006" lon="4.77246">
        <ele>204</ele>
        <time>2018-06-27T08:47:29Z</time>
      </trkpt>
      <trkpt lat="45.96009" lon="4.77247">
        <ele>205</ele>
        <time>2018-06-27T08:47:30Z</time>
      </trkpt>
      <trkpt lat="45.96017" lon="4.77247">
        <ele>206</ele>
        <time>2018-06-27T08:47:33Z</time>
      </trkpt>
      <trkpt lat="45.9602" lon="4.77247">
        <ele>206</ele>
        <time>2018-06-27T08:47:34Z</time>
      </trkpt>
      <trkpt lat="45.96029" lon="4.77247">
        <ele>207</ele>
        <time>2018-06-27T08:47:37Z</time>
      </trkpt>
      <trkpt lat="45.96032" lon="4.77247">
        <ele>208</ele>
        <time>2018-06-27T08:47:38Z</time>
      </trkpt>
      <trkpt lat="45.9604" lon="4.77248">
        <ele>208</ele>
        <time>2018-06-27T08:47:41Z</time>
      </trkpt>
      <trkpt lat="45.96043" lon="4.77248">
        <ele>208</ele>
        <time>2018-06-27T08:47:42Z</time>
      </trkpt>
      <trkpt lat="45.96051" lon="4.77248">
        <ele>209</ele>
        <time>2018-06-27T08:47:45Z</time>
      </trkpt>
      <trkpt lat="45.96054" lon="4.77248">
        <ele>209</ele>
        <time>2018-06-27T08:47:46Z</time>
      </trkpt>
      <trkpt lat="45.96062" lon="4.77247">
        <ele>209</ele>
        <time>2018-06-27T08:47:49Z</time>
      </trkpt>
      <trkpt lat="45.96064" lon="4.77247">
        <ele>209</ele>
        <time>2018-06-27T08:47:50Z</time>
      </trkpt>
      <trkpt lat="45.96071" lon="4.77247">
        <ele>210</ele>
        <time>2018-06-27T08:47:53Z</time>
      </trkpt>
      <trkpt lat="45.96074" lon="4.77246">
        <ele>210</ele>
        <time>2018-06-27T08:47:54Z</time>
      </trkpt>
      <trkpt lat="45.96081" lon="4.77245">
        <ele>210</ele>
        <time>2018-06-27T08:47:57Z</time>
      </trkpt>
      <trkpt lat="45.96084" lon="4.77245">
        <ele>211</ele>
        <time>2018-06-27T08:47:58Z</time>
      </trkpt>
      <trkpt lat="45.96092" lon="4.77245">
        <ele>212</ele>
        <time>2018-06-27T08:48:01Z</time>
      </trkpt>
      <trkpt lat="45.96096" lon="4.77245">
        <ele>212</ele>
        <time>2018-06-27T08:48:02Z</time>
      </trkpt>
      <trkpt lat="45.96104" lon="4.77246">
        <ele>213</ele>
        <time>2018-06-27T08:48:05Z</time>
      </trkpt>
      <trkpt lat="45.96107" lon="4.77247">
        <ele>213</ele>
        <time>2018-06-27T08:48:06Z</time>
      </trkpt>
      <trkpt lat="45.9611" lon="4.77248">
        <ele>213</ele>
        <time>2018-06-27T08:48:07Z</time>
      </trkpt>
      <trkpt lat="45.9612" lon="4.7725">
        <ele>214</ele>
        <time>2018-06-27T08:48:08Z</time>
      </trkpt>
      <trkpt lat="45.96128" lon="4.77252">
        <ele>212</ele>
        <time>2018-06-27T08:48:11Z</time>
      </trkpt>
      <trkpt lat="45.9613" lon="4.77253">
        <ele>212</ele>
        <time>2018-06-27T08:48:12Z</time>
      </trkpt>
      <trkpt lat="45.96137" lon="4.77256">
        <ele>212</ele>
        <time>2018-06-27T08:48:13Z</time>
      </trkpt>
      <trkpt lat="45.96139" lon="4.77256">
        <ele>213</ele>
        <time>2018-06-27T08:48:14Z</time>
      </trkpt>
      <trkpt lat="45.96144" lon="4.77258">
        <ele>213</ele>
        <time>2018-06-27T08:48:16Z</time>
      </trkpt>
      <trkpt lat="45.96151" lon="4.7726">
        <ele>213</ele>
        <time>2018-06-27T08:48:17Z</time>
      </trkpt>
      <trkpt lat="45.96158" lon="4.77263">
        <ele>214</ele>
        <time>2018-06-27T08:48:20Z</time>
      </trkpt>
      <trkpt lat="45.96165" lon="4.77266">
        <ele>214</ele>
        <time>2018-06-27T08:48:21Z</time>
      </trkpt>
      <trkpt lat="45.96173" lon="4.7727">
        <ele>216</ele>
        <time>2018-06-27T08:48:23Z</time>
      </trkpt>
      <trkpt lat="45.96176" lon="4.77272">
        <ele>216</ele>
        <time>2018-06-27T08:48:24Z</time>
      </trkpt>
      <trkpt lat="45.96184" lon="4.77275">
        <ele>216</ele>
        <time>2018-06-27T08:48:26Z</time>
      </trkpt>
      <trkpt lat="45.96188" lon="4.77277">
        <ele>216</ele>
        <time>2018-06-27T08:48:27Z</time>
      </trkpt>
      <trkpt lat="45.96195" lon="4.77281">
        <ele>216</ele>
        <time>2018-06-27T08:48:29Z</time>
      </trkpt>
      <trkpt lat="45.96199" lon="4.77283">
        <ele>216</ele>
        <time>2018-06-27T08:48:30Z</time>
      </trkpt>
      <trkpt lat="45.96207" lon="4.77287">
        <ele>216</ele>
        <time>2018-06-27T08:48:32Z</time>
      </trkpt>
      <trkpt lat="45.9621" lon="4.77288">
        <ele>216</ele>
        <time>2018-06-27T08:48:33Z</time>
      </trkpt>
      <trkpt lat="45.96218" lon="4.77293">
        <ele>216</ele>
        <time>2018-06-27T08:48:36Z</time>
      </trkpt>
      <trkpt lat="45.9622" lon="4.77294">
        <ele>217</ele>
        <time>2018-06-27T08:48:37Z</time>
      </trkpt>
      <trkpt lat="45.96228" lon="4.77298">
        <ele>217</ele>
        <time>2018-06-27T08:48:38Z</time>
      </trkpt>
      <trkpt lat="45.96231" lon="4.77299">
        <ele>217</ele>
        <time>2018-06-27T08:48:39Z</time>
      </trkpt>
      <trkpt lat="45.96239" lon="4.77303">
        <ele>217</ele>
        <time>2018-06-27T08:48:41Z</time>
      </trkpt>
      <trkpt lat="45.96243" lon="4.77305">
        <ele>217</ele>
        <time>2018-06-27T08:48:42Z</time>
      </trkpt>
      <trkpt lat="45.96251" lon="4.77308">
        <ele>218</ele>
        <time>2018-06-27T08:48:45Z</time>
      </trkpt>
      <trkpt lat="45.96253" lon="4.7731">
        <ele>218</ele>
        <time>2018-06-27T08:48:46Z</time>
      </trkpt>
      <trkpt lat="45.9626" lon="4.77313">
        <ele>218</ele>
        <time>2018-06-27T08:48:47Z</time>
      </trkpt>
      <trkpt lat="45.96262" lon="4.77314">
        <ele>218</ele>
        <time>2018-06-27T08:48:48Z</time>
      </trkpt>
      <trkpt lat="45.96269" lon="4.77318">
        <ele>218</ele>
        <time>2018-06-27T08:48:50Z</time>
      </trkpt>
      <trkpt lat="45.96273" lon="4.77321">
        <ele>218</ele>
        <time>2018-06-27T08:48:51Z</time>
      </trkpt>
      <trkpt lat="45.9628" lon="4.77326">
        <ele>219</ele>
        <time>2018-06-27T08:48:53Z</time>
      </trkpt>
      <trkpt lat="45.96282" lon="4.77327">
        <ele>219</ele>
        <time>2018-06-27T08:48:54Z</time>
      </trkpt>
      <trkpt lat="45.96287" lon="4.77329">
        <ele>219</ele>
        <time>2018-06-27T08:48:55Z</time>
      </trkpt>
      <trkpt lat="45.96291" lon="4.77331">
        <ele>219</ele>
        <time>2018-06-27T08:48:56Z</time>
      </trkpt>
      <trkpt lat="45.96298" lon="4.77334">
        <ele>217</ele>
        <time>2018-06-27T08:48:58Z</time>
      </trkpt>
      <trkpt lat="45.96302" lon="4.77336">
        <ele>217</ele>
        <time>2018-06-27T08:48:59Z</time>
      </trkpt>
      <trkpt lat="45.9631" lon="4.77341">
        <ele>217</ele>
        <time>2018-06-27T08:49:01Z</time>
      </trkpt>
      <trkpt lat="45.96313" lon="4.77343">
        <ele>217</ele>
        <time>2018-06-27T08:49:02Z</time>
      </trkpt>
      <trkpt lat="45.9632" lon="4.77347">
        <ele>218</ele>
        <time>2018-06-27T08:49:04Z</time>
      </trkpt>
      <trkpt lat="45.96324" lon="4.77349">
        <ele>218</ele>
        <time>2018-06-27T08:49:05Z</time>
      </trkpt>
      <trkpt lat="45.96331" lon="4.77352">
        <ele>218</ele>
        <time>2018-06-27T08:49:07Z</time>
      </trkpt>
      <trkpt lat="45.96335" lon="4.77354">
        <ele>219</ele>
        <time>2018-06-27T08:49:08Z</time>
      </trkpt>
      <trkpt lat="45.96342" lon="4.77358">
        <ele>219</ele>
        <time>2018-06-27T08:49:10Z</time>
      </trkpt>
      <trkpt lat="45.96345" lon="4.77359">
        <ele>219</ele>
        <time>2018-06-27T08:49:11Z</time>
      </trkpt>
      <trkpt lat="45.96352" lon="4.77363">
        <ele>219</ele>
        <time>2018-06-27T08:49:13Z</time>
      </trkpt>
      <trkpt lat="45.96356" lon="4.77366">
        <ele>219</ele>
        <time>2018-06-27T08:49:14Z</time>
      </trkpt>
      <trkpt lat="45.96363" lon="4.7737">
        <ele>219</ele>
        <time>2018-06-27T08:49:16Z</time>
      </trkpt>
      <trkpt lat="45.96365" lon="4.77371">
        <ele>219</ele>
        <time>2018-06-27T08:49:17Z</time>
      </trkpt>
      <trkpt lat="45.96371" lon="4.77375">
        <ele>219</ele>
        <time>2018-06-27T08:49:20Z</time>
      </trkpt>
      <trkpt lat="45.96374" lon="4.77377">
        <ele>219</ele>
        <time>2018-06-27T08:49:21Z</time>
      </trkpt>
      <trkpt lat="45.9638" lon="4.7738">
        <ele>220</ele>
        <time>2018-06-27T08:49:23Z</time>
      </trkpt>
      <trkpt lat="45.96388" lon="4.77385">
        <ele>220</ele>
        <time>2018-06-27T08:49:24Z</time>
      </trkpt>
      <trkpt lat="45.96396" lon="4.7739">
        <ele>220</ele>
        <time>2018-06-27T08:49:28Z</time>
      </trkpt>
      <trkpt lat="45.96398" lon="4.77391">
        <ele>220</ele>
        <time>2018-06-27T08:49:29Z</time>
      </trkpt>
      <trkpt lat="45.96404" lon="4.77395">
        <ele>220</ele>
        <time>2018-06-27T08:49:31Z</time>
      </trkpt>
      <trkpt lat="45.96407" lon="4.77397">
        <ele>220</ele>
        <time>2018-06-27T08:49:32Z</time>
      </trkpt>
      <trkpt lat="45.96413" lon="4.774">
        <ele>220</ele>
        <time>2018-06-27T08:49:34Z</time>
      </trkpt>
      <trkpt lat="45.96422" lon="4.77404">
        <ele>222</ele>
        <time>2018-06-27T08:49:35Z</time>
      </trkpt>
      <trkpt lat="45.96429" lon="4.77408">
        <ele>222</ele>
        <time>2018-06-27T08:49:38Z</time>
      </trkpt>
      <trkpt lat="45.96436" lon="4.77413">
        <ele>222</ele>
        <time>2018-06-27T08:49:39Z</time>
      </trkpt>
      <trkpt lat="45.96442" lon="4.77418">
        <ele>221</ele>
        <time>2018-06-27T08:49:41Z</time>
      </trkpt>
      <trkpt lat="45.96444" lon="4.77419">
        <ele>221</ele>
        <time>2018-06-27T08:49:42Z</time>
      </trkpt>
      <trkpt lat="45.9645" lon="4.77423">
        <ele>221</ele>
        <time>2018-06-27T08:49:45Z</time>
      </trkpt>
      <trkpt lat="45.96458" lon="4.77428">
        <ele>221</ele>
        <time>2018-06-27T08:49:46Z</time>
      </trkpt>
      <trkpt lat="45.96464" lon="4.77432">
        <ele>221</ele>
        <time>2018-06-27T08:49:48Z</time>
      </trkpt>
      <trkpt lat="45.96468" lon="4.77434">
        <ele>221</ele>
        <time>2018-06-27T08:49:49Z</time>
      </trkpt>
      <trkpt lat="45.96475" lon="4.77438">
        <ele>221</ele>
        <time>2018-06-27T08:49:51Z</time>
      </trkpt>
      <trkpt lat="45.96476" lon="4.77439">
        <ele>221</ele>
        <time>2018-06-27T08:49:52Z</time>
      </trkpt>
      <trkpt lat="45.96481" lon="4.77442">
        <ele>221</ele>
        <time>2018-06-27T08:49:54Z</time>
      </trkpt>
      <trkpt lat="45.96487" lon="4.77446">
        <ele>221</ele>
        <time>2018-06-27T08:49:55Z</time>
      </trkpt>
      <trkpt lat="45.96495" lon="4.77451">
        <ele>221</ele>
        <time>2018-06-27T08:49:58Z</time>
      </trkpt>
      <trkpt lat="45.96497" lon="4.77452">
        <ele>221</ele>
        <time>2018-06-27T08:49:59Z</time>
      </trkpt>
      <trkpt lat="45.96505" lon="4.77456">
        <ele>223</ele>
        <time>2018-06-27T08:50:02Z</time>
      </trkpt>
      <trkpt lat="45.96508" lon="4.77458">
        <ele>223</ele>
        <time>2018-06-27T08:50:03Z</time>
      </trkpt>
      <trkpt lat="45.96514" lon="4.77462">
        <ele>223</ele>
        <time>2018-06-27T08:50:05Z</time>
      </trkpt>
      <trkpt lat="45.96517" lon="4.77464">
        <ele>223</ele>
        <time>2018-06-27T08:50:06Z</time>
      </trkpt>
      <trkpt lat="45.96522" lon="4.77468">
        <ele>223</ele>
        <time>2018-06-27T08:50:08Z</time>
      </trkpt>
      <trkpt lat="45.96525" lon="4.7747">
        <ele>223</ele>
        <time>2018-06-27T08:50:09Z</time>
      </trkpt>
      <trkpt lat="45.96531" lon="4.77474">
        <ele>223</ele>
        <time>2018-06-27T08:50:11Z</time>
      </trkpt>
      <trkpt lat="45.96534" lon="4.77475">
        <ele>223</ele>
        <time>2018-06-27T08:50:12Z</time>
      </trkpt>
      <trkpt lat="45.96539" lon="4.77479">
        <ele>223</ele>
        <time>2018-06-27T08:50:14Z</time>
      </trkpt>
      <trkpt lat="45.96542" lon="4.77481">
        <ele>223</ele>
        <time>2018-06-27T08:50:15Z</time>
      </trkpt>
      <trkpt lat="45.96548" lon="4.77484">
        <ele>223</ele>
        <time>2018-06-27T08:50:17Z</time>
      </trkpt>
      <trkpt lat="45.96551" lon="4.77486">
        <ele>223</ele>
        <time>2018-06-27T08:50:18Z</time>
      </trkpt>
      <trkpt lat="45.96557" lon="4.7749">
        <ele>224</ele>
        <time>2018-06-27T08:50:20Z</time>
      </trkpt>
      <trkpt lat="45.9656" lon="4.77492">
        <ele>224</ele>
        <time>2018-06-27T08:50:21Z</time>
      </trkpt>
      <trkpt lat="45.96566" lon="4.77495">
        <ele>224</ele>
        <time>2018-06-27T08:50:23Z</time>
      </trkpt>
      <trkpt lat="45.96569" lon="4.77497">
        <ele>224</ele>
        <time>2018-06-27T08:50:24Z</time>
      </trkpt>
      <trkpt lat="45.96572" lon="4.77499">
        <ele>224</ele>
        <time>2018-06-27T08:50:25Z</time>
      </trkpt>
      <trkpt lat="45.96581" lon="4.77505">
        <ele>224</ele>
        <time>2018-06-27T08:50:26Z</time>
      </trkpt>
      <trkpt lat="45.96588" lon="4.7751">
        <ele>224</ele>
        <time>2018-06-27T08:50:28Z</time>
      </trkpt>
      <trkpt lat="45.96591" lon="4.77512">
        <ele>224</ele>
        <time>2018-06-27T08:50:29Z</time>
      </trkpt>
      <trkpt lat="45.96598" lon="4.77516">
        <ele>224</ele>
        <time>2018-06-27T08:50:31Z</time>
      </trkpt>
      <trkpt lat="45.96602" lon="4.77518">
        <ele>224</ele>
        <time>2018-06-27T08:50:32Z</time>
      </trkpt>
      <trkpt lat="45.9661" lon="4.77523">
        <ele>224</ele>
        <time>2018-06-27T08:50:34Z</time>
      </trkpt>
      <trkpt lat="45.96613" lon="4.77525">
        <ele>224</ele>
        <time>2018-06-27T08:50:35Z</time>
      </trkpt>
      <trkpt lat="45.96621" lon="4.7753">
        <ele>224</ele>
        <time>2018-06-27T08:50:37Z</time>
      </trkpt>
      <trkpt lat="45.96624" lon="4.77533">
        <ele>224</ele>
        <time>2018-06-27T08:50:38Z</time>
      </trkpt>
      <trkpt lat="45.96631" lon="4.77537">
        <ele>224</ele>
        <time>2018-06-27T08:50:40Z</time>
      </trkpt>
      <trkpt lat="45.96634" lon="4.77539">
        <ele>224</ele>
        <time>2018-06-27T08:50:41Z</time>
      </trkpt>
      <trkpt lat="45.96642" lon="4.77543">
        <ele>224</ele>
        <time>2018-06-27T08:50:43Z</time>
      </trkpt>
      <trkpt lat="45.96645" lon="4.77546">
        <ele>224</ele>
        <time>2018-06-27T08:50:44Z</time>
      </trkpt>
      <trkpt lat="45.96652" lon="4.7755">
        <ele>224</ele>
        <time>2018-06-27T08:50:46Z</time>
      </trkpt>
      <trkpt lat="45.96654" lon="4.77551">
        <ele>224</ele>
        <time>2018-06-27T08:50:47Z</time>
      </trkpt>
      <trkpt lat="45.96658" lon="4.77554">
        <ele>224</ele>
        <time>2018-06-27T08:50:48Z</time>
      </trkpt>
      <trkpt lat="45.96662" lon="4.77557">
        <ele>224</ele>
        <time>2018-06-27T08:50:49Z</time>
      </trkpt>
      <trkpt lat="45.96669" lon="4.77563">
        <ele>225</ele>
        <time>2018-06-27T08:50:51Z</time>
      </trkpt>
      <trkpt lat="45.96673" lon="4.77566">
        <ele>225</ele>
        <time>2018-06-27T08:50:52Z</time>
      </trkpt>
      <trkpt lat="45.96677" lon="4.77569">
        <ele>225</ele>
        <time>2018-06-27T08:50:53Z</time>
      </trkpt>
      <trkpt lat="45.96681" lon="4.77572">
        <ele>225</ele>
        <time>2018-06-27T08:50:54Z</time>
      </trkpt>
      <trkpt lat="45.96685" lon="4.77576">
        <ele>225</ele>
        <time>2018-06-27T08:50:55Z</time>
      </trkpt>
      <trkpt lat="45.96689" lon="4.77579">
        <ele>225</ele>
        <time>2018-06-27T08:50:56Z</time>
      </trkpt>
      <trkpt lat="45.96696" lon="4.77586">
        <ele>226</ele>
        <time>2018-06-27T08:50:58Z</time>
      </trkpt>
      <trkpt lat="45.96699" lon="4.7759">
        <ele>226</ele>
        <time>2018-06-27T08:50:59Z</time>
      </trkpt>
      <trkpt lat="45.96706" lon="4.77597">
        <ele>226</ele>
        <time>2018-06-27T08:51:01Z</time>
      </trkpt>
      <trkpt lat="45.96709" lon="4.77601">
        <ele>226</ele>
        <time>2018-06-27T08:51:02Z</time>
      </trkpt>
      <trkpt lat="45.96716" lon="4.77609">
        <ele>226</ele>
        <time>2018-06-27T08:51:04Z</time>
      </trkpt>
      <trkpt lat="45.9672" lon="4.77614">
        <ele>226</ele>
        <time>2018-06-27T08:51:05Z</time>
      </trkpt>
      <trkpt lat="45.96726" lon="4.77622">
        <ele>226</ele>
        <time>2018-06-27T08:51:07Z</time>
      </trkpt>
      <trkpt lat="45.96729" lon="4.77626">
        <ele>226</ele>
        <time>2018-06-27T08:51:08Z</time>
      </trkpt>
      <trkpt lat="45.96735" lon="4.77634">
        <ele>226</ele>
        <time>2018-06-27T08:51:10Z</time>
      </trkpt>
      <trkpt lat="45.96738" lon="4.77638">
        <ele>227</ele>
        <time>2018-06-27T08:51:11Z</time>
      </trkpt>
      <trkpt lat="45.96745" lon="4.77646">
        <ele>227</ele>
        <time>2018-06-27T08:51:13Z</time>
      </trkpt>
      <trkpt lat="45.96748" lon="4.7765">
        <ele>227</ele>
        <time>2018-06-27T08:51:14Z</time>
      </trkpt>
      <trkpt lat="45.96755" lon="4.77658">
        <ele>227</ele>
        <time>2018-06-27T08:51:16Z</time>
      </trkpt>
      <trkpt lat="45.96758" lon="4.77662">
        <ele>227</ele>
        <time>2018-06-27T08:51:17Z</time>
      </trkpt>
      <trkpt lat="45.96765" lon="4.7767">
        <ele>227</ele>
        <time>2018-06-27T08:51:19Z</time>
      </trkpt>
      <trkpt lat="45.96768" lon="4.77674">
        <ele>227</ele>
        <time>2018-06-27T08:51:20Z</time>
      </trkpt>
      <trkpt lat="45.96775" lon="4.77682">
        <ele>227</ele>
        <time>2018-06-27T08:51:22Z</time>
      </trkpt>
      <trkpt lat="45.96778" lon="4.77686">
        <ele>227</ele>
        <time>2018-06-27T08:51:23Z</time>
      </trkpt>
      <trkpt lat="45.96785" lon="4.77694">
        <ele>227</ele>
        <time>2018-06-27T08:51:25Z</time>
      </trkpt>
      <trkpt lat="45.96788" lon="4.77698">
        <ele>227</ele>
        <time>2018-06-27T08:51:26Z</time>
      </trkpt>
      <trkpt lat="45.96794" lon="4.77705">
        <ele>228</ele>
        <time>2018-06-27T08:51:28Z</time>
      </trkpt>
      <trkpt lat="45.96797" lon="4.77709">
        <ele>228</ele>
        <time>2018-06-27T08:51:29Z</time>
      </trkpt>
      <trkpt lat="45.96804" lon="4.77716">
        <ele>228</ele>
        <time>2018-06-27T08:51:31Z</time>
      </trkpt>
      <trkpt lat="45.96807" lon="4.77719">
        <ele>228</ele>
        <time>2018-06-27T08:51:32Z</time>
      </trkpt>
      <trkpt lat="45.96814" lon="4.77726">
        <ele>228</ele>
        <time>2018-06-27T08:51:34Z</time>
      </trkpt>
      <trkpt lat="45.96818" lon="4.7773">
        <ele>228</ele>
        <time>2018-06-27T08:51:35Z</time>
      </trkpt>
      <trkpt lat="45.96824" lon="4.77737">
        <ele>228</ele>
        <time>2018-06-27T08:51:37Z</time>
      </trkpt>
      <trkpt lat="45.96828" lon="4.7774">
        <ele>228</ele>
        <time>2018-06-27T08:51:38Z</time>
      </trkpt>
      <trkpt lat="45.96835" lon="4.77748">
        <ele>228</ele>
        <time>2018-06-27T08:51:40Z</time>
      </trkpt>
      <trkpt lat="45.96839" lon="4.77752">
        <ele>228</ele>
        <time>2018-06-27T08:51:41Z</time>
      </trkpt>
      <trkpt lat="45.96846" lon="4.77759">
        <ele>228</ele>
        <time>2018-06-27T08:51:43Z</time>
      </trkpt>
      <trkpt lat="45.9685" lon="4.77763">
        <ele>228</ele>
        <time>2018-06-27T08:51:44Z</time>
      </trkpt>
      <trkpt lat="45.96853" lon="4.77766">
        <ele>228</ele>
        <time>2018-06-27T08:51:45Z</time>
      </trkpt>
      <trkpt lat="45.96857" lon="4.7777">
        <ele>228</ele>
        <time>2018-06-27T08:51:46Z</time>
      </trkpt>
      <trkpt lat="45.9686" lon="4.77774">
        <ele>228</ele>
        <time>2018-06-27T08:51:47Z</time>
      </trkpt>
      <trkpt lat="45.96864" lon="4.77779">
        <ele>228</ele>
        <time>2018-06-27T08:51:48Z</time>
      </trkpt>
      <trkpt lat="45.96867" lon="4.77783">
        <ele>228</ele>
        <time>2018-06-27T08:51:49Z</time>
      </trkpt>
      <trkpt lat="45.96871" lon="4.77787">
        <ele>228</ele>
        <time>2018-06-27T08:51:50Z</time>
      </trkpt>
      <trkpt lat="45.96878" lon="4.77794">
        <ele>228</ele>
        <time>2018-06-27T08:51:52Z</time>
      </trkpt>
      <trkpt lat="45.96882" lon="4.77797">
        <ele>228</ele>
        <time>2018-06-27T08:51:53Z</time>
      </trkpt>
      <trkpt lat="45.96888" lon="4.77804">
        <ele>228</ele>
        <time>2018-06-27T08:51:55Z</time>
      </trkpt>
      <trkpt lat="45.96892" lon="4.77807">
        <ele>228</ele>
        <time>2018-06-27T08:51:56Z</time>
      </trkpt>
      <trkpt lat="45.96899" lon="4.77812">
        <ele>228</ele>
        <time>2018-06-27T08:51:58Z</time>
      </trkpt>
      <trkpt lat="45.96902" lon="4.77815">
        <ele>228</ele>
        <time>2018-06-27T08:51:59Z</time>
      </trkpt>
      <trkpt lat="45.96909" lon="4.77821">
        <ele>228</ele>
        <time>2018-06-27T08:52:01Z</time>
      </trkpt>
      <trkpt lat="45.96913" lon="4.77825">
        <ele>228</ele>
        <time>2018-06-27T08:52:02Z</time>
      </trkpt>
      <trkpt lat="45.96919" lon="4.77831">
        <ele>228</ele>
        <time>2018-06-27T08:52:04Z</time>
      </trkpt>
      <trkpt lat="45.96923" lon="4.77834">
        <ele>228</ele>
        <time>2018-06-27T08:52:05Z</time>
      </trkpt>
      <trkpt lat="45.9693" lon="4.77842">
        <ele>228</ele>
        <time>2018-06-27T08:52:07Z</time>
      </trkpt>
      <trkpt lat="45.96933" lon="4.77846">
        <ele>228</ele>
        <time>2018-06-27T08:52:08Z</time>
      </trkpt>
      <trkpt lat="45.9694" lon="4.77854">
        <ele>228</ele>
        <time>2018-06-27T08:52:10Z</time>
      </trkpt>
      <trkpt lat="45.96943" lon="4.77858">
        <ele>228</ele>
        <time>2018-06-27T08:52:11Z</time>
      </trkpt>
      <trkpt lat="45.9695" lon="4.77866">
        <ele>228</ele>
        <time>2018-06-27T08:52:13Z</time>
      </trkpt>
      <trkpt lat="45.96953" lon="4.7787">
        <ele>228</ele>
        <time>2018-06-27T08:52:14Z</time>
      </trkpt>
      <trkpt lat="45.9696" lon="4.77878">
        <ele>228</ele>
        <time>2018-06-27T08:52:16Z</time>
      </trkpt>
      <trkpt lat="45.96963" lon="4.77881">
        <ele>228</ele>
        <time>2018-06-27T08:52:17Z</time>
      </trkpt>
      <trkpt lat="45.96969" lon="4.77889">
        <ele>228</ele>
        <time>2018-06-27T08:52:19Z</time>
      </trkpt>
      <trkpt lat="45.96972" lon="4.77892">
        <ele>228</ele>
        <time>2018-06-27T08:52:20Z</time>
      </trkpt>
      <trkpt lat="45.96978" lon="4.779">
        <ele>228</ele>
        <time>2018-06-27T08:52:22Z</time>
      </trkpt>
      <trkpt lat="45.96981" lon="4.77904">
        <ele>227</ele>
        <time>2018-06-27T08:52:23Z</time>
      </trkpt>
      <trkpt lat="45.96987" lon="4.77911">
        <ele>227</ele>
        <time>2018-06-27T08:52:25Z</time>
      </trkpt>
      <trkpt lat="45.96991" lon="4.77914">
        <ele>227</ele>
        <time>2018-06-27T08:52:26Z</time>
      </trkpt>
      <trkpt lat="45.96997" lon="4.77921">
        <ele>227</ele>
        <time>2018-06-27T08:52:28Z</time>
      </trkpt>
      <trkpt lat="45.97" lon="4.77925">
        <ele>227</ele>
        <time>2018-06-27T08:52:29Z</time>
      </trkpt>
      <trkpt lat="45.97006" lon="4.77932">
        <ele>228</ele>
        <time>2018-06-27T08:52:31Z</time>
      </trkpt>
      <trkpt lat="45.97009" lon="4.77936">
        <ele>228</ele>
        <time>2018-06-27T08:52:32Z</time>
      </trkpt>
      <trkpt lat="45.97015" lon="4.77944">
        <ele>228</ele>
        <time>2018-06-27T08:52:34Z</time>
      </trkpt>
      <trkpt lat="45.97018" lon="4.77948">
        <ele>228</ele>
        <time>2018-06-27T08:52:35Z</time>
      </trkpt>
      <trkpt lat="45.97024" lon="4.77956">
        <ele>228</ele>
        <time>2018-06-27T08:52:37Z</time>
      </trkpt>
      <trkpt lat="45.97028" lon="4.7796">
        <ele>228</ele>
        <time>2018-06-27T08:52:38Z</time>
      </trkpt>
      <trkpt lat="45.97034" lon="4.77968">
        <ele>229</ele>
        <time>2018-06-27T08:52:40Z</time>
      </trkpt>
      <trkpt lat="45.97037" lon="4.77971">
        <ele>229</ele>
        <time>2018-06-27T08:52:41Z</time>
      </trkpt>
      <trkpt lat="45.97043" lon="4.77978">
        <ele>229</ele>
        <time>2018-06-27T08:52:43Z</time>
      </trkpt>
      <trkpt lat="45.97045" lon="4.77979">
        <ele>229</ele>
        <time>2018-06-27T08:52:44Z</time>
      </trkpt>
      <trkpt lat="45.97052" lon="4.77986">
        <ele>229</ele>
        <time>2018-06-27T08:52:46Z</time>
      </trkpt>
      <trkpt lat="45.97055" lon="4.77989">
        <ele>229</ele>
        <time>2018-06-27T08:52:47Z</time>
      </trkpt>
      <trkpt lat="45.97062" lon="4.77995">
        <ele>229</ele>
        <time>2018-06-27T08:52:49Z</time>
      </trkpt>
      <trkpt lat="45.97065" lon="4.77998">
        <ele>229</ele>
        <time>2018-06-27T08:52:50Z</time>
      </trkpt>
      <trkpt lat="45.97072" lon="4.78005">
        <ele>229</ele>
        <time>2018-06-27T08:52:52Z</time>
      </trkpt>
      <trkpt lat="45.97075" lon="4.78009">
        <ele>229</ele>
        <time>2018-06-27T08:52:53Z</time>
      </trkpt>
      <trkpt lat="45.97083" lon="4.78016">
        <ele>229</ele>
        <time>2018-06-27T08:52:55Z</time>
      </trkpt>
      <trkpt lat="45.97086" lon="4.78019">
        <ele>229</ele>
        <time>2018-06-27T08:52:56Z</time>
      </trkpt>
      <trkpt lat="45.9709" lon="4.78023">
        <ele>229</ele>
        <time>2018-06-27T08:52:57Z</time>
      </trkpt>
      <trkpt lat="45.97094" lon="4.78026">
        <ele>229</ele>
        <time>2018-06-27T08:52:58Z</time>
      </trkpt>
      <trkpt lat="45.97101" lon="4.78033">
        <ele>229</ele>
        <time>2018-06-27T08:53:00Z</time>
      </trkpt>
      <trkpt lat="45.97105" lon="4.78037">
        <ele>229</ele>
        <time>2018-06-27T08:53:01Z</time>
      </trkpt>
      <trkpt lat="45.97109" lon="4.78041">
        <ele>229</ele>
        <time>2018-06-27T08:53:02Z</time>
      </trkpt>
      <trkpt lat="45.97112" lon="4.78044">
        <ele>229</ele>
        <time>2018-06-27T08:53:03Z</time>
      </trkpt>
      <trkpt lat="45.97116" lon="4.78048">
        <ele>229</ele>
        <time>2018-06-27T08:53:04Z</time>
      </trkpt>
      <trkpt lat="45.97119" lon="4.78053">
        <ele>229</ele>
        <time>2018-06-27T08:53:05Z</time>
      </trkpt>
      <trkpt lat="45.97126" lon="4.78061">
        <ele>230</ele>
        <time>2018-06-27T08:53:07Z</time>
      </trkpt>
      <trkpt lat="45.97129" lon="4.78065">
        <ele>230</ele>
        <time>2018-06-27T08:53:08Z</time>
      </trkpt>
      <trkpt lat="45.97132" lon="4.7807">
        <ele>230</ele>
        <time>2018-06-27T08:53:09Z</time>
      </trkpt>
      <trkpt lat="45.97136" lon="4.78073">
        <ele>230</ele>
        <time>2018-06-27T08:53:10Z</time>
      </trkpt>
      <trkpt lat="45.97141" lon="4.78082">
        <ele>230</ele>
        <time>2018-06-27T08:53:12Z</time>
      </trkpt>
      <trkpt lat="45.97144" lon="4.78086">
        <ele>230</ele>
        <time>2018-06-27T08:53:13Z</time>
      </trkpt>
      <trkpt lat="45.97149" lon="4.78089">
        <ele>230</ele>
        <time>2018-06-27T08:53:14Z</time>
      </trkpt>
      <trkpt lat="45.97151" lon="4.78094">
        <ele>230</ele>
        <time>2018-06-27T08:53:15Z</time>
      </trkpt>
      <trkpt lat="45.97157" lon="4.78103">
        <ele>230</ele>
        <time>2018-06-27T08:53:17Z</time>
      </trkpt>
      <trkpt lat="45.97159" lon="4.78108">
        <ele>230</ele>
        <time>2018-06-27T08:53:18Z</time>
      </trkpt>
      <trkpt lat="45.97164" lon="4.78118">
        <ele>230</ele>
        <time>2018-06-27T08:53:20Z</time>
      </trkpt>
      <trkpt lat="45.97167" lon="4.78123">
        <ele>231</ele>
        <time>2018-06-27T08:53:21Z</time>
      </trkpt>
      <trkpt lat="45.97172" lon="4.78133">
        <ele>231</ele>
        <time>2018-06-27T08:53:23Z</time>
      </trkpt>
      <trkpt lat="45.97175" lon="4.78138">
        <ele>231</ele>
        <time>2018-06-27T08:53:24Z</time>
      </trkpt>
      <trkpt lat="45.9718" lon="4.78148">
        <ele>231</ele>
        <time>2018-06-27T08:53:26Z</time>
      </trkpt>
      <trkpt lat="45.97182" lon="4.78153">
        <ele>231</ele>
        <time>2018-06-27T08:53:27Z</time>
      </trkpt>
      <trkpt lat="45.97188" lon="4.78162">
        <ele>231</ele>
        <time>2018-06-27T08:53:29Z</time>
      </trkpt>
      <trkpt lat="45.9719" lon="4.78166">
        <ele>231</ele>
        <time>2018-06-27T08:53:30Z</time>
      </trkpt>
      <trkpt lat="45.97195" lon="4.78175">
        <ele>231</ele>
        <time>2018-06-27T08:53:32Z</time>
      </trkpt>
      <trkpt lat="45.97198" lon="4.7818">
        <ele>231</ele>
        <time>2018-06-27T08:53:33Z</time>
      </trkpt>
      <trkpt lat="45.97202" lon="4.78189">
        <ele>231</ele>
        <time>2018-06-27T08:53:35Z</time>
      </trkpt>
      <trkpt lat="45.97205" lon="4.78193">
        <ele>231</ele>
        <time>2018-06-27T08:53:36Z</time>
      </trkpt>
      <trkpt lat="45.9721" lon="4.78203">
        <ele>231</ele>
        <time>2018-06-27T08:53:38Z</time>
      </trkpt>
      <trkpt lat="45.97213" lon="4.78209">
        <ele>231</ele>
        <time>2018-06-27T08:53:39Z</time>
      </trkpt>
      <trkpt lat="45.97218" lon="4.78218">
        <ele>231</ele>
        <time>2018-06-27T08:53:41Z</time>
      </trkpt>
      <trkpt lat="45.9722" lon="4.78224">
        <ele>231</ele>
        <time>2018-06-27T08:53:42Z</time>
      </trkpt>
      <trkpt lat="45.97223" lon="4.78229">
        <ele>231</ele>
        <time>2018-06-27T08:53:43Z</time>
      </trkpt>
      <trkpt lat="45.97226" lon="4.78234">
        <ele>231</ele>
        <time>2018-06-27T08:53:44Z</time>
      </trkpt>
      <trkpt lat="45.97233" lon="4.78242">
        <ele>231</ele>
        <time>2018-06-27T08:53:46Z</time>
      </trkpt>
      <trkpt lat="45.97236" lon="4.78246">
        <ele>231</ele>
        <time>2018-06-27T08:53:47Z</time>
      </trkpt>
      <trkpt lat="45.97241" lon="4.78256">
        <ele>231</ele>
        <time>2018-06-27T08:53:49Z</time>
      </trkpt>
      <trkpt lat="45.97244" lon="4.78261">
        <ele>231</ele>
        <time>2018-06-27T08:53:50Z</time>
      </trkpt>
      <trkpt lat="45.9725" lon="4.78269">
        <ele>231</ele>
        <time>2018-06-27T08:53:52Z</time>
      </trkpt>
      <trkpt lat="45.97252" lon="4.78274">
        <ele>232</ele>
        <time>2018-06-27T08:53:53Z</time>
      </trkpt>
      <trkpt lat="45.97258" lon="4.78282">
        <ele>232</ele>
        <time>2018-06-27T08:53:55Z</time>
      </trkpt>
      <trkpt lat="45.97261" lon="4.78286">
        <ele>232</ele>
        <time>2018-06-27T08:53:56Z</time>
      </trkpt>
      <trkpt lat="45.97266" lon="4.78295">
        <ele>232</ele>
        <time>2018-06-27T08:53:58Z</time>
      </trkpt>
      <trkpt lat="45.97269" lon="4.78298">
        <ele>232</ele>
        <time>2018-06-27T08:53:59Z</time>
      </trkpt>
      <trkpt lat="45.97275" lon="4.78306">
        <ele>232</ele>
        <time>2018-06-27T08:54:01Z</time>
      </trkpt>
      <trkpt lat="45.97278" lon="4.7831">
        <ele>232</ele>
        <time>2018-06-27T08:54:02Z</time>
      </trkpt>
      <trkpt lat="45.97283" lon="4.78318">
        <ele>232</ele>
        <time>2018-06-27T08:54:04Z</time>
      </trkpt>
      <trkpt lat="45.97286" lon="4.78322">
        <ele>232</ele>
        <time>2018-06-27T08:54:05Z</time>
      </trkpt>
      <trkpt lat="45.97291" lon="4.7833">
        <ele>232</ele>
        <time>2018-06-27T08:54:07Z</time>
      </trkpt>
      <trkpt lat="45.97295" lon="4.78334">
        <ele>232</ele>
        <time>2018-06-27T08:54:08Z</time>
      </trkpt>
      <trkpt lat="45.97301" lon="4.78342">
        <ele>232</ele>
        <time>2018-06-27T08:54:10Z</time>
      </trkpt>
      <trkpt lat="45.97304" lon="4.78346">
        <ele>232</ele>
        <time>2018-06-27T08:54:11Z</time>
      </trkpt>
      <trkpt lat="45.9731" lon="4.78354">
        <ele>232</ele>
        <time>2018-06-27T08:54:13Z</time>
      </trkpt>
      <trkpt lat="45.97313" lon="4.78358">
        <ele>232</ele>
        <time>2018-06-27T08:54:14Z</time>
      </trkpt>
      <trkpt lat="45.97319" lon="4.78366">
        <ele>232</ele>
        <time>2018-06-27T08:54:16Z</time>
      </trkpt>
      <trkpt lat="45.97322" lon="4.7837">
        <ele>232</ele>
        <time>2018-06-27T08:54:17Z</time>
      </trkpt>
      <trkpt lat="45.97328" lon="4.78378">
        <ele>232</ele>
        <time>2018-06-27T08:54:19Z</time>
      </trkpt>
      <trkpt lat="45.97332" lon="4.78381">
        <ele>232</ele>
        <time>2018-06-27T08:54:20Z</time>
      </trkpt>
      <trkpt lat="45.9734" lon="4.78387">
        <ele>233</ele>
        <time>2018-06-27T08:54:22Z</time>
      </trkpt>
      <trkpt lat="45.97343" lon="4.78392">
        <ele>233</ele>
        <time>2018-06-27T08:54:23Z</time>
      </trkpt>
      <trkpt lat="45.9735" lon="4.78399">
        <ele>232</ele>
        <time>2018-06-27T08:54:25Z</time>
      </trkpt>
      <trkpt lat="45.97354" lon="4.78403">
        <ele>232</ele>
        <time>2018-06-27T08:54:26Z</time>
      </trkpt>
      <trkpt lat="45.97362" lon="4.78408">
        <ele>233</ele>
        <time>2018-06-27T08:54:28Z</time>
      </trkpt>
      <trkpt lat="45.97365" lon="4.78413">
        <ele>233</ele>
        <time>2018-06-27T08:54:29Z</time>
      </trkpt>
      <trkpt lat="45.97372" lon="4.78421">
        <ele>233</ele>
        <time>2018-06-27T08:54:31Z</time>
      </trkpt>
      <trkpt lat="45.97375" lon="4.78425">
        <ele>233</ele>
        <time>2018-06-27T08:54:32Z</time>
      </trkpt>
      <trkpt lat="45.97381" lon="4.78432">
        <ele>233</ele>
        <time>2018-06-27T08:54:34Z</time>
      </trkpt>
      <trkpt lat="45.97385" lon="4.78436">
        <ele>233</ele>
        <time>2018-06-27T08:54:35Z</time>
      </trkpt>
      <trkpt lat="45.97392" lon="4.78442">
        <ele>233</ele>
        <time>2018-06-27T08:54:37Z</time>
      </trkpt>
      <trkpt lat="45.97395" lon="4.78445">
        <ele>233</ele>
        <time>2018-06-27T08:54:38Z</time>
      </trkpt>
      <trkpt lat="45.97402" lon="4.78452">
        <ele>233</ele>
        <time>2018-06-27T08:54:40Z</time>
      </trkpt>
      <trkpt lat="45.97405" lon="4.78456">
        <ele>233</ele>
        <time>2018-06-27T08:54:41Z</time>
      </trkpt>
      <trkpt lat="45.97411" lon="4.78462">
        <ele>233</ele>
        <time>2018-06-27T08:54:43Z</time>
      </trkpt>
      <trkpt lat="45.97414" lon="4.78465">
        <ele>233</ele>
        <time>2018-06-27T08:54:44Z</time>
      </trkpt>
      <trkpt lat="45.97421" lon="4.78471">
        <ele>234</ele>
        <time>2018-06-27T08:54:46Z</time>
      </trkpt>
      <trkpt lat="45.97424" lon="4.78474">
        <ele>234</ele>
        <time>2018-06-27T08:54:47Z</time>
      </trkpt>
      <trkpt lat="45.97431" lon="4.7848">
        <ele>234</ele>
        <time>2018-06-27T08:54:49Z</time>
      </trkpt>
      <trkpt lat="45.97434" lon="4.78483">
        <ele>234</ele>
        <time>2018-06-27T08:54:50Z</time>
      </trkpt>
      <trkpt lat="45.97441" lon="4.78489">
        <ele>234</ele>
        <time>2018-06-27T08:54:52Z</time>
      </trkpt>
      <trkpt lat="45.97444" lon="4.78492">
        <ele>234</ele>
        <time>2018-06-27T08:54:53Z</time>
      </trkpt>
      <trkpt lat="45.97451" lon="4.78498">
        <ele>234</ele>
        <time>2018-06-27T08:54:55Z</time>
      </trkpt>
      <trkpt lat="45.97455" lon="4.78501">
        <ele>234</ele>
        <time>2018-06-27T08:54:56Z</time>
      </trkpt>
      <trkpt lat="45.97462" lon="4.78507">
        <ele>234</ele>
        <time>2018-06-27T08:54:58Z</time>
      </trkpt>
      <trkpt lat="45.97466" lon="4.7851">
        <ele>234</ele>
        <time>2018-06-27T08:54:59Z</time>
      </trkpt>
      <trkpt lat="45.97473" lon="4.78517">
        <ele>234</ele>
        <time>2018-06-27T08:55:01Z</time>
      </trkpt>
      <trkpt lat="45.97477" lon="4.7852">
        <ele>233</ele>
        <time>2018-06-27T08:55:02Z</time>
      </trkpt>
      <trkpt lat="45.97484" lon="4.78526">
        <ele>233</ele>
        <time>2018-06-27T08:55:04Z</time>
      </trkpt>
      <trkpt lat="45.97488" lon="4.78529">
        <ele>233</ele>
        <time>2018-06-27T08:55:05Z</time>
      </trkpt>
      <trkpt lat="45.97495" lon="4.78534">
        <ele>233</ele>
        <time>2018-06-27T08:55:07Z</time>
      </trkpt>
      <trkpt lat="45.97498" lon="4.78537">
        <ele>233</ele>
        <time>2018-06-27T08:55:08Z</time>
      </trkpt>
      <trkpt lat="45.97505" lon="4.78543">
        <ele>234</ele>
        <time>2018-06-27T08:55:10Z</time>
      </trkpt>
      <trkpt lat="45.97508" lon="4.78546">
        <ele>234</ele>
        <time>2018-06-27T08:55:11Z</time>
      </trkpt>
      <trkpt lat="45.97516" lon="4.78551">
        <ele>234</ele>
        <time>2018-06-27T08:55:13Z</time>
      </trkpt>
      <trkpt lat="45.9752" lon="4.78554">
        <ele>234</ele>
        <time>2018-06-27T08:55:14Z</time>
      </trkpt>
      <trkpt lat="45.97528" lon="4.78558">
        <ele>234</ele>
        <time>2018-06-27T08:55:16Z</time>
      </trkpt>
      <trkpt lat="45.97532" lon="4.78561">
        <ele>234</ele>
        <time>2018-06-27T08:55:17Z</time>
      </trkpt>
      <trkpt lat="45.9754" lon="4.78565">
        <ele>234</ele>
        <time>2018-06-27T08:55:19Z</time>
      </trkpt>
      <trkpt lat="45.97544" lon="4.78567">
        <ele>234</ele>
        <time>2018-06-27T08:55:20Z</time>
      </trkpt>
      <trkpt lat="45.97549" lon="4.78568">
        <ele>234</ele>
        <time>2018-06-27T08:55:21Z</time>
      </trkpt>
      <trkpt lat="45.97553" lon="4.7857">
        <ele>234</ele>
        <time>2018-06-27T08:55:22Z</time>
      </trkpt>
      <trkpt lat="45.9756" lon="4.78574">
        <ele>233</ele>
        <time>2018-06-27T08:55:24Z</time>
      </trkpt>
      <trkpt lat="45.97564" lon="4.78575">
        <ele>233</ele>
        <time>2018-06-27T08:55:25Z</time>
      </trkpt>
      <trkpt lat="45.97568" lon="4.78577">
        <ele>233</ele>
        <time>2018-06-27T08:55:26Z</time>
      </trkpt>
      <trkpt lat="45.97573" lon="4.78578">
        <ele>233</ele>
        <time>2018-06-27T08:55:27Z</time>
      </trkpt>
      <trkpt lat="45.97577" lon="4.7858">
        <ele>233</ele>
        <time>2018-06-27T08:55:28Z</time>
      </trkpt>
      <trkpt lat="45.97582" lon="4.78582">
        <ele>233</ele>
        <time>2018-06-27T08:55:29Z</time>
      </trkpt>
      <trkpt lat="45.97586" lon="4.78583">
        <ele>233</ele>
        <time>2018-06-27T08:55:30Z</time>
      </trkpt>
      <trkpt lat="45.97591" lon="4.78586">
        <ele>233</ele>
        <time>2018-06-27T08:55:31Z</time>
      </trkpt>
      <trkpt lat="45.97595" lon="4.78589">
        <ele>233</ele>
        <time>2018-06-27T08:55:32Z</time>
      </trkpt>
      <trkpt lat="45.97599" lon="4.78591">
        <ele>233</ele>
        <time>2018-06-27T08:55:33Z</time>
      </trkpt>
      <trkpt lat="45.97607" lon="4.78593">
        <ele>233</ele>
        <time>2018-06-27T08:55:35Z</time>
      </trkpt>
      <trkpt lat="45.9761" lon="4.78594">
        <ele>233</ele>
        <time>2018-06-27T08:55:36Z</time>
      </trkpt>
      <trkpt lat="45.97618" lon="4.78598">
        <ele>233</ele>
        <time>2018-06-27T08:55:38Z</time>
      </trkpt>
      <trkpt lat="45.97622" lon="4.78599">
        <ele>233</ele>
        <time>2018-06-27T08:55:39Z</time>
      </trkpt>
      <trkpt lat="45.97627" lon="4.786">
        <ele>233</ele>
        <time>2018-06-27T08:55:40Z</time>
      </trkpt>
      <trkpt lat="45.97631" lon="4.78603">
        <ele>233</ele>
        <time>2018-06-27T08:55:41Z</time>
      </trkpt>
      <trkpt lat="45.97635" lon="4.78605">
        <ele>233</ele>
        <time>2018-06-27T08:55:42Z</time>
      </trkpt>
      <trkpt lat="45.97641" lon="4.78605">
        <ele>233</ele>
        <time>2018-06-27T08:55:43Z</time>
      </trkpt>
      <trkpt lat="45.97648" lon="4.7861">
        <ele>233</ele>
        <time>2018-06-27T08:55:45Z</time>
      </trkpt>
      <trkpt lat="45.97652" lon="4.78612">
        <ele>233</ele>
        <time>2018-06-27T08:55:46Z</time>
      </trkpt>
      <trkpt lat="45.97657" lon="4.78614">
        <ele>233</ele>
        <time>2018-06-27T08:55:47Z</time>
      </trkpt>
      <trkpt lat="45.97661" lon="4.78616">
        <ele>233</ele>
        <time>2018-06-27T08:55:48Z</time>
      </trkpt>
      <trkpt lat="45.97666" lon="4.78617">
        <ele>233</ele>
        <time>2018-06-27T08:55:49Z</time>
      </trkpt>
      <trkpt lat="45.9767" lon="4.78619">
        <ele>234</ele>
        <time>2018-06-27T08:55:50Z</time>
      </trkpt>
      <trkpt lat="45.97678" lon="4.78619">
        <ele>234</ele>
        <time>2018-06-27T08:55:51Z</time>
      </trkpt>
      <trkpt lat="45.97681" lon="4.78622">
        <ele>234</ele>
        <time>2018-06-27T08:55:52Z</time>
      </trkpt>
      <trkpt lat="45.97685" lon="4.78624">
        <ele>234</ele>
        <time>2018-06-27T08:55:53Z</time>
      </trkpt>
      <trkpt lat="45.9769" lon="4.78625">
        <ele>234</ele>
        <time>2018-06-27T08:55:54Z</time>
      </trkpt>
      <trkpt lat="45.97695" lon="4.78628">
        <ele>234</ele>
        <time>2018-06-27T08:55:55Z</time>
      </trkpt>
      <trkpt lat="45.97699" lon="4.78631">
        <ele>234</ele>
        <time>2018-06-27T08:55:56Z</time>
      </trkpt>
      <trkpt lat="45.97707" lon="4.78634">
        <ele>234</ele>
        <time>2018-06-27T08:55:58Z</time>
      </trkpt>
      <trkpt lat="45.97712" lon="4.78635">
        <ele>234</ele>
        <time>2018-06-27T08:55:59Z</time>
      </trkpt>
      <trkpt lat="45.97716" lon="4.78637">
        <ele>234</ele>
        <time>2018-06-27T08:56:00Z</time>
      </trkpt>
      <trkpt lat="45.9772" lon="4.78641">
        <ele>234</ele>
        <time>2018-06-27T08:56:01Z</time>
      </trkpt>
      <trkpt lat="45.97725" lon="4.78644">
        <ele>234</ele>
        <time>2018-06-27T08:56:02Z</time>
      </trkpt>
      <trkpt lat="45.97729" lon="4.78645">
        <ele>234</ele>
        <time>2018-06-27T08:56:03Z</time>
      </trkpt>
      <trkpt lat="45.97737" lon="4.78649">
        <ele>234</ele>
        <time>2018-06-27T08:56:05Z</time>
      </trkpt>
      <trkpt lat="45.97742" lon="4.78651">
        <ele>234</ele>
        <time>2018-06-27T08:56:06Z</time>
      </trkpt>
      <trkpt lat="45.97746" lon="4.78652">
        <ele>234</ele>
        <time>2018-06-27T08:56:07Z</time>
      </trkpt>
      <trkpt lat="45.97751" lon="4.78655">
        <ele>235</ele>
        <time>2018-06-27T08:56:08Z</time>
      </trkpt>
      <trkpt lat="45.97755" lon="4.78657">
        <ele>235</ele>
        <time>2018-06-27T08:56:09Z</time>
      </trkpt>
      <trkpt lat="45.97759" lon="4.78659">
        <ele>235</ele>
        <time>2018-06-27T08:56:10Z</time>
      </trkpt>
      <trkpt lat="45.97767" lon="4.78662">
        <ele>235</ele>
        <time>2018-06-27T08:56:12Z</time>
      </trkpt>
      <trkpt lat="45.97771" lon="4.78664">
        <ele>235</ele>
        <time>2018-06-27T08:56:13Z</time>
      </trkpt>
      <trkpt lat="45.97779" lon="4.78667">
        <ele>235</ele>
        <time>2018-06-27T08:56:15Z</time>
      </trkpt>
      <trkpt lat="45.97783" lon="4.78669">
        <ele>235</ele>
        <time>2018-06-27T08:56:16Z</time>
      </trkpt>
      <trkpt lat="45.97791" lon="4.78671">
        <ele>235</ele>
        <time>2018-06-27T08:56:18Z</time>
      </trkpt>
      <trkpt lat="45.97796" lon="4.78672">
        <ele>235</ele>
        <time>2018-06-27T08:56:19Z</time>
      </trkpt>
      <trkpt lat="45.97804" lon="4.78676">
        <ele>235</ele>
        <time>2018-06-27T08:56:21Z</time>
      </trkpt>
      <trkpt lat="45.97806" lon="4.78678">
        <ele>235</ele>
        <time>2018-06-27T08:56:22Z</time>
      </trkpt>
      <trkpt lat="45.97814" lon="4.78681">
        <ele>235</ele>
        <time>2018-06-27T08:56:24Z</time>
      </trkpt>
      <trkpt lat="45.97818" lon="4.78683">
        <ele>235</ele>
        <time>2018-06-27T08:56:25Z</time>
      </trkpt>
      <trkpt lat="45.97826" lon="4.78687">
        <ele>235</ele>
        <time>2018-06-27T08:56:27Z</time>
      </trkpt>
      <trkpt lat="45.97828" lon="4.78688">
        <ele>235</ele>
        <time>2018-06-27T08:56:28Z</time>
      </trkpt>
      <trkpt lat="45.97835" lon="4.78691">
        <ele>236</ele>
        <time>2018-06-27T08:56:29Z</time>
      </trkpt>
      <trkpt lat="45.97838" lon="4.78693">
        <ele>236</ele>
        <time>2018-06-27T08:56:30Z</time>
      </trkpt>
      <trkpt lat="45.97846" lon="4.78698">
        <ele>236</ele>
        <time>2018-06-27T08:56:32Z</time>
      </trkpt>
      <trkpt lat="45.9785" lon="4.787">
        <ele>236</ele>
        <time>2018-06-27T08:56:33Z</time>
      </trkpt>
      <trkpt lat="45.97857" lon="4.78705">
        <ele>236</ele>
        <time>2018-06-27T08:56:35Z</time>
      </trkpt>
      <trkpt lat="45.97861" lon="4.78708">
        <ele>236</ele>
        <time>2018-06-27T08:56:36Z</time>
      </trkpt>
      <trkpt lat="45.97868" lon="4.78713">
        <ele>236</ele>
        <time>2018-06-27T08:56:38Z</time>
      </trkpt>
      <trkpt lat="45.97872" lon="4.78716">
        <ele>236</ele>
        <time>2018-06-27T08:56:39Z</time>
      </trkpt>
      <trkpt lat="45.97876" lon="4.78719">
        <ele>236</ele>
        <time>2018-06-27T08:56:40Z</time>
      </trkpt>
      <trkpt lat="45.9788" lon="4.78723">
        <ele>236</ele>
        <time>2018-06-27T08:56:41Z</time>
      </trkpt>
      <trkpt lat="45.97884" lon="4.78726">
        <ele>236</ele>
        <time>2018-06-27T08:56:42Z</time>
      </trkpt>
      <trkpt lat="45.97888" lon="4.78728">
        <ele>236</ele>
        <time>2018-06-27T08:56:43Z</time>
      </trkpt>
      <trkpt lat="45.97896" lon="4.78732">
        <ele>237</ele>
        <time>2018-06-27T08:56:45Z</time>
      </trkpt>
      <trkpt lat="45.97901" lon="4.78734">
        <ele>237</ele>
        <time>2018-06-27T08:56:46Z</time>
      </trkpt>
      <trkpt lat="45.97908" lon="4.78741">
        <ele>237</ele>
        <time>2018-06-27T08:56:48Z</time>
      </trkpt>
      <trkpt lat="45.97912" lon="4.78744">
        <ele>237</ele>
        <time>2018-06-27T08:56:49Z</time>
      </trkpt>
      <trkpt lat="45.97919" lon="4.7875">
        <ele>237</ele>
        <time>2018-06-27T08:56:51Z</time>
      </trkpt>
      <trkpt lat="45.97924" lon="4.78753">
        <ele>237</ele>
        <time>2018-06-27T08:56:52Z</time>
      </trkpt>
      <trkpt lat="45.97928" lon="4.78755">
        <ele>237</ele>
        <time>2018-06-27T08:56:53Z</time>
      </trkpt>
      <trkpt lat="45.97932" lon="4.78758">
        <ele>238</ele>
        <time>2018-06-27T08:56:54Z</time>
      </trkpt>
      <trkpt lat="45.97937" lon="4.78761">
        <ele>238</ele>
        <time>2018-06-27T08:56:55Z</time>
      </trkpt>
      <trkpt lat="45.97941" lon="4.78763">
        <ele>238</ele>
        <time>2018-06-27T08:56:56Z</time>
      </trkpt>
      <trkpt lat="45.97946" lon="4.78766">
        <ele>238</ele>
        <time>2018-06-27T08:56:57Z</time>
      </trkpt>
      <trkpt lat="45.97949" lon="4.78769">
        <ele>238</ele>
        <time>2018-06-27T08:56:58Z</time>
      </trkpt>
      <trkpt lat="45.97953" lon="4.78773">
        <ele>238</ele>
        <time>2018-06-27T08:56:59Z</time>
      </trkpt>
      <trkpt lat="45.97958" lon="4.78776">
        <ele>238</ele>
        <time>2018-06-27T08:57:00Z</time>
      </trkpt>
      <trkpt lat="45.97962" lon="4.78779">
        <ele>238</ele>
        <time>2018-06-27T08:57:01Z</time>
      </trkpt>
      <trkpt lat="45.97967" lon="4.78782">
        <ele>238</ele>
        <time>2018-06-27T08:57:02Z</time>
      </trkpt>
      <trkpt lat="45.97971" lon="4.78785">
        <ele>238</ele>
        <time>2018-06-27T08:57:03Z</time>
      </trkpt>
      <trkpt lat="45.97975" lon="4.78789">
        <ele>238</ele>
        <time>2018-06-27T08:57:04Z</time>
      </trkpt>
      <trkpt lat="45.97982" lon="4.78794">
        <ele>238</ele>
        <time>2018-06-27T08:57:06Z</time>
      </trkpt>
      <trkpt lat="45.97986" lon="4.78797">
        <ele>238</ele>
        <time>2018-06-27T08:57:07Z</time>
      </trkpt>
      <trkpt lat="45.9799" lon="4.788">
        <ele>238</ele>
        <time>2018-06-27T08:57:08Z</time>
      </trkpt>
      <trkpt lat="45.97994" lon="4.78803">
        <ele>238</ele>
        <time>2018-06-27T08:57:09Z</time>
      </trkpt>
      <trkpt lat="45.97998" lon="4.78806">
        <ele>238</ele>
        <time>2018-06-27T08:57:10Z</time>
      </trkpt>
      <trkpt lat="45.98002" lon="4.7881">
        <ele>238</ele>
        <time>2018-06-27T08:57:11Z</time>
      </trkpt>
      <trkpt lat="45.98007" lon="4.78813">
        <ele>238</ele>
        <time>2018-06-27T08:57:12Z</time>
      </trkpt>
      <trkpt lat="45.98011" lon="4.78817">
        <ele>238</ele>
        <time>2018-06-27T08:57:13Z</time>
      </trkpt>
      <trkpt lat="45.98016" lon="4.78819">
        <ele>238</ele>
        <time>2018-06-27T08:57:14Z</time>
      </trkpt>
      <trkpt lat="45.98019" lon="4.78822">
        <ele>238</ele>
        <time>2018-06-27T08:57:15Z</time>
      </trkpt>
      <trkpt lat="45.98023" lon="4.78825">
        <ele>238</ele>
        <time>2018-06-27T08:57:16Z</time>
      </trkpt>
      <trkpt lat="45.98027" lon="4.78828">
        <ele>238</ele>
        <time>2018-06-27T08:57:17Z</time>
      </trkpt>
      <trkpt lat="45.98031" lon="4.78831">
        <ele>238</ele>
        <time>2018-06-27T08:57:18Z</time>
      </trkpt>
      <trkpt lat="45.98036" lon="4.78834">
        <ele>238</ele>
        <time>2018-06-27T08:57:19Z</time>
      </trkpt>
      <trkpt lat="45.9804" lon="4.78837">
        <ele>238</ele>
        <time>2018-06-27T08:57:20Z</time>
      </trkpt>
      <trkpt lat="45.98044" lon="4.78839">
        <ele>238</ele>
        <time>2018-06-27T08:57:21Z</time>
      </trkpt>
      <trkpt lat="45.9805" lon="4.78843">
        <ele>239</ele>
        <time>2018-06-27T08:57:22Z</time>
      </trkpt>
      <trkpt lat="45.98053" lon="4.78845">
        <ele>239</ele>
        <time>2018-06-27T08:57:23Z</time>
      </trkpt>
      <trkpt lat="45.98058" lon="4.78848">
        <ele>239</ele>
        <time>2018-06-27T08:57:24Z</time>
      </trkpt>
      <trkpt lat="45.98062" lon="4.78851">
        <ele>239</ele>
        <time>2018-06-27T08:57:25Z</time>
      </trkpt>
      <trkpt lat="45.9807" lon="4.78857">
        <ele>239</ele>
        <time>2018-06-27T08:57:27Z</time>
      </trkpt>
      <trkpt lat="45.98074" lon="4.78859">
        <ele>239</ele>
        <time>2018-06-27T08:57:28Z</time>
      </trkpt>
      <trkpt lat="45.98078" lon="4.78862">
        <ele>239</ele>
        <time>2018-06-27T08:57:29Z</time>
      </trkpt>
      <trkpt lat="45.98082" lon="4.78865">
        <ele>239</ele>
        <time>2018-06-27T08:57:30Z</time>
      </trkpt>
      <trkpt lat="45.98089" lon="4.7887">
        <ele>239</ele>
        <time>2018-06-27T08:57:32Z</time>
      </trkpt>
      <trkpt lat="45.98093" lon="4.78873">
        <ele>239</ele>
        <time>2018-06-27T08:57:33Z</time>
      </trkpt>
      <trkpt lat="45.981" lon="4.7888">
        <ele>240</ele>
        <time>2018-06-27T08:57:35Z</time>
      </trkpt>
      <trkpt lat="45.98105" lon="4.78881">
        <ele>240</ele>
        <time>2018-06-27T08:57:36Z</time>
      </trkpt>
      <trkpt lat="45.98109" lon="4.78883">
        <ele>240</ele>
        <time>2018-06-27T08:57:37Z</time>
      </trkpt>
      <trkpt lat="45.98115" lon="4.78884">
        <ele>240</ele>
        <time>2018-06-27T08:57:38Z</time>
      </trkpt>
      <trkpt lat="45.98122" lon="4.78888">
        <ele>240</ele>
        <time>2018-06-27T08:57:40Z</time>
      </trkpt>
      <trkpt lat="45.98123" lon="4.78889">
        <ele>240</ele>
        <time>2018-06-27T08:57:41Z</time>
      </trkpt>
      <trkpt lat="45.98129" lon="4.78893">
        <ele>240</ele>
        <time>2018-06-27T08:57:42Z</time>
      </trkpt>
      <trkpt lat="45.98132" lon="4.78895">
        <ele>240</ele>
        <time>2018-06-27T08:57:43Z</time>
      </trkpt>
      <trkpt lat="45.98138" lon="4.78901">
        <ele>240</ele>
        <time>2018-06-27T08:57:45Z</time>
      </trkpt>
      <trkpt lat="45.98143" lon="4.78904">
        <ele>240</ele>
        <time>2018-06-27T08:57:46Z</time>
      </trkpt>
      <trkpt lat="45.98151" lon="4.78908">
        <ele>240</ele>
        <time>2018-06-27T08:57:48Z</time>
      </trkpt>
      <trkpt lat="45.98155" lon="4.78909">
        <ele>240</ele>
        <time>2018-06-27T08:57:49Z</time>
      </trkpt>
      <trkpt lat="45.98162" lon="4.78913">
        <ele>240</ele>
        <time>2018-06-27T08:57:51Z</time>
      </trkpt>
      <trkpt lat="45.98166" lon="4.78915">
        <ele>240</ele>
        <time>2018-06-27T08:57:52Z</time>
      </trkpt>
      <trkpt lat="45.98174" lon="4.78918">
        <ele>240</ele>
        <time>2018-06-27T08:57:54Z</time>
      </trkpt>
      <trkpt lat="45.98179" lon="4.78921">
        <ele>240</ele>
        <time>2018-06-27T08:57:55Z</time>
      </trkpt>
      <trkpt lat="45.98183" lon="4.78924">
        <ele>240</ele>
        <time>2018-06-27T08:57:56Z</time>
      </trkpt>
      <trkpt lat="45.98187" lon="4.78926">
        <ele>241</ele>
        <time>2018-06-27T08:57:57Z</time>
      </trkpt>
      <trkpt lat="45.98195" lon="4.78932">
        <ele>241</ele>
        <time>2018-06-27T08:57:59Z</time>
      </trkpt>
      <trkpt lat="45.98199" lon="4.78934">
        <ele>241</ele>
        <time>2018-06-27T08:58:00Z</time>
      </trkpt>
      <trkpt lat="45.98207" lon="4.78939">
        <ele>241</ele>
        <time>2018-06-27T08:58:02Z</time>
      </trkpt>
      <trkpt lat="45.98211" lon="4.78941">
        <ele>241</ele>
        <time>2018-06-27T08:58:03Z</time>
      </trkpt>
      <trkpt lat="45.98214" lon="4.78943">
        <ele>241</ele>
        <time>2018-06-27T08:58:04Z</time>
      </trkpt>
      <trkpt lat="45.98222" lon="4.78945">
        <ele>241</ele>
        <time>2018-06-27T08:58:05Z</time>
      </trkpt>
      <trkpt lat="45.9823" lon="4.78951">
        <ele>241</ele>
        <time>2018-06-27T08:58:07Z</time>
      </trkpt>
      <trkpt lat="45.98235" lon="4.78954">
        <ele>241</ele>
        <time>2018-06-27T08:58:08Z</time>
      </trkpt>
      <trkpt lat="45.98239" lon="4.78955">
        <ele>241</ele>
        <time>2018-06-27T08:58:09Z</time>
      </trkpt>
      <trkpt lat="45.98243" lon="4.78958">
        <ele>241</ele>
        <time>2018-06-27T08:58:10Z</time>
      </trkpt>
      <trkpt lat="45.98247" lon="4.78961">
        <ele>241</ele>
        <time>2018-06-27T08:58:11Z</time>
      </trkpt>
      <trkpt lat="45.98252" lon="4.78964">
        <ele>241</ele>
        <time>2018-06-27T08:58:12Z</time>
      </trkpt>
      <trkpt lat="45.98256" lon="4.78967">
        <ele>241</ele>
        <time>2018-06-27T08:58:13Z</time>
      </trkpt>
      <trkpt lat="45.98261" lon="4.78969">
        <ele>241</ele>
        <time>2018-06-27T08:58:14Z</time>
      </trkpt>
      <trkpt lat="45.98265" lon="4.78972">
        <ele>241</ele>
        <time>2018-06-27T08:58:15Z</time>
      </trkpt>
      <trkpt lat="45.9827" lon="4.78974">
        <ele>241</ele>
        <time>2018-06-27T08:58:16Z</time>
      </trkpt>
      <trkpt lat="45.98277" lon="4.78979">
        <ele>241</ele>
        <time>2018-06-27T08:58:18Z</time>
      </trkpt>
      <trkpt lat="45.98279" lon="4.78979">
        <ele>241</ele>
        <time>2018-06-27T08:58:19Z</time>
      </trkpt>
      <trkpt lat="45.98287" lon="4.78984">
        <ele>241</ele>
        <time>2018-06-27T08:58:21Z</time>
      </trkpt>
      <trkpt lat="45.98291" lon="4.78986">
        <ele>241</ele>
        <time>2018-06-27T08:58:22Z</time>
      </trkpt>
      <trkpt lat="45.98295" lon="4.78988">
        <ele>241</ele>
        <time>2018-06-27T08:58:23Z</time>
      </trkpt>
      <trkpt lat="45.98299" lon="4.78991">
        <ele>241</ele>
        <time>2018-06-27T08:58:24Z</time>
      </trkpt>
      <trkpt lat="45.98304" lon="4.78993">
        <ele>241</ele>
        <time>2018-06-27T08:58:25Z</time>
      </trkpt>
      <trkpt lat="45.98308" lon="4.78995">
        <ele>241</ele>
        <time>2018-06-27T08:58:26Z</time>
      </trkpt>
      <trkpt lat="45.98312" lon="4.78998">
        <ele>241</ele>
        <time>2018-06-27T08:58:27Z</time>
      </trkpt>
      <trkpt lat="45.98317" lon="4.79001">
        <ele>242</ele>
        <time>2018-06-27T08:58:28Z</time>
      </trkpt>
      <trkpt lat="45.98324" lon="4.79005">
        <ele>242</ele>
        <time>2018-06-27T08:58:30Z</time>
      </trkpt>
      <trkpt lat="45.98327" lon="4.79008">
        <ele>242</ele>
        <time>2018-06-27T08:58:31Z</time>
      </trkpt>
      <trkpt lat="45.98331" lon="4.79011">
        <ele>242</ele>
        <time>2018-06-27T08:58:32Z</time>
      </trkpt>
      <trkpt lat="45.98335" lon="4.79014">
        <ele>242</ele>
        <time>2018-06-27T08:58:33Z</time>
      </trkpt>
      <trkpt lat="45.98339" lon="4.79017">
        <ele>242</ele>
        <time>2018-06-27T08:58:34Z</time>
      </trkpt>
      <trkpt lat="45.98344" lon="4.79021">
        <ele>242</ele>
        <time>2018-06-27T08:58:35Z</time>
      </trkpt>
      <trkpt lat="45.9835" lon="4.79029">
        <ele>242</ele>
        <time>2018-06-27T08:58:37Z</time>
      </trkpt>
      <trkpt lat="45.98354" lon="4.79031">
        <ele>242</ele>
        <time>2018-06-27T08:58:38Z</time>
      </trkpt>
      <trkpt lat="45.98358" lon="4.79034">
        <ele>242</ele>
        <time>2018-06-27T08:58:39Z</time>
      </trkpt>
      <trkpt lat="45.98361" lon="4.79039">
        <ele>242</ele>
        <time>2018-06-27T08:58:40Z</time>
      </trkpt>
      <trkpt lat="45.98364" lon="4.79044">
        <ele>242</ele>
        <time>2018-06-27T08:58:41Z</time>
      </trkpt>
      <trkpt lat="45.98367" lon="4.79049">
        <ele>242</ele>
        <time>2018-06-27T08:58:42Z</time>
      </trkpt>
      <trkpt lat="45.9837" lon="4.79055">
        <ele>242</ele>
        <time>2018-06-27T08:58:43Z</time>
      </trkpt>
      <trkpt lat="45.98372" lon="4.79061">
        <ele>242</ele>
        <time>2018-06-27T08:58:44Z</time>
      </trkpt>
      <trkpt lat="45.98377" lon="4.7907">
        <ele>242</ele>
        <time>2018-06-27T08:58:46Z</time>
      </trkpt>
      <trkpt lat="45.9838" lon="4.79076">
        <ele>242</ele>
        <time>2018-06-27T08:58:47Z</time>
      </trkpt>
      <trkpt lat="45.98385" lon="4.79085">
        <ele>242</ele>
        <time>2018-06-27T08:58:49Z</time>
      </trkpt>
      <trkpt lat="45.98388" lon="4.7909">
        <ele>242</ele>
        <time>2018-06-27T08:58:50Z</time>
      </trkpt>
      <trkpt lat="45.98393" lon="4.791">
        <ele>242</ele>
        <time>2018-06-27T08:58:52Z</time>
      </trkpt>
      <trkpt lat="45.98395" lon="4.79106">
        <ele>242</ele>
        <time>2018-06-27T08:58:53Z</time>
      </trkpt>
      <trkpt lat="45.98398" lon="4.79111">
        <ele>242</ele>
        <time>2018-06-27T08:58:54Z</time>
      </trkpt>
      <trkpt lat="45.98401" lon="4.79116">
        <ele>242</ele>
        <time>2018-06-27T08:58:55Z</time>
      </trkpt>
      <trkpt lat="45.98403" lon="4.79122">
        <ele>242</ele>
        <time>2018-06-27T08:58:56Z</time>
      </trkpt>
      <trkpt lat="45.98406" lon="4.79127">
        <ele>242</ele>
        <time>2018-06-27T08:58:57Z</time>
      </trkpt>
      <trkpt lat="45.98409" lon="4.79134">
        <ele>242</ele>
        <time>2018-06-27T08:58:58Z</time>
      </trkpt>
      <trkpt lat="45.98412" lon="4.79139">
        <ele>242</ele>
        <time>2018-06-27T08:58:59Z</time>
      </trkpt>
      <trkpt lat="45.98417" lon="4.79149">
        <ele>242</ele>
        <time>2018-06-27T08:59:01Z</time>
      </trkpt>
      <trkpt lat="45.98419" lon="4.79154">
        <ele>242</ele>
        <time>2018-06-27T08:59:02Z</time>
      </trkpt>
      <trkpt lat="45.98423" lon="4.7916">
        <ele>242</ele>
        <time>2018-06-27T08:59:03Z</time>
      </trkpt>
      <trkpt lat="45.98426" lon="4.79166">
        <ele>242</ele>
        <time>2018-06-27T08:59:04Z</time>
      </trkpt>
      <trkpt lat="45.98432" lon="4.79174">
        <ele>242</ele>
        <time>2018-06-27T08:59:06Z</time>
      </trkpt>
      <trkpt lat="45.98434" lon="4.79179">
        <ele>242</ele>
        <time>2018-06-27T08:59:07Z</time>
      </trkpt>
      <trkpt lat="45.98438" lon="4.79184">
        <ele>242</ele>
        <time>2018-06-27T08:59:08Z</time>
      </trkpt>
      <trkpt lat="45.98441" lon="4.79189">
        <ele>242</ele>
        <time>2018-06-27T08:59:09Z</time>
      </trkpt>
      <trkpt lat="45.98443" lon="4.79194">
        <ele>242</ele>
        <time>2018-06-27T08:59:10Z</time>
      </trkpt>
      <trkpt lat="45.98447" lon="4.79199">
        <ele>242</ele>
        <time>2018-06-27T08:59:11Z</time>
      </trkpt>
      <trkpt lat="45.9845" lon="4.79205">
        <ele>242</ele>
        <time>2018-06-27T08:59:12Z</time>
      </trkpt>
      <trkpt lat="45.98452" lon="4.79211">
        <ele>242</ele>
        <time>2018-06-27T08:59:13Z</time>
      </trkpt>
      <trkpt lat="45.98457" lon="4.79222">
        <ele>243</ele>
        <time>2018-06-27T08:59:15Z</time>
      </trkpt>
      <trkpt lat="45.9846" lon="4.79227">
        <ele>243</ele>
        <time>2018-06-27T08:59:16Z</time>
      </trkpt>
      <trkpt lat="45.98465" lon="4.79236">
        <ele>243</ele>
        <time>2018-06-27T08:59:18Z</time>
      </trkpt>
      <trkpt lat="45.98467" lon="4.79241">
        <ele>243</ele>
        <time>2018-06-27T08:59:19Z</time>
      </trkpt>
      <trkpt lat="45.9847" lon="4.79247">
        <ele>243</ele>
        <time>2018-06-27T08:59:20Z</time>
      </trkpt>
      <trkpt lat="45.98474" lon="4.79252">
        <ele>243</ele>
        <time>2018-06-27T08:59:21Z</time>
      </trkpt>
      <trkpt lat="45.98479" lon="4.79262">
        <ele>243</ele>
        <time>2018-06-27T08:59:23Z</time>
      </trkpt>
      <trkpt lat="45.98481" lon="4.79268">
        <ele>243</ele>
        <time>2018-06-27T08:59:24Z</time>
      </trkpt>
      <trkpt lat="45.98484" lon="4.79273">
        <ele>243</ele>
        <time>2018-06-27T08:59:25Z</time>
      </trkpt>
      <trkpt lat="45.98487" lon="4.79279">
        <ele>243</ele>
        <time>2018-06-27T08:59:26Z</time>
      </trkpt>
      <trkpt lat="45.9849" lon="4.79284">
        <ele>243</ele>
        <time>2018-06-27T08:59:27Z</time>
      </trkpt>
      <trkpt lat="45.98492" lon="4.79291">
        <ele>243</ele>
        <time>2018-06-27T08:59:28Z</time>
      </trkpt>
      <trkpt lat="45.98495" lon="4.79302">
        <ele>243</ele>
        <time>2018-06-27T08:59:30Z</time>
      </trkpt>
      <trkpt lat="45.98498" lon="4.79308">
        <ele>243</ele>
        <time>2018-06-27T08:59:31Z</time>
      </trkpt>
      <trkpt lat="45.985" lon="4.79314">
        <ele>243</ele>
        <time>2018-06-27T08:59:32Z</time>
      </trkpt>
      <trkpt lat="45.98502" lon="4.7932">
        <ele>243</ele>
        <time>2018-06-27T08:59:33Z</time>
      </trkpt>
      <trkpt lat="45.98506" lon="4.79331">
        <ele>243</ele>
        <time>2018-06-27T08:59:35Z</time>
      </trkpt>
      <trkpt lat="45.98508" lon="4.79338">
        <ele>243</ele>
        <time>2018-06-27T08:59:36Z</time>
      </trkpt>
      <trkpt lat="45.9851" lon="4.79344">
        <ele>243</ele>
        <time>2018-06-27T08:59:37Z</time>
      </trkpt>
      <trkpt lat="45.98512" lon="4.79351">
        <ele>243</ele>
        <time>2018-06-27T08:59:38Z</time>
      </trkpt>
      <trkpt lat="45.98515" lon="4.79358">
        <ele>243</ele>
        <time>2018-06-27T08:59:39Z</time>
      </trkpt>
      <trkpt lat="45.98517" lon="4.79365">
        <ele>243</ele>
        <time>2018-06-27T08:59:40Z</time>
      </trkpt>
      <trkpt lat="45.98518" lon="4.79372">
        <ele>243</ele>
        <time>2018-06-27T08:59:41Z</time>
      </trkpt>
      <trkpt lat="45.98519" lon="4.79379">
        <ele>244</ele>
        <time>2018-06-27T08:59:42Z</time>
      </trkpt>
      <trkpt lat="45.98521" lon="4.79386">
        <ele>244</ele>
        <time>2018-06-27T08:59:43Z</time>
      </trkpt>
      <trkpt lat="45.98521" lon="4.79392">
        <ele>244</ele>
        <time>2018-06-27T08:59:44Z</time>
      </trkpt>
      <trkpt lat="45.98522" lon="4.794">
        <ele>244</ele>
        <time>2018-06-27T08:59:45Z</time>
      </trkpt>
      <trkpt lat="45.98523" lon="4.79407">
        <ele>244</ele>
        <time>2018-06-27T08:59:46Z</time>
      </trkpt>
      <trkpt lat="45.98525" lon="4.79418">
        <ele>244</ele>
        <time>2018-06-27T08:59:48Z</time>
      </trkpt>
      <trkpt lat="45.98524" lon="4.79425">
        <ele>244</ele>
        <time>2018-06-27T08:59:49Z</time>
      </trkpt>
      <trkpt lat="45.98524" lon="4.79432">
        <ele>244</ele>
        <time>2018-06-27T08:59:50Z</time>
      </trkpt>
      <trkpt lat="45.98524" lon="4.7944">
        <ele>244</ele>
        <time>2018-06-27T08:59:51Z</time>
      </trkpt>
      <trkpt lat="45.98525" lon="4.79447">
        <ele>244</ele>
        <time>2018-06-27T08:59:52Z</time>
      </trkpt>
      <trkpt lat="45.98524" lon="4.79453">
        <ele>244</ele>
        <time>2018-06-27T08:59:53Z</time>
      </trkpt>
      <trkpt lat="45.98525" lon="4.7946">
        <ele>244</ele>
        <time>2018-06-27T08:59:54Z</time>
      </trkpt>
      <trkpt lat="45.98525" lon="4.79466">
        <ele>244</ele>
        <time>2018-06-27T08:59:55Z</time>
      </trkpt>
      <trkpt lat="45.98526" lon="4.79479">
        <ele>244</ele>
        <time>2018-06-27T08:59:57Z</time>
      </trkpt>
      <trkpt lat="45.98526" lon="4.79485">
        <ele>244</ele>
        <time>2018-06-27T08:59:58Z</time>
      </trkpt>
      <trkpt lat="45.98527" lon="4.79496">
        <ele>244</ele>
        <time>2018-06-27T09:00:00Z</time>
      </trkpt>
      <trkpt lat="45.98527" lon="4.79502">
        <ele>244</ele>
        <time>2018-06-27T09:00:01Z</time>
      </trkpt>
      <trkpt lat="45.9853" lon="4.79514">
        <ele>244</ele>
        <time>2018-06-27T09:00:03Z</time>
      </trkpt>
      <trkpt lat="45.98532" lon="4.79521">
        <ele>244</ele>
        <time>2018-06-27T09:00:04Z</time>
      </trkpt>
      <trkpt lat="45.98535" lon="4.79526">
        <ele>244</ele>
        <time>2018-06-27T09:00:05Z</time>
      </trkpt>
      <trkpt lat="45.98537" lon="4.79532">
        <ele>244</ele>
        <time>2018-06-27T09:00:06Z</time>
      </trkpt>
      <trkpt lat="45.98539" lon="4.79537">
        <ele>244</ele>
        <time>2018-06-27T09:00:07Z</time>
      </trkpt>
      <trkpt lat="45.98542" lon="4.79543">
        <ele>244</ele>
        <time>2018-06-27T09:00:08Z</time>
      </trkpt>
      <trkpt lat="45.98544" lon="4.79549">
        <ele>244</ele>
        <time>2018-06-27T09:00:09Z</time>
      </trkpt>
      <trkpt lat="45.98547" lon="4.79554">
        <ele>244</ele>
        <time>2018-06-27T09:00:10Z</time>
      </trkpt>
      <trkpt lat="45.98554" lon="4.79563">
        <ele>244</ele>
        <time>2018-06-27T09:00:12Z</time>
      </trkpt>
      <trkpt lat="45.98557" lon="4.79567">
        <ele>244</ele>
        <time>2018-06-27T09:00:13Z</time>
      </trkpt>
      <trkpt lat="45.98563" lon="4.79574">
        <ele>244</ele>
        <time>2018-06-27T09:00:15Z</time>
      </trkpt>
      <trkpt lat="45.98567" lon="4.79578">
        <ele>244</ele>
        <time>2018-06-27T09:00:16Z</time>
      </trkpt>
      <trkpt lat="45.98571" lon="4.79581">
        <ele>245</ele>
        <time>2018-06-27T09:00:17Z</time>
      </trkpt>
      <trkpt lat="45.98575" lon="4.79584">
        <ele>245</ele>
        <time>2018-06-27T09:00:18Z</time>
      </trkpt>
      <trkpt lat="45.98582" lon="4.79591">
        <ele>245</ele>
        <time>2018-06-27T09:00:20Z</time>
      </trkpt>
      <trkpt lat="45.98585" lon="4.79596">
        <ele>245</ele>
        <time>2018-06-27T09:00:21Z</time>
      </trkpt>
      <trkpt lat="45.98589" lon="4.79601">
        <ele>245</ele>
        <time>2018-06-27T09:00:22Z</time>
      </trkpt>
      <trkpt lat="45.98591" lon="4.79606">
        <ele>245</ele>
        <time>2018-06-27T09:00:23Z</time>
      </trkpt>
      <trkpt lat="45.98596" lon="4.79616">
        <ele>245</ele>
        <time>2018-06-27T09:00:25Z</time>
      </trkpt>
      <trkpt lat="45.98599" lon="4.79621">
        <ele>245</ele>
        <time>2018-06-27T09:00:26Z</time>
      </trkpt>
      <trkpt lat="45.98605" lon="4.79629">
        <ele>245</ele>
        <time>2018-06-27T09:00:28Z</time>
      </trkpt>
      <trkpt lat="45.98609" lon="4.79632">
        <ele>245</ele>
        <time>2018-06-27T09:00:29Z</time>
      </trkpt>
      <trkpt lat="45.98617" lon="4.79636">
        <ele>245</ele>
        <time>2018-06-27T09:00:31Z</time>
      </trkpt>
      <trkpt lat="45.98621" lon="4.79638">
        <ele>245</ele>
        <time>2018-06-27T09:00:32Z</time>
      </trkpt>
      <trkpt lat="45.98627" lon="4.79645">
        <ele>245</ele>
        <time>2018-06-27T09:00:34Z</time>
      </trkpt>
      <trkpt lat="45.98631" lon="4.7965">
        <ele>245</ele>
        <time>2018-06-27T09:00:35Z</time>
      </trkpt>
      <trkpt lat="45.98637" lon="4.79659">
        <ele>245</ele>
        <time>2018-06-27T09:00:37Z</time>
      </trkpt>
      <trkpt lat="45.9864" lon="4.79664">
        <ele>245</ele>
        <time>2018-06-27T09:00:38Z</time>
      </trkpt>
      <trkpt lat="45.98643" lon="4.79668">
        <ele>245</ele>
        <time>2018-06-27T09:00:39Z</time>
      </trkpt>
      <trkpt lat="45.98646" lon="4.79673">
        <ele>245</ele>
        <time>2018-06-27T09:00:40Z</time>
      </trkpt>
      <trkpt lat="45.9865" lon="4.79679">
        <ele>245</ele>
        <time>2018-06-27T09:00:41Z</time>
      </trkpt>
      <trkpt lat="45.98653" lon="4.79683">
        <ele>245</ele>
        <time>2018-06-27T09:00:42Z</time>
      </trkpt>
      <trkpt lat="45.98659" lon="4.79692">
        <ele>245</ele>
        <time>2018-06-27T09:00:44Z</time>
      </trkpt>
      <trkpt lat="45.98662" lon="4.79696">
        <ele>245</ele>
        <time>2018-06-27T09:00:45Z</time>
      </trkpt>
      <trkpt lat="45.9867" lon="4.79703">
        <ele>245</ele>
        <time>2018-06-27T09:00:47Z</time>
      </trkpt>
      <trkpt lat="45.98673" lon="4.79707">
        <ele>245</ele>
        <time>2018-06-27T09:00:48Z</time>
      </trkpt>
      <trkpt lat="45.98677" lon="4.7971">
        <ele>245</ele>
        <time>2018-06-27T09:00:49Z</time>
      </trkpt>
      <trkpt lat="45.98682" lon="4.79712">
        <ele>245</ele>
        <time>2018-06-27T09:00:50Z</time>
      </trkpt>
      <trkpt lat="45.98689" lon="4.79716">
        <ele>245</ele>
        <time>2018-06-27T09:00:52Z</time>
      </trkpt>
      <trkpt lat="45.98692" lon="4.79719">
        <ele>245</ele>
        <time>2018-06-27T09:00:53Z</time>
      </trkpt>
      <trkpt lat="45.987" lon="4.79724">
        <ele>245</ele>
        <time>2018-06-27T09:00:55Z</time>
      </trkpt>
      <trkpt lat="45.98704" lon="4.79726">
        <ele>245</ele>
        <time>2018-06-27T09:00:56Z</time>
      </trkpt>
      <trkpt lat="45.98712" lon="4.7973">
        <ele>245</ele>
        <time>2018-06-27T09:00:58Z</time>
      </trkpt>
      <trkpt lat="45.98716" lon="4.79733">
        <ele>245</ele>
        <time>2018-06-27T09:00:59Z</time>
      </trkpt>
      <trkpt lat="45.98724" lon="4.79738">
        <ele>245</ele>
        <time>2018-06-27T09:01:01Z</time>
      </trkpt>
      <trkpt lat="45.98727" lon="4.79742">
        <ele>245</ele>
        <time>2018-06-27T09:01:02Z</time>
      </trkpt>
      <trkpt lat="45.98732" lon="4.79745">
        <ele>245</ele>
        <time>2018-06-27T09:01:03Z</time>
      </trkpt>
      <trkpt lat="45.98735" lon="4.79747">
        <ele>245</ele>
        <time>2018-06-27T09:01:04Z</time>
      </trkpt>
      <trkpt lat="45.9874" lon="4.7975">
        <ele>245</ele>
        <time>2018-06-27T09:01:05Z</time>
      </trkpt>
      <trkpt lat="45.98744" lon="4.79752">
        <ele>245</ele>
        <time>2018-06-27T09:01:06Z</time>
      </trkpt>
      <trkpt lat="45.98751" lon="4.79759">
        <ele>245</ele>
        <time>2018-06-27T09:01:08Z</time>
      </trkpt>
      <trkpt lat="45.98755" lon="4.79763">
        <ele>245</ele>
        <time>2018-06-27T09:01:09Z</time>
      </trkpt>
      <trkpt lat="45.9876" lon="4.79767">
        <ele>245</ele>
        <time>2018-06-27T09:01:10Z</time>
      </trkpt>
      <trkpt lat="45.98763" lon="4.79772">
        <ele>245</ele>
        <time>2018-06-27T09:01:11Z</time>
      </trkpt>
      <trkpt lat="45.98768" lon="4.79776">
        <ele>245</ele>
        <time>2018-06-27T09:01:12Z</time>
      </trkpt>
      <trkpt lat="45.98772" lon="4.79781">
        <ele>245</ele>
        <time>2018-06-27T09:01:13Z</time>
      </trkpt>
      <trkpt lat="45.98776" lon="4.79786">
        <ele>245</ele>
        <time>2018-06-27T09:01:14Z</time>
      </trkpt>
      <trkpt lat="45.9878" lon="4.79789">
        <ele>245</ele>
        <time>2018-06-27T09:01:15Z</time>
      </trkpt>
      <trkpt lat="45.98784" lon="4.79793">
        <ele>245</ele>
        <time>2018-06-27T09:01:16Z</time>
      </trkpt>
      <trkpt lat="45.98789" lon="4.79798">
        <ele>245</ele>
        <time>2018-06-27T09:01:17Z</time>
      </trkpt>
      <trkpt lat="45.98792" lon="4.79803">
        <ele>245</ele>
        <time>2018-06-27T09:01:18Z</time>
      </trkpt>
      <trkpt lat="45.98797" lon="4.79808">
        <ele>245</ele>
        <time>2018-06-27T09:01:19Z</time>
      </trkpt>
      <trkpt lat="45.98801" lon="4.79813">
        <ele>245</ele>
        <time>2018-06-27T09:01:20Z</time>
      </trkpt>
      <trkpt lat="45.98806" lon="4.79818">
        <ele>245</ele>
        <time>2018-06-27T09:01:21Z</time>
      </trkpt>
      <trkpt lat="45.98809" lon="4.79822">
        <ele>245</ele>
        <time>2018-06-27T09:01:22Z</time>
      </trkpt>
      <trkpt lat="45.98813" lon="4.79827">
        <ele>245</ele>
        <time>2018-06-27T09:01:23Z</time>
      </trkpt>
      <trkpt lat="45.98818" lon="4.79832">
        <ele>244</ele>
        <time>2018-06-27T09:01:24Z</time>
      </trkpt>
      <trkpt lat="45.98822" lon="4.79837">
        <ele>244</ele>
        <time>2018-06-27T09:01:25Z</time>
      </trkpt>
      <trkpt lat="45.98826" lon="4.79841">
        <ele>244</ele>
        <time>2018-06-27T09:01:26Z</time>
      </trkpt>
      <trkpt lat="45.9883" lon="4.79845">
        <ele>244</ele>
        <time>2018-06-27T09:01:27Z</time>
      </trkpt>
      <trkpt lat="45.98834" lon="4.7985">
        <ele>244</ele>
        <time>2018-06-27T09:01:28Z</time>
      </trkpt>
      <trkpt lat="45.98838" lon="4.79854">
        <ele>244</ele>
        <time>2018-06-27T09:01:29Z</time>
      </trkpt>
      <trkpt lat="45.98842" lon="4.79858">
        <ele>244</ele>
        <time>2018-06-27T09:01:30Z</time>
      </trkpt>
      <trkpt lat="45.98846" lon="4.79862">
        <ele>244</ele>
        <time>2018-06-27T09:01:31Z</time>
      </trkpt>
      <trkpt lat="45.9885" lon="4.79867">
        <ele>244</ele>
        <time>2018-06-27T09:01:32Z</time>
      </trkpt>
      <trkpt lat="45.98853" lon="4.7987">
        <ele>244</ele>
        <time>2018-06-27T09:01:33Z</time>
      </trkpt>
      <trkpt lat="45.98858" lon="4.79875">
        <ele>244</ele>
        <time>2018-06-27T09:01:34Z</time>
      </trkpt>
      <trkpt lat="45.98862" lon="4.79879">
        <ele>243</ele>
        <time>2018-06-27T09:01:35Z</time>
      </trkpt>
      <trkpt lat="45.98866" lon="4.79883">
        <ele>244</ele>
        <time>2018-06-27T09:01:36Z</time>
      </trkpt>
      <trkpt lat="45.9887" lon="4.79888">
        <ele>244</ele>
        <time>2018-06-27T09:01:37Z</time>
      </trkpt>
      <trkpt lat="45.98875" lon="4.79895">
        <ele>244</ele>
        <time>2018-06-27T09:01:38Z</time>
      </trkpt>
      <trkpt lat="45.98879" lon="4.799">
        <ele>244</ele>
        <time>2018-06-27T09:01:39Z</time>
      </trkpt>
      <trkpt lat="45.98883" lon="4.79903">
        <ele>244</ele>
        <time>2018-06-27T09:01:40Z</time>
      </trkpt>
      <trkpt lat="45.98886" lon="4.79908">
        <ele>244</ele>
        <time>2018-06-27T09:01:41Z</time>
      </trkpt>
      <trkpt lat="45.9889" lon="4.79912">
        <ele>244</ele>
        <time>2018-06-27T09:01:42Z</time>
      </trkpt>
      <trkpt lat="45.98893" lon="4.79916">
        <ele>244</ele>
        <time>2018-06-27T09:01:43Z</time>
      </trkpt>
      <trkpt lat="45.98898" lon="4.7992">
        <ele>244</ele>
        <time>2018-06-27T09:01:44Z</time>
      </trkpt>
      <trkpt lat="45.98902" lon="4.79924">
        <ele>244</ele>
        <time>2018-06-27T09:01:45Z</time>
      </trkpt>
      <trkpt lat="45.98906" lon="4.79929">
        <ele>244</ele>
        <time>2018-06-27T09:01:46Z</time>
      </trkpt>
      <trkpt lat="45.98911" lon="4.79933">
        <ele>244</ele>
        <time>2018-06-27T09:01:47Z</time>
      </trkpt>
      <trkpt lat="45.98915" lon="4.79937">
        <ele>244</ele>
        <time>2018-06-27T09:01:48Z</time>
      </trkpt>
      <trkpt lat="45.98919" lon="4.79942">
        <ele>245</ele>
        <time>2018-06-27T09:01:49Z</time>
      </trkpt>
      <trkpt lat="45.98924" lon="4.79946">
        <ele>245</ele>
        <time>2018-06-27T09:01:50Z</time>
      </trkpt>
      <trkpt lat="45.98929" lon="4.79951">
        <ele>245</ele>
        <time>2018-06-27T09:01:51Z</time>
      </trkpt>
      <trkpt lat="45.98932" lon="4.79955">
        <ele>245</ele>
        <time>2018-06-27T09:01:52Z</time>
      </trkpt>
      <trkpt lat="45.98937" lon="4.7996">
        <ele>245</ele>
        <time>2018-06-27T09:01:53Z</time>
      </trkpt>
      <trkpt lat="45.98941" lon="4.79964">
        <ele>245</ele>
        <time>2018-06-27T09:01:54Z</time>
      </trkpt>
      <trkpt lat="45.98945" lon="4.79969">
        <ele>245</ele>
        <time>2018-06-27T09:01:55Z</time>
      </trkpt>
      <trkpt lat="45.98949" lon="4.79974">
        <ele>245</ele>
        <time>2018-06-27T09:01:56Z</time>
      </trkpt>
      <trkpt lat="45.98954" lon="4.79979">
        <ele>245</ele>
        <time>2018-06-27T09:01:57Z</time>
      </trkpt>
      <trkpt lat="45.98958" lon="4.79983">
        <ele>245</ele>
        <time>2018-06-27T09:01:58Z</time>
      </trkpt>
      <trkpt lat="45.98961" lon="4.7999">
        <ele>245</ele>
        <time>2018-06-27T09:01:59Z</time>
      </trkpt>
      <trkpt lat="45.98964" lon="4.79996">
        <ele>245</ele>
        <time>2018-06-27T09:02:00Z</time>
      </trkpt>
      <trkpt lat="45.98968" lon="4.80002">
        <ele>243</ele>
        <time>2018-06-27T09:02:01Z</time>
      </trkpt>
      <trkpt lat="45.98973" lon="4.80008">
        <ele>243</ele>
        <time>2018-06-27T09:02:02Z</time>
      </trkpt>
      <trkpt lat="45.98977" lon="4.80013">
        <ele>243</ele>
        <time>2018-06-27T09:02:03Z</time>
      </trkpt>
      <trkpt lat="45.98981" lon="4.80018">
        <ele>243</ele>
        <time>2018-06-27T09:02:04Z</time>
      </trkpt>
      <trkpt lat="45.98986" lon="4.80023">
        <ele>243</ele>
        <time>2018-06-27T09:02:05Z</time>
      </trkpt>
      <trkpt lat="45.9899" lon="4.80028">
        <ele>243</ele>
        <time>2018-06-27T09:02:06Z</time>
      </trkpt>
      <trkpt lat="45.98993" lon="4.80033">
        <ele>242</ele>
        <time>2018-06-27T09:02:07Z</time>
      </trkpt>
      <trkpt lat="45.98997" lon="4.80037">
        <ele>242</ele>
        <time>2018-06-27T09:02:08Z</time>
      </trkpt>
      <trkpt lat="45.99001" lon="4.80042">
        <ele>244</ele>
        <time>2018-06-27T09:02:09Z</time>
      </trkpt>
      <trkpt lat="45.99005" lon="4.80047">
        <ele>244</ele>
        <time>2018-06-27T09:02:10Z</time>
      </trkpt>
      <trkpt lat="45.99008" lon="4.80052">
        <ele>243</ele>
        <time>2018-06-27T09:02:11Z</time>
      </trkpt>
      <trkpt lat="45.99012" lon="4.80058">
        <ele>243</ele>
        <time>2018-06-27T09:02:12Z</time>
      </trkpt>
      <trkpt lat="45.99017" lon="4.80063">
        <ele>243</ele>
        <time>2018-06-27T09:02:13Z</time>
      </trkpt>
      <trkpt lat="45.99021" lon="4.80068">
        <ele>243</ele>
        <time>2018-06-27T09:02:14Z</time>
      </trkpt>
      <trkpt lat="45.99024" lon="4.80073">
        <ele>243</ele>
        <time>2018-06-27T09:02:15Z</time>
      </trkpt>
      <trkpt lat="45.99029" lon="4.80077">
        <ele>243</ele>
        <time>2018-06-27T09:02:16Z</time>
      </trkpt>
      <trkpt lat="45.99033" lon="4.80082">
        <ele>243</ele>
        <time>2018-06-27T09:02:17Z</time>
      </trkpt>
      <trkpt lat="45.99037" lon="4.80086">
        <ele>242</ele>
        <time>2018-06-27T09:02:18Z</time>
      </trkpt>
      <trkpt lat="45.99041" lon="4.80091">
        <ele>242</ele>
        <time>2018-06-27T09:02:19Z</time>
      </trkpt>
      <trkpt lat="45.99044" lon="4.80095">
        <ele>242</ele>
        <time>2018-06-27T09:02:20Z</time>
      </trkpt>
      <trkpt lat="45.99048" lon="4.801">
        <ele>242</ele>
        <time>2018-06-27T09:02:21Z</time>
      </trkpt>
      <trkpt lat="45.99052" lon="4.80104">
        <ele>242</ele>
        <time>2018-06-27T09:02:22Z</time>
      </trkpt>
      <trkpt lat="45.99056" lon="4.80109">
        <ele>242</ele>
        <time>2018-06-27T09:02:23Z</time>
      </trkpt>
      <trkpt lat="45.99061" lon="4.80113">
        <ele>242</ele>
        <time>2018-06-27T09:02:24Z</time>
      </trkpt>
      <trkpt lat="45.99065" lon="4.80118">
        <ele>242</ele>
        <time>2018-06-27T09:02:25Z</time>
      </trkpt>
      <trkpt lat="45.99069" lon="4.80121">
        <ele>242</ele>
        <time>2018-06-27T09:02:26Z</time>
      </trkpt>
      <trkpt lat="45.99073" lon="4.80126">
        <ele>242</ele>
        <time>2018-06-27T09:02:27Z</time>
      </trkpt>
      <trkpt lat="45.99077" lon="4.8013">
        <ele>242</ele>
        <time>2018-06-27T09:02:28Z</time>
      </trkpt>
      <trkpt lat="45.99082" lon="4.80135">
        <ele>242</ele>
        <time>2018-06-27T09:02:29Z</time>
      </trkpt>
      <trkpt lat="45.99085" lon="4.80139">
        <ele>243</ele>
        <time>2018-06-27T09:02:30Z</time>
      </trkpt>
      <trkpt lat="45.99089" lon="4.80143">
        <ele>243</ele>
        <time>2018-06-27T09:02:31Z</time>
      </trkpt>
      <trkpt lat="45.99093" lon="4.80149">
        <ele>243</ele>
        <time>2018-06-27T09:02:32Z</time>
      </trkpt>
      <trkpt lat="45.99096" lon="4.80152">
        <ele>243</ele>
        <time>2018-06-27T09:02:33Z</time>
      </trkpt>
      <trkpt lat="45.99101" lon="4.80158">
        <ele>243</ele>
        <time>2018-06-27T09:02:34Z</time>
      </trkpt>
      <trkpt lat="45.99104" lon="4.80162">
        <ele>243</ele>
        <time>2018-06-27T09:02:35Z</time>
      </trkpt>
      <trkpt lat="45.99108" lon="4.80167">
        <ele>242</ele>
        <time>2018-06-27T09:02:36Z</time>
      </trkpt>
      <trkpt lat="45.99112" lon="4.80172">
        <ele>242</ele>
        <time>2018-06-27T09:02:37Z</time>
      </trkpt>
      <trkpt lat="45.99116" lon="4.80176">
        <ele>242</ele>
        <time>2018-06-27T09:02:38Z</time>
      </trkpt>
      <trkpt lat="45.99121" lon="4.8018">
        <ele>242</ele>
        <time>2018-06-27T09:02:39Z</time>
      </trkpt>
      <trkpt lat="45.99125" lon="4.80185">
        <ele>242</ele>
        <time>2018-06-27T09:02:40Z</time>
      </trkpt>
      <trkpt lat="45.99129" lon="4.8019">
        <ele>242</ele>
        <time>2018-06-27T09:02:41Z</time>
      </trkpt>
      <trkpt lat="45.99133" lon="4.80194">
        <ele>242</ele>
        <time>2018-06-27T09:02:42Z</time>
      </trkpt>
      <trkpt lat="45.99136" lon="4.80199">
        <ele>242</ele>
        <time>2018-06-27T09:02:43Z</time>
      </trkpt>
      <trkpt lat="45.99141" lon="4.80201">
        <ele>242</ele>
        <time>2018-06-27T09:02:44Z</time>
      </trkpt>
      <trkpt lat="45.99144" lon="4.80206">
        <ele>242</ele>
        <time>2018-06-27T09:02:45Z</time>
      </trkpt>
      <trkpt lat="45.99148" lon="4.8021">
        <ele>242</ele>
        <time>2018-06-27T09:02:46Z</time>
      </trkpt>
      <trkpt lat="45.99151" lon="4.80215">
        <ele>242</ele>
        <time>2018-06-27T09:02:47Z</time>
      </trkpt>
      <trkpt lat="45.99155" lon="4.80219">
        <ele>241</ele>
        <time>2018-06-27T09:02:48Z</time>
      </trkpt>
      <trkpt lat="45.9916" lon="4.80223">
        <ele>241</ele>
        <time>2018-06-27T09:02:49Z</time>
      </trkpt>
      <trkpt lat="45.99165" lon="4.80227">
        <ele>241</ele>
        <time>2018-06-27T09:02:50Z</time>
      </trkpt>
      <trkpt lat="45.99169" lon="4.80232">
        <ele>242</ele>
        <time>2018-06-27T09:02:51Z</time>
      </trkpt>
      <trkpt lat="45.99173" lon="4.80237">
        <ele>242</ele>
        <time>2018-06-27T09:02:52Z</time>
      </trkpt>
      <trkpt lat="45.99177" lon="4.80242">
        <ele>242</ele>
        <time>2018-06-27T09:02:53Z</time>
      </trkpt>
      <trkpt lat="45.99181" lon="4.80247">
        <ele>242</ele>
        <time>2018-06-27T09:02:54Z</time>
      </trkpt>
      <trkpt lat="45.99185" lon="4.80253">
        <ele>242</ele>
        <time>2018-06-27T09:02:55Z</time>
      </trkpt>
      <trkpt lat="45.99189" lon="4.80258">
        <ele>242</ele>
        <time>2018-06-27T09:02:56Z</time>
      </trkpt>
      <trkpt lat="45.99194" lon="4.80264">
        <ele>242</ele>
        <time>2018-06-27T09:02:57Z</time>
      </trkpt>
      <trkpt lat="45.99198" lon="4.8027">
        <ele>242</ele>
        <time>2018-06-27T09:02:58Z</time>
      </trkpt>
      <trkpt lat="45.99202" lon="4.80276">
        <ele>242</ele>
        <time>2018-06-27T09:02:59Z</time>
      </trkpt>
      <trkpt lat="45.99205" lon="4.80281">
        <ele>242</ele>
        <time>2018-06-27T09:03:00Z</time>
      </trkpt>
      <trkpt lat="45.99209" lon="4.80285">
        <ele>242</ele>
        <time>2018-06-27T09:03:01Z</time>
      </trkpt>
      <trkpt lat="45.99212" lon="4.8029">
        <ele>242</ele>
        <time>2018-06-27T09:03:02Z</time>
      </trkpt>
      <trkpt lat="45.99215" lon="4.80296">
        <ele>242</ele>
        <time>2018-06-27T09:03:03Z</time>
      </trkpt>
      <trkpt lat="45.99222" lon="4.80305">
        <ele>242</ele>
        <time>2018-06-27T09:03:05Z</time>
      </trkpt>
      <trkpt lat="45.99225" lon="4.8031">
        <ele>242</ele>
        <time>2018-06-27T09:03:06Z</time>
      </trkpt>
      <trkpt lat="45.99229" lon="4.80314">
        <ele>243</ele>
        <time>2018-06-27T09:03:07Z</time>
      </trkpt>
      <trkpt lat="45.99231" lon="4.8032">
        <ele>243</ele>
        <time>2018-06-27T09:03:08Z</time>
      </trkpt>
      <trkpt lat="45.99236" lon="4.80324">
        <ele>243</ele>
        <time>2018-06-27T09:03:09Z</time>
      </trkpt>
      <trkpt lat="45.99239" lon="4.8033">
        <ele>243</ele>
        <time>2018-06-27T09:03:10Z</time>
      </trkpt>
      <trkpt lat="45.99242" lon="4.80337">
        <ele>243</ele>
        <time>2018-06-27T09:03:11Z</time>
      </trkpt>
      <trkpt lat="45.99245" lon="4.80342">
        <ele>242</ele>
        <time>2018-06-27T09:03:12Z</time>
      </trkpt>
      <trkpt lat="45.99249" lon="4.80349">
        <ele>242</ele>
        <time>2018-06-27T09:03:13Z</time>
      </trkpt>
      <trkpt lat="45.99252" lon="4.80355">
        <ele>243</ele>
        <time>2018-06-27T09:03:14Z</time>
      </trkpt>
      <trkpt lat="45.99255" lon="4.8036">
        <ele>243</ele>
        <time>2018-06-27T09:03:15Z</time>
      </trkpt>
      <trkpt lat="45.99259" lon="4.80364">
        <ele>243</ele>
        <time>2018-06-27T09:03:16Z</time>
      </trkpt>
      <trkpt lat="45.99262" lon="4.80368">
        <ele>243</ele>
        <time>2018-06-27T09:03:17Z</time>
      </trkpt>
      <trkpt lat="45.99267" lon="4.80373">
        <ele>243</ele>
        <time>2018-06-27T09:03:18Z</time>
      </trkpt>
      <trkpt lat="45.9927" lon="4.80377">
        <ele>242</ele>
        <time>2018-06-27T09:03:19Z</time>
      </trkpt>
      <trkpt lat="45.99275" lon="4.80381">
        <ele>242</ele>
        <time>2018-06-27T09:03:20Z</time>
      </trkpt>
      <trkpt lat="45.99279" lon="4.80385">
        <ele>242</ele>
        <time>2018-06-27T09:03:21Z</time>
      </trkpt>
      <trkpt lat="45.99283" lon="4.8039">
        <ele>242</ele>
        <time>2018-06-27T09:03:22Z</time>
      </trkpt>
      <trkpt lat="45.99287" lon="4.80396">
        <ele>242</ele>
        <time>2018-06-27T09:03:23Z</time>
      </trkpt>
      <trkpt lat="45.99291" lon="4.80402">
        <ele>242</ele>
        <time>2018-06-27T09:03:24Z</time>
      </trkpt>
      <trkpt lat="45.99293" lon="4.80409">
        <ele>242</ele>
        <time>2018-06-27T09:03:25Z</time>
      </trkpt>
      <trkpt lat="45.99296" lon="4.80414">
        <ele>242</ele>
        <time>2018-06-27T09:03:26Z</time>
      </trkpt>
      <trkpt lat="45.99301" lon="4.80424">
        <ele>241</ele>
        <time>2018-06-27T09:03:28Z</time>
      </trkpt>
      <trkpt lat="45.99303" lon="4.8043">
        <ele>241</ele>
        <time>2018-06-27T09:03:29Z</time>
      </trkpt>
      <trkpt lat="45.99306" lon="4.80442">
        <ele>241</ele>
        <time>2018-06-27T09:03:31Z</time>
      </trkpt>
      <trkpt lat="45.99307" lon="4.80448">
        <ele>241</ele>
        <time>2018-06-27T09:03:32Z</time>
      </trkpt>
      <trkpt lat="45.99308" lon="4.80456">
        <ele>241</ele>
        <time>2018-06-27T09:03:33Z</time>
      </trkpt>
      <trkpt lat="45.99308" lon="4.80463">
        <ele>241</ele>
        <time>2018-06-27T09:03:34Z</time>
      </trkpt>
      <trkpt lat="45.99309" lon="4.8047">
        <ele>241</ele>
        <time>2018-06-27T09:03:35Z</time>
      </trkpt>
      <trkpt lat="45.9931" lon="4.80477">
        <ele>241</ele>
        <time>2018-06-27T09:03:36Z</time>
      </trkpt>
      <trkpt lat="45.99312" lon="4.80484">
        <ele>241</ele>
        <time>2018-06-27T09:03:37Z</time>
      </trkpt>
      <trkpt lat="45.99314" lon="4.80492">
        <ele>241</ele>
        <time>2018-06-27T09:03:38Z</time>
      </trkpt>
      <trkpt lat="45.99315" lon="4.80499">
        <ele>241</ele>
        <time>2018-06-27T09:03:39Z</time>
      </trkpt>
      <trkpt lat="45.99316" lon="4.80505">
        <ele>241</ele>
        <time>2018-06-27T09:03:40Z</time>
      </trkpt>
      <trkpt lat="45.99317" lon="4.80512">
        <ele>241</ele>
        <time>2018-06-27T09:03:41Z</time>
      </trkpt>
      <trkpt lat="45.99318" lon="4.80519">
        <ele>241</ele>
        <time>2018-06-27T09:03:42Z</time>
      </trkpt>
      <trkpt lat="45.99319" lon="4.80526">
        <ele>241</ele>
        <time>2018-06-27T09:03:43Z</time>
      </trkpt>
      <trkpt lat="45.9932" lon="4.80533">
        <ele>241</ele>
        <time>2018-06-27T09:03:44Z</time>
      </trkpt>
      <trkpt lat="45.99322" lon="4.8054">
        <ele>241</ele>
        <time>2018-06-27T09:03:45Z</time>
      </trkpt>
      <trkpt lat="45.99322" lon="4.80547">
        <ele>241</ele>
        <time>2018-06-27T09:03:46Z</time>
      </trkpt>
      <trkpt lat="45.99323" lon="4.80559">
        <ele>242</ele>
        <time>2018-06-27T09:03:48Z</time>
      </trkpt>
      <trkpt lat="45.99324" lon="4.80566">
        <ele>242</ele>
        <time>2018-06-27T09:03:49Z</time>
      </trkpt>
      <trkpt lat="45.99326" lon="4.80574">
        <ele>242</ele>
        <time>2018-06-27T09:03:50Z</time>
      </trkpt>
      <trkpt lat="45.99327" lon="4.8058">
        <ele>242</ele>
        <time>2018-06-27T09:03:51Z</time>
      </trkpt>
      <trkpt lat="45.99327" lon="4.80586">
        <ele>242</ele>
        <time>2018-06-27T09:03:52Z</time>
      </trkpt>
      <trkpt lat="45.99329" lon="4.80593">
        <ele>242</ele>
        <time>2018-06-27T09:03:53Z</time>
      </trkpt>
      <trkpt lat="45.99329" lon="4.806">
        <ele>243</ele>
        <time>2018-06-27T09:03:54Z</time>
      </trkpt>
      <trkpt lat="45.99331" lon="4.80608">
        <ele>243</ele>
        <time>2018-06-27T09:03:55Z</time>
      </trkpt>
      <trkpt lat="45.99331" lon="4.80616">
        <ele>243</ele>
        <time>2018-06-27T09:03:56Z</time>
      </trkpt>
      <trkpt lat="45.99332" lon="4.80622">
        <ele>243</ele>
        <time>2018-06-27T09:03:57Z</time>
      </trkpt>
      <trkpt lat="45.99333" lon="4.8063">
        <ele>243</ele>
        <time>2018-06-27T09:03:58Z</time>
      </trkpt>
      <trkpt lat="45.99335" lon="4.80638">
        <ele>244</ele>
        <time>2018-06-27T09:03:59Z</time>
      </trkpt>
      <trkpt lat="45.99336" lon="4.80645">
        <ele>244</ele>
        <time>2018-06-27T09:04:00Z</time>
      </trkpt>
      <trkpt lat="45.99336" lon="4.80652">
        <ele>244</ele>
        <time>2018-06-27T09:04:01Z</time>
      </trkpt>
      <trkpt lat="45.99337" lon="4.80659">
        <ele>244</ele>
        <time>2018-06-27T09:04:02Z</time>
      </trkpt>
      <trkpt lat="45.99339" lon="4.80665">
        <ele>244</ele>
        <time>2018-06-27T09:04:03Z</time>
      </trkpt>
      <trkpt lat="45.99339" lon="4.80672">
        <ele>244</ele>
        <time>2018-06-27T09:04:04Z</time>
      </trkpt>
      <trkpt lat="45.99341" lon="4.80679">
        <ele>244</ele>
        <time>2018-06-27T09:04:05Z</time>
      </trkpt>
      <trkpt lat="45.99341" lon="4.80686">
        <ele>244</ele>
        <time>2018-06-27T09:04:06Z</time>
      </trkpt>
      <trkpt lat="45.99342" lon="4.80692">
        <ele>244</ele>
        <time>2018-06-27T09:04:07Z</time>
      </trkpt>
      <trkpt lat="45.99344" lon="4.80698">
        <ele>244</ele>
        <time>2018-06-27T09:04:08Z</time>
      </trkpt>
      <trkpt lat="45.99344" lon="4.80705">
        <ele>244</ele>
        <time>2018-06-27T09:04:09Z</time>
      </trkpt>
      <trkpt lat="45.99344" lon="4.80711">
        <ele>244</ele>
        <time>2018-06-27T09:04:10Z</time>
      </trkpt>
      <trkpt lat="45.99345" lon="4.80718">
        <ele>244</ele>
        <time>2018-06-27T09:04:11Z</time>
      </trkpt>
      <trkpt lat="45.99346" lon="4.80725">
        <ele>244</ele>
        <time>2018-06-27T09:04:12Z</time>
      </trkpt>
      <trkpt lat="45.99347" lon="4.80731">
        <ele>245</ele>
        <time>2018-06-27T09:04:13Z</time>
      </trkpt>
      <trkpt lat="45.99348" lon="4.80739">
        <ele>245</ele>
        <time>2018-06-27T09:04:14Z</time>
      </trkpt>
      <trkpt lat="45.99348" lon="4.80745">
        <ele>245</ele>
        <time>2018-06-27T09:04:15Z</time>
      </trkpt>
      <trkpt lat="45.99351" lon="4.80756">
        <ele>245</ele>
        <time>2018-06-27T09:04:17Z</time>
      </trkpt>
      <trkpt lat="45.99351" lon="4.80764">
        <ele>245</ele>
        <time>2018-06-27T09:04:18Z</time>
      </trkpt>
      <trkpt lat="45.99352" lon="4.80771">
        <ele>245</ele>
        <time>2018-06-27T09:04:19Z</time>
      </trkpt>
      <trkpt lat="45.99353" lon="4.80777">
        <ele>245</ele>
        <time>2018-06-27T09:04:20Z</time>
      </trkpt>
      <trkpt lat="45.99355" lon="4.80785">
        <ele>246</ele>
        <time>2018-06-27T09:04:21Z</time>
      </trkpt>
      <trkpt lat="45.99355" lon="4.80791">
        <ele>246</ele>
        <time>2018-06-27T09:04:22Z</time>
      </trkpt>
      <trkpt lat="45.99356" lon="4.80797">
        <ele>246</ele>
        <time>2018-06-27T09:04:23Z</time>
      </trkpt>
      <trkpt lat="45.99357" lon="4.80804">
        <ele>246</ele>
        <time>2018-06-27T09:04:24Z</time>
      </trkpt>
      <trkpt lat="45.99359" lon="4.80816">
        <ele>246</ele>
        <time>2018-06-27T09:04:26Z</time>
      </trkpt>
      <trkpt lat="45.99359" lon="4.80824">
        <ele>246</ele>
        <time>2018-06-27T09:04:27Z</time>
      </trkpt>
      <trkpt lat="45.99361" lon="4.80834">
        <ele>247</ele>
        <time>2018-06-27T09:04:29Z</time>
      </trkpt>
      <trkpt lat="45.99361" lon="4.80839">
        <ele>247</ele>
        <time>2018-06-27T09:04:30Z</time>
      </trkpt>
      <trkpt lat="45.99363" lon="4.8085">
        <ele>248</ele>
        <time>2018-06-27T09:04:32Z</time>
      </trkpt>
      <trkpt lat="45.99363" lon="4.80855">
        <ele>248</ele>
        <time>2018-06-27T09:04:33Z</time>
      </trkpt>
      <trkpt lat="45.99365" lon="4.80867">
        <ele>248</ele>
        <time>2018-06-27T09:04:36Z</time>
      </trkpt>
      <trkpt lat="45.99366" lon="4.80876">
        <ele>248</ele>
        <time>2018-06-27T09:04:37Z</time>
      </trkpt>
      <trkpt lat="45.99367" lon="4.80884">
        <ele>248</ele>
        <time>2018-06-27T09:04:39Z</time>
      </trkpt>
      <trkpt lat="45.99368" lon="4.80891">
        <ele>248</ele>
        <time>2018-06-27T09:04:40Z</time>
      </trkpt>
      <trkpt lat="45.9937" lon="4.80902">
        <ele>248</ele>
        <time>2018-06-27T09:04:42Z</time>
      </trkpt>
      <trkpt lat="45.9937" lon="4.80906">
        <ele>248</ele>
        <time>2018-06-27T09:04:43Z</time>
      </trkpt>
      <trkpt lat="45.99372" lon="4.80917">
        <ele>248</ele>
        <time>2018-06-27T09:04:45Z</time>
      </trkpt>
      <trkpt lat="45.99373" lon="4.80922">
        <ele>250</ele>
        <time>2018-06-27T09:04:46Z</time>
      </trkpt>
      <trkpt lat="45.99375" lon="4.80933">
        <ele>250</ele>
        <time>2018-06-27T09:04:48Z</time>
      </trkpt>
      <trkpt lat="45.99376" lon="4.80938">
        <ele>250</ele>
        <time>2018-06-27T09:04:49Z</time>
      </trkpt>
      <trkpt lat="45.99377" lon="4.80949">
        <ele>250</ele>
        <time>2018-06-27T09:04:51Z</time>
      </trkpt>
      <trkpt lat="45.99378" lon="4.80954">
        <ele>250</ele>
        <time>2018-06-27T09:04:52Z</time>
      </trkpt>
      <trkpt lat="45.9938" lon="4.80965">
        <ele>250</ele>
        <time>2018-06-27T09:04:54Z</time>
      </trkpt>
      <trkpt lat="45.99381" lon="4.8097">
        <ele>250</ele>
        <time>2018-06-27T09:04:55Z</time>
      </trkpt>
      <trkpt lat="45.99383" lon="4.80981">
        <ele>250</ele>
        <time>2018-06-27T09:04:57Z</time>
      </trkpt>
      <trkpt lat="45.99384" lon="4.80987">
        <ele>250</ele>
        <time>2018-06-27T09:04:58Z</time>
      </trkpt>
      <trkpt lat="45.99385" lon="4.80998">
        <ele>250</ele>
        <time>2018-06-27T09:05:00Z</time>
      </trkpt>
      <trkpt lat="45.99386" lon="4.81004">
        <ele>251</ele>
        <time>2018-06-27T09:05:01Z</time>
      </trkpt>
      <trkpt lat="45.99388" lon="4.81016">
        <ele>251</ele>
        <time>2018-06-27T09:05:03Z</time>
      </trkpt>
      <trkpt lat="45.99387" lon="4.81022">
        <ele>251</ele>
        <time>2018-06-27T09:05:04Z</time>
      </trkpt>
      <trkpt lat="45.99389" lon="4.81035">
        <ele>251</ele>
        <time>2018-06-27T09:05:06Z</time>
      </trkpt>
      <trkpt lat="45.9939" lon="4.81042">
        <ele>251</ele>
        <time>2018-06-27T09:05:07Z</time>
      </trkpt>
      <trkpt lat="45.9939" lon="4.81049">
        <ele>251</ele>
        <time>2018-06-27T09:05:08Z</time>
      </trkpt>
      <trkpt lat="45.99391" lon="4.81056">
        <ele>251</ele>
        <time>2018-06-27T09:05:09Z</time>
      </trkpt>
      <trkpt lat="45.99392" lon="4.81068">
        <ele>251</ele>
        <time>2018-06-27T09:05:11Z</time>
      </trkpt>
      <trkpt lat="45.99393" lon="4.81075">
        <ele>251</ele>
        <time>2018-06-27T09:05:12Z</time>
      </trkpt>
      <trkpt lat="45.99394" lon="4.81081">
        <ele>251</ele>
        <time>2018-06-27T09:05:13Z</time>
      </trkpt>
      <trkpt lat="45.99395" lon="4.81088">
        <ele>251</ele>
        <time>2018-06-27T09:05:14Z</time>
      </trkpt>
      <trkpt lat="45.99397" lon="4.811">
        <ele>251</ele>
        <time>2018-06-27T09:05:16Z</time>
      </trkpt>
      <trkpt lat="45.99398" lon="4.81107">
        <ele>251</ele>
        <time>2018-06-27T09:05:17Z</time>
      </trkpt>
      <trkpt lat="45.99399" lon="4.81114">
        <ele>251</ele>
        <time>2018-06-27T09:05:18Z</time>
      </trkpt>
      <trkpt lat="45.994" lon="4.8112">
        <ele>251</ele>
        <time>2018-06-27T09:05:19Z</time>
      </trkpt>
      <trkpt lat="45.99401" lon="4.81127">
        <ele>251</ele>
        <time>2018-06-27T09:05:20Z</time>
      </trkpt>
      <trkpt lat="45.99401" lon="4.81133">
        <ele>251</ele>
        <time>2018-06-27T09:05:21Z</time>
      </trkpt>
      <trkpt lat="45.99403" lon="4.81145">
        <ele>251</ele>
        <time>2018-06-27T09:05:23Z</time>
      </trkpt>
      <trkpt lat="45.99403" lon="4.81151">
        <ele>251</ele>
        <time>2018-06-27T09:05:24Z</time>
      </trkpt>
      <trkpt lat="45.99405" lon="4.81163">
        <ele>251</ele>
        <time>2018-06-27T09:05:26Z</time>
      </trkpt>
      <trkpt lat="45.99406" lon="4.81169">
        <ele>251</ele>
        <time>2018-06-27T09:05:27Z</time>
      </trkpt>
      <trkpt lat="45.99408" lon="4.81181">
        <ele>251</ele>
        <time>2018-06-27T09:05:29Z</time>
      </trkpt>
      <trkpt lat="45.99408" lon="4.81187">
        <ele>251</ele>
        <time>2018-06-27T09:05:30Z</time>
      </trkpt>
      <trkpt lat="45.99409" lon="4.81194">
        <ele>252</ele>
        <time>2018-06-27T09:05:31Z</time>
      </trkpt>
      <trkpt lat="45.9941" lon="4.812">
        <ele>252</ele>
        <time>2018-06-27T09:05:32Z</time>
      </trkpt>
      <trkpt lat="45.99411" lon="4.81207">
        <ele>252</ele>
        <time>2018-06-27T09:05:33Z</time>
      </trkpt>
      <trkpt lat="45.99411" lon="4.81213">
        <ele>252</ele>
        <time>2018-06-27T09:05:34Z</time>
      </trkpt>
      <trkpt lat="45.99411" lon="4.8122">
        <ele>252</ele>
        <time>2018-06-27T09:05:35Z</time>
      </trkpt>
      <trkpt lat="45.99412" lon="4.81227">
        <ele>252</ele>
        <time>2018-06-27T09:05:36Z</time>
      </trkpt>
      <trkpt lat="45.99414" lon="4.81233">
        <ele>252</ele>
        <time>2018-06-27T09:05:37Z</time>
      </trkpt>
      <trkpt lat="45.99415" lon="4.81241">
        <ele>252</ele>
        <time>2018-06-27T09:05:38Z</time>
      </trkpt>
      <trkpt lat="45.99416" lon="4.81247">
        <ele>252</ele>
        <time>2018-06-27T09:05:39Z</time>
      </trkpt>
      <trkpt lat="45.99417" lon="4.81253">
        <ele>252</ele>
        <time>2018-06-27T09:05:40Z</time>
      </trkpt>
      <trkpt lat="45.99417" lon="4.8126">
        <ele>252</ele>
        <time>2018-06-27T09:05:41Z</time>
      </trkpt>
      <trkpt lat="45.99419" lon="4.81267">
        <ele>252</ele>
        <time>2018-06-27T09:05:42Z</time>
      </trkpt>
      <trkpt lat="45.9942" lon="4.81274">
        <ele>253</ele>
        <time>2018-06-27T09:05:43Z</time>
      </trkpt>
      <trkpt lat="45.99421" lon="4.8128">
        <ele>253</ele>
        <time>2018-06-27T09:05:44Z</time>
      </trkpt>
      <trkpt lat="45.99422" lon="4.81287">
        <ele>253</ele>
        <time>2018-06-27T09:05:45Z</time>
      </trkpt>
      <trkpt lat="45.99423" lon="4.81293">
        <ele>253</ele>
        <time>2018-06-27T09:05:46Z</time>
      </trkpt>
      <trkpt lat="45.99423" lon="4.813">
        <ele>253</ele>
        <time>2018-06-27T09:05:47Z</time>
      </trkpt>
      <trkpt lat="45.99424" lon="4.81307">
        <ele>253</ele>
        <time>2018-06-27T09:05:48Z</time>
      </trkpt>
      <trkpt lat="45.99426" lon="4.81313">
        <ele>254</ele>
        <time>2018-06-27T09:05:49Z</time>
      </trkpt>
      <trkpt lat="45.99427" lon="4.81319">
        <ele>254</ele>
        <time>2018-06-27T09:05:50Z</time>
      </trkpt>
      <trkpt lat="45.99428" lon="4.81326">
        <ele>254</ele>
        <time>2018-06-27T09:05:51Z</time>
      </trkpt>
      <trkpt lat="45.9943" lon="4.81333">
        <ele>254</ele>
        <time>2018-06-27T09:05:52Z</time>
      </trkpt>
      <trkpt lat="45.99431" lon="4.8134">
        <ele>254</ele>
        <time>2018-06-27T09:05:53Z</time>
      </trkpt>
      <trkpt lat="45.99432" lon="4.81347">
        <ele>254</ele>
        <time>2018-06-27T09:05:54Z</time>
      </trkpt>
      <trkpt lat="45.99432" lon="4.81354">
        <ele>254</ele>
        <time>2018-06-27T09:05:55Z</time>
      </trkpt>
      <trkpt lat="45.99432" lon="4.81361">
        <ele>254</ele>
        <time>2018-06-27T09:05:56Z</time>
      </trkpt>
      <trkpt lat="45.99433" lon="4.81367">
        <ele>254</ele>
        <time>2018-06-27T09:05:57Z</time>
      </trkpt>
      <trkpt lat="45.99434" lon="4.81374">
        <ele>254</ele>
        <time>2018-06-27T09:05:58Z</time>
      </trkpt>
      <trkpt lat="45.99435" lon="4.8138">
        <ele>254</ele>
        <time>2018-06-27T09:05:59Z</time>
      </trkpt>
      <trkpt lat="45.99437" lon="4.81386">
        <ele>254</ele>
        <time>2018-06-27T09:06:00Z</time>
      </trkpt>
      <trkpt lat="45.99438" lon="4.81398">
        <ele>254</ele>
        <time>2018-06-27T09:06:02Z</time>
      </trkpt>
      <trkpt lat="45.9944" lon="4.81405">
        <ele>254</ele>
        <time>2018-06-27T09:06:03Z</time>
      </trkpt>
      <trkpt lat="45.99441" lon="4.81417">
        <ele>254</ele>
        <time>2018-06-27T09:06:05Z</time>
      </trkpt>
      <trkpt lat="45.99442" lon="4.81423">
        <ele>254</ele>
        <time>2018-06-27T09:06:06Z</time>
      </trkpt>
      <trkpt lat="45.99444" lon="4.81434">
        <ele>254</ele>
        <time>2018-06-27T09:06:08Z</time>
      </trkpt>
      <trkpt lat="45.99445" lon="4.81441">
        <ele>254</ele>
        <time>2018-06-27T09:06:09Z</time>
      </trkpt>
      <trkpt lat="45.99447" lon="4.81452">
        <ele>254</ele>
        <time>2018-06-27T09:06:11Z</time>
      </trkpt>
      <trkpt lat="45.99448" lon="4.81458">
        <ele>254</ele>
        <time>2018-06-27T09:06:12Z</time>
      </trkpt>
      <trkpt lat="45.9945" lon="4.8147">
        <ele>254</ele>
        <time>2018-06-27T09:06:14Z</time>
      </trkpt>
      <trkpt lat="45.9945" lon="4.81476">
        <ele>254</ele>
        <time>2018-06-27T09:06:15Z</time>
      </trkpt>
      <trkpt lat="45.99452" lon="4.81487">
        <ele>254</ele>
        <time>2018-06-27T09:06:17Z</time>
      </trkpt>
      <trkpt lat="45.99452" lon="4.81493">
        <ele>254</ele>
        <time>2018-06-27T09:06:18Z</time>
      </trkpt>
      <trkpt lat="45.99453" lon="4.81504">
        <ele>255</ele>
        <time>2018-06-27T09:06:20Z</time>
      </trkpt>
      <trkpt lat="45.99454" lon="4.8151">
        <ele>255</ele>
        <time>2018-06-27T09:06:21Z</time>
      </trkpt>
      <trkpt lat="45.99455" lon="4.81522">
        <ele>255</ele>
        <time>2018-06-27T09:06:23Z</time>
      </trkpt>
      <trkpt lat="45.99456" lon="4.81528">
        <ele>255</ele>
        <time>2018-06-27T09:06:24Z</time>
      </trkpt>
      <trkpt lat="45.99457" lon="4.81539">
        <ele>255</ele>
        <time>2018-06-27T09:06:26Z</time>
      </trkpt>
      <trkpt lat="45.99458" lon="4.81545">
        <ele>255</ele>
        <time>2018-06-27T09:06:27Z</time>
      </trkpt>
      <trkpt lat="45.99459" lon="4.81556">
        <ele>255</ele>
        <time>2018-06-27T09:06:29Z</time>
      </trkpt>
      <trkpt lat="45.9946" lon="4.81562">
        <ele>255</ele>
        <time>2018-06-27T09:06:30Z</time>
      </trkpt>
      <trkpt lat="45.99462" lon="4.81574">
        <ele>255</ele>
        <time>2018-06-27T09:06:32Z</time>
      </trkpt>
      <trkpt lat="45.99463" lon="4.81579">
        <ele>255</ele>
        <time>2018-06-27T09:06:33Z</time>
      </trkpt>
      <trkpt lat="45.99465" lon="4.8159">
        <ele>257</ele>
        <time>2018-06-27T09:06:35Z</time>
      </trkpt>
      <trkpt lat="45.99466" lon="4.81596">
        <ele>257</ele>
        <time>2018-06-27T09:06:36Z</time>
      </trkpt>
      <trkpt lat="45.99467" lon="4.81607">
        <ele>258</ele>
        <time>2018-06-27T09:06:38Z</time>
      </trkpt>
      <trkpt lat="45.99468" lon="4.81613">
        <ele>258</ele>
        <time>2018-06-27T09:06:39Z</time>
      </trkpt>
      <trkpt lat="45.9947" lon="4.81624">
        <ele>258</ele>
        <time>2018-06-27T09:06:41Z</time>
      </trkpt>
      <trkpt lat="45.9947" lon="4.8163">
        <ele>258</ele>
        <time>2018-06-27T09:06:42Z</time>
      </trkpt>
      <trkpt lat="45.99472" lon="4.81641">
        <ele>258</ele>
        <time>2018-06-27T09:06:44Z</time>
      </trkpt>
      <trkpt lat="45.99472" lon="4.81647">
        <ele>259</ele>
        <time>2018-06-27T09:06:45Z</time>
      </trkpt>
      <trkpt lat="45.99474" lon="4.81657">
        <ele>259</ele>
        <time>2018-06-27T09:06:47Z</time>
      </trkpt>
      <trkpt lat="45.99475" lon="4.81663">
        <ele>259</ele>
        <time>2018-06-27T09:06:48Z</time>
      </trkpt>
      <trkpt lat="45.99476" lon="4.81675">
        <ele>261</ele>
        <time>2018-06-27T09:06:50Z</time>
      </trkpt>
      <trkpt lat="45.99477" lon="4.81681">
        <ele>261</ele>
        <time>2018-06-27T09:06:51Z</time>
      </trkpt>
      <trkpt lat="45.99478" lon="4.81693">
        <ele>261</ele>
        <time>2018-06-27T09:06:53Z</time>
      </trkpt>
      <trkpt lat="45.99479" lon="4.817">
        <ele>261</ele>
        <time>2018-06-27T09:06:54Z</time>
      </trkpt>
      <trkpt lat="45.99482" lon="4.81711">
        <ele>261</ele>
        <time>2018-06-27T09:06:56Z</time>
      </trkpt>
      <trkpt lat="45.99483" lon="4.81719">
        <ele>261</ele>
        <time>2018-06-27T09:06:57Z</time>
      </trkpt>
      <trkpt lat="45.99484" lon="4.81726">
        <ele>261</ele>
        <time>2018-06-27T09:06:58Z</time>
      </trkpt>
      <trkpt lat="45.99485" lon="4.81733">
        <ele>261</ele>
        <time>2018-06-27T09:06:59Z</time>
      </trkpt>
      <trkpt lat="45.99486" lon="4.81739">
        <ele>261</ele>
        <time>2018-06-27T09:07:00Z</time>
      </trkpt>
      <trkpt lat="45.99487" lon="4.81746">
        <ele>262</ele>
        <time>2018-06-27T09:07:01Z</time>
      </trkpt>
      <trkpt lat="45.99487" lon="4.81752">
        <ele>262</ele>
        <time>2018-06-27T09:07:02Z</time>
      </trkpt>
      <trkpt lat="45.99488" lon="4.81758">
        <ele>262</ele>
        <time>2018-06-27T09:07:03Z</time>
      </trkpt>
      <trkpt lat="45.99488" lon="4.81766">
        <ele>262</ele>
        <time>2018-06-27T09:07:04Z</time>
      </trkpt>
      <trkpt lat="45.99488" lon="4.81773">
        <ele>262</ele>
        <time>2018-06-27T09:07:05Z</time>
      </trkpt>
      <trkpt lat="45.99487" lon="4.8178">
        <ele>262</ele>
        <time>2018-06-27T09:07:06Z</time>
      </trkpt>
      <trkpt lat="45.99487" lon="4.81787">
        <ele>262</ele>
        <time>2018-06-27T09:07:07Z</time>
      </trkpt>
      <trkpt lat="45.99488" lon="4.81793">
        <ele>262</ele>
        <time>2018-06-27T09:07:08Z</time>
      </trkpt>
      <trkpt lat="45.99488" lon="4.818">
        <ele>262</ele>
        <time>2018-06-27T09:07:09Z</time>
      </trkpt>
      <trkpt lat="45.9949" lon="4.81807">
        <ele>262</ele>
        <time>2018-06-27T09:07:10Z</time>
      </trkpt>
      <trkpt lat="45.99492" lon="4.81815">
        <ele>262</ele>
        <time>2018-06-27T09:07:11Z</time>
      </trkpt>
      <trkpt lat="45.99493" lon="4.81821">
        <ele>262</ele>
        <time>2018-06-27T09:07:12Z</time>
      </trkpt>
      <trkpt lat="45.99495" lon="4.81828">
        <ele>262</ele>
        <time>2018-06-27T09:07:13Z</time>
      </trkpt>
      <trkpt lat="45.99498" lon="4.81839">
        <ele>261</ele>
        <time>2018-06-27T09:07:15Z</time>
      </trkpt>
      <trkpt lat="45.99498" lon="4.81845">
        <ele>261</ele>
        <time>2018-06-27T09:07:16Z</time>
      </trkpt>
      <trkpt lat="45.99499" lon="4.81853">
        <ele>261</ele>
        <time>2018-06-27T09:07:17Z</time>
      </trkpt>
      <trkpt lat="45.995" lon="4.8186">
        <ele>260</ele>
        <time>2018-06-27T09:07:18Z</time>
      </trkpt>
      <trkpt lat="45.99501" lon="4.81865">
        <ele>262</ele>
        <time>2018-06-27T09:07:19Z</time>
      </trkpt>
      <trkpt lat="45.99502" lon="4.81872">
        <ele>262</ele>
        <time>2018-06-27T09:07:20Z</time>
      </trkpt>
      <trkpt lat="45.99502" lon="4.81878">
        <ele>261</ele>
        <time>2018-06-27T09:07:21Z</time>
      </trkpt>
      <trkpt lat="45.99503" lon="4.81886">
        <ele>261</ele>
        <time>2018-06-27T09:07:22Z</time>
      </trkpt>
      <trkpt lat="45.99504" lon="4.81892">
        <ele>261</ele>
        <time>2018-06-27T09:07:23Z</time>
      </trkpt>
      <trkpt lat="45.99505" lon="4.819">
        <ele>261</ele>
        <time>2018-06-27T09:07:24Z</time>
      </trkpt>
      <trkpt lat="45.99506" lon="4.81907">
        <ele>260</ele>
        <time>2018-06-27T09:07:25Z</time>
      </trkpt>
      <trkpt lat="45.99508" lon="4.81913">
        <ele>260</ele>
        <time>2018-06-27T09:07:26Z</time>
      </trkpt>
      <trkpt lat="45.99509" lon="4.8192">
        <ele>260</ele>
        <time>2018-06-27T09:07:27Z</time>
      </trkpt>
      <trkpt lat="45.9951" lon="4.81926">
        <ele>260</ele>
        <time>2018-06-27T09:07:28Z</time>
      </trkpt>
      <trkpt lat="45.99511" lon="4.81938">
        <ele>260</ele>
        <time>2018-06-27T09:07:30Z</time>
      </trkpt>
      <trkpt lat="45.99511" lon="4.81944">
        <ele>261</ele>
        <time>2018-06-27T09:07:31Z</time>
      </trkpt>
      <trkpt lat="45.99512" lon="4.81951">
        <ele>261</ele>
        <time>2018-06-27T09:07:32Z</time>
      </trkpt>
      <trkpt lat="45.99512" lon="4.81957">
        <ele>261</ele>
        <time>2018-06-27T09:07:33Z</time>
      </trkpt>
      <trkpt lat="45.99513" lon="4.81964">
        <ele>261</ele>
        <time>2018-06-27T09:07:34Z</time>
      </trkpt>
      <trkpt lat="45.99513" lon="4.81971">
        <ele>261</ele>
        <time>2018-06-27T09:07:35Z</time>
      </trkpt>
      <trkpt lat="45.99514" lon="4.81978">
        <ele>261</ele>
        <time>2018-06-27T09:07:36Z</time>
      </trkpt>
      <trkpt lat="45.99514" lon="4.81985">
        <ele>260</ele>
        <time>2018-06-27T09:07:37Z</time>
      </trkpt>
      <trkpt lat="45.99515" lon="4.81993">
        <ele>260</ele>
        <time>2018-06-27T09:07:38Z</time>
      </trkpt>
      <trkpt lat="45.99516" lon="4.82">
        <ele>261</ele>
        <time>2018-06-27T09:07:39Z</time>
      </trkpt>
      <trkpt lat="45.99516" lon="4.82007">
        <ele>261</ele>
        <time>2018-06-27T09:07:40Z</time>
      </trkpt>
      <trkpt lat="45.99517" lon="4.82015">
        <ele>261</ele>
        <time>2018-06-27T09:07:41Z</time>
      </trkpt>
      <trkpt lat="45.99517" lon="4.82022">
        <ele>261</ele>
        <time>2018-06-27T09:07:42Z</time>
      </trkpt>
      <trkpt lat="45.99518" lon="4.82029">
        <ele>261</ele>
        <time>2018-06-27T09:07:43Z</time>
      </trkpt>
      <trkpt lat="45.99519" lon="4.82035">
        <ele>261</ele>
        <time>2018-06-27T09:07:44Z</time>
      </trkpt>
      <trkpt lat="45.9952" lon="4.82043">
        <ele>262</ele>
        <time>2018-06-27T09:07:45Z</time>
      </trkpt>
      <trkpt lat="45.99521" lon="4.8205">
        <ele>262</ele>
        <time>2018-06-27T09:07:46Z</time>
      </trkpt>
      <trkpt lat="45.99522" lon="4.82057">
        <ele>262</ele>
        <time>2018-06-27T09:07:47Z</time>
      </trkpt>
      <trkpt lat="45.99524" lon="4.82065">
        <ele>262</ele>
        <time>2018-06-27T09:07:48Z</time>
      </trkpt>
      <trkpt lat="45.99525" lon="4.82072">
        <ele>262</ele>
        <time>2018-06-27T09:07:49Z</time>
      </trkpt>
      <trkpt lat="45.99525" lon="4.8208">
        <ele>262</ele>
        <time>2018-06-27T09:07:50Z</time>
      </trkpt>
      <trkpt lat="45.99526" lon="4.82087">
        <ele>262</ele>
        <time>2018-06-27T09:07:51Z</time>
      </trkpt>
      <trkpt lat="45.99528" lon="4.82095">
        <ele>262</ele>
        <time>2018-06-27T09:07:52Z</time>
      </trkpt>
      <trkpt lat="45.99528" lon="4.82103">
        <ele>262</ele>
        <time>2018-06-27T09:07:53Z</time>
      </trkpt>
      <trkpt lat="45.99529" lon="4.82111">
        <ele>263</ele>
        <time>2018-06-27T09:07:54Z</time>
      </trkpt>
      <trkpt lat="45.9953" lon="4.82118">
        <ele>263</ele>
        <time>2018-06-27T09:07:55Z</time>
      </trkpt>
      <trkpt lat="45.99532" lon="4.82127">
        <ele>263</ele>
        <time>2018-06-27T09:07:56Z</time>
      </trkpt>
      <trkpt lat="45.99533" lon="4.82134">
        <ele>263</ele>
        <time>2018-06-27T09:07:57Z</time>
      </trkpt>
      <trkpt lat="45.99534" lon="4.82141">
        <ele>263</ele>
        <time>2018-06-27T09:07:58Z</time>
      </trkpt>
      <trkpt lat="45.99535" lon="4.82148">
        <ele>263</ele>
        <time>2018-06-27T09:07:59Z</time>
      </trkpt>
      <trkpt lat="45.99536" lon="4.82154">
        <ele>263</ele>
        <time>2018-06-27T09:08:00Z</time>
      </trkpt>
      <trkpt lat="45.99538" lon="4.82161">
        <ele>263</ele>
        <time>2018-06-27T09:08:01Z</time>
      </trkpt>
      <trkpt lat="45.99539" lon="4.82172">
        <ele>262</ele>
        <time>2018-06-27T09:08:03Z</time>
      </trkpt>
      <trkpt lat="45.99541" lon="4.82179">
        <ele>262</ele>
        <time>2018-06-27T09:08:04Z</time>
      </trkpt>
      <trkpt lat="45.99541" lon="4.82186">
        <ele>262</ele>
        <time>2018-06-27T09:08:05Z</time>
      </trkpt>
      <trkpt lat="45.99543" lon="4.82192">
        <ele>262</ele>
        <time>2018-06-27T09:08:06Z</time>
      </trkpt>
      <trkpt lat="45.99545" lon="4.82198">
        <ele>262</ele>
        <time>2018-06-27T09:08:07Z</time>
      </trkpt>
      <trkpt lat="45.99546" lon="4.82205">
        <ele>262</ele>
        <time>2018-06-27T09:08:08Z</time>
      </trkpt>
      <trkpt lat="45.99549" lon="4.82213">
        <ele>262</ele>
        <time>2018-06-27T09:08:09Z</time>
      </trkpt>
      <trkpt lat="45.99549" lon="4.82221">
        <ele>262</ele>
        <time>2018-06-27T09:08:10Z</time>
      </trkpt>
      <trkpt lat="45.99551" lon="4.82229">
        <ele>262</ele>
        <time>2018-06-27T09:08:11Z</time>
      </trkpt>
      <trkpt lat="45.99553" lon="4.82236">
        <ele>262</ele>
        <time>2018-06-27T09:08:12Z</time>
      </trkpt>
      <trkpt lat="45.99554" lon="4.82242">
        <ele>262</ele>
        <time>2018-06-27T09:08:13Z</time>
      </trkpt>
      <trkpt lat="45.99556" lon="4.8225">
        <ele>262</ele>
        <time>2018-06-27T09:08:14Z</time>
      </trkpt>
      <trkpt lat="45.99559" lon="4.82257">
        <ele>262</ele>
        <time>2018-06-27T09:08:15Z</time>
      </trkpt>
      <trkpt lat="45.99561" lon="4.82263">
        <ele>262</ele>
        <time>2018-06-27T09:08:16Z</time>
      </trkpt>
      <trkpt lat="45.99563" lon="4.8227">
        <ele>262</ele>
        <time>2018-06-27T09:08:17Z</time>
      </trkpt>
      <trkpt lat="45.99565" lon="4.82278">
        <ele>262</ele>
        <time>2018-06-27T09:08:18Z</time>
      </trkpt>
      <trkpt lat="45.99567" lon="4.82285">
        <ele>262</ele>
        <time>2018-06-27T09:08:19Z</time>
      </trkpt>
      <trkpt lat="45.99569" lon="4.82292">
        <ele>262</ele>
        <time>2018-06-27T09:08:20Z</time>
      </trkpt>
      <trkpt lat="45.9957" lon="4.82298">
        <ele>262</ele>
        <time>2018-06-27T09:08:21Z</time>
      </trkpt>
      <trkpt lat="45.99572" lon="4.82305">
        <ele>262</ele>
        <time>2018-06-27T09:08:22Z</time>
      </trkpt>
      <trkpt lat="45.99575" lon="4.8231">
        <ele>262</ele>
        <time>2018-06-27T09:08:23Z</time>
      </trkpt>
      <trkpt lat="45.99576" lon="4.82318">
        <ele>262</ele>
        <time>2018-06-27T09:08:24Z</time>
      </trkpt>
      <trkpt lat="45.99578" lon="4.82324">
        <ele>262</ele>
        <time>2018-06-27T09:08:25Z</time>
      </trkpt>
      <trkpt lat="45.99579" lon="4.8233">
        <ele>263</ele>
        <time>2018-06-27T09:08:26Z</time>
      </trkpt>
      <trkpt lat="45.99582" lon="4.82342">
        <ele>262</ele>
        <time>2018-06-27T09:08:28Z</time>
      </trkpt>
      <trkpt lat="45.99583" lon="4.82347">
        <ele>262</ele>
        <time>2018-06-27T09:08:29Z</time>
      </trkpt>
      <trkpt lat="45.99584" lon="4.82359">
        <ele>264</ele>
        <time>2018-06-27T09:08:31Z</time>
      </trkpt>
      <trkpt lat="45.99585" lon="4.82365">
        <ele>264</ele>
        <time>2018-06-27T09:08:32Z</time>
      </trkpt>
      <trkpt lat="45.99586" lon="4.82378">
        <ele>264</ele>
        <time>2018-06-27T09:08:34Z</time>
      </trkpt>
      <trkpt lat="45.99587" lon="4.82384">
        <ele>264</ele>
        <time>2018-06-27T09:08:35Z</time>
      </trkpt>
      <trkpt lat="45.99588" lon="4.82394">
        <ele>264</ele>
        <time>2018-06-27T09:08:37Z</time>
      </trkpt>
      <trkpt lat="45.99589" lon="4.824">
        <ele>264</ele>
        <time>2018-06-27T09:08:38Z</time>
      </trkpt>
      <trkpt lat="45.99592" lon="4.82411">
        <ele>263</ele>
        <time>2018-06-27T09:08:40Z</time>
      </trkpt>
      <trkpt lat="45.99593" lon="4.82416">
        <ele>263</ele>
        <time>2018-06-27T09:08:41Z</time>
      </trkpt>
      <trkpt lat="45.99595" lon="4.82424">
        <ele>263</ele>
        <time>2018-06-27T09:08:43Z</time>
      </trkpt>
      <trkpt lat="45.99598" lon="4.82431">
        <ele>264</ele>
        <time>2018-06-27T09:08:44Z</time>
      </trkpt>
      <trkpt lat="45.99602" lon="4.8244">
        <ele>264</ele>
        <time>2018-06-27T09:08:46Z</time>
      </trkpt>
      <trkpt lat="45.99604" lon="4.82445">
        <ele>264</ele>
        <time>2018-06-27T09:08:47Z</time>
      </trkpt>
      <trkpt lat="45.99607" lon="4.82455">
        <ele>264</ele>
        <time>2018-06-27T09:08:49Z</time>
      </trkpt>
      <trkpt lat="45.99609" lon="4.8246">
        <ele>265</ele>
        <time>2018-06-27T09:08:50Z</time>
      </trkpt>
      <trkpt lat="45.99613" lon="4.82471">
        <ele>265</ele>
        <time>2018-06-27T09:08:52Z</time>
      </trkpt>
      <trkpt lat="45.99615" lon="4.82476">
        <ele>265</ele>
        <time>2018-06-27T09:08:53Z</time>
      </trkpt>
      <trkpt lat="45.9962" lon="4.82486">
        <ele>265</ele>
        <time>2018-06-27T09:08:55Z</time>
      </trkpt>
      <trkpt lat="45.99621" lon="4.82488">
        <ele>265</ele>
        <time>2018-06-27T09:08:56Z</time>
      </trkpt>
      <trkpt lat="45.99623" lon="4.82495">
        <ele>265</ele>
        <time>2018-06-27T09:08:57Z</time>
      </trkpt>
      <trkpt lat="45.99625" lon="4.82501">
        <ele>265</ele>
        <time>2018-06-27T09:08:58Z</time>
      </trkpt>
      <trkpt lat="45.99627" lon="4.82507">
        <ele>265</ele>
        <time>2018-06-27T09:08:59Z</time>
      </trkpt>
      <trkpt lat="45.99629" lon="4.82515">
        <ele>265</ele>
        <time>2018-06-27T09:09:00Z</time>
      </trkpt>
      <trkpt lat="45.99633" lon="4.82526">
        <ele>266</ele>
        <time>2018-06-27T09:09:02Z</time>
      </trkpt>
      <trkpt lat="45.99635" lon="4.82532">
        <ele>266</ele>
        <time>2018-06-27T09:09:03Z</time>
      </trkpt>
      <trkpt lat="45.99636" lon="4.82539">
        <ele>266</ele>
        <time>2018-06-27T09:09:04Z</time>
      </trkpt>
      <trkpt lat="45.99637" lon="4.82546">
        <ele>266</ele>
        <time>2018-06-27T09:09:05Z</time>
      </trkpt>
      <trkpt lat="45.99637" lon="4.82553">
        <ele>266</ele>
        <time>2018-06-27T09:09:06Z</time>
      </trkpt>
      <trkpt lat="45.99638" lon="4.82561">
        <ele>266</ele>
        <time>2018-06-27T09:09:07Z</time>
      </trkpt>
      <trkpt lat="45.99639" lon="4.82567">
        <ele>266</ele>
        <time>2018-06-27T09:09:08Z</time>
      </trkpt>
      <trkpt lat="45.9964" lon="4.82574">
        <ele>266</ele>
        <time>2018-06-27T09:09:09Z</time>
      </trkpt>
      <trkpt lat="45.99642" lon="4.8258">
        <ele>266</ele>
        <time>2018-06-27T09:09:10Z</time>
      </trkpt>
      <trkpt lat="45.99644" lon="4.82585">
        <ele>267</ele>
        <time>2018-06-27T09:09:11Z</time>
      </trkpt>
      <trkpt lat="45.99645" lon="4.82592">
        <ele>267</ele>
        <time>2018-06-27T09:09:12Z</time>
      </trkpt>
      <trkpt lat="45.99646" lon="4.82599">
        <ele>267</ele>
        <time>2018-06-27T09:09:13Z</time>
      </trkpt>
      <trkpt lat="45.99647" lon="4.82606">
        <ele>267</ele>
        <time>2018-06-27T09:09:14Z</time>
      </trkpt>
      <trkpt lat="45.99647" lon="4.82614">
        <ele>267</ele>
        <time>2018-06-27T09:09:15Z</time>
      </trkpt>
      <trkpt lat="45.99648" lon="4.82619">
        <ele>267</ele>
        <time>2018-06-27T09:09:16Z</time>
      </trkpt>
      <trkpt lat="45.9965" lon="4.82627">
        <ele>267</ele>
        <time>2018-06-27T09:09:17Z</time>
      </trkpt>
      <trkpt lat="45.99651" lon="4.82634">
        <ele>267</ele>
        <time>2018-06-27T09:09:18Z</time>
      </trkpt>
      <trkpt lat="45.99653" lon="4.82639">
        <ele>267</ele>
        <time>2018-06-27T09:09:19Z</time>
      </trkpt>
      <trkpt lat="45.99655" lon="4.82651">
        <ele>267</ele>
        <time>2018-06-27T09:09:21Z</time>
      </trkpt>
      <trkpt lat="45.99655" lon="4.82658">
        <ele>268</ele>
        <time>2018-06-27T09:09:22Z</time>
      </trkpt>
      <trkpt lat="45.99657" lon="4.82669">
        <ele>268</ele>
        <time>2018-06-27T09:09:24Z</time>
      </trkpt>
      <trkpt lat="45.99657" lon="4.82675">
        <ele>268</ele>
        <time>2018-06-27T09:09:25Z</time>
      </trkpt>
      <trkpt lat="45.99658" lon="4.8268">
        <ele>268</ele>
        <time>2018-06-27T09:09:26Z</time>
      </trkpt>
      <trkpt lat="45.99659" lon="4.82688">
        <ele>268</ele>
        <time>2018-06-27T09:09:27Z</time>
      </trkpt>
      <trkpt lat="45.99661" lon="4.82694">
        <ele>268</ele>
        <time>2018-06-27T09:09:28Z</time>
      </trkpt>
      <trkpt lat="45.99663" lon="4.82701">
        <ele>268</ele>
        <time>2018-06-27T09:09:29Z</time>
      </trkpt>
      <trkpt lat="45.99664" lon="4.82707">
        <ele>268</ele>
        <time>2018-06-27T09:09:30Z</time>
      </trkpt>
      <trkpt lat="45.99665" lon="4.82714">
        <ele>268</ele>
        <time>2018-06-27T09:09:31Z</time>
      </trkpt>
      <trkpt lat="45.99666" lon="4.82722">
        <ele>268</ele>
        <time>2018-06-27T09:09:32Z</time>
      </trkpt>
      <trkpt lat="45.99667" lon="4.82729">
        <ele>269</ele>
        <time>2018-06-27T09:09:33Z</time>
      </trkpt>
      <trkpt lat="45.99667" lon="4.82741">
        <ele>269</ele>
        <time>2018-06-27T09:09:35Z</time>
      </trkpt>
      <trkpt lat="45.99668" lon="4.82747">
        <ele>269</ele>
        <time>2018-06-27T09:09:36Z</time>
      </trkpt>
      <trkpt lat="45.9967" lon="4.82759">
        <ele>269</ele>
        <time>2018-06-27T09:09:38Z</time>
      </trkpt>
      <trkpt lat="45.9967" lon="4.82765">
        <ele>269</ele>
        <time>2018-06-27T09:09:39Z</time>
      </trkpt>
      <trkpt lat="45.99672" lon="4.82775">
        <ele>269</ele>
        <time>2018-06-27T09:09:41Z</time>
      </trkpt>
      <trkpt lat="45.99673" lon="4.82781">
        <ele>269</ele>
        <time>2018-06-27T09:09:42Z</time>
      </trkpt>
      <trkpt lat="45.99676" lon="4.82793">
        <ele>270</ele>
        <time>2018-06-27T09:09:44Z</time>
      </trkpt>
      <trkpt lat="45.99678" lon="4.82798">
        <ele>270</ele>
        <time>2018-06-27T09:09:45Z</time>
      </trkpt>
      <trkpt lat="45.9968" lon="4.8281">
        <ele>270</ele>
        <time>2018-06-27T09:09:47Z</time>
      </trkpt>
      <trkpt lat="45.99682" lon="4.82815">
        <ele>270</ele>
        <time>2018-06-27T09:09:48Z</time>
      </trkpt>
      <trkpt lat="45.99685" lon="4.82827">
        <ele>270</ele>
        <time>2018-06-27T09:09:50Z</time>
      </trkpt>
      <trkpt lat="45.99686" lon="4.82833">
        <ele>270</ele>
        <time>2018-06-27T09:09:51Z</time>
      </trkpt>
      <trkpt lat="45.99689" lon="4.82844">
        <ele>270</ele>
        <time>2018-06-27T09:09:53Z</time>
      </trkpt>
      <trkpt lat="45.99691" lon="4.82849">
        <ele>270</ele>
        <time>2018-06-27T09:09:54Z</time>
      </trkpt>
      <trkpt lat="45.99694" lon="4.8286">
        <ele>270</ele>
        <time>2018-06-27T09:09:56Z</time>
      </trkpt>
      <trkpt lat="45.99696" lon="4.82866">
        <ele>270</ele>
        <time>2018-06-27T09:09:57Z</time>
      </trkpt>
      <trkpt lat="45.997" lon="4.82876">
        <ele>271</ele>
        <time>2018-06-27T09:09:59Z</time>
      </trkpt>
      <trkpt lat="45.99702" lon="4.82882">
        <ele>271</ele>
        <time>2018-06-27T09:10:00Z</time>
      </trkpt>
      <trkpt lat="45.99706" lon="4.82894">
        <ele>271</ele>
        <time>2018-06-27T09:10:02Z</time>
      </trkpt>
      <trkpt lat="45.99708" lon="4.829">
        <ele>271</ele>
        <time>2018-06-27T09:10:03Z</time>
      </trkpt>
      <trkpt lat="45.99711" lon="4.82911">
        <ele>271</ele>
        <time>2018-06-27T09:10:05Z</time>
      </trkpt>
      <trkpt lat="45.99713" lon="4.82917">
        <ele>271</ele>
        <time>2018-06-27T09:10:06Z</time>
      </trkpt>
      <trkpt lat="45.99716" lon="4.82928">
        <ele>271</ele>
        <time>2018-06-27T09:10:08Z</time>
      </trkpt>
      <trkpt lat="45.99718" lon="4.82934">
        <ele>271</ele>
        <time>2018-06-27T09:10:09Z</time>
      </trkpt>
      <trkpt lat="45.99721" lon="4.82946">
        <ele>271</ele>
        <time>2018-06-27T09:10:11Z</time>
      </trkpt>
      <trkpt lat="45.99723" lon="4.82951">
        <ele>271</ele>
        <time>2018-06-27T09:10:12Z</time>
      </trkpt>
      <trkpt lat="45.99724" lon="4.82957">
        <ele>271</ele>
        <time>2018-06-27T09:10:13Z</time>
      </trkpt>
      <trkpt lat="45.99726" lon="4.82964">
        <ele>271</ele>
        <time>2018-06-27T09:10:14Z</time>
      </trkpt>
      <trkpt lat="45.99728" lon="4.82969">
        <ele>271</ele>
        <time>2018-06-27T09:10:15Z</time>
      </trkpt>
      <trkpt lat="45.99731" lon="4.82976">
        <ele>271</ele>
        <time>2018-06-27T09:10:16Z</time>
      </trkpt>
      <trkpt lat="45.99732" lon="4.82982">
        <ele>271</ele>
        <time>2018-06-27T09:10:17Z</time>
      </trkpt>
      <trkpt lat="45.99734" lon="4.82989">
        <ele>271</ele>
        <time>2018-06-27T09:10:18Z</time>
      </trkpt>
      <trkpt lat="45.99738" lon="4.82999">
        <ele>271</ele>
        <time>2018-06-27T09:10:20Z</time>
      </trkpt>
      <trkpt lat="45.99739" lon="4.83005">
        <ele>271</ele>
        <time>2018-06-27T09:10:21Z</time>
      </trkpt>
      <trkpt lat="45.99742" lon="4.83017">
        <ele>271</ele>
        <time>2018-06-27T09:10:23Z</time>
      </trkpt>
      <trkpt lat="45.99743" lon="4.83023">
        <ele>271</ele>
        <time>2018-06-27T09:10:24Z</time>
      </trkpt>
      <trkpt lat="45.99746" lon="4.83035">
        <ele>271</ele>
        <time>2018-06-27T09:10:26Z</time>
      </trkpt>
      <trkpt lat="45.99748" lon="4.83041">
        <ele>271</ele>
        <time>2018-06-27T09:10:27Z</time>
      </trkpt>
      <trkpt lat="45.99749" lon="4.83048">
        <ele>271</ele>
        <time>2018-06-27T09:10:28Z</time>
      </trkpt>
      <trkpt lat="45.99751" lon="4.83054">
        <ele>272</ele>
        <time>2018-06-27T09:10:29Z</time>
      </trkpt>
      <trkpt lat="45.99752" lon="4.83061">
        <ele>272</ele>
        <time>2018-06-27T09:10:30Z</time>
      </trkpt>
      <trkpt lat="45.99755" lon="4.83068">
        <ele>272</ele>
        <time>2018-06-27T09:10:31Z</time>
      </trkpt>
      <trkpt lat="45.99755" lon="4.83076">
        <ele>272</ele>
        <time>2018-06-27T09:10:32Z</time>
      </trkpt>
      <trkpt lat="45.99756" lon="4.83083">
        <ele>272</ele>
        <time>2018-06-27T09:10:33Z</time>
      </trkpt>
      <trkpt lat="45.99757" lon="4.83091">
        <ele>272</ele>
        <time>2018-06-27T09:10:34Z</time>
      </trkpt>
      <trkpt lat="45.99759" lon="4.83101">
        <ele>272</ele>
        <time>2018-06-27T09:10:35Z</time>
      </trkpt>
      <trkpt lat="45.99759" lon="4.8311">
        <ele>271</ele>
        <time>2018-06-27T09:10:36Z</time>
      </trkpt>
      <trkpt lat="45.9976" lon="4.8312">
        <ele>271</ele>
        <time>2018-06-27T09:10:37Z</time>
      </trkpt>
      <trkpt lat="45.99762" lon="4.8313">
        <ele>271</ele>
        <time>2018-06-27T09:10:38Z</time>
      </trkpt>
      <trkpt lat="45.99763" lon="4.8314">
        <ele>271</ele>
        <time>2018-06-27T09:10:39Z</time>
      </trkpt>
      <trkpt lat="45.99764" lon="4.83151">
        <ele>271</ele>
        <time>2018-06-27T09:10:40Z</time>
      </trkpt>
      <trkpt lat="45.99764" lon="4.83162">
        <ele>271</ele>
        <time>2018-06-27T09:10:41Z</time>
      </trkpt>
      <trkpt lat="45.99765" lon="4.83173">
        <ele>269</ele>
        <time>2018-06-27T09:10:42Z</time>
      </trkpt>
      <trkpt lat="45.99766" lon="4.83184">
        <ele>269</ele>
        <time>2018-06-27T09:10:43Z</time>
      </trkpt>
      <trkpt lat="45.99768" lon="4.83196">
        <ele>269</ele>
        <time>2018-06-27T09:10:44Z</time>
      </trkpt>
      <trkpt lat="45.99769" lon="4.83207">
        <ele>268</ele>
        <time>2018-06-27T09:10:45Z</time>
      </trkpt>
      <trkpt lat="45.99769" lon="4.8322">
        <ele>268</ele>
        <time>2018-06-27T09:10:46Z</time>
      </trkpt>
      <trkpt lat="45.99771" lon="4.83232">
        <ele>267</ele>
        <time>2018-06-27T09:10:47Z</time>
      </trkpt>
      <trkpt lat="45.99772" lon="4.83244">
        <ele>267</ele>
        <time>2018-06-27T09:10:48Z</time>
      </trkpt>
      <trkpt lat="45.99773" lon="4.83255">
        <ele>265</ele>
        <time>2018-06-27T09:10:49Z</time>
      </trkpt>
      <trkpt lat="45.99773" lon="4.83267">
        <ele>265</ele>
        <time>2018-06-27T09:10:50Z</time>
      </trkpt>
      <trkpt lat="45.99775" lon="4.83278">
        <ele>265</ele>
        <time>2018-06-27T09:10:51Z</time>
      </trkpt>
      <trkpt lat="45.99776" lon="4.8329">
        <ele>264</ele>
        <time>2018-06-27T09:10:52Z</time>
      </trkpt>
      <trkpt lat="45.99778" lon="4.83299">
        <ele>264</ele>
        <time>2018-06-27T09:10:53Z</time>
      </trkpt>
      <trkpt lat="45.99779" lon="4.8331">
        <ele>264</ele>
        <time>2018-06-27T09:10:54Z</time>
      </trkpt>
      <trkpt lat="45.99781" lon="4.83321">
        <ele>264</ele>
        <time>2018-06-27T09:10:55Z</time>
      </trkpt>
      <trkpt lat="45.99783" lon="4.83331">
        <ele>264</ele>
        <time>2018-06-27T09:10:56Z</time>
      </trkpt>
      <trkpt lat="45.99785" lon="4.83342">
        <ele>263</ele>
        <time>2018-06-27T09:10:57Z</time>
      </trkpt>
      <trkpt lat="45.99787" lon="4.83353">
        <ele>262</ele>
        <time>2018-06-27T09:10:58Z</time>
      </trkpt>
      <trkpt lat="45.99789" lon="4.83363">
        <ele>262</ele>
        <time>2018-06-27T09:10:59Z</time>
      </trkpt>
      <trkpt lat="45.99791" lon="4.83373">
        <ele>262</ele>
        <time>2018-06-27T09:11:00Z</time>
      </trkpt>
      <trkpt lat="45.99793" lon="4.83383">
        <ele>262</ele>
        <time>2018-06-27T09:11:01Z</time>
      </trkpt>
      <trkpt lat="45.99794" lon="4.83393">
        <ele>262</ele>
        <time>2018-06-27T09:11:02Z</time>
      </trkpt>
      <trkpt lat="45.99797" lon="4.83403">
        <ele>262</ele>
        <time>2018-06-27T09:11:03Z</time>
      </trkpt>
      <trkpt lat="45.99799" lon="4.83412">
        <ele>262</ele>
        <time>2018-06-27T09:11:04Z</time>
      </trkpt>
      <trkpt lat="45.99801" lon="4.83421">
        <ele>261</ele>
        <time>2018-06-27T09:11:05Z</time>
      </trkpt>
      <trkpt lat="45.99803" lon="4.83432">
        <ele>261</ele>
        <time>2018-06-27T09:11:06Z</time>
      </trkpt>
      <trkpt lat="45.99805" lon="4.83442">
        <ele>261</ele>
        <time>2018-06-27T09:11:07Z</time>
      </trkpt>
      <trkpt lat="45.99807" lon="4.83452">
        <ele>261</ele>
        <time>2018-06-27T09:11:08Z</time>
      </trkpt>
      <trkpt lat="45.99809" lon="4.83461">
        <ele>261</ele>
        <time>2018-06-27T09:11:09Z</time>
      </trkpt>
      <trkpt lat="45.99811" lon="4.83471">
        <ele>260</ele>
        <time>2018-06-27T09:11:10Z</time>
      </trkpt>
      <trkpt lat="45.99813" lon="4.8348">
        <ele>260</ele>
        <time>2018-06-27T09:11:11Z</time>
      </trkpt>
      <trkpt lat="45.99815" lon="4.83489">
        <ele>260</ele>
        <time>2018-06-27T09:11:12Z</time>
      </trkpt>
      <trkpt lat="45.99818" lon="4.83498">
        <ele>260</ele>
        <time>2018-06-27T09:11:13Z</time>
      </trkpt>
      <trkpt lat="45.9982" lon="4.83507">
        <ele>259</ele>
        <time>2018-06-27T09:11:14Z</time>
      </trkpt>
      <trkpt lat="45.99822" lon="4.83516">
        <ele>259</ele>
        <time>2018-06-27T09:11:15Z</time>
      </trkpt>
      <trkpt lat="45.99825" lon="4.83525">
        <ele>259</ele>
        <time>2018-06-27T09:11:16Z</time>
      </trkpt>
      <trkpt lat="45.99827" lon="4.83533">
        <ele>259</ele>
        <time>2018-06-27T09:11:17Z</time>
      </trkpt>
      <trkpt lat="45.99829" lon="4.83543">
        <ele>259</ele>
        <time>2018-06-27T09:11:18Z</time>
      </trkpt>
      <trkpt lat="45.99831" lon="4.83551">
        <ele>258</ele>
        <time>2018-06-27T09:11:19Z</time>
      </trkpt>
      <trkpt lat="45.99832" lon="4.8356">
        <ele>258</ele>
        <time>2018-06-27T09:11:20Z</time>
      </trkpt>
      <trkpt lat="45.99834" lon="4.83568">
        <ele>258</ele>
        <time>2018-06-27T09:11:21Z</time>
      </trkpt>
      <trkpt lat="45.99836" lon="4.83576">
        <ele>257</ele>
        <time>2018-06-27T09:11:22Z</time>
      </trkpt>
      <trkpt lat="45.99837" lon="4.83584">
        <ele>257</ele>
        <time>2018-06-27T09:11:23Z</time>
      </trkpt>
      <trkpt lat="45.99839" lon="4.83592">
        <ele>257</ele>
        <time>2018-06-27T09:11:24Z</time>
      </trkpt>
      <trkpt lat="45.99841" lon="4.836">
        <ele>257</ele>
        <time>2018-06-27T09:11:25Z</time>
      </trkpt>
      <trkpt lat="45.99842" lon="4.83608">
        <ele>257</ele>
        <time>2018-06-27T09:11:26Z</time>
      </trkpt>
      <trkpt lat="45.99844" lon="4.83616">
        <ele>257</ele>
        <time>2018-06-27T09:11:27Z</time>
      </trkpt>
      <trkpt lat="45.99845" lon="4.83623">
        <ele>257</ele>
        <time>2018-06-27T09:11:28Z</time>
      </trkpt>
      <trkpt lat="45.99847" lon="4.83631">
        <ele>257</ele>
        <time>2018-06-27T09:11:29Z</time>
      </trkpt>
      <trkpt lat="45.9985" lon="4.83638">
        <ele>257</ele>
        <time>2018-06-27T09:11:30Z</time>
      </trkpt>
      <trkpt lat="45.99852" lon="4.83645">
        <ele>257</ele>
        <time>2018-06-27T09:11:31Z</time>
      </trkpt>
      <trkpt lat="45.99854" lon="4.83653">
        <ele>257</ele>
        <time>2018-06-27T09:11:32Z</time>
      </trkpt>
      <trkpt lat="45.99856" lon="4.8366">
        <ele>257</ele>
        <time>2018-06-27T09:11:33Z</time>
      </trkpt>
      <trkpt lat="45.99857" lon="4.83668">
        <ele>256</ele>
        <time>2018-06-27T09:11:34Z</time>
      </trkpt>
      <trkpt lat="45.9986" lon="4.83675">
        <ele>256</ele>
        <time>2018-06-27T09:11:35Z</time>
      </trkpt>
      <trkpt lat="45.99862" lon="4.83683">
        <ele>256</ele>
        <time>2018-06-27T09:11:36Z</time>
      </trkpt>
      <trkpt lat="45.99865" lon="4.83691">
        <ele>256</ele>
        <time>2018-06-27T09:11:37Z</time>
      </trkpt>
      <trkpt lat="45.99866" lon="4.83699">
        <ele>256</ele>
        <time>2018-06-27T09:11:38Z</time>
      </trkpt>
      <trkpt lat="45.99869" lon="4.83707">
        <ele>256</ele>
        <time>2018-06-27T09:11:39Z</time>
      </trkpt>
      <trkpt lat="45.99871" lon="4.83715">
        <ele>256</ele>
        <time>2018-06-27T09:11:40Z</time>
      </trkpt>
      <trkpt lat="45.99874" lon="4.83724">
        <ele>256</ele>
        <time>2018-06-27T09:11:41Z</time>
      </trkpt>
      <trkpt lat="45.99876" lon="4.83732">
        <ele>256</ele>
        <time>2018-06-27T09:11:42Z</time>
      </trkpt>
      <trkpt lat="45.99878" lon="4.8374">
        <ele>256</ele>
        <time>2018-06-27T09:11:43Z</time>
      </trkpt>
      <trkpt lat="45.99879" lon="4.83746">
        <ele>256</ele>
        <time>2018-06-27T09:11:44Z</time>
      </trkpt>
      <trkpt lat="45.99881" lon="4.83753">
        <ele>256</ele>
        <time>2018-06-27T09:11:45Z</time>
      </trkpt>
      <trkpt lat="45.99883" lon="4.83761">
        <ele>256</ele>
        <time>2018-06-27T09:11:46Z</time>
      </trkpt>
      <trkpt lat="45.99885" lon="4.83768">
        <ele>257</ele>
        <time>2018-06-27T09:11:47Z</time>
      </trkpt>
      <trkpt lat="45.99886" lon="4.83775">
        <ele>257</ele>
        <time>2018-06-27T09:11:48Z</time>
      </trkpt>
      <trkpt lat="45.99888" lon="4.83781">
        <ele>257</ele>
        <time>2018-06-27T09:11:49Z</time>
      </trkpt>
      <trkpt lat="45.9989" lon="4.83787">
        <ele>257</ele>
        <time>2018-06-27T09:11:50Z</time>
      </trkpt>
      <trkpt lat="45.99891" lon="4.83793">
        <ele>257</ele>
        <time>2018-06-27T09:11:51Z</time>
      </trkpt>
      <trkpt lat="45.99893" lon="4.83799">
        <ele>257</ele>
        <time>2018-06-27T09:11:52Z</time>
      </trkpt>
      <trkpt lat="45.99895" lon="4.83806">
        <ele>257</ele>
        <time>2018-06-27T09:11:53Z</time>
      </trkpt>
      <trkpt lat="45.99897" lon="4.83813">
        <ele>257</ele>
        <time>2018-06-27T09:11:54Z</time>
      </trkpt>
      <trkpt lat="45.99898" lon="4.8382">
        <ele>257</ele>
        <time>2018-06-27T09:11:55Z</time>
      </trkpt>
      <trkpt lat="45.99901" lon="4.83828">
        <ele>257</ele>
        <time>2018-06-27T09:11:56Z</time>
      </trkpt>
      <trkpt lat="45.99903" lon="4.83833">
        <ele>257</ele>
        <time>2018-06-27T09:11:57Z</time>
      </trkpt>
      <trkpt lat="45.99906" lon="4.83839">
        <ele>258</ele>
        <time>2018-06-27T09:11:58Z</time>
      </trkpt>
      <trkpt lat="45.99907" lon="4.83846">
        <ele>258</ele>
        <time>2018-06-27T09:11:59Z</time>
      </trkpt>
      <trkpt lat="45.9991" lon="4.83857">
        <ele>258</ele>
        <time>2018-06-27T09:12:01Z</time>
      </trkpt>
      <trkpt lat="45.99912" lon="4.83865">
        <ele>258</ele>
        <time>2018-06-27T09:12:02Z</time>
      </trkpt>
      <trkpt lat="45.99914" lon="4.83872">
        <ele>258</ele>
        <time>2018-06-27T09:12:03Z</time>
      </trkpt>
      <trkpt lat="45.99918" lon="4.8388">
        <ele>259</ele>
        <time>2018-06-27T09:12:04Z</time>
      </trkpt>
      <trkpt lat="45.9992" lon="4.83887">
        <ele>259</ele>
        <time>2018-06-27T09:12:05Z</time>
      </trkpt>
      <trkpt lat="45.99922" lon="4.83894">
        <ele>259</ele>
        <time>2018-06-27T09:12:06Z</time>
      </trkpt>
      <trkpt lat="45.99924" lon="4.83902">
        <ele>259</ele>
        <time>2018-06-27T09:12:07Z</time>
      </trkpt>
      <trkpt lat="45.99926" lon="4.8391">
        <ele>259</ele>
        <time>2018-06-27T09:12:08Z</time>
      </trkpt>
      <trkpt lat="45.99928" lon="4.83917">
        <ele>259</ele>
        <time>2018-06-27T09:12:09Z</time>
      </trkpt>
      <trkpt lat="45.9993" lon="4.83925">
        <ele>259</ele>
        <time>2018-06-27T09:12:10Z</time>
      </trkpt>
      <trkpt lat="45.99932" lon="4.83931">
        <ele>259</ele>
        <time>2018-06-27T09:12:11Z</time>
      </trkpt>
      <trkpt lat="45.99934" lon="4.83937">
        <ele>259</ele>
        <time>2018-06-27T09:12:12Z</time>
      </trkpt>
      <trkpt lat="45.99936" lon="4.83945">
        <ele>259</ele>
        <time>2018-06-27T09:12:13Z</time>
      </trkpt>
      <trkpt lat="45.99937" lon="4.83951">
        <ele>259</ele>
        <time>2018-06-27T09:12:14Z</time>
      </trkpt>
      <trkpt lat="45.9994" lon="4.83963">
        <ele>259</ele>
        <time>2018-06-27T09:12:16Z</time>
      </trkpt>
      <trkpt lat="45.99942" lon="4.83969">
        <ele>259</ele>
        <time>2018-06-27T09:12:17Z</time>
      </trkpt>
      <trkpt lat="45.99945" lon="4.83975">
        <ele>259</ele>
        <time>2018-06-27T09:12:18Z</time>
      </trkpt>
      <trkpt lat="45.99946" lon="4.83982">
        <ele>259</ele>
        <time>2018-06-27T09:12:19Z</time>
      </trkpt>
      <trkpt lat="45.99948" lon="4.83988">
        <ele>259</ele>
        <time>2018-06-27T09:12:20Z</time>
      </trkpt>
      <trkpt lat="45.99951" lon="4.83994">
        <ele>259</ele>
        <time>2018-06-27T09:12:21Z</time>
      </trkpt>
      <trkpt lat="45.99953" lon="4.84001">
        <ele>259</ele>
        <time>2018-06-27T09:12:22Z</time>
      </trkpt>
      <trkpt lat="45.99955" lon="4.84009">
        <ele>259</ele>
        <time>2018-06-27T09:12:23Z</time>
      </trkpt>
      <trkpt lat="45.99957" lon="4.84016">
        <ele>259</ele>
        <time>2018-06-27T09:12:24Z</time>
      </trkpt>
      <trkpt lat="45.99959" lon="4.84024">
        <ele>259</ele>
        <time>2018-06-27T09:12:25Z</time>
      </trkpt>
      <trkpt lat="45.99961" lon="4.84031">
        <ele>259</ele>
        <time>2018-06-27T09:12:26Z</time>
      </trkpt>
      <trkpt lat="45.99963" lon="4.84038">
        <ele>259</ele>
        <time>2018-06-27T09:12:27Z</time>
      </trkpt>
      <trkpt lat="45.99965" lon="4.84045">
        <ele>259</ele>
        <time>2018-06-27T09:12:28Z</time>
      </trkpt>
      <trkpt lat="45.99967" lon="4.84051">
        <ele>259</ele>
        <time>2018-06-27T09:12:29Z</time>
      </trkpt>
      <trkpt lat="45.99968" lon="4.84058">
        <ele>259</ele>
        <time>2018-06-27T09:12:30Z</time>
      </trkpt>
      <trkpt lat="45.9997" lon="4.84064">
        <ele>259</ele>
        <time>2018-06-27T09:12:31Z</time>
      </trkpt>
      <trkpt lat="45.99972" lon="4.84076">
        <ele>259</ele>
        <time>2018-06-27T09:12:33Z</time>
      </trkpt>
      <trkpt lat="45.99974" lon="4.84082">
        <ele>259</ele>
        <time>2018-06-27T09:12:34Z</time>
      </trkpt>
      <trkpt lat="45.99975" lon="4.84089">
        <ele>258</ele>
        <time>2018-06-27T09:12:35Z</time>
      </trkpt>
      <trkpt lat="45.99977" lon="4.84096">
        <ele>258</ele>
        <time>2018-06-27T09:12:36Z</time>
      </trkpt>
      <trkpt lat="45.99979" lon="4.84103">
        <ele>258</ele>
        <time>2018-06-27T09:12:37Z</time>
      </trkpt>
      <trkpt lat="45.99981" lon="4.8411">
        <ele>258</ele>
        <time>2018-06-27T09:12:38Z</time>
      </trkpt>
      <trkpt lat="45.99983" lon="4.84115">
        <ele>258</ele>
        <time>2018-06-27T09:12:39Z</time>
      </trkpt>
      <trkpt lat="45.99985" lon="4.84122">
        <ele>258</ele>
        <time>2018-06-27T09:12:40Z</time>
      </trkpt>
      <trkpt lat="45.99986" lon="4.84129">
        <ele>257</ele>
        <time>2018-06-27T09:12:41Z</time>
      </trkpt>
      <trkpt lat="45.99988" lon="4.84137">
        <ele>257</ele>
        <time>2018-06-27T09:12:42Z</time>
      </trkpt>
      <trkpt lat="45.99991" lon="4.84144">
        <ele>257</ele>
        <time>2018-06-27T09:12:43Z</time>
      </trkpt>
      <trkpt lat="45.99993" lon="4.84152">
        <ele>257</ele>
        <time>2018-06-27T09:12:44Z</time>
      </trkpt>
      <trkpt lat="45.99995" lon="4.84159">
        <ele>257</ele>
        <time>2018-06-27T09:12:45Z</time>
      </trkpt>
      <trkpt lat="45.99997" lon="4.84167">
        <ele>257</ele>
        <time>2018-06-27T09:12:46Z</time>
      </trkpt>
      <trkpt lat="45.99999" lon="4.84174">
        <ele>257</ele>
        <time>2018-06-27T09:12:47Z</time>
      </trkpt>
      <trkpt lat="46.00001" lon="4.84182">
        <ele>258</ele>
        <time>2018-06-27T09:12:48Z</time>
      </trkpt>
      <trkpt lat="46.00003" lon="4.84188">
        <ele>258</ele>
        <time>2018-06-27T09:12:49Z</time>
      </trkpt>
      <trkpt lat="46.00006" lon="4.84195">
        <ele>258</ele>
        <time>2018-06-27T09:12:50Z</time>
      </trkpt>
      <trkpt lat="46.00009" lon="4.84206">
        <ele>259</ele>
        <time>2018-06-27T09:12:52Z</time>
      </trkpt>
      <trkpt lat="46.00011" lon="4.84212">
        <ele>259</ele>
        <time>2018-06-27T09:12:53Z</time>
      </trkpt>
      <trkpt lat="46.00014" lon="4.84223">
        <ele>259</ele>
        <time>2018-06-27T09:12:55Z</time>
      </trkpt>
      <trkpt lat="46.00016" lon="4.84229">
        <ele>259</ele>
        <time>2018-06-27T09:12:56Z</time>
      </trkpt>
      <trkpt lat="46.00018" lon="4.84236">
        <ele>259</ele>
        <time>2018-06-27T09:12:57Z</time>
      </trkpt>
      <trkpt lat="46.0002" lon="4.84242">
        <ele>259</ele>
        <time>2018-06-27T09:12:58Z</time>
      </trkpt>
      <trkpt lat="46.00022" lon="4.8425">
        <ele>259</ele>
        <time>2018-06-27T09:12:59Z</time>
      </trkpt>
      <trkpt lat="46.00024" lon="4.84256">
        <ele>260</ele>
        <time>2018-06-27T09:13:00Z</time>
      </trkpt>
      <trkpt lat="46.00025" lon="4.84263">
        <ele>260</ele>
        <time>2018-06-27T09:13:01Z</time>
      </trkpt>
      <trkpt lat="46.00028" lon="4.84268">
        <ele>260</ele>
        <time>2018-06-27T09:13:02Z</time>
      </trkpt>
      <trkpt lat="46.0003" lon="4.84273">
        <ele>260</ele>
        <time>2018-06-27T09:13:03Z</time>
      </trkpt>
      <trkpt lat="46.00031" lon="4.8428">
        <ele>260</ele>
        <time>2018-06-27T09:13:04Z</time>
      </trkpt>
      <trkpt lat="46.00032" lon="4.84288">
        <ele>260</ele>
        <time>2018-06-27T09:13:05Z</time>
      </trkpt>
      <trkpt lat="46.00034" lon="4.84295">
        <ele>259</ele>
        <time>2018-06-27T09:13:06Z</time>
      </trkpt>
      <trkpt lat="46.00037" lon="4.84303">
        <ele>259</ele>
        <time>2018-06-27T09:13:07Z</time>
      </trkpt>
      <trkpt lat="46.00038" lon="4.84309">
        <ele>259</ele>
        <time>2018-06-27T09:13:08Z</time>
      </trkpt>
      <trkpt lat="46.00041" lon="4.84314">
        <ele>259</ele>
        <time>2018-06-27T09:13:09Z</time>
      </trkpt>
      <trkpt lat="46.00042" lon="4.84321">
        <ele>260</ele>
        <time>2018-06-27T09:13:10Z</time>
      </trkpt>
      <trkpt lat="46.00044" lon="4.84328">
        <ele>260</ele>
        <time>2018-06-27T09:13:11Z</time>
      </trkpt>
      <trkpt lat="46.00045" lon="4.84334">
        <ele>259</ele>
        <time>2018-06-27T09:13:12Z</time>
      </trkpt>
      <trkpt lat="46.00048" lon="4.84346">
        <ele>259</ele>
        <time>2018-06-27T09:13:14Z</time>
      </trkpt>
      <trkpt lat="46.00049" lon="4.84352">
        <ele>259</ele>
        <time>2018-06-27T09:13:15Z</time>
      </trkpt>
      <trkpt lat="46.0005" lon="4.84358">
        <ele>259</ele>
        <time>2018-06-27T09:13:16Z</time>
      </trkpt>
      <trkpt lat="46.00051" lon="4.84365">
        <ele>259</ele>
        <time>2018-06-27T09:13:17Z</time>
      </trkpt>
      <trkpt lat="46.00053" lon="4.84372">
        <ele>259</ele>
        <time>2018-06-27T09:13:18Z</time>
      </trkpt>
      <trkpt lat="46.00054" lon="4.84379">
        <ele>259</ele>
        <time>2018-06-27T09:13:19Z</time>
      </trkpt>
      <trkpt lat="46.00056" lon="4.84386">
        <ele>259</ele>
        <time>2018-06-27T09:13:20Z</time>
      </trkpt>
      <trkpt lat="46.00057" lon="4.84393">
        <ele>259</ele>
        <time>2018-06-27T09:13:21Z</time>
      </trkpt>
      <trkpt lat="46.00058" lon="4.84401">
        <ele>259</ele>
        <time>2018-06-27T09:13:22Z</time>
      </trkpt>
      <trkpt lat="46.00059" lon="4.84409">
        <ele>259</ele>
        <time>2018-06-27T09:13:23Z</time>
      </trkpt>
      <trkpt lat="46.0006" lon="4.84417">
        <ele>258</ele>
        <time>2018-06-27T09:13:24Z</time>
      </trkpt>
      <trkpt lat="46.00062" lon="4.84425">
        <ele>258</ele>
        <time>2018-06-27T09:13:25Z</time>
      </trkpt>
      <trkpt lat="46.00063" lon="4.84433">
        <ele>258</ele>
        <time>2018-06-27T09:13:26Z</time>
      </trkpt>
      <trkpt lat="46.00064" lon="4.84441">
        <ele>258</ele>
        <time>2018-06-27T09:13:27Z</time>
      </trkpt>
      <trkpt lat="46.00066" lon="4.84449">
        <ele>258</ele>
        <time>2018-06-27T09:13:28Z</time>
      </trkpt>
      <trkpt lat="46.00067" lon="4.84457">
        <ele>258</ele>
        <time>2018-06-27T09:13:29Z</time>
      </trkpt>
      <trkpt lat="46.00068" lon="4.84465">
        <ele>258</ele>
        <time>2018-06-27T09:13:30Z</time>
      </trkpt>
      <trkpt lat="46.00069" lon="4.84473">
        <ele>258</ele>
        <time>2018-06-27T09:13:31Z</time>
      </trkpt>
      <trkpt lat="46.0007" lon="4.84481">
        <ele>258</ele>
        <time>2018-06-27T09:13:32Z</time>
      </trkpt>
      <trkpt lat="46.0007" lon="4.84489">
        <ele>258</ele>
        <time>2018-06-27T09:13:33Z</time>
      </trkpt>
      <trkpt lat="46.00072" lon="4.84496">
        <ele>259</ele>
        <time>2018-06-27T09:13:34Z</time>
      </trkpt>
      <trkpt lat="46.00073" lon="4.84504">
        <ele>258</ele>
        <time>2018-06-27T09:13:35Z</time>
      </trkpt>
      <trkpt lat="46.00075" lon="4.84512">
        <ele>258</ele>
        <time>2018-06-27T09:13:36Z</time>
      </trkpt>
      <trkpt lat="46.00076" lon="4.84519">
        <ele>258</ele>
        <time>2018-06-27T09:13:37Z</time>
      </trkpt>
      <trkpt lat="46.00077" lon="4.84525">
        <ele>258</ele>
        <time>2018-06-27T09:13:38Z</time>
      </trkpt>
      <trkpt lat="46.00078" lon="4.84532">
        <ele>257</ele>
        <time>2018-06-27T09:13:39Z</time>
      </trkpt>
      <trkpt lat="46.00079" lon="4.8454">
        <ele>257</ele>
        <time>2018-06-27T09:13:40Z</time>
      </trkpt>
      <trkpt lat="46.00078" lon="4.84548">
        <ele>257</ele>
        <time>2018-06-27T09:13:41Z</time>
      </trkpt>
      <trkpt lat="46.0008" lon="4.84555">
        <ele>257</ele>
        <time>2018-06-27T09:13:42Z</time>
      </trkpt>
      <trkpt lat="46.0008" lon="4.84562">
        <ele>257</ele>
        <time>2018-06-27T09:13:43Z</time>
      </trkpt>
      <trkpt lat="46.0008" lon="4.8457">
        <ele>257</ele>
        <time>2018-06-27T09:13:44Z</time>
      </trkpt>
      <trkpt lat="46.0008" lon="4.84577">
        <ele>257</ele>
        <time>2018-06-27T09:13:45Z</time>
      </trkpt>
      <trkpt lat="46.00081" lon="4.84584">
        <ele>257</ele>
        <time>2018-06-27T09:13:46Z</time>
      </trkpt>
      <trkpt lat="46.00082" lon="4.84592">
        <ele>257</ele>
        <time>2018-06-27T09:13:47Z</time>
      </trkpt>
      <trkpt lat="46.00083" lon="4.84599">
        <ele>256</ele>
        <time>2018-06-27T09:13:48Z</time>
      </trkpt>
      <trkpt lat="46.00083" lon="4.84607">
        <ele>256</ele>
        <time>2018-06-27T09:13:49Z</time>
      </trkpt>
      <trkpt lat="46.00083" lon="4.84613">
        <ele>256</ele>
        <time>2018-06-27T09:13:50Z</time>
      </trkpt>
      <trkpt lat="46.00082" lon="4.84621">
        <ele>256</ele>
        <time>2018-06-27T09:13:51Z</time>
      </trkpt>
      <trkpt lat="46.00083" lon="4.84628">
        <ele>256</ele>
        <time>2018-06-27T09:13:52Z</time>
      </trkpt>
      <trkpt lat="46.00084" lon="4.84635">
        <ele>257</ele>
        <time>2018-06-27T09:13:53Z</time>
      </trkpt>
      <trkpt lat="46.00084" lon="4.84642">
        <ele>257</ele>
        <time>2018-06-27T09:13:54Z</time>
      </trkpt>
      <trkpt lat="46.00083" lon="4.84649">
        <ele>256</ele>
        <time>2018-06-27T09:13:55Z</time>
      </trkpt>
      <trkpt lat="46.00083" lon="4.84657">
        <ele>256</ele>
        <time>2018-06-27T09:13:56Z</time>
      </trkpt>
      <trkpt lat="46.00084" lon="4.84664">
        <ele>256</ele>
        <time>2018-06-27T09:13:57Z</time>
      </trkpt>
      <trkpt lat="46.00084" lon="4.84671">
        <ele>256</ele>
        <time>2018-06-27T09:13:58Z</time>
      </trkpt>
      <trkpt lat="46.00084" lon="4.84677">
        <ele>257</ele>
        <time>2018-06-27T09:13:59Z</time>
      </trkpt>
      <trkpt lat="46.00084" lon="4.84684">
        <ele>257</ele>
        <time>2018-06-27T09:14:00Z</time>
      </trkpt>
      <trkpt lat="46.00085" lon="4.8469">
        <ele>257</ele>
        <time>2018-06-27T09:14:01Z</time>
      </trkpt>
      <trkpt lat="46.00087" lon="4.84699">
        <ele>257</ele>
        <time>2018-06-27T09:14:03Z</time>
      </trkpt>
      <trkpt lat="46.00092" lon="4.84703">
        <ele>257</ele>
        <time>2018-06-27T09:14:04Z</time>
      </trkpt>
      <trkpt lat="46.00096" lon="4.84706">
        <ele>257</ele>
        <time>2018-06-27T09:14:05Z</time>
      </trkpt>
      <trkpt lat="46.00101" lon="4.84707">
        <ele>257</ele>
        <time>2018-06-27T09:14:06Z</time>
      </trkpt>
      <trkpt lat="46.00109" lon="4.84708">
        <ele>257</ele>
        <time>2018-06-27T09:14:08Z</time>
      </trkpt>
      <trkpt lat="46.00113" lon="4.84708">
        <ele>257</ele>
        <time>2018-06-27T09:14:09Z</time>
      </trkpt>
      <trkpt lat="46.00121" lon="4.84708">
        <ele>257</ele>
        <time>2018-06-27T09:14:11Z</time>
      </trkpt>
      <trkpt lat="46.00125" lon="4.84709">
        <ele>258</ele>
        <time>2018-06-27T09:14:12Z</time>
      </trkpt>
      <trkpt lat="46.0013" lon="4.8471">
        <ele>258</ele>
        <time>2018-06-27T09:14:13Z</time>
      </trkpt>
      <trkpt lat="46.00135" lon="4.84711">
        <ele>258</ele>
        <time>2018-06-27T09:14:14Z</time>
      </trkpt>
      <trkpt lat="46.0014" lon="4.84711">
        <ele>258</ele>
        <time>2018-06-27T09:14:15Z</time>
      </trkpt>
      <trkpt lat="46.00144" lon="4.84711">
        <ele>258</ele>
        <time>2018-06-27T09:14:16Z</time>
      </trkpt>
      <trkpt lat="46.00152" lon="4.84712">
        <ele>258</ele>
        <time>2018-06-27T09:14:18Z</time>
      </trkpt>
      <trkpt lat="46.00156" lon="4.84713">
        <ele>258</ele>
        <time>2018-06-27T09:14:19Z</time>
      </trkpt>
      <trkpt lat="46.00163" lon="4.8472">
        <ele>258</ele>
        <time>2018-06-27T09:14:23Z</time>
      </trkpt>
      <trkpt lat="46.00163" lon="4.84723">
        <ele>258</ele>
        <time>2018-06-27T09:14:24Z</time>
      </trkpt>
      <trkpt lat="46.00161" lon="4.84735">
        <ele>258</ele>
        <time>2018-06-27T09:14:28Z</time>
      </trkpt>
      <trkpt lat="46.0016" lon="4.84739">
        <ele>258</ele>
        <time>2018-06-27T09:14:29Z</time>
      </trkpt>
      <trkpt lat="46.00159" lon="4.8475">
        <ele>258</ele>
        <time>2018-06-27T09:14:32Z</time>
      </trkpt>
      <trkpt lat="46.00159" lon="4.84755">
        <ele>259</ele>
        <time>2018-06-27T09:14:33Z</time>
      </trkpt>
      <trkpt lat="46.0016" lon="4.84767">
        <ele>259</ele>
        <time>2018-06-27T09:14:36Z</time>
      </trkpt>
      <trkpt lat="46.0016" lon="4.84771">
        <ele>259</ele>
        <time>2018-06-27T09:14:37Z</time>
      </trkpt>
      <trkpt lat="46.00162" lon="4.84783">
        <ele>259</ele>
        <time>2018-06-27T09:14:40Z</time>
      </trkpt>
      <trkpt lat="46.00162" lon="4.84787">
        <ele>260</ele>
        <time>2018-06-27T09:14:41Z</time>
      </trkpt>
      <trkpt lat="46.00164" lon="4.84799">
        <ele>260</ele>
        <time>2018-06-27T09:14:44Z</time>
      </trkpt>
      <trkpt lat="46.00165" lon="4.84804">
        <ele>260</ele>
        <time>2018-06-27T09:14:45Z</time>
      </trkpt>
      <trkpt lat="46.00166" lon="4.84812">
        <ele>260</ele>
        <time>2018-06-27T09:14:47Z</time>
      </trkpt>
      <trkpt lat="46.00167" lon="4.84816">
        <ele>260</ele>
        <time>2018-06-27T09:14:48Z</time>
      </trkpt>
      <trkpt lat="46.00167" lon="4.84828">
        <ele>261</ele>
        <time>2018-06-27T09:14:51Z</time>
      </trkpt>
      <trkpt lat="46.00168" lon="4.84831">
        <ele>261</ele>
        <time>2018-06-27T09:14:52Z</time>
      </trkpt>
      <trkpt lat="46.00162" lon="4.8484">
        <ele>262</ele>
        <time>2018-06-27T09:14:57Z</time>
      </trkpt>
      <trkpt lat="46.00161" lon="4.84841">
        <ele>262</ele>
        <time>2018-06-27T09:14:58Z</time>
      </trkpt>
      <trkpt lat="46.00156" lon="4.84851">
        <ele>262</ele>
        <time>2018-06-27T09:15:14Z</time>
      </trkpt>
      <trkpt lat="46.00155" lon="4.84852">
        <ele>262</ele>
        <time>2018-06-27T09:15:15Z</time>
      </trkpt>
      <trkpt lat="46.00158" lon="4.84861">
        <ele>263</ele>
        <time>2018-06-27T09:17:16Z</time>
      </trkpt>
      <trkpt lat="46.00165" lon="4.84861">
        <ele>263</ele>
        <time>2018-06-27T09:17:24Z</time>
      </trkpt>
      <trkpt lat="46.00156" lon="4.8486">
        <ele>263</ele>
        <time>2018-06-27T09:23:04Z</time>
      </trkpt>
      <trkpt lat="46.00155" lon="4.8486">
        <ele>263</ele>
        <time>2018-06-27T09:23:05Z</time>
      </trkpt>
      <trkpt lat="46.00154" lon="4.84859">
        <ele>262</ele>
        <time>2018-06-27T09:23:59Z</time>
      </trkpt>
      <trkpt lat="46.00154" lon="4.8486">
        <ele>263</ele>
        <time>2018-06-27T09:24:00Z</time>
      </trkpt>
      <trkpt lat="46.00154" lon="4.84859">
        <ele>263</ele>
        <time>2018-06-27T09:24:19Z</time>
      </trkpt>
      <trkpt lat="46.00154" lon="4.84859">
        <ele>263</ele>
        <time>2018-06-27T09:24:20Z</time>
      </trkpt>
      <trkpt lat="46.00148" lon="4.84852">
        <ele>262</ele>
        <time>2018-06-27T09:24:26Z</time>
      </trkpt>
      <trkpt lat="46.00146" lon="4.84851">
        <ele>262</ele>
        <time>2018-06-27T09:24:27Z</time>
      </trkpt>
      <trkpt lat="46.00139" lon="4.84849">
        <ele>262</ele>
        <time>2018-06-27T09:24:30Z</time>
      </trkpt>
      <trkpt lat="46.00137" lon="4.84849">
        <ele>262</ele>
        <time>2018-06-27T09:24:31Z</time>
      </trkpt>
      <trkpt lat="46.0013" lon="4.84847">
        <ele>263</ele>
        <time>2018-06-27T09:24:34Z</time>
      </trkpt>
      <trkpt lat="46.00127" lon="4.84847">
        <ele>263</ele>
        <time>2018-06-27T09:24:35Z</time>
      </trkpt>
      <trkpt lat="46.00121" lon="4.84847">
        <ele>263</ele>
        <time>2018-06-27T09:24:37Z</time>
      </trkpt>
      <trkpt lat="46.00111" lon="4.84849">
        <ele>263</ele>
        <time>2018-06-27T09:24:38Z</time>
      </trkpt>
      <trkpt lat="46.00103" lon="4.84851">
        <ele>263</ele>
        <time>2018-06-27T09:24:40Z</time>
      </trkpt>
      <trkpt lat="46.00098" lon="4.84853">
        <ele>263</ele>
        <time>2018-06-27T09:24:41Z</time>
      </trkpt>
      <trkpt lat="46.0009" lon="4.84855">
        <ele>263</ele>
        <time>2018-06-27T09:24:43Z</time>
      </trkpt>
      <trkpt lat="46.00089" lon="4.84855">
        <ele>263</ele>
        <time>2018-06-27T09:24:44Z</time>
      </trkpt>
      <trkpt lat="46.0008" lon="4.84857">
        <ele>262</ele>
        <time>2018-06-27T09:24:50Z</time>
      </trkpt>
      <trkpt lat="46.00079" lon="4.84856">
        <ele>262</ele>
        <time>2018-06-27T09:24:51Z</time>
      </trkpt>
      <trkpt lat="46.00076" lon="4.84844">
        <ele>262</ele>
        <time>2018-06-27T09:24:56Z</time>
      </trkpt>
      <trkpt lat="46.00076" lon="4.84841">
        <ele>262</ele>
        <time>2018-06-27T09:24:57Z</time>
      </trkpt>
      <trkpt lat="46.00078" lon="4.84826">
        <ele>261</ele>
        <time>2018-06-27T09:24:58Z</time>
      </trkpt>
      <trkpt lat="46.00079" lon="4.8482">
        <ele>261</ele>
        <time>2018-06-27T09:24:59Z</time>
      </trkpt>
      <trkpt lat="46.0008" lon="4.84813">
        <ele>260</ele>
        <time>2018-06-27T09:25:00Z</time>
      </trkpt>
      <trkpt lat="46.00084" lon="4.84802">
        <ele>260</ele>
        <time>2018-06-27T09:25:01Z</time>
      </trkpt>
      <trkpt lat="46.00084" lon="4.84794">
        <ele>260</ele>
        <time>2018-06-27T09:25:02Z</time>
      </trkpt>
      <trkpt lat="46.00083" lon="4.84786">
        <ele>260</ele>
        <time>2018-06-27T09:25:03Z</time>
      </trkpt>
      <trkpt lat="46.00083" lon="4.84778">
        <ele>259</ele>
        <time>2018-06-27T09:25:04Z</time>
      </trkpt>
      <trkpt lat="46.00082" lon="4.8477">
        <ele>259</ele>
        <time>2018-06-27T09:25:05Z</time>
      </trkpt>
      <trkpt lat="46.00082" lon="4.84762">
        <ele>259</ele>
        <time>2018-06-27T09:25:06Z</time>
      </trkpt>
      <trkpt lat="46.00085" lon="4.84754">
        <ele>258</ele>
        <time>2018-06-27T09:25:07Z</time>
      </trkpt>
      <trkpt lat="46.00085" lon="4.84746">
        <ele>258</ele>
        <time>2018-06-27T09:25:08Z</time>
      </trkpt>
      <trkpt lat="46.00086" lon="4.84737">
        <ele>258</ele>
        <time>2018-06-27T09:25:09Z</time>
      </trkpt>
      <trkpt lat="46.00087" lon="4.84729">
        <ele>258</ele>
        <time>2018-06-27T09:25:10Z</time>
      </trkpt>
      <trkpt lat="46.00087" lon="4.84719">
        <ele>257</ele>
        <time>2018-06-27T09:25:11Z</time>
      </trkpt>
      <trkpt lat="46.00087" lon="4.84712">
        <ele>257</ele>
        <time>2018-06-27T09:25:12Z</time>
      </trkpt>
      <trkpt lat="46.00084" lon="4.84701">
        <ele>257</ele>
        <time>2018-06-27T09:25:14Z</time>
      </trkpt>
      <trkpt lat="46.00081" lon="4.84696">
        <ele>256</ele>
        <time>2018-06-27T09:25:15Z</time>
      </trkpt>
      <trkpt lat="46.00078" lon="4.84691">
        <ele>256</ele>
        <time>2018-06-27T09:25:16Z</time>
      </trkpt>
      <trkpt lat="46.00074" lon="4.84689">
        <ele>256</ele>
        <time>2018-06-27T09:25:17Z</time>
      </trkpt>
      <trkpt lat="46.00065" lon="4.84687">
        <ele>256</ele>
        <time>2018-06-27T09:25:19Z</time>
      </trkpt>
      <trkpt lat="46.00058" lon="4.84688">
        <ele>256</ele>
        <time>2018-06-27T09:25:20Z</time>
      </trkpt>
      <trkpt lat="46.00049" lon="4.84688">
        <ele>256</ele>
        <time>2018-06-27T09:25:22Z</time>
      </trkpt>
      <trkpt lat="46.00044" lon="4.84688">
        <ele>256</ele>
        <time>2018-06-27T09:25:23Z</time>
      </trkpt>
      <trkpt lat="46.00035" lon="4.84687">
        <ele>256</ele>
        <time>2018-06-27T09:25:25Z</time>
      </trkpt>
      <trkpt lat="46.0003" lon="4.84686">
        <ele>256</ele>
        <time>2018-06-27T09:25:26Z</time>
      </trkpt>
      <trkpt lat="46.00025" lon="4.84684">
        <ele>256</ele>
        <time>2018-06-27T09:25:27Z</time>
      </trkpt>
      <trkpt lat="46.0002" lon="4.84683">
        <ele>256</ele>
        <time>2018-06-27T09:25:28Z</time>
      </trkpt>
      <trkpt lat="46.00015" lon="4.84681">
        <ele>256</ele>
        <time>2018-06-27T09:25:29Z</time>
      </trkpt>
      <trkpt lat="46.00009" lon="4.8468">
        <ele>256</ele>
        <time>2018-06-27T09:25:30Z</time>
      </trkpt>
      <trkpt lat="46.00004" lon="4.8468">
        <ele>256</ele>
        <time>2018-06-27T09:25:31Z</time>
      </trkpt>
      <trkpt lat="45.99999" lon="4.84679">
        <ele>255</ele>
        <time>2018-06-27T09:25:32Z</time>
      </trkpt>
      <trkpt lat="45.99993" lon="4.84677">
        <ele>255</ele>
        <time>2018-06-27T09:25:33Z</time>
      </trkpt>
      <trkpt lat="45.99988" lon="4.84676">
        <ele>255</ele>
        <time>2018-06-27T09:25:34Z</time>
      </trkpt>
      <trkpt lat="45.99982" lon="4.84674">
        <ele>255</ele>
        <time>2018-06-27T09:25:35Z</time>
      </trkpt>
      <trkpt lat="45.99977" lon="4.84676">
        <ele>255</ele>
        <time>2018-06-27T09:25:36Z</time>
      </trkpt>
      <trkpt lat="45.99972" lon="4.84673">
        <ele>255</ele>
        <time>2018-06-27T09:25:37Z</time>
      </trkpt>
      <trkpt lat="45.99967" lon="4.84672">
        <ele>255</ele>
        <time>2018-06-27T09:25:38Z</time>
      </trkpt>
      <trkpt lat="45.99959" lon="4.84673">
        <ele>255</ele>
        <time>2018-06-27T09:25:39Z</time>
      </trkpt>
      <trkpt lat="45.99953" lon="4.84671">
        <ele>255</ele>
        <time>2018-06-27T09:25:40Z</time>
      </trkpt>
      <trkpt lat="45.99948" lon="4.84669">
        <ele>255</ele>
        <time>2018-06-27T09:25:41Z</time>
      </trkpt>
      <trkpt lat="45.99942" lon="4.84667">
        <ele>254</ele>
        <time>2018-06-27T09:25:42Z</time>
      </trkpt>
      <trkpt lat="45.99935" lon="4.84665">
        <ele>254</ele>
        <time>2018-06-27T09:25:43Z</time>
      </trkpt>
      <trkpt lat="45.99929" lon="4.84663">
        <ele>254</ele>
        <time>2018-06-27T09:25:44Z</time>
      </trkpt>
      <trkpt lat="45.99922" lon="4.8466">
        <ele>254</ele>
        <time>2018-06-27T09:25:45Z</time>
      </trkpt>
      <trkpt lat="45.99916" lon="4.84658">
        <ele>254</ele>
        <time>2018-06-27T09:25:46Z</time>
      </trkpt>
      <trkpt lat="45.9991" lon="4.84656">
        <ele>254</ele>
        <time>2018-06-27T09:25:47Z</time>
      </trkpt>
      <trkpt lat="45.99904" lon="4.84655">
        <ele>254</ele>
        <time>2018-06-27T09:25:48Z</time>
      </trkpt>
      <trkpt lat="45.99898" lon="4.84653">
        <ele>254</ele>
        <time>2018-06-27T09:25:49Z</time>
      </trkpt>
      <trkpt lat="45.99892" lon="4.84652">
        <ele>254</ele>
        <time>2018-06-27T09:25:50Z</time>
      </trkpt>
      <trkpt lat="45.99885" lon="4.8465">
        <ele>254</ele>
        <time>2018-06-27T09:25:51Z</time>
      </trkpt>
      <trkpt lat="45.99879" lon="4.84649">
        <ele>254</ele>
        <time>2018-06-27T09:25:52Z</time>
      </trkpt>
      <trkpt lat="45.99873" lon="4.84647">
        <ele>254</ele>
        <time>2018-06-27T09:25:53Z</time>
      </trkpt>
      <trkpt lat="45.99867" lon="4.84644">
        <ele>254</ele>
        <time>2018-06-27T09:25:54Z</time>
      </trkpt>
      <trkpt lat="45.99861" lon="4.84641">
        <ele>254</ele>
        <time>2018-06-27T09:25:55Z</time>
      </trkpt>
      <trkpt lat="45.99854" lon="4.84639">
        <ele>254</ele>
        <time>2018-06-27T09:25:56Z</time>
      </trkpt>
      <trkpt lat="45.99848" lon="4.84638">
        <ele>254</ele>
        <time>2018-06-27T09:25:57Z</time>
      </trkpt>
      <trkpt lat="45.99842" lon="4.84637">
        <ele>254</ele>
        <time>2018-06-27T09:25:58Z</time>
      </trkpt>
      <trkpt lat="45.99836" lon="4.84637">
        <ele>254</ele>
        <time>2018-06-27T09:25:59Z</time>
      </trkpt>
      <trkpt lat="45.99829" lon="4.84635">
        <ele>254</ele>
        <time>2018-06-27T09:26:00Z</time>
      </trkpt>
      <trkpt lat="45.99822" lon="4.84633">
        <ele>254</ele>
        <time>2018-06-27T09:26:01Z</time>
      </trkpt>
      <trkpt lat="45.99815" lon="4.84631">
        <ele>254</ele>
        <time>2018-06-27T09:26:02Z</time>
      </trkpt>
      <trkpt lat="45.99809" lon="4.84629">
        <ele>254</ele>
        <time>2018-06-27T09:26:03Z</time>
      </trkpt>
      <trkpt lat="45.99804" lon="4.84626">
        <ele>254</ele>
        <time>2018-06-27T09:26:04Z</time>
      </trkpt>
      <trkpt lat="45.99797" lon="4.84626">
        <ele>254</ele>
        <time>2018-06-27T09:26:05Z</time>
      </trkpt>
      <trkpt lat="45.9979" lon="4.84624">
        <ele>254</ele>
        <time>2018-06-27T09:26:06Z</time>
      </trkpt>
      <trkpt lat="45.99782" lon="4.84624">
        <ele>254</ele>
        <time>2018-06-27T09:26:07Z</time>
      </trkpt>
      <trkpt lat="45.99775" lon="4.84623">
        <ele>254</ele>
        <time>2018-06-27T09:26:08Z</time>
      </trkpt>
      <trkpt lat="45.99769" lon="4.84621">
        <ele>254</ele>
        <time>2018-06-27T09:26:09Z</time>
      </trkpt>
      <trkpt lat="45.99762" lon="4.84622">
        <ele>254</ele>
        <time>2018-06-27T09:26:10Z</time>
      </trkpt>
      <trkpt lat="45.99755" lon="4.84622">
        <ele>254</ele>
        <time>2018-06-27T09:26:11Z</time>
      </trkpt>
      <trkpt lat="45.99748" lon="4.84622">
        <ele>253</ele>
        <time>2018-06-27T09:26:12Z</time>
      </trkpt>
      <trkpt lat="45.99742" lon="4.84622">
        <ele>253</ele>
        <time>2018-06-27T09:26:13Z</time>
      </trkpt>
      <trkpt lat="45.99735" lon="4.84623">
        <ele>252</ele>
        <time>2018-06-27T09:26:14Z</time>
      </trkpt>
      <trkpt lat="45.99728" lon="4.84624">
        <ele>252</ele>
        <time>2018-06-27T09:26:15Z</time>
      </trkpt>
      <trkpt lat="45.9972" lon="4.84626">
        <ele>252</ele>
        <time>2018-06-27T09:26:16Z</time>
      </trkpt>
      <trkpt lat="45.99712" lon="4.84627">
        <ele>252</ele>
        <time>2018-06-27T09:26:17Z</time>
      </trkpt>
      <trkpt lat="45.99703" lon="4.84628">
        <ele>252</ele>
        <time>2018-06-27T09:26:18Z</time>
      </trkpt>
      <trkpt lat="45.99695" lon="4.84631">
        <ele>252</ele>
        <time>2018-06-27T09:26:19Z</time>
      </trkpt>
      <trkpt lat="45.99687" lon="4.84632">
        <ele>252</ele>
        <time>2018-06-27T09:26:20Z</time>
      </trkpt>
      <trkpt lat="45.99679" lon="4.84634">
        <ele>252</ele>
        <time>2018-06-27T09:26:21Z</time>
      </trkpt>
      <trkpt lat="45.9967" lon="4.84635">
        <ele>251</ele>
        <time>2018-06-27T09:26:22Z</time>
      </trkpt>
      <trkpt lat="45.99662" lon="4.84637">
        <ele>250</ele>
        <time>2018-06-27T09:26:23Z</time>
      </trkpt>
      <trkpt lat="45.99653" lon="4.84638">
        <ele>250</ele>
        <time>2018-06-27T09:26:24Z</time>
      </trkpt>
      <trkpt lat="45.99643" lon="4.84641">
        <ele>250</ele>
        <time>2018-06-27T09:26:25Z</time>
      </trkpt>
      <trkpt lat="45.99634" lon="4.84644">
        <ele>250</ele>
        <time>2018-06-27T09:26:26Z</time>
      </trkpt>
      <trkpt lat="45.99625" lon="4.84644">
        <ele>250</ele>
        <time>2018-06-27T09:26:27Z</time>
      </trkpt>
      <trkpt lat="45.99615" lon="4.84646">
        <ele>250</ele>
        <time>2018-06-27T09:26:28Z</time>
      </trkpt>
      <trkpt lat="45.99606" lon="4.84647">
        <ele>250</ele>
        <time>2018-06-27T09:26:29Z</time>
      </trkpt>
      <trkpt lat="45.99596" lon="4.84649">
        <ele>250</ele>
        <time>2018-06-27T09:26:30Z</time>
      </trkpt>
      <trkpt lat="45.99588" lon="4.8465">
        <ele>250</ele>
        <time>2018-06-27T09:26:31Z</time>
      </trkpt>
      <trkpt lat="45.99582" lon="4.84653">
        <ele>250</ele>
        <time>2018-06-27T09:26:32Z</time>
      </trkpt>
      <trkpt lat="45.99574" lon="4.84654">
        <ele>250</ele>
        <time>2018-06-27T09:26:33Z</time>
      </trkpt>
      <trkpt lat="45.99563" lon="4.84655">
        <ele>250</ele>
        <time>2018-06-27T09:26:34Z</time>
      </trkpt>
      <trkpt lat="45.99556" lon="4.84658">
        <ele>250</ele>
        <time>2018-06-27T09:26:35Z</time>
      </trkpt>
      <trkpt lat="45.99548" lon="4.84659">
        <ele>250</ele>
        <time>2018-06-27T09:26:36Z</time>
      </trkpt>
      <trkpt lat="45.99541" lon="4.84661">
        <ele>250</ele>
        <time>2018-06-27T09:26:37Z</time>
      </trkpt>
      <trkpt lat="45.99534" lon="4.84661">
        <ele>250</ele>
        <time>2018-06-27T09:26:38Z</time>
      </trkpt>
      <trkpt lat="45.99527" lon="4.84663">
        <ele>250</ele>
        <time>2018-06-27T09:26:39Z</time>
      </trkpt>
      <trkpt lat="45.99521" lon="4.84664">
        <ele>250</ele>
        <time>2018-06-27T09:26:40Z</time>
      </trkpt>
      <trkpt lat="45.99514" lon="4.84667">
        <ele>251</ele>
        <time>2018-06-27T09:26:41Z</time>
      </trkpt>
      <trkpt lat="45.99507" lon="4.84668">
        <ele>251</ele>
        <time>2018-06-27T09:26:42Z</time>
      </trkpt>
      <trkpt lat="45.995" lon="4.84669">
        <ele>251</ele>
        <time>2018-06-27T09:26:43Z</time>
      </trkpt>
      <trkpt lat="45.99493" lon="4.84669">
        <ele>251</ele>
        <time>2018-06-27T09:26:44Z</time>
      </trkpt>
      <trkpt lat="45.99485" lon="4.84672">
        <ele>250</ele>
        <time>2018-06-27T09:26:45Z</time>
      </trkpt>
      <trkpt lat="45.99478" lon="4.84674">
        <ele>250</ele>
        <time>2018-06-27T09:26:46Z</time>
      </trkpt>
      <trkpt lat="45.99472" lon="4.84677">
        <ele>250</ele>
        <time>2018-06-27T09:26:47Z</time>
      </trkpt>
      <trkpt lat="45.99466" lon="4.8468">
        <ele>250</ele>
        <time>2018-06-27T09:26:48Z</time>
      </trkpt>
      <trkpt lat="45.9946" lon="4.84684">
        <ele>250</ele>
        <time>2018-06-27T09:26:49Z</time>
      </trkpt>
      <trkpt lat="45.99453" lon="4.84687">
        <ele>250</ele>
        <time>2018-06-27T09:26:50Z</time>
      </trkpt>
      <trkpt lat="45.99448" lon="4.84689">
        <ele>249</ele>
        <time>2018-06-27T09:26:51Z</time>
      </trkpt>
      <trkpt lat="45.99441" lon="4.84692">
        <ele>249</ele>
        <time>2018-06-27T09:26:52Z</time>
      </trkpt>
      <trkpt lat="45.99435" lon="4.84695">
        <ele>249</ele>
        <time>2018-06-27T09:26:53Z</time>
      </trkpt>
      <trkpt lat="45.99429" lon="4.84698">
        <ele>249</ele>
        <time>2018-06-27T09:26:54Z</time>
      </trkpt>
      <trkpt lat="45.99422" lon="4.84702">
        <ele>249</ele>
        <time>2018-06-27T09:26:55Z</time>
      </trkpt>
      <trkpt lat="45.99415" lon="4.84706">
        <ele>249</ele>
        <time>2018-06-27T09:26:56Z</time>
      </trkpt>
      <trkpt lat="45.99409" lon="4.84709">
        <ele>249</ele>
        <time>2018-06-27T09:26:57Z</time>
      </trkpt>
      <trkpt lat="45.99403" lon="4.84712">
        <ele>249</ele>
        <time>2018-06-27T09:26:58Z</time>
      </trkpt>
      <trkpt lat="45.99398" lon="4.84715">
        <ele>249</ele>
        <time>2018-06-27T09:26:59Z</time>
      </trkpt>
      <trkpt lat="45.99391" lon="4.84719">
        <ele>249</ele>
        <time>2018-06-27T09:27:00Z</time>
      </trkpt>
      <trkpt lat="45.99385" lon="4.84723">
        <ele>249</ele>
        <time>2018-06-27T09:27:01Z</time>
      </trkpt>
      <trkpt lat="45.99379" lon="4.84725">
        <ele>250</ele>
        <time>2018-06-27T09:27:02Z</time>
      </trkpt>
      <trkpt lat="45.99374" lon="4.84728">
        <ele>250</ele>
        <time>2018-06-27T09:27:03Z</time>
      </trkpt>
      <trkpt lat="45.99368" lon="4.8473">
        <ele>250</ele>
        <time>2018-06-27T09:27:04Z</time>
      </trkpt>
      <trkpt lat="45.99363" lon="4.84733">
        <ele>250</ele>
        <time>2018-06-27T09:27:05Z</time>
      </trkpt>
      <trkpt lat="45.99357" lon="4.84736">
        <ele>250</ele>
        <time>2018-06-27T09:27:06Z</time>
      </trkpt>
      <trkpt lat="45.99352" lon="4.84739">
        <ele>250</ele>
        <time>2018-06-27T09:27:07Z</time>
      </trkpt>
      <trkpt lat="45.99345" lon="4.84743">
        <ele>250</ele>
        <time>2018-06-27T09:27:08Z</time>
      </trkpt>
      <trkpt lat="45.9934" lon="4.84746">
        <ele>251</ele>
        <time>2018-06-27T09:27:09Z</time>
      </trkpt>
      <trkpt lat="45.99333" lon="4.84749">
        <ele>251</ele>
        <time>2018-06-27T09:27:10Z</time>
      </trkpt>
      <trkpt lat="45.99327" lon="4.84753">
        <ele>252</ele>
        <time>2018-06-27T09:27:11Z</time>
      </trkpt>
      <trkpt lat="45.99321" lon="4.84755">
        <ele>252</ele>
        <time>2018-06-27T09:27:12Z</time>
      </trkpt>
      <trkpt lat="45.99314" lon="4.84758">
        <ele>252</ele>
        <time>2018-06-27T09:27:13Z</time>
      </trkpt>
      <trkpt lat="45.99309" lon="4.84761">
        <ele>252</ele>
        <time>2018-06-27T09:27:14Z</time>
      </trkpt>
      <trkpt lat="45.99304" lon="4.84764">
        <ele>253</ele>
        <time>2018-06-27T09:27:15Z</time>
      </trkpt>
      <trkpt lat="45.99299" lon="4.84766">
        <ele>253</ele>
        <time>2018-06-27T09:27:16Z</time>
      </trkpt>
      <trkpt lat="45.99293" lon="4.84768">
        <ele>253</ele>
        <time>2018-06-27T09:27:17Z</time>
      </trkpt>
      <trkpt lat="45.99288" lon="4.84771">
        <ele>253</ele>
        <time>2018-06-27T09:27:18Z</time>
      </trkpt>
      <trkpt lat="45.99282" lon="4.84774">
        <ele>253</ele>
        <time>2018-06-27T09:27:19Z</time>
      </trkpt>
      <trkpt lat="45.99277" lon="4.84777">
        <ele>253</ele>
        <time>2018-06-27T09:27:20Z</time>
      </trkpt>
      <trkpt lat="45.99272" lon="4.8478">
        <ele>253</ele>
        <time>2018-06-27T09:27:21Z</time>
      </trkpt>
      <trkpt lat="45.99267" lon="4.84783">
        <ele>253</ele>
        <time>2018-06-27T09:27:22Z</time>
      </trkpt>
      <trkpt lat="45.99263" lon="4.84786">
        <ele>254</ele>
        <time>2018-06-27T09:27:23Z</time>
      </trkpt>
      <trkpt lat="45.99258" lon="4.84789">
        <ele>254</ele>
        <time>2018-06-27T09:27:24Z</time>
      </trkpt>
      <trkpt lat="45.99253" lon="4.84792">
        <ele>254</ele>
        <time>2018-06-27T09:27:25Z</time>
      </trkpt>
      <trkpt lat="45.9925" lon="4.84794">
        <ele>256</ele>
        <time>2018-06-27T09:27:26Z</time>
      </trkpt>
      <trkpt lat="45.99246" lon="4.84799">
        <ele>256</ele>
        <time>2018-06-27T09:27:27Z</time>
      </trkpt>
      <trkpt lat="45.99241" lon="4.84801">
        <ele>256</ele>
        <time>2018-06-27T09:27:28Z</time>
      </trkpt>
      <trkpt lat="45.99236" lon="4.84803">
        <ele>256</ele>
        <time>2018-06-27T09:27:29Z</time>
      </trkpt>
      <trkpt lat="45.99231" lon="4.84805">
        <ele>257</ele>
        <time>2018-06-27T09:27:30Z</time>
      </trkpt>
      <trkpt lat="45.99227" lon="4.84807">
        <ele>257</ele>
        <time>2018-06-27T09:27:31Z</time>
      </trkpt>
      <trkpt lat="45.99222" lon="4.84809">
        <ele>257</ele>
        <time>2018-06-27T09:27:32Z</time>
      </trkpt>
      <trkpt lat="45.99218" lon="4.84813">
        <ele>257</ele>
        <time>2018-06-27T09:27:33Z</time>
      </trkpt>
      <trkpt lat="45.99212" lon="4.84816">
        <ele>257</ele>
        <time>2018-06-27T09:27:34Z</time>
      </trkpt>
      <trkpt lat="45.99204" lon="4.84819">
        <ele>257</ele>
        <time>2018-06-27T09:27:36Z</time>
      </trkpt>
      <trkpt lat="45.992" lon="4.84821">
        <ele>258</ele>
        <time>2018-06-27T09:27:37Z</time>
      </trkpt>
      <trkpt lat="45.99198" lon="4.84821">
        <ele>258</ele>
        <time>2018-06-27T09:27:38Z</time>
      </trkpt>
      <trkpt lat="45.99191" lon="4.84825">
        <ele>258</ele>
        <time>2018-06-27T09:27:39Z</time>
      </trkpt>
      <trkpt lat="45.99185" lon="4.84828">
        <ele>258</ele>
        <time>2018-06-27T09:27:41Z</time>
      </trkpt>
      <trkpt lat="45.99181" lon="4.84831">
        <ele>258</ele>
        <time>2018-06-27T09:27:42Z</time>
      </trkpt>
      <trkpt lat="45.99177" lon="4.84832">
        <ele>258</ele>
        <time>2018-06-27T09:27:43Z</time>
      </trkpt>
      <trkpt lat="45.99172" lon="4.84834">
        <ele>258</ele>
        <time>2018-06-27T09:27:44Z</time>
      </trkpt>
      <trkpt lat="45.99165" lon="4.84838">
        <ele>259</ele>
        <time>2018-06-27T09:27:46Z</time>
      </trkpt>
      <trkpt lat="45.99161" lon="4.8484">
        <ele>259</ele>
        <time>2018-06-27T09:27:47Z</time>
      </trkpt>
      <trkpt lat="45.99153" lon="4.84845">
        <ele>259</ele>
        <time>2018-06-27T09:27:49Z</time>
      </trkpt>
      <trkpt lat="45.99148" lon="4.84848">
        <ele>260</ele>
        <time>2018-06-27T09:27:50Z</time>
      </trkpt>
      <trkpt lat="45.99141" lon="4.84851">
        <ele>260</ele>
        <time>2018-06-27T09:27:53Z</time>
      </trkpt>
      <trkpt lat="45.99134" lon="4.84854">
        <ele>260</ele>
        <time>2018-06-27T09:27:54Z</time>
      </trkpt>
      <trkpt lat="45.99128" lon="4.84856">
        <ele>260</ele>
        <time>2018-06-27T09:27:55Z</time>
      </trkpt>
      <trkpt lat="45.99123" lon="4.84859">
        <ele>260</ele>
        <time>2018-06-27T09:27:56Z</time>
      </trkpt>
      <trkpt lat="45.99116" lon="4.84864">
        <ele>260</ele>
        <time>2018-06-27T09:27:58Z</time>
      </trkpt>
      <trkpt lat="45.99113" lon="4.84866">
        <ele>260</ele>
        <time>2018-06-27T09:27:59Z</time>
      </trkpt>
      <trkpt lat="45.99107" lon="4.84869">
        <ele>261</ele>
        <time>2018-06-27T09:28:01Z</time>
      </trkpt>
      <trkpt lat="45.99102" lon="4.84872">
        <ele>261</ele>
        <time>2018-06-27T09:28:02Z</time>
      </trkpt>
      <trkpt lat="45.99097" lon="4.84874">
        <ele>261</ele>
        <time>2018-06-27T09:28:03Z</time>
      </trkpt>
      <trkpt lat="45.99093" lon="4.84876">
        <ele>261</ele>
        <time>2018-06-27T09:28:04Z</time>
      </trkpt>
      <trkpt lat="45.99085" lon="4.8488">
        <ele>261</ele>
        <time>2018-06-27T09:28:06Z</time>
      </trkpt>
      <trkpt lat="45.99081" lon="4.84881">
        <ele>263</ele>
        <time>2018-06-27T09:28:07Z</time>
      </trkpt>
      <trkpt lat="45.99076" lon="4.84884">
        <ele>263</ele>
        <time>2018-06-27T09:28:08Z</time>
      </trkpt>
      <trkpt lat="45.99071" lon="4.84887">
        <ele>263</ele>
        <time>2018-06-27T09:28:09Z</time>
      </trkpt>
      <trkpt lat="45.99066" lon="4.84892">
        <ele>263</ele>
        <time>2018-06-27T09:28:10Z</time>
      </trkpt>
      <trkpt lat="45.99062" lon="4.84896">
        <ele>263</ele>
        <time>2018-06-27T09:28:11Z</time>
      </trkpt>
      <trkpt lat="45.99058" lon="4.84899">
        <ele>263</ele>
        <time>2018-06-27T09:28:12Z</time>
      </trkpt>
      <trkpt lat="45.99053" lon="4.84901">
        <ele>264</ele>
        <time>2018-06-27T09:28:13Z</time>
      </trkpt>
      <trkpt lat="45.99046" lon="4.84904">
        <ele>264</ele>
        <time>2018-06-27T09:28:15Z</time>
      </trkpt>
      <trkpt lat="45.9904" lon="4.84907">
        <ele>264</ele>
        <time>2018-06-27T09:28:16Z</time>
      </trkpt>
      <trkpt lat="45.99035" lon="4.8491">
        <ele>264</ele>
        <time>2018-06-27T09:28:17Z</time>
      </trkpt>
      <trkpt lat="45.9903" lon="4.84911">
        <ele>264</ele>
        <time>2018-06-27T09:28:18Z</time>
      </trkpt>
      <trkpt lat="45.99026" lon="4.84914">
        <ele>264</ele>
        <time>2018-06-27T09:28:19Z</time>
      </trkpt>
      <trkpt lat="45.99021" lon="4.84915">
        <ele>265</ele>
        <time>2018-06-27T09:28:20Z</time>
      </trkpt>
      <trkpt lat="45.99016" lon="4.84918">
        <ele>265</ele>
        <time>2018-06-27T09:28:21Z</time>
      </trkpt>
      <trkpt lat="45.99012" lon="4.8492">
        <ele>265</ele>
        <time>2018-06-27T09:28:22Z</time>
      </trkpt>
      <trkpt lat="45.99007" lon="4.84922">
        <ele>265</ele>
        <time>2018-06-27T09:28:23Z</time>
      </trkpt>
      <trkpt lat="45.99003" lon="4.84924">
        <ele>265</ele>
        <time>2018-06-27T09:28:24Z</time>
      </trkpt>
      <trkpt lat="45.98998" lon="4.84927">
        <ele>266</ele>
        <time>2018-06-27T09:28:25Z</time>
      </trkpt>
      <trkpt lat="45.98994" lon="4.84929">
        <ele>266</ele>
        <time>2018-06-27T09:28:26Z</time>
      </trkpt>
      <trkpt lat="45.98989" lon="4.84933">
        <ele>266</ele>
        <time>2018-06-27T09:28:27Z</time>
      </trkpt>
      <trkpt lat="45.98984" lon="4.84936">
        <ele>266</ele>
        <time>2018-06-27T09:28:28Z</time>
      </trkpt>
      <trkpt lat="45.9898" lon="4.84938">
        <ele>266</ele>
        <time>2018-06-27T09:28:29Z</time>
      </trkpt>
      <trkpt lat="45.98975" lon="4.84941">
        <ele>266</ele>
        <time>2018-06-27T09:28:30Z</time>
      </trkpt>
      <trkpt lat="45.98971" lon="4.84943">
        <ele>266</ele>
        <time>2018-06-27T09:28:31Z</time>
      </trkpt>
      <trkpt lat="45.98966" lon="4.84945">
        <ele>266</ele>
        <time>2018-06-27T09:28:32Z</time>
      </trkpt>
      <trkpt lat="45.98962" lon="4.84947">
        <ele>266</ele>
        <time>2018-06-27T09:28:33Z</time>
      </trkpt>
      <trkpt lat="45.98957" lon="4.8495">
        <ele>266</ele>
        <time>2018-06-27T09:28:34Z</time>
      </trkpt>
      <trkpt lat="45.98949" lon="4.84955">
        <ele>266</ele>
        <time>2018-06-27T09:28:36Z</time>
      </trkpt>
      <trkpt lat="45.98945" lon="4.84957">
        <ele>266</ele>
        <time>2018-06-27T09:28:37Z</time>
      </trkpt>
      <trkpt lat="45.98936" lon="4.84961">
        <ele>266</ele>
        <time>2018-06-27T09:28:39Z</time>
      </trkpt>
      <trkpt lat="45.98931" lon="4.84963">
        <ele>266</ele>
        <time>2018-06-27T09:28:40Z</time>
      </trkpt>
      <trkpt lat="45.98923" lon="4.84967">
        <ele>267</ele>
        <time>2018-06-27T09:28:42Z</time>
      </trkpt>
      <trkpt lat="45.98919" lon="4.84969">
        <ele>267</ele>
        <time>2018-06-27T09:28:43Z</time>
      </trkpt>
      <trkpt lat="45.98914" lon="4.84971">
        <ele>267</ele>
        <time>2018-06-27T09:28:44Z</time>
      </trkpt>
      <trkpt lat="45.9891" lon="4.84972">
        <ele>267</ele>
        <time>2018-06-27T09:28:45Z</time>
      </trkpt>
      <trkpt lat="45.98905" lon="4.84975">
        <ele>267</ele>
        <time>2018-06-27T09:28:46Z</time>
      </trkpt>
      <trkpt lat="45.989" lon="4.84977">
        <ele>267</ele>
        <time>2018-06-27T09:28:47Z</time>
      </trkpt>
      <trkpt lat="45.98892" lon="4.84983">
        <ele>267</ele>
        <time>2018-06-27T09:28:49Z</time>
      </trkpt>
      <trkpt lat="45.98888" lon="4.84985">
        <ele>267</ele>
        <time>2018-06-27T09:28:50Z</time>
      </trkpt>
      <trkpt lat="45.98879" lon="4.84988">
        <ele>267</ele>
        <time>2018-06-27T09:28:52Z</time>
      </trkpt>
      <trkpt lat="45.98874" lon="4.84991">
        <ele>267</ele>
        <time>2018-06-27T09:28:53Z</time>
      </trkpt>
      <trkpt lat="45.98868" lon="4.84994">
        <ele>267</ele>
        <time>2018-06-27T09:28:54Z</time>
      </trkpt>
      <trkpt lat="45.98864" lon="4.84995">
        <ele>267</ele>
        <time>2018-06-27T09:28:55Z</time>
      </trkpt>
      <trkpt lat="45.9886" lon="4.84999">
        <ele>267</ele>
        <time>2018-06-27T09:28:56Z</time>
      </trkpt>
      <trkpt lat="45.98856" lon="4.85001">
        <ele>267</ele>
        <time>2018-06-27T09:28:57Z</time>
      </trkpt>
      <trkpt lat="45.98849" lon="4.85004">
        <ele>267</ele>
        <time>2018-06-27T09:28:58Z</time>
      </trkpt>
      <trkpt lat="45.98845" lon="4.85007">
        <ele>267</ele>
        <time>2018-06-27T09:28:59Z</time>
      </trkpt>
      <trkpt lat="45.9884" lon="4.85011">
        <ele>267</ele>
        <time>2018-06-27T09:29:00Z</time>
      </trkpt>
      <trkpt lat="45.98835" lon="4.85013">
        <ele>267</ele>
        <time>2018-06-27T09:29:01Z</time>
      </trkpt>
      <trkpt lat="45.98831" lon="4.85016">
        <ele>267</ele>
        <time>2018-06-27T09:29:02Z</time>
      </trkpt>
      <trkpt lat="45.98826" lon="4.85019">
        <ele>267</ele>
        <time>2018-06-27T09:29:03Z</time>
      </trkpt>
      <trkpt lat="45.9882" lon="4.85022">
        <ele>267</ele>
        <time>2018-06-27T09:29:04Z</time>
      </trkpt>
      <trkpt lat="45.98816" lon="4.85023">
        <ele>267</ele>
        <time>2018-06-27T09:29:05Z</time>
      </trkpt>
      <trkpt lat="45.98811" lon="4.85027">
        <ele>267</ele>
        <time>2018-06-27T09:29:06Z</time>
      </trkpt>
      <trkpt lat="45.98806" lon="4.8503">
        <ele>267</ele>
        <time>2018-06-27T09:29:07Z</time>
      </trkpt>
      <trkpt lat="45.988" lon="4.85032">
        <ele>267</ele>
        <time>2018-06-27T09:29:08Z</time>
      </trkpt>
      <trkpt lat="45.98796" lon="4.85034">
        <ele>267</ele>
        <time>2018-06-27T09:29:09Z</time>
      </trkpt>
      <trkpt lat="45.98791" lon="4.85035">
        <ele>267</ele>
        <time>2018-06-27T09:29:10Z</time>
      </trkpt>
      <trkpt lat="45.98784" lon="4.85038">
        <ele>267</ele>
        <time>2018-06-27T09:29:11Z</time>
      </trkpt>
      <trkpt lat="45.98777" lon="4.85043">
        <ele>267</ele>
        <time>2018-06-27T09:29:13Z</time>
      </trkpt>
      <trkpt lat="45.98774" lon="4.85044">
        <ele>268</ele>
        <time>2018-06-27T09:29:14Z</time>
      </trkpt>
      <trkpt lat="45.98769" lon="4.85047">
        <ele>268</ele>
        <time>2018-06-27T09:29:15Z</time>
      </trkpt>
      <trkpt lat="45.98764" lon="4.85049">
        <ele>268</ele>
        <time>2018-06-27T09:29:16Z</time>
      </trkpt>
      <trkpt lat="45.98759" lon="4.85053">
        <ele>268</ele>
        <time>2018-06-27T09:29:17Z</time>
      </trkpt>
      <trkpt lat="45.98755" lon="4.85056">
        <ele>268</ele>
        <time>2018-06-27T09:29:18Z</time>
      </trkpt>
      <trkpt lat="45.9875" lon="4.85059">
        <ele>269</ele>
        <time>2018-06-27T09:29:19Z</time>
      </trkpt>
      <trkpt lat="45.98745" lon="4.85062">
        <ele>269</ele>
        <time>2018-06-27T09:29:20Z</time>
      </trkpt>
      <trkpt lat="45.98739" lon="4.85065">
        <ele>269</ele>
        <time>2018-06-27T09:29:21Z</time>
      </trkpt>
      <trkpt lat="45.98734" lon="4.85069">
        <ele>269</ele>
        <time>2018-06-27T09:29:22Z</time>
      </trkpt>
      <trkpt lat="45.98727" lon="4.85072">
        <ele>270</ele>
        <time>2018-06-27T09:29:24Z</time>
      </trkpt>
      <trkpt lat="45.98722" lon="4.85074">
        <ele>270</ele>
        <time>2018-06-27T09:29:25Z</time>
      </trkpt>
      <trkpt lat="45.98714" lon="4.85079">
        <ele>270</ele>
        <time>2018-06-27T09:29:27Z</time>
      </trkpt>
      <trkpt lat="45.9871" lon="4.8508">
        <ele>270</ele>
        <time>2018-06-27T09:29:28Z</time>
      </trkpt>
      <trkpt lat="45.98705" lon="4.85081">
        <ele>270</ele>
        <time>2018-06-27T09:29:29Z</time>
      </trkpt>
      <trkpt lat="45.987" lon="4.85085">
        <ele>270</ele>
        <time>2018-06-27T09:29:30Z</time>
      </trkpt>
      <trkpt lat="45.98696" lon="4.85088">
        <ele>270</ele>
        <time>2018-06-27T09:29:31Z</time>
      </trkpt>
      <trkpt lat="45.98691" lon="4.85089">
        <ele>270</ele>
        <time>2018-06-27T09:29:32Z</time>
      </trkpt>
      <trkpt lat="45.98687" lon="4.85091">
        <ele>270</ele>
        <time>2018-06-27T09:29:33Z</time>
      </trkpt>
      <trkpt lat="45.98681" lon="4.85094">
        <ele>270</ele>
        <time>2018-06-27T09:29:34Z</time>
      </trkpt>
      <trkpt lat="45.98676" lon="4.85095">
        <ele>270</ele>
        <time>2018-06-27T09:29:35Z</time>
      </trkpt>
      <trkpt lat="45.98671" lon="4.85098">
        <ele>270</ele>
        <time>2018-06-27T09:29:36Z</time>
      </trkpt>
      <trkpt lat="45.98667" lon="4.85101">
        <ele>271</ele>
        <time>2018-06-27T09:29:37Z</time>
      </trkpt>
      <trkpt lat="45.98662" lon="4.85104">
        <ele>271</ele>
        <time>2018-06-27T09:29:38Z</time>
      </trkpt>
      <trkpt lat="45.98657" lon="4.85106">
        <ele>271</ele>
        <time>2018-06-27T09:29:39Z</time>
      </trkpt>
      <trkpt lat="45.98653" lon="4.85109">
        <ele>271</ele>
        <time>2018-06-27T09:29:40Z</time>
      </trkpt>
      <trkpt lat="45.98648" lon="4.85112">
        <ele>272</ele>
        <time>2018-06-27T09:29:41Z</time>
      </trkpt>
      <trkpt lat="45.98644" lon="4.85113">
        <ele>272</ele>
        <time>2018-06-27T09:29:42Z</time>
      </trkpt>
      <trkpt lat="45.98639" lon="4.85115">
        <ele>272</ele>
        <time>2018-06-27T09:29:43Z</time>
      </trkpt>
      <trkpt lat="45.98634" lon="4.85117">
        <ele>272</ele>
        <time>2018-06-27T09:29:44Z</time>
      </trkpt>
      <trkpt lat="45.9863" lon="4.85119">
        <ele>272</ele>
        <time>2018-06-27T09:29:45Z</time>
      </trkpt>
      <trkpt lat="45.98624" lon="4.85121">
        <ele>272</ele>
        <time>2018-06-27T09:29:46Z</time>
      </trkpt>
      <trkpt lat="45.9862" lon="4.85123">
        <ele>272</ele>
        <time>2018-06-27T09:29:47Z</time>
      </trkpt>
      <trkpt lat="45.98615" lon="4.85124">
        <ele>272</ele>
        <time>2018-06-27T09:29:48Z</time>
      </trkpt>
      <trkpt lat="45.98607" lon="4.85126">
        <ele>272</ele>
        <time>2018-06-27T09:29:50Z</time>
      </trkpt>
      <trkpt lat="45.98603" lon="4.85126">
        <ele>272</ele>
        <time>2018-06-27T09:29:51Z</time>
      </trkpt>
      <trkpt lat="45.98599" lon="4.8513">
        <ele>272</ele>
        <time>2018-06-27T09:29:52Z</time>
      </trkpt>
      <trkpt lat="45.98593" lon="4.85132">
        <ele>272</ele>
        <time>2018-06-27T09:29:53Z</time>
      </trkpt>
      <trkpt lat="45.98588" lon="4.85138">
        <ele>272</ele>
        <time>2018-06-27T09:29:54Z</time>
      </trkpt>
      <trkpt lat="45.98581" lon="4.85139">
        <ele>274</ele>
        <time>2018-06-27T09:29:55Z</time>
      </trkpt>
      <trkpt lat="45.98576" lon="4.85143">
        <ele>274</ele>
        <time>2018-06-27T09:29:56Z</time>
      </trkpt>
      <trkpt lat="45.98572" lon="4.85147">
        <ele>274</ele>
        <time>2018-06-27T09:29:57Z</time>
      </trkpt>
      <trkpt lat="45.98566" lon="4.8515">
        <ele>274</ele>
        <time>2018-06-27T09:29:58Z</time>
      </trkpt>
      <trkpt lat="45.98563" lon="4.85151">
        <ele>274</ele>
        <time>2018-06-27T09:29:59Z</time>
      </trkpt>
      <trkpt lat="45.9856" lon="4.85151">
        <ele>274</ele>
        <time>2018-06-27T09:30:00Z</time>
      </trkpt>
      <trkpt lat="45.98553" lon="4.85153">
        <ele>274</ele>
        <time>2018-06-27T09:30:01Z</time>
      </trkpt>
      <trkpt lat="45.98549" lon="4.85154">
        <ele>274</ele>
        <time>2018-06-27T09:30:02Z</time>
      </trkpt>
      <trkpt lat="45.98543" lon="4.85156">
        <ele>274</ele>
        <time>2018-06-27T09:30:03Z</time>
      </trkpt>
      <trkpt lat="45.98539" lon="4.85157">
        <ele>274</ele>
        <time>2018-06-27T09:30:04Z</time>
      </trkpt>
      <trkpt lat="45.98534" lon="4.85159">
        <ele>274</ele>
        <time>2018-06-27T09:30:05Z</time>
      </trkpt>
      <trkpt lat="45.9853" lon="4.85162">
        <ele>274</ele>
        <time>2018-06-27T09:30:06Z</time>
      </trkpt>
      <trkpt lat="45.98525" lon="4.85163">
        <ele>275</ele>
        <time>2018-06-27T09:30:07Z</time>
      </trkpt>
      <trkpt lat="45.98519" lon="4.85165">
        <ele>275</ele>
        <time>2018-06-27T09:30:09Z</time>
      </trkpt>
      <trkpt lat="45.98514" lon="4.85166">
        <ele>275</ele>
        <time>2018-06-27T09:30:10Z</time>
      </trkpt>
      <trkpt lat="45.98505" lon="4.85167">
        <ele>275</ele>
        <time>2018-06-27T09:30:12Z</time>
      </trkpt>
      <trkpt lat="45.98501" lon="4.85168">
        <ele>275</ele>
        <time>2018-06-27T09:30:13Z</time>
      </trkpt>
      <trkpt lat="45.98492" lon="4.85168">
        <ele>275</ele>
        <time>2018-06-27T09:30:15Z</time>
      </trkpt>
      <trkpt lat="45.98486" lon="4.8517">
        <ele>275</ele>
        <time>2018-06-27T09:30:16Z</time>
      </trkpt>
      <trkpt lat="45.98481" lon="4.85171">
        <ele>275</ele>
        <time>2018-06-27T09:30:17Z</time>
      </trkpt>
      <trkpt lat="45.98477" lon="4.8517">
        <ele>275</ele>
        <time>2018-06-27T09:30:18Z</time>
      </trkpt>
      <trkpt lat="45.98471" lon="4.85171">
        <ele>275</ele>
        <time>2018-06-27T09:30:19Z</time>
      </trkpt>
      <trkpt lat="45.98466" lon="4.85171">
        <ele>275</ele>
        <time>2018-06-27T09:30:20Z</time>
      </trkpt>
      <trkpt lat="45.9846" lon="4.85171">
        <ele>275</ele>
        <time>2018-06-27T09:30:21Z</time>
      </trkpt>
      <trkpt lat="45.98455" lon="4.85171">
        <ele>275</ele>
        <time>2018-06-27T09:30:22Z</time>
      </trkpt>
      <trkpt lat="45.9845" lon="4.85174">
        <ele>275</ele>
        <time>2018-06-27T09:30:23Z</time>
      </trkpt>
      <trkpt lat="45.98445" lon="4.85174">
        <ele>275</ele>
        <time>2018-06-27T09:30:24Z</time>
      </trkpt>
      <trkpt lat="45.9844" lon="4.85175">
        <ele>275</ele>
        <time>2018-06-27T09:30:25Z</time>
      </trkpt>
      <trkpt lat="45.98436" lon="4.85177">
        <ele>275</ele>
        <time>2018-06-27T09:30:26Z</time>
      </trkpt>
      <trkpt lat="45.98431" lon="4.85177">
        <ele>275</ele>
        <time>2018-06-27T09:30:27Z</time>
      </trkpt>
      <trkpt lat="45.98426" lon="4.85176">
        <ele>275</ele>
        <time>2018-06-27T09:30:28Z</time>
      </trkpt>
      <trkpt lat="45.98421" lon="4.85176">
        <ele>276</ele>
        <time>2018-06-27T09:30:29Z</time>
      </trkpt>
      <trkpt lat="45.98415" lon="4.85178">
        <ele>276</ele>
        <time>2018-06-27T09:30:30Z</time>
      </trkpt>
      <trkpt lat="45.9841" lon="4.85179">
        <ele>276</ele>
        <time>2018-06-27T09:30:31Z</time>
      </trkpt>
      <trkpt lat="45.98404" lon="4.8518">
        <ele>275</ele>
        <time>2018-06-27T09:30:32Z</time>
      </trkpt>
      <trkpt lat="45.98399" lon="4.8518">
        <ele>275</ele>
        <time>2018-06-27T09:30:33Z</time>
      </trkpt>
      <trkpt lat="45.98392" lon="4.8518">
        <ele>275</ele>
        <time>2018-06-27T09:30:34Z</time>
      </trkpt>
      <trkpt lat="45.98388" lon="4.8518">
        <ele>275</ele>
        <time>2018-06-27T09:30:35Z</time>
      </trkpt>
      <trkpt lat="45.98382" lon="4.8518">
        <ele>275</ele>
        <time>2018-06-27T09:30:36Z</time>
      </trkpt>
      <trkpt lat="45.98375" lon="4.85182">
        <ele>275</ele>
        <time>2018-06-27T09:30:37Z</time>
      </trkpt>
      <trkpt lat="45.98369" lon="4.85182">
        <ele>275</ele>
        <time>2018-06-27T09:30:38Z</time>
      </trkpt>
      <trkpt lat="45.98364" lon="4.85183">
        <ele>275</ele>
        <time>2018-06-27T09:30:39Z</time>
      </trkpt>
      <trkpt lat="45.98358" lon="4.85184">
        <ele>275</ele>
        <time>2018-06-27T09:30:40Z</time>
      </trkpt>
      <trkpt lat="45.98351" lon="4.85182">
        <ele>275</ele>
        <time>2018-06-27T09:30:41Z</time>
      </trkpt>
      <trkpt lat="45.98345" lon="4.85183">
        <ele>275</ele>
        <time>2018-06-27T09:30:42Z</time>
      </trkpt>
      <trkpt lat="45.9834" lon="4.85183">
        <ele>275</ele>
        <time>2018-06-27T09:30:43Z</time>
      </trkpt>
      <trkpt lat="45.98333" lon="4.85185">
        <ele>275</ele>
        <time>2018-06-27T09:30:44Z</time>
      </trkpt>
      <trkpt lat="45.98327" lon="4.85185">
        <ele>274</ele>
        <time>2018-06-27T09:30:45Z</time>
      </trkpt>
      <trkpt lat="45.98321" lon="4.85187">
        <ele>274</ele>
        <time>2018-06-27T09:30:46Z</time>
      </trkpt>
      <trkpt lat="45.98316" lon="4.85189">
        <ele>274</ele>
        <time>2018-06-27T09:30:47Z</time>
      </trkpt>
      <trkpt lat="45.98311" lon="4.85189">
        <ele>274</ele>
        <time>2018-06-27T09:30:48Z</time>
      </trkpt>
      <trkpt lat="45.98305" lon="4.85189">
        <ele>274</ele>
        <time>2018-06-27T09:30:49Z</time>
      </trkpt>
      <trkpt lat="45.98301" lon="4.85191">
        <ele>274</ele>
        <time>2018-06-27T09:30:50Z</time>
      </trkpt>
      <trkpt lat="45.98296" lon="4.85192">
        <ele>274</ele>
        <time>2018-06-27T09:30:51Z</time>
      </trkpt>
      <trkpt lat="45.9829" lon="4.85192">
        <ele>274</ele>
        <time>2018-06-27T09:30:52Z</time>
      </trkpt>
      <trkpt lat="45.98285" lon="4.85192">
        <ele>274</ele>
        <time>2018-06-27T09:30:53Z</time>
      </trkpt>
      <trkpt lat="45.98281" lon="4.85192">
        <ele>274</ele>
        <time>2018-06-27T09:30:54Z</time>
      </trkpt>
      <trkpt lat="45.98276" lon="4.85194">
        <ele>274</ele>
        <time>2018-06-27T09:30:55Z</time>
      </trkpt>
      <trkpt lat="45.9827" lon="4.85194">
        <ele>274</ele>
        <time>2018-06-27T09:30:56Z</time>
      </trkpt>
      <trkpt lat="45.98265" lon="4.85194">
        <ele>274</ele>
        <time>2018-06-27T09:30:57Z</time>
      </trkpt>
      <trkpt lat="45.98259" lon="4.85194">
        <ele>274</ele>
        <time>2018-06-27T09:30:58Z</time>
      </trkpt>
      <trkpt lat="45.98253" lon="4.85196">
        <ele>274</ele>
        <time>2018-06-27T09:30:59Z</time>
      </trkpt>
      <trkpt lat="45.98247" lon="4.85197">
        <ele>274</ele>
        <time>2018-06-27T09:31:00Z</time>
      </trkpt>
      <trkpt lat="45.98241" lon="4.85196">
        <ele>274</ele>
        <time>2018-06-27T09:31:01Z</time>
      </trkpt>
      <trkpt lat="45.98237" lon="4.85198">
        <ele>274</ele>
        <time>2018-06-27T09:31:02Z</time>
      </trkpt>
      <trkpt lat="45.98231" lon="4.85199">
        <ele>274</ele>
        <time>2018-06-27T09:31:03Z</time>
      </trkpt>
      <trkpt lat="45.98227" lon="4.852">
        <ele>274</ele>
        <time>2018-06-27T09:31:04Z</time>
      </trkpt>
      <trkpt lat="45.98222" lon="4.85201">
        <ele>274</ele>
        <time>2018-06-27T09:31:05Z</time>
      </trkpt>
      <trkpt lat="45.98217" lon="4.85202">
        <ele>274</ele>
        <time>2018-06-27T09:31:06Z</time>
      </trkpt>
      <trkpt lat="45.98212" lon="4.85202">
        <ele>274</ele>
        <time>2018-06-27T09:31:07Z</time>
      </trkpt>
      <trkpt lat="45.98207" lon="4.85202">
        <ele>274</ele>
        <time>2018-06-27T09:31:08Z</time>
      </trkpt>
      <trkpt lat="45.98201" lon="4.85202">
        <ele>274</ele>
        <time>2018-06-27T09:31:09Z</time>
      </trkpt>
      <trkpt lat="45.98195" lon="4.85202">
        <ele>274</ele>
        <time>2018-06-27T09:31:10Z</time>
      </trkpt>
      <trkpt lat="45.9819" lon="4.85203">
        <ele>274</ele>
        <time>2018-06-27T09:31:11Z</time>
      </trkpt>
      <trkpt lat="45.98183" lon="4.85203">
        <ele>274</ele>
        <time>2018-06-27T09:31:12Z</time>
      </trkpt>
      <trkpt lat="45.98177" lon="4.85203">
        <ele>274</ele>
        <time>2018-06-27T09:31:13Z</time>
      </trkpt>
      <trkpt lat="45.98172" lon="4.85203">
        <ele>274</ele>
        <time>2018-06-27T09:31:14Z</time>
      </trkpt>
      <trkpt lat="45.98166" lon="4.85203">
        <ele>274</ele>
        <time>2018-06-27T09:31:15Z</time>
      </trkpt>
      <trkpt lat="45.9816" lon="4.85203">
        <ele>274</ele>
        <time>2018-06-27T09:31:16Z</time>
      </trkpt>
      <trkpt lat="45.98153" lon="4.85203">
        <ele>275</ele>
        <time>2018-06-27T09:31:17Z</time>
      </trkpt>
      <trkpt lat="45.98147" lon="4.85204">
        <ele>275</ele>
        <time>2018-06-27T09:31:18Z</time>
      </trkpt>
      <trkpt lat="45.98141" lon="4.85205">
        <ele>275</ele>
        <time>2018-06-27T09:31:19Z</time>
      </trkpt>
      <trkpt lat="45.98132" lon="4.85207">
        <ele>275</ele>
        <time>2018-06-27T09:31:20Z</time>
      </trkpt>
      <trkpt lat="45.98126" lon="4.85207">
        <ele>275</ele>
        <time>2018-06-27T09:31:21Z</time>
      </trkpt>
      <trkpt lat="45.9812" lon="4.85208">
        <ele>275</ele>
        <time>2018-06-27T09:31:22Z</time>
      </trkpt>
      <trkpt lat="45.98115" lon="4.8521">
        <ele>275</ele>
        <time>2018-06-27T09:31:23Z</time>
      </trkpt>
      <trkpt lat="45.98109" lon="4.8521">
        <ele>275</ele>
        <time>2018-06-27T09:31:24Z</time>
      </trkpt>
      <trkpt lat="45.98104" lon="4.8521">
        <ele>275</ele>
        <time>2018-06-27T09:31:25Z</time>
      </trkpt>
      <trkpt lat="45.98098" lon="4.8521">
        <ele>275</ele>
        <time>2018-06-27T09:31:26Z</time>
      </trkpt>
      <trkpt lat="45.98093" lon="4.8521">
        <ele>275</ele>
        <time>2018-06-27T09:31:27Z</time>
      </trkpt>
      <trkpt lat="45.98088" lon="4.8521">
        <ele>275</ele>
        <time>2018-06-27T09:31:28Z</time>
      </trkpt>
      <trkpt lat="45.98084" lon="4.8521">
        <ele>275</ele>
        <time>2018-06-27T09:31:29Z</time>
      </trkpt>
      <trkpt lat="45.98079" lon="4.8521">
        <ele>276</ele>
        <time>2018-06-27T09:31:30Z</time>
      </trkpt>
      <trkpt lat="45.98074" lon="4.85211">
        <ele>276</ele>
        <time>2018-06-27T09:31:31Z</time>
      </trkpt>
      <trkpt lat="45.98068" lon="4.85211">
        <ele>276</ele>
        <time>2018-06-27T09:31:32Z</time>
      </trkpt>
      <trkpt lat="45.98063" lon="4.85212">
        <ele>276</ele>
        <time>2018-06-27T09:31:33Z</time>
      </trkpt>
      <trkpt lat="45.98057" lon="4.85214">
        <ele>276</ele>
        <time>2018-06-27T09:31:34Z</time>
      </trkpt>
      <trkpt lat="45.98052" lon="4.85214">
        <ele>276</ele>
        <time>2018-06-27T09:31:35Z</time>
      </trkpt>
      <trkpt lat="45.98045" lon="4.85215">
        <ele>276</ele>
        <time>2018-06-27T09:31:36Z</time>
      </trkpt>
      <trkpt lat="45.98038" lon="4.85215">
        <ele>276</ele>
        <time>2018-06-27T09:31:37Z</time>
      </trkpt>
      <trkpt lat="45.98032" lon="4.85215">
        <ele>276</ele>
        <time>2018-06-27T09:31:38Z</time>
      </trkpt>
      <trkpt lat="45.98027" lon="4.85218">
        <ele>276</ele>
        <time>2018-06-27T09:31:39Z</time>
      </trkpt>
      <trkpt lat="45.98021" lon="4.85219">
        <ele>276</ele>
        <time>2018-06-27T09:31:40Z</time>
      </trkpt>
      <trkpt lat="45.98015" lon="4.85219">
        <ele>276</ele>
        <time>2018-06-27T09:31:41Z</time>
      </trkpt>
      <trkpt lat="45.98009" lon="4.85221">
        <ele>276</ele>
        <time>2018-06-27T09:31:42Z</time>
      </trkpt>
      <trkpt lat="45.98003" lon="4.85222">
        <ele>276</ele>
        <time>2018-06-27T09:31:43Z</time>
      </trkpt>
      <trkpt lat="45.97998" lon="4.85223">
        <ele>276</ele>
        <time>2018-06-27T09:31:44Z</time>
      </trkpt>
      <trkpt lat="45.97992" lon="4.85224">
        <ele>276</ele>
        <time>2018-06-27T09:31:45Z</time>
      </trkpt>
      <trkpt lat="45.97986" lon="4.85226">
        <ele>276</ele>
        <time>2018-06-27T09:31:46Z</time>
      </trkpt>
      <trkpt lat="45.9798" lon="4.85226">
        <ele>276</ele>
        <time>2018-06-27T09:31:47Z</time>
      </trkpt>
      <trkpt lat="45.97973" lon="4.85226">
        <ele>276</ele>
        <time>2018-06-27T09:31:48Z</time>
      </trkpt>
      <trkpt lat="45.97967" lon="4.85226">
        <ele>276</ele>
        <time>2018-06-27T09:31:49Z</time>
      </trkpt>
      <trkpt lat="45.9796" lon="4.85226">
        <ele>276</ele>
        <time>2018-06-27T09:31:50Z</time>
      </trkpt>
      <trkpt lat="45.97954" lon="4.85225">
        <ele>276</ele>
        <time>2018-06-27T09:31:51Z</time>
      </trkpt>
      <trkpt lat="45.97948" lon="4.85226">
        <ele>276</ele>
        <time>2018-06-27T09:31:52Z</time>
      </trkpt>
      <trkpt lat="45.9794" lon="4.85226">
        <ele>276</ele>
        <time>2018-06-27T09:31:53Z</time>
      </trkpt>
      <trkpt lat="45.97934" lon="4.85226">
        <ele>276</ele>
        <time>2018-06-27T09:31:54Z</time>
      </trkpt>
      <trkpt lat="45.97928" lon="4.85228">
        <ele>276</ele>
        <time>2018-06-27T09:31:55Z</time>
      </trkpt>
      <trkpt lat="45.9792" lon="4.85228">
        <ele>276</ele>
        <time>2018-06-27T09:31:56Z</time>
      </trkpt>
      <trkpt lat="45.97913" lon="4.85229">
        <ele>275</ele>
        <time>2018-06-27T09:31:57Z</time>
      </trkpt>
      <trkpt lat="45.97904" lon="4.85232">
        <ele>275</ele>
        <time>2018-06-27T09:31:58Z</time>
      </trkpt>
      <trkpt lat="45.97897" lon="4.85232">
        <ele>275</ele>
        <time>2018-06-27T09:31:59Z</time>
      </trkpt>
      <trkpt lat="45.97891" lon="4.85233">
        <ele>275</ele>
        <time>2018-06-27T09:32:00Z</time>
      </trkpt>
      <trkpt lat="45.97884" lon="4.85233">
        <ele>275</ele>
        <time>2018-06-27T09:32:01Z</time>
      </trkpt>
      <trkpt lat="45.97879" lon="4.85234">
        <ele>275</ele>
        <time>2018-06-27T09:32:02Z</time>
      </trkpt>
      <trkpt lat="45.97872" lon="4.85235">
        <ele>275</ele>
        <time>2018-06-27T09:32:03Z</time>
      </trkpt>
      <trkpt lat="45.97867" lon="4.85236">
        <ele>275</ele>
        <time>2018-06-27T09:32:04Z</time>
      </trkpt>
      <trkpt lat="45.9786" lon="4.85237">
        <ele>275</ele>
        <time>2018-06-27T09:32:05Z</time>
      </trkpt>
      <trkpt lat="45.97854" lon="4.85239">
        <ele>275</ele>
        <time>2018-06-27T09:32:06Z</time>
      </trkpt>
      <trkpt lat="45.97848" lon="4.85239">
        <ele>275</ele>
        <time>2018-06-27T09:32:07Z</time>
      </trkpt>
      <trkpt lat="45.97843" lon="4.85238">
        <ele>275</ele>
        <time>2018-06-27T09:32:08Z</time>
      </trkpt>
      <trkpt lat="45.97838" lon="4.85238">
        <ele>275</ele>
        <time>2018-06-27T09:32:09Z</time>
      </trkpt>
      <trkpt lat="45.97831" lon="4.85237">
        <ele>275</ele>
        <time>2018-06-27T09:32:10Z</time>
      </trkpt>
      <trkpt lat="45.97826" lon="4.85237">
        <ele>275</ele>
        <time>2018-06-27T09:32:11Z</time>
      </trkpt>
      <trkpt lat="45.9782" lon="4.85237">
        <ele>275</ele>
        <time>2018-06-27T09:32:12Z</time>
      </trkpt>
      <trkpt lat="45.97813" lon="4.85237">
        <ele>275</ele>
        <time>2018-06-27T09:32:13Z</time>
      </trkpt>
      <trkpt lat="45.97807" lon="4.85238">
        <ele>274</ele>
        <time>2018-06-27T09:32:14Z</time>
      </trkpt>
      <trkpt lat="45.978" lon="4.85238">
        <ele>274</ele>
        <time>2018-06-27T09:32:15Z</time>
      </trkpt>
      <trkpt lat="45.97793" lon="4.85239">
        <ele>274</ele>
        <time>2018-06-27T09:32:16Z</time>
      </trkpt>
      <trkpt lat="45.97786" lon="4.8524">
        <ele>274</ele>
        <time>2018-06-27T09:32:17Z</time>
      </trkpt>
      <trkpt lat="45.9778" lon="4.8524">
        <ele>274</ele>
        <time>2018-06-27T09:32:18Z</time>
      </trkpt>
      <trkpt lat="45.97774" lon="4.85241">
        <ele>274</ele>
        <time>2018-06-27T09:32:19Z</time>
      </trkpt>
      <trkpt lat="45.97767" lon="4.85243">
        <ele>274</ele>
        <time>2018-06-27T09:32:20Z</time>
      </trkpt>
      <trkpt lat="45.97761" lon="4.85243">
        <ele>274</ele>
        <time>2018-06-27T09:32:21Z</time>
      </trkpt>
      <trkpt lat="45.97756" lon="4.85243">
        <ele>274</ele>
        <time>2018-06-27T09:32:22Z</time>
      </trkpt>
      <trkpt lat="45.9775" lon="4.85246">
        <ele>274</ele>
        <time>2018-06-27T09:32:23Z</time>
      </trkpt>
      <trkpt lat="45.97744" lon="4.85247">
        <ele>274</ele>
        <time>2018-06-27T09:32:24Z</time>
      </trkpt>
      <trkpt lat="45.97737" lon="4.85247">
        <ele>275</ele>
        <time>2018-06-27T09:32:25Z</time>
      </trkpt>
      <trkpt lat="45.97731" lon="4.85247">
        <ele>275</ele>
        <time>2018-06-27T09:32:26Z</time>
      </trkpt>
      <trkpt lat="45.97725" lon="4.85248">
        <ele>275</ele>
        <time>2018-06-27T09:32:27Z</time>
      </trkpt>
      <trkpt lat="45.97719" lon="4.85249">
        <ele>275</ele>
        <time>2018-06-27T09:32:28Z</time>
      </trkpt>
      <trkpt lat="45.97713" lon="4.85251">
        <ele>275</ele>
        <time>2018-06-27T09:32:29Z</time>
      </trkpt>
      <trkpt lat="45.97709" lon="4.85251">
        <ele>275</ele>
        <time>2018-06-27T09:32:30Z</time>
      </trkpt>
      <trkpt lat="45.97703" lon="4.85252">
        <ele>276</ele>
        <time>2018-06-27T09:32:31Z</time>
      </trkpt>
      <trkpt lat="45.97697" lon="4.85254">
        <ele>276</ele>
        <time>2018-06-27T09:32:32Z</time>
      </trkpt>
      <trkpt lat="45.97691" lon="4.85256">
        <ele>276</ele>
        <time>2018-06-27T09:32:33Z</time>
      </trkpt>
      <trkpt lat="45.97684" lon="4.85256">
        <ele>276</ele>
        <time>2018-06-27T09:32:34Z</time>
      </trkpt>
      <trkpt lat="45.97677" lon="4.85257">
        <ele>276</ele>
        <time>2018-06-27T09:32:35Z</time>
      </trkpt>
      <trkpt lat="45.97671" lon="4.85257">
        <ele>276</ele>
        <time>2018-06-27T09:32:36Z</time>
      </trkpt>
      <trkpt lat="45.97662" lon="4.85257">
        <ele>277</ele>
        <time>2018-06-27T09:32:38Z</time>
      </trkpt>
      <trkpt lat="45.97656" lon="4.85255">
        <ele>277</ele>
        <time>2018-06-27T09:32:39Z</time>
      </trkpt>
      <trkpt lat="45.97651" lon="4.85256">
        <ele>277</ele>
        <time>2018-06-27T09:32:40Z</time>
      </trkpt>
      <trkpt lat="45.97645" lon="4.85256">
        <ele>277</ele>
        <time>2018-06-27T09:32:41Z</time>
      </trkpt>
      <trkpt lat="45.97639" lon="4.85257">
        <ele>278</ele>
        <time>2018-06-27T09:32:42Z</time>
      </trkpt>
      <trkpt lat="45.97634" lon="4.85257">
        <ele>278</ele>
        <time>2018-06-27T09:32:43Z</time>
      </trkpt>
      <trkpt lat="45.97627" lon="4.85259">
        <ele>278</ele>
        <time>2018-06-27T09:32:44Z</time>
      </trkpt>
      <trkpt lat="45.97621" lon="4.8526">
        <ele>279</ele>
        <time>2018-06-27T09:32:45Z</time>
      </trkpt>
      <trkpt lat="45.97616" lon="4.85259">
        <ele>279</ele>
        <time>2018-06-27T09:32:46Z</time>
      </trkpt>
      <trkpt lat="45.9761" lon="4.8526">
        <ele>279</ele>
        <time>2018-06-27T09:32:47Z</time>
      </trkpt>
      <trkpt lat="45.97604" lon="4.8526">
        <ele>279</ele>
        <time>2018-06-27T09:32:48Z</time>
      </trkpt>
      <trkpt lat="45.97598" lon="4.85259">
        <ele>280</ele>
        <time>2018-06-27T09:32:49Z</time>
      </trkpt>
      <trkpt lat="45.9759" lon="4.85258">
        <ele>281</ele>
        <time>2018-06-27T09:32:50Z</time>
      </trkpt>
      <trkpt lat="45.97584" lon="4.85259">
        <ele>281</ele>
        <time>2018-06-27T09:32:51Z</time>
      </trkpt>
      <trkpt lat="45.97578" lon="4.85259">
        <ele>281</ele>
        <time>2018-06-27T09:32:52Z</time>
      </trkpt>
      <trkpt lat="45.97571" lon="4.85259">
        <ele>281</ele>
        <time>2018-06-27T09:32:53Z</time>
      </trkpt>
      <trkpt lat="45.97566" lon="4.8526">
        <ele>281</ele>
        <time>2018-06-27T09:32:54Z</time>
      </trkpt>
      <trkpt lat="45.9756" lon="4.8526">
        <ele>281</ele>
        <time>2018-06-27T09:32:55Z</time>
      </trkpt>
      <trkpt lat="45.97553" lon="4.85261">
        <ele>281</ele>
        <time>2018-06-27T09:32:56Z</time>
      </trkpt>
      <trkpt lat="45.97547" lon="4.85262">
        <ele>281</ele>
        <time>2018-06-27T09:32:57Z</time>
      </trkpt>
      <trkpt lat="45.97541" lon="4.85263">
        <ele>281</ele>
        <time>2018-06-27T09:32:58Z</time>
      </trkpt>
      <trkpt lat="45.97536" lon="4.85263">
        <ele>281</ele>
        <time>2018-06-27T09:32:59Z</time>
      </trkpt>
      <trkpt lat="45.9753" lon="4.85264">
        <ele>281</ele>
        <time>2018-06-27T09:33:00Z</time>
      </trkpt>
      <trkpt lat="45.97526" lon="4.85263">
        <ele>281</ele>
        <time>2018-06-27T09:33:01Z</time>
      </trkpt>
      <trkpt lat="45.97517" lon="4.85264">
        <ele>281</ele>
        <time>2018-06-27T09:33:03Z</time>
      </trkpt>
      <trkpt lat="45.97511" lon="4.85264">
        <ele>282</ele>
        <time>2018-06-27T09:33:04Z</time>
      </trkpt>
      <trkpt lat="45.97504" lon="4.85265">
        <ele>282</ele>
        <time>2018-06-27T09:33:05Z</time>
      </trkpt>
      <trkpt lat="45.97497" lon="4.85263">
        <ele>283</ele>
        <time>2018-06-27T09:33:06Z</time>
      </trkpt>
      <trkpt lat="45.97492" lon="4.85263">
        <ele>283</ele>
        <time>2018-06-27T09:33:07Z</time>
      </trkpt>
      <trkpt lat="45.97486" lon="4.85262">
        <ele>284</ele>
        <time>2018-06-27T09:33:08Z</time>
      </trkpt>
      <trkpt lat="45.9748" lon="4.85263">
        <ele>284</ele>
        <time>2018-06-27T09:33:09Z</time>
      </trkpt>
      <trkpt lat="45.97476" lon="4.85261">
        <ele>284</ele>
        <time>2018-06-27T09:33:10Z</time>
      </trkpt>
      <trkpt lat="45.97471" lon="4.85263">
        <ele>284</ele>
        <time>2018-06-27T09:33:11Z</time>
      </trkpt>
      <trkpt lat="45.97465" lon="4.85262">
        <ele>284</ele>
        <time>2018-06-27T09:33:12Z</time>
      </trkpt>
      <trkpt lat="45.97461" lon="4.8526">
        <ele>284</ele>
        <time>2018-06-27T09:33:13Z</time>
      </trkpt>
      <trkpt lat="45.97456" lon="4.85262">
        <ele>284</ele>
        <time>2018-06-27T09:33:14Z</time>
      </trkpt>
      <trkpt lat="45.97451" lon="4.85261">
        <ele>285</ele>
        <time>2018-06-27T09:33:16Z</time>
      </trkpt>
      <trkpt lat="45.97443" lon="4.85262">
        <ele>285</ele>
        <time>2018-06-27T09:33:17Z</time>
      </trkpt>
      <trkpt lat="45.97437" lon="4.85261">
        <ele>285</ele>
        <time>2018-06-27T09:33:18Z</time>
      </trkpt>
      <trkpt lat="45.97433" lon="4.85262">
        <ele>285</ele>
        <time>2018-06-27T09:33:19Z</time>
      </trkpt>
      <trkpt lat="45.97427" lon="4.85262">
        <ele>285</ele>
        <time>2018-06-27T09:33:20Z</time>
      </trkpt>
      <trkpt lat="45.97422" lon="4.85262">
        <ele>285</ele>
        <time>2018-06-27T09:33:21Z</time>
      </trkpt>
      <trkpt lat="45.97416" lon="4.85261">
        <ele>286</ele>
        <time>2018-06-27T09:33:22Z</time>
      </trkpt>
      <trkpt lat="45.97411" lon="4.85262">
        <ele>286</ele>
        <time>2018-06-27T09:33:23Z</time>
      </trkpt>
      <trkpt lat="45.97406" lon="4.85262">
        <ele>286</ele>
        <time>2018-06-27T09:33:24Z</time>
      </trkpt>
      <trkpt lat="45.974" lon="4.85262">
        <ele>286</ele>
        <time>2018-06-27T09:33:25Z</time>
      </trkpt>
      <trkpt lat="45.97392" lon="4.85261">
        <ele>285</ele>
        <time>2018-06-27T09:33:27Z</time>
      </trkpt>
      <trkpt lat="45.97387" lon="4.85262">
        <ele>285</ele>
        <time>2018-06-27T09:33:28Z</time>
      </trkpt>
      <trkpt lat="45.97383" lon="4.85262">
        <ele>285</ele>
        <time>2018-06-27T09:33:29Z</time>
      </trkpt>
      <trkpt lat="45.97366" lon="4.85264">
        <ele>285</ele>
        <time>2018-06-27T09:33:33Z</time>
      </trkpt>
      <trkpt lat="45.97357" lon="4.85267">
        <ele>284</ele>
        <time>2018-06-27T09:33:34Z</time>
      </trkpt>
      <trkpt lat="45.9735" lon="4.85267">
        <ele>284</ele>
        <time>2018-06-27T09:33:35Z</time>
      </trkpt>
      <trkpt lat="45.97346" lon="4.85267">
        <ele>284</ele>
        <time>2018-06-27T09:33:36Z</time>
      </trkpt>
      <trkpt lat="45.9734" lon="4.85267">
        <ele>283</ele>
        <time>2018-06-27T09:33:37Z</time>
      </trkpt>
      <trkpt lat="45.97336" lon="4.85267">
        <ele>283</ele>
        <time>2018-06-27T09:33:38Z</time>
      </trkpt>
      <trkpt lat="45.9733" lon="4.85268">
        <ele>282</ele>
        <time>2018-06-27T09:33:39Z</time>
      </trkpt>
      <trkpt lat="45.97325" lon="4.85267">
        <ele>282</ele>
        <time>2018-06-27T09:33:40Z</time>
      </trkpt>
      <trkpt lat="45.97319" lon="4.85269">
        <ele>282</ele>
        <time>2018-06-27T09:33:41Z</time>
      </trkpt>
      <trkpt lat="45.97313" lon="4.85268">
        <ele>282</ele>
        <time>2018-06-27T09:33:42Z</time>
      </trkpt>
      <trkpt lat="45.97308" lon="4.85268">
        <ele>282</ele>
        <time>2018-06-27T09:33:43Z</time>
      </trkpt>
      <trkpt lat="45.97302" lon="4.85267">
        <ele>282</ele>
        <time>2018-06-27T09:33:44Z</time>
      </trkpt>
      <trkpt lat="45.97296" lon="4.85267">
        <ele>282</ele>
        <time>2018-06-27T09:33:45Z</time>
      </trkpt>
      <trkpt lat="45.97291" lon="4.85268">
        <ele>281</ele>
        <time>2018-06-27T09:33:46Z</time>
      </trkpt>
      <trkpt lat="45.97285" lon="4.85268">
        <ele>281</ele>
        <time>2018-06-27T09:33:47Z</time>
      </trkpt>
      <trkpt lat="45.9728" lon="4.85268">
        <ele>281</ele>
        <time>2018-06-27T09:33:48Z</time>
      </trkpt>
      <trkpt lat="45.97274" lon="4.85269">
        <ele>281</ele>
        <time>2018-06-27T09:33:49Z</time>
      </trkpt>
      <trkpt lat="45.97269" lon="4.85269">
        <ele>281</ele>
        <time>2018-06-27T09:33:50Z</time>
      </trkpt>
      <trkpt lat="45.97265" lon="4.8527">
        <ele>281</ele>
        <time>2018-06-27T09:33:51Z</time>
      </trkpt>
      <trkpt lat="45.9726" lon="4.85271">
        <ele>281</ele>
        <time>2018-06-27T09:33:52Z</time>
      </trkpt>
      <trkpt lat="45.97256" lon="4.85272">
        <ele>281</ele>
        <time>2018-06-27T09:33:53Z</time>
      </trkpt>
      <trkpt lat="45.9725" lon="4.85271">
        <ele>281</ele>
        <time>2018-06-27T09:33:54Z</time>
      </trkpt>
      <trkpt lat="45.97245" lon="4.85272">
        <ele>279</ele>
        <time>2018-06-27T09:33:55Z</time>
      </trkpt>
      <trkpt lat="45.97239" lon="4.85273">
        <ele>279</ele>
        <time>2018-06-27T09:33:56Z</time>
      </trkpt>
      <trkpt lat="45.97234" lon="4.85273">
        <ele>279</ele>
        <time>2018-06-27T09:33:57Z</time>
      </trkpt>
      <trkpt lat="45.97229" lon="4.85273">
        <ele>279</ele>
        <time>2018-06-27T09:33:58Z</time>
      </trkpt>
      <trkpt lat="45.97223" lon="4.85273">
        <ele>279</ele>
        <time>2018-06-27T09:33:59Z</time>
      </trkpt>
      <trkpt lat="45.97216" lon="4.85272">
        <ele>279</ele>
        <time>2018-06-27T09:34:00Z</time>
      </trkpt>
      <trkpt lat="45.97211" lon="4.85273">
        <ele>279</ele>
        <time>2018-06-27T09:34:01Z</time>
      </trkpt>
      <trkpt lat="45.97205" lon="4.85274">
        <ele>279</ele>
        <time>2018-06-27T09:34:02Z</time>
      </trkpt>
      <trkpt lat="45.972" lon="4.85274">
        <ele>279</ele>
        <time>2018-06-27T09:34:03Z</time>
      </trkpt>
      <trkpt lat="45.97193" lon="4.85274">
        <ele>279</ele>
        <time>2018-06-27T09:34:04Z</time>
      </trkpt>
      <trkpt lat="45.97186" lon="4.85274">
        <ele>279</ele>
        <time>2018-06-27T09:34:05Z</time>
      </trkpt>
      <trkpt lat="45.9718" lon="4.85274">
        <ele>279</ele>
        <time>2018-06-27T09:34:06Z</time>
      </trkpt>
      <trkpt lat="45.97175" lon="4.85275">
        <ele>279</ele>
        <time>2018-06-27T09:34:07Z</time>
      </trkpt>
      <trkpt lat="45.97169" lon="4.85275">
        <ele>279</ele>
        <time>2018-06-27T09:34:08Z</time>
      </trkpt>
      <trkpt lat="45.97163" lon="4.85275">
        <ele>279</ele>
        <time>2018-06-27T09:34:09Z</time>
      </trkpt>
      <trkpt lat="45.97159" lon="4.85275">
        <ele>279</ele>
        <time>2018-06-27T09:34:10Z</time>
      </trkpt>
      <trkpt lat="45.97154" lon="4.85276">
        <ele>279</ele>
        <time>2018-06-27T09:34:11Z</time>
      </trkpt>
      <trkpt lat="45.9715" lon="4.85276">
        <ele>279</ele>
        <time>2018-06-27T09:34:12Z</time>
      </trkpt>
      <trkpt lat="45.97141" lon="4.85276">
        <ele>279</ele>
        <time>2018-06-27T09:34:14Z</time>
      </trkpt>
      <trkpt lat="45.97139" lon="4.85276">
        <ele>279</ele>
        <time>2018-06-27T09:34:15Z</time>
      </trkpt>
      <trkpt lat="45.97131" lon="4.85277">
        <ele>279</ele>
        <time>2018-06-27T09:34:21Z</time>
      </trkpt>
      <trkpt lat="45.97125" lon="4.85276">
        <ele>280</ele>
        <time>2018-06-27T09:34:22Z</time>
      </trkpt>
      <trkpt lat="45.97118" lon="4.85276">
        <ele>280</ele>
        <time>2018-06-27T09:34:24Z</time>
      </trkpt>
      <trkpt lat="45.97113" lon="4.85276">
        <ele>280</ele>
        <time>2018-06-27T09:34:25Z</time>
      </trkpt>
      <trkpt lat="45.97105" lon="4.85278">
        <ele>280</ele>
        <time>2018-06-27T09:34:27Z</time>
      </trkpt>
      <trkpt lat="45.971" lon="4.85279">
        <ele>280</ele>
        <time>2018-06-27T09:34:28Z</time>
      </trkpt>
      <trkpt lat="45.97096" lon="4.8528">
        <ele>280</ele>
        <time>2018-06-27T09:34:29Z</time>
      </trkpt>
      <trkpt lat="45.97091" lon="4.85281">
        <ele>280</ele>
        <time>2018-06-27T09:34:30Z</time>
      </trkpt>
      <trkpt lat="45.97086" lon="4.85281">
        <ele>280</ele>
        <time>2018-06-27T09:34:31Z</time>
      </trkpt>
      <trkpt lat="45.97081" lon="4.85282">
        <ele>281</ele>
        <time>2018-06-27T09:34:32Z</time>
      </trkpt>
      <trkpt lat="45.97073" lon="4.85282">
        <ele>282</ele>
        <time>2018-06-27T09:34:34Z</time>
      </trkpt>
      <trkpt lat="45.97069" lon="4.85283">
        <ele>282</ele>
        <time>2018-06-27T09:34:35Z</time>
      </trkpt>
      <trkpt lat="45.9706" lon="4.85283">
        <ele>282</ele>
        <time>2018-06-27T09:34:37Z</time>
      </trkpt>
      <trkpt lat="45.97056" lon="4.85284">
        <ele>282</ele>
        <time>2018-06-27T09:34:38Z</time>
      </trkpt>
      <trkpt lat="45.97048" lon="4.85285">
        <ele>282</ele>
        <time>2018-06-27T09:34:40Z</time>
      </trkpt>
      <trkpt lat="45.97044" lon="4.85286">
        <ele>282</ele>
        <time>2018-06-27T09:34:41Z</time>
      </trkpt>
      <trkpt lat="45.97035" lon="4.85288">
        <ele>282</ele>
        <time>2018-06-27T09:34:43Z</time>
      </trkpt>
      <trkpt lat="45.97031" lon="4.85288">
        <ele>282</ele>
        <time>2018-06-27T09:34:44Z</time>
      </trkpt>
      <trkpt lat="45.97026" lon="4.85289">
        <ele>282</ele>
        <time>2018-06-27T09:34:45Z</time>
      </trkpt>
      <trkpt lat="45.97021" lon="4.85289">
        <ele>282</ele>
        <time>2018-06-27T09:34:46Z</time>
      </trkpt>
      <trkpt lat="45.97012" lon="4.85289">
        <ele>282</ele>
        <time>2018-06-27T09:34:48Z</time>
      </trkpt>
      <trkpt lat="45.97008" lon="4.8529">
        <ele>282</ele>
        <time>2018-06-27T09:34:49Z</time>
      </trkpt>
      <trkpt lat="45.96999" lon="4.85291">
        <ele>283</ele>
        <time>2018-06-27T09:34:51Z</time>
      </trkpt>
      <trkpt lat="45.96995" lon="4.85292">
        <ele>283</ele>
        <time>2018-06-27T09:34:52Z</time>
      </trkpt>
      <trkpt lat="45.96986" lon="4.85292">
        <ele>284</ele>
        <time>2018-06-27T09:34:54Z</time>
      </trkpt>
      <trkpt lat="45.96983" lon="4.85293">
        <ele>284</ele>
        <time>2018-06-27T09:34:55Z</time>
      </trkpt>
      <trkpt lat="45.96975" lon="4.85294">
        <ele>284</ele>
        <time>2018-06-27T09:34:58Z</time>
      </trkpt>
      <trkpt lat="45.96972" lon="4.85294">
        <ele>284</ele>
        <time>2018-06-27T09:34:59Z</time>
      </trkpt>
      <trkpt lat="45.96964" lon="4.85296">
        <ele>284</ele>
        <time>2018-06-27T09:35:02Z</time>
      </trkpt>
      <trkpt lat="45.96962" lon="4.85296">
        <ele>284</ele>
        <time>2018-06-27T09:35:03Z</time>
      </trkpt>
      <trkpt lat="45.96953" lon="4.85297">
        <ele>284</ele>
        <time>2018-06-27T09:35:07Z</time>
      </trkpt>
      <trkpt lat="45.96952" lon="4.85298">
        <ele>284</ele>
        <time>2018-06-27T09:35:08Z</time>
      </trkpt>
      <trkpt lat="45.9695" lon="4.85298">
        <ele>284</ele>
        <time>2018-06-27T09:35:09Z</time>
      </trkpt>
      <trkpt lat="45.96942" lon="4.853">
        <ele>284</ele>
        <time>2018-06-27T09:35:10Z</time>
      </trkpt>
      <trkpt lat="45.96936" lon="4.85302">
        <ele>284</ele>
        <time>2018-06-27T09:35:14Z</time>
      </trkpt>
      <trkpt lat="45.96929" lon="4.85304">
        <ele>284</ele>
        <time>2018-06-27T09:35:15Z</time>
      </trkpt>
      <trkpt lat="45.96926" lon="4.85302">
        <ele>284</ele>
        <time>2018-06-27T09:35:16Z</time>
      </trkpt>
      <trkpt lat="45.9692" lon="4.85303">
        <ele>284</ele>
        <time>2018-06-27T09:35:17Z</time>
      </trkpt>
      <trkpt lat="45.96915" lon="4.85304">
        <ele>284</ele>
        <time>2018-06-27T09:35:18Z</time>
      </trkpt>
      <trkpt lat="45.96909" lon="4.85305">
        <ele>284</ele>
        <time>2018-06-27T09:35:19Z</time>
      </trkpt>
      <trkpt lat="45.96902" lon="4.85307">
        <ele>284</ele>
        <time>2018-06-27T09:35:20Z</time>
      </trkpt>
      <trkpt lat="45.96897" lon="4.85308">
        <ele>283</ele>
        <time>2018-06-27T09:35:21Z</time>
      </trkpt>
      <trkpt lat="45.96889" lon="4.85311">
        <ele>283</ele>
        <time>2018-06-27T09:35:22Z</time>
      </trkpt>
      <trkpt lat="45.96883" lon="4.85313">
        <ele>283</ele>
        <time>2018-06-27T09:35:23Z</time>
      </trkpt>
      <trkpt lat="45.96875" lon="4.85315">
        <ele>283</ele>
        <time>2018-06-27T09:35:24Z</time>
      </trkpt>
      <trkpt lat="45.96868" lon="4.85317">
        <ele>282</ele>
        <time>2018-06-27T09:35:25Z</time>
      </trkpt>
      <trkpt lat="45.96862" lon="4.85319">
        <ele>282</ele>
        <time>2018-06-27T09:35:26Z</time>
      </trkpt>
      <trkpt lat="45.96851" lon="4.85323">
        <ele>282</ele>
        <time>2018-06-27T09:35:27Z</time>
      </trkpt>
      <trkpt lat="45.96844" lon="4.85325">
        <ele>281</ele>
        <time>2018-06-27T09:35:28Z</time>
      </trkpt>
      <trkpt lat="45.96835" lon="4.85328">
        <ele>281</ele>
        <time>2018-06-27T09:35:29Z</time>
      </trkpt>
      <trkpt lat="45.96829" lon="4.85331">
        <ele>280</ele>
        <time>2018-06-27T09:35:30Z</time>
      </trkpt>
      <trkpt lat="45.96821" lon="4.85335">
        <ele>279</ele>
        <time>2018-06-27T09:35:31Z</time>
      </trkpt>
      <trkpt lat="45.96811" lon="4.85339">
        <ele>279</ele>
        <time>2018-06-27T09:35:32Z</time>
      </trkpt>
      <trkpt lat="45.96802" lon="4.85344">
        <ele>279</ele>
        <time>2018-06-27T09:35:33Z</time>
      </trkpt>
      <trkpt lat="45.96793" lon="4.85347">
        <ele>279</ele>
        <time>2018-06-27T09:35:34Z</time>
      </trkpt>
      <trkpt lat="45.96785" lon="4.85352">
        <ele>278</ele>
        <time>2018-06-27T09:35:35Z</time>
      </trkpt>
      <trkpt lat="45.96779" lon="4.85358">
        <ele>278</ele>
        <time>2018-06-27T09:35:36Z</time>
      </trkpt>
      <trkpt lat="45.96771" lon="4.85364">
        <ele>278</ele>
        <time>2018-06-27T09:35:37Z</time>
      </trkpt>
      <trkpt lat="45.96762" lon="4.8537">
        <ele>278</ele>
        <time>2018-06-27T09:35:38Z</time>
      </trkpt>
      <trkpt lat="45.96754" lon="4.85377">
        <ele>278</ele>
        <time>2018-06-27T09:35:39Z</time>
      </trkpt>
      <trkpt lat="45.96745" lon="4.85383">
        <ele>277</ele>
        <time>2018-06-27T09:35:40Z</time>
      </trkpt>
      <trkpt lat="45.96737" lon="4.85389">
        <ele>277</ele>
        <time>2018-06-27T09:35:41Z</time>
      </trkpt>
      <trkpt lat="45.9673" lon="4.85395">
        <ele>276</ele>
        <time>2018-06-27T09:35:42Z</time>
      </trkpt>
      <trkpt lat="45.96722" lon="4.854">
        <ele>276</ele>
        <time>2018-06-27T09:35:43Z</time>
      </trkpt>
      <trkpt lat="45.96714" lon="4.85406">
        <ele>276</ele>
        <time>2018-06-27T09:35:44Z</time>
      </trkpt>
      <trkpt lat="45.96707" lon="4.85412">
        <ele>276</ele>
        <time>2018-06-27T09:35:45Z</time>
      </trkpt>
      <trkpt lat="45.96699" lon="4.85417">
        <ele>276</ele>
        <time>2018-06-27T09:35:46Z</time>
      </trkpt>
      <trkpt lat="45.96692" lon="4.85422">
        <ele>276</ele>
        <time>2018-06-27T09:35:47Z</time>
      </trkpt>
      <trkpt lat="45.96682" lon="4.85426">
        <ele>276</ele>
        <time>2018-06-27T09:35:48Z</time>
      </trkpt>
      <trkpt lat="45.96673" lon="4.85429">
        <ele>276</ele>
        <time>2018-06-27T09:35:49Z</time>
      </trkpt>
      <trkpt lat="45.96666" lon="4.8543">
        <ele>276</ele>
        <time>2018-06-27T09:35:50Z</time>
      </trkpt>
      <trkpt lat="45.96658" lon="4.85431">
        <ele>276</ele>
        <time>2018-06-27T09:35:51Z</time>
      </trkpt>
      <trkpt lat="45.9665" lon="4.85434">
        <ele>276</ele>
        <time>2018-06-27T09:35:52Z</time>
      </trkpt>
      <trkpt lat="45.96643" lon="4.85437">
        <ele>276</ele>
        <time>2018-06-27T09:35:53Z</time>
      </trkpt>
      <trkpt lat="45.96636" lon="4.85439">
        <ele>276</ele>
        <time>2018-06-27T09:35:54Z</time>
      </trkpt>
      <trkpt lat="45.96628" lon="4.8544">
        <ele>276</ele>
        <time>2018-06-27T09:35:55Z</time>
      </trkpt>
      <trkpt lat="45.96621" lon="4.85442">
        <ele>276</ele>
        <time>2018-06-27T09:35:56Z</time>
      </trkpt>
      <trkpt lat="45.96614" lon="4.85445">
        <ele>276</ele>
        <time>2018-06-27T09:35:57Z</time>
      </trkpt>
      <trkpt lat="45.96607" lon="4.85447">
        <ele>276</ele>
        <time>2018-06-27T09:35:58Z</time>
      </trkpt>
      <trkpt lat="45.96599" lon="4.85449">
        <ele>276</ele>
        <time>2018-06-27T09:35:59Z</time>
      </trkpt>
      <trkpt lat="45.96592" lon="4.85451">
        <ele>276</ele>
        <time>2018-06-27T09:36:00Z</time>
      </trkpt>
      <trkpt lat="45.96586" lon="4.85452">
        <ele>276</ele>
        <time>2018-06-27T09:36:01Z</time>
      </trkpt>
      <trkpt lat="45.96579" lon="4.85453">
        <ele>275</ele>
        <time>2018-06-27T09:36:02Z</time>
      </trkpt>
      <trkpt lat="45.96572" lon="4.85455">
        <ele>275</ele>
        <time>2018-06-27T09:36:03Z</time>
      </trkpt>
      <trkpt lat="45.96566" lon="4.85455">
        <ele>275</ele>
        <time>2018-06-27T09:36:04Z</time>
      </trkpt>
      <trkpt lat="45.96561" lon="4.85455">
        <ele>275</ele>
        <time>2018-06-27T09:36:05Z</time>
      </trkpt>
      <trkpt lat="45.96554" lon="4.85457">
        <ele>275</ele>
        <time>2018-06-27T09:36:06Z</time>
      </trkpt>
      <trkpt lat="45.96546" lon="4.85459">
        <ele>275</ele>
        <time>2018-06-27T09:36:07Z</time>
      </trkpt>
      <trkpt lat="45.96539" lon="4.85461">
        <ele>275</ele>
        <time>2018-06-27T09:36:08Z</time>
      </trkpt>
      <trkpt lat="45.96532" lon="4.85461">
        <ele>275</ele>
        <time>2018-06-27T09:36:09Z</time>
      </trkpt>
      <trkpt lat="45.96525" lon="4.85464">
        <ele>275</ele>
        <time>2018-06-27T09:36:10Z</time>
      </trkpt>
      <trkpt lat="45.96519" lon="4.85466">
        <ele>275</ele>
        <time>2018-06-27T09:36:11Z</time>
      </trkpt>
      <trkpt lat="45.96509" lon="4.85469">
        <ele>275</ele>
        <time>2018-06-27T09:36:12Z</time>
      </trkpt>
      <trkpt lat="45.96503" lon="4.85469">
        <ele>275</ele>
        <time>2018-06-27T09:36:13Z</time>
      </trkpt>
      <trkpt lat="45.96497" lon="4.85471">
        <ele>273</ele>
        <time>2018-06-27T09:36:14Z</time>
      </trkpt>
      <trkpt lat="45.96491" lon="4.85472">
        <ele>273</ele>
        <time>2018-06-27T09:36:15Z</time>
      </trkpt>
      <trkpt lat="45.96486" lon="4.85473">
        <ele>273</ele>
        <time>2018-06-27T09:36:16Z</time>
      </trkpt>
      <trkpt lat="45.96478" lon="4.85475">
        <ele>273</ele>
        <time>2018-06-27T09:36:18Z</time>
      </trkpt>
      <trkpt lat="45.96477" lon="4.85475">
        <ele>272</ele>
        <time>2018-06-27T09:36:19Z</time>
      </trkpt>
      <trkpt lat="45.96468" lon="4.85476">
        <ele>272</ele>
        <time>2018-06-27T09:36:23Z</time>
      </trkpt>
      <trkpt lat="45.96461" lon="4.85476">
        <ele>272</ele>
        <time>2018-06-27T09:36:24Z</time>
      </trkpt>
      <trkpt lat="45.96453" lon="4.85475">
        <ele>272</ele>
        <time>2018-06-27T09:36:26Z</time>
      </trkpt>
      <trkpt lat="45.96448" lon="4.85476">
        <ele>272</ele>
        <time>2018-06-27T09:36:27Z</time>
      </trkpt>
      <trkpt lat="45.96444" lon="4.85475">
        <ele>272</ele>
        <time>2018-06-27T09:36:28Z</time>
      </trkpt>
      <trkpt lat="45.96439" lon="4.85475">
        <ele>271</ele>
        <time>2018-06-27T09:36:29Z</time>
      </trkpt>
      <trkpt lat="45.96432" lon="4.85475">
        <ele>271</ele>
        <time>2018-06-27T09:36:30Z</time>
      </trkpt>
      <trkpt lat="45.96427" lon="4.85473">
        <ele>271</ele>
        <time>2018-06-27T09:36:31Z</time>
      </trkpt>
      <trkpt lat="45.96418" lon="4.85472">
        <ele>271</ele>
        <time>2018-06-27T09:36:33Z</time>
      </trkpt>
      <trkpt lat="45.96413" lon="4.85471">
        <ele>269</ele>
        <time>2018-06-27T09:36:34Z</time>
      </trkpt>
      <trkpt lat="45.96405" lon="4.8547">
        <ele>269</ele>
        <time>2018-06-27T09:36:35Z</time>
      </trkpt>
      <trkpt lat="45.96397" lon="4.85471">
        <ele>269</ele>
        <time>2018-06-27T09:36:36Z</time>
      </trkpt>
      <trkpt lat="45.96391" lon="4.85471">
        <ele>269</ele>
        <time>2018-06-27T09:36:37Z</time>
      </trkpt>
      <trkpt lat="45.96384" lon="4.85471">
        <ele>268</ele>
        <time>2018-06-27T09:36:38Z</time>
      </trkpt>
      <trkpt lat="45.96376" lon="4.85469">
        <ele>268</ele>
        <time>2018-06-27T09:36:39Z</time>
      </trkpt>
      <trkpt lat="45.96367" lon="4.85471">
        <ele>268</ele>
        <time>2018-06-27T09:36:40Z</time>
      </trkpt>
      <trkpt lat="45.96359" lon="4.8547">
        <ele>268</ele>
        <time>2018-06-27T09:36:41Z</time>
      </trkpt>
      <trkpt lat="45.96351" lon="4.85468">
        <ele>268</ele>
        <time>2018-06-27T09:36:42Z</time>
      </trkpt>
      <trkpt lat="45.96342" lon="4.85467">
        <ele>268</ele>
        <time>2018-06-27T09:36:43Z</time>
      </trkpt>
      <trkpt lat="45.96335" lon="4.85466">
        <ele>268</ele>
        <time>2018-06-27T09:36:44Z</time>
      </trkpt>
      <trkpt lat="45.96328" lon="4.85465">
        <ele>265</ele>
        <time>2018-06-27T09:36:45Z</time>
      </trkpt>
      <trkpt lat="45.9632" lon="4.85464">
        <ele>265</ele>
        <time>2018-06-27T09:36:46Z</time>
      </trkpt>
      <trkpt lat="45.96313" lon="4.85462">
        <ele>265</ele>
        <time>2018-06-27T09:36:47Z</time>
      </trkpt>
      <trkpt lat="45.96306" lon="4.85461">
        <ele>265</ele>
        <time>2018-06-27T09:36:48Z</time>
      </trkpt>
      <trkpt lat="45.96297" lon="4.8546">
        <ele>265</ele>
        <time>2018-06-27T09:36:49Z</time>
      </trkpt>
      <trkpt lat="45.96289" lon="4.85459">
        <ele>265</ele>
        <time>2018-06-27T09:36:50Z</time>
      </trkpt>
      <trkpt lat="45.96281" lon="4.85457">
        <ele>265</ele>
        <time>2018-06-27T09:36:51Z</time>
      </trkpt>
      <trkpt lat="45.96273" lon="4.85454">
        <ele>264</ele>
        <time>2018-06-27T09:36:52Z</time>
      </trkpt>
      <trkpt lat="45.96265" lon="4.85451">
        <ele>264</ele>
        <time>2018-06-27T09:36:53Z</time>
      </trkpt>
      <trkpt lat="45.96257" lon="4.85449">
        <ele>264</ele>
        <time>2018-06-27T09:36:54Z</time>
      </trkpt>
      <trkpt lat="45.96249" lon="4.85446">
        <ele>261</ele>
        <time>2018-06-27T09:36:55Z</time>
      </trkpt>
      <trkpt lat="45.96241" lon="4.85442">
        <ele>261</ele>
        <time>2018-06-27T09:36:56Z</time>
      </trkpt>
      <trkpt lat="45.96233" lon="4.85438">
        <ele>261</ele>
        <time>2018-06-27T09:36:57Z</time>
      </trkpt>
      <trkpt lat="45.96225" lon="4.85432">
        <ele>261</ele>
        <time>2018-06-27T09:36:58Z</time>
      </trkpt>
      <trkpt lat="45.96216" lon="4.85428">
        <ele>261</ele>
        <time>2018-06-27T09:36:59Z</time>
      </trkpt>
      <trkpt lat="45.96207" lon="4.85423">
        <ele>260</ele>
        <time>2018-06-27T09:37:00Z</time>
      </trkpt>
      <trkpt lat="45.96198" lon="4.85416">
        <ele>258</ele>
        <time>2018-06-27T09:37:01Z</time>
      </trkpt>
      <trkpt lat="45.96189" lon="4.85409">
        <ele>258</ele>
        <time>2018-06-27T09:37:02Z</time>
      </trkpt>
      <trkpt lat="45.96181" lon="4.85402">
        <ele>258</ele>
        <time>2018-06-27T09:37:03Z</time>
      </trkpt>
      <trkpt lat="45.96172" lon="4.85396">
        <ele>258</ele>
        <time>2018-06-27T09:37:04Z</time>
      </trkpt>
      <trkpt lat="45.96163" lon="4.8539">
        <ele>258</ele>
        <time>2018-06-27T09:37:05Z</time>
      </trkpt>
      <trkpt lat="45.96154" lon="4.85384">
        <ele>258</ele>
        <time>2018-06-27T09:37:06Z</time>
      </trkpt>
      <trkpt lat="45.96146" lon="4.85381">
        <ele>258</ele>
        <time>2018-06-27T09:37:07Z</time>
      </trkpt>
      <trkpt lat="45.96138" lon="4.85377">
        <ele>258</ele>
        <time>2018-06-27T09:37:08Z</time>
      </trkpt>
      <trkpt lat="45.9613" lon="4.85374">
        <ele>258</ele>
        <time>2018-06-27T09:37:09Z</time>
      </trkpt>
      <trkpt lat="45.96121" lon="4.85371">
        <ele>258</ele>
        <time>2018-06-27T09:37:10Z</time>
      </trkpt>
      <trkpt lat="45.96113" lon="4.85368">
        <ele>259</ele>
        <time>2018-06-27T09:37:11Z</time>
      </trkpt>
      <trkpt lat="45.96108" lon="4.85364">
        <ele>259</ele>
        <time>2018-06-27T09:37:12Z</time>
      </trkpt>
      <trkpt lat="45.96101" lon="4.8536">
        <ele>259</ele>
        <time>2018-06-27T09:37:13Z</time>
      </trkpt>
      <trkpt lat="45.96094" lon="4.85358">
        <ele>259</ele>
        <time>2018-06-27T09:37:14Z</time>
      </trkpt>
      <trkpt lat="45.96089" lon="4.85355">
        <ele>259</ele>
        <time>2018-06-27T09:37:15Z</time>
      </trkpt>
      <trkpt lat="45.96083" lon="4.85353">
        <ele>262</ele>
        <time>2018-06-27T09:37:16Z</time>
      </trkpt>
      <trkpt lat="45.96078" lon="4.85351">
        <ele>262</ele>
        <time>2018-06-27T09:37:17Z</time>
      </trkpt>
      <trkpt lat="45.96073" lon="4.8535">
        <ele>262</ele>
        <time>2018-06-27T09:37:18Z</time>
      </trkpt>
      <trkpt lat="45.96067" lon="4.85348">
        <ele>262</ele>
        <time>2018-06-27T09:37:19Z</time>
      </trkpt>
      <trkpt lat="45.96063" lon="4.85349">
        <ele>262</ele>
        <time>2018-06-27T09:37:20Z</time>
      </trkpt>
      <trkpt lat="45.96054" lon="4.85348">
        <ele>262</ele>
        <time>2018-06-27T09:37:22Z</time>
      </trkpt>
      <trkpt lat="45.9605" lon="4.85348">
        <ele>262</ele>
        <time>2018-06-27T09:37:23Z</time>
      </trkpt>
      <trkpt lat="45.96042" lon="4.85348">
        <ele>262</ele>
        <time>2018-06-27T09:37:25Z</time>
      </trkpt>
      <trkpt lat="45.96038" lon="4.85348">
        <ele>263</ele>
        <time>2018-06-27T09:37:26Z</time>
      </trkpt>
      <trkpt lat="45.96029" lon="4.85349">
        <ele>263</ele>
        <time>2018-06-27T09:37:28Z</time>
      </trkpt>
      <trkpt lat="45.96024" lon="4.8535">
        <ele>263</ele>
        <time>2018-06-27T09:37:29Z</time>
      </trkpt>
      <trkpt lat="45.96015" lon="4.85348">
        <ele>263</ele>
        <time>2018-06-27T09:37:31Z</time>
      </trkpt>
      <trkpt lat="45.96012" lon="4.85349">
        <ele>264</ele>
        <time>2018-06-27T09:37:32Z</time>
      </trkpt>
      <trkpt lat="45.96004" lon="4.85349">
        <ele>264</ele>
        <time>2018-06-27T09:37:34Z</time>
      </trkpt>
      <trkpt lat="45.96" lon="4.85349">
        <ele>265</ele>
        <time>2018-06-27T09:37:35Z</time>
      </trkpt>
      <trkpt lat="45.95992" lon="4.85348">
        <ele>265</ele>
        <time>2018-06-27T09:37:37Z</time>
      </trkpt>
      <trkpt lat="45.95989" lon="4.85348">
        <ele>265</ele>
        <time>2018-06-27T09:37:38Z</time>
      </trkpt>
      <trkpt lat="45.95981" lon="4.85349">
        <ele>265</ele>
        <time>2018-06-27T09:37:41Z</time>
      </trkpt>
      <trkpt lat="45.95974" lon="4.85349">
        <ele>265</ele>
        <time>2018-06-27T09:37:42Z</time>
      </trkpt>
      <trkpt lat="45.9597" lon="4.85349">
        <ele>265</ele>
        <time>2018-06-27T09:37:44Z</time>
      </trkpt>
      <trkpt lat="45.95963" lon="4.85349">
        <ele>265</ele>
        <time>2018-06-27T09:37:45Z</time>
      </trkpt>
      <trkpt lat="45.95958" lon="4.85349">
        <ele>265</ele>
        <time>2018-06-27T09:37:47Z</time>
      </trkpt>
      <trkpt lat="45.95953" lon="4.85349">
        <ele>266</ele>
        <time>2018-06-27T09:37:48Z</time>
      </trkpt>
      <trkpt lat="45.95946" lon="4.85349">
        <ele>266</ele>
        <time>2018-06-27T09:37:51Z</time>
      </trkpt>
      <trkpt lat="45.9594" lon="4.8535">
        <ele>266</ele>
        <time>2018-06-27T09:37:52Z</time>
      </trkpt>
      <trkpt lat="45.95932" lon="4.85349">
        <ele>266</ele>
        <time>2018-06-27T09:37:54Z</time>
      </trkpt>
      <trkpt lat="45.95929" lon="4.85349">
        <ele>266</ele>
        <time>2018-06-27T09:37:55Z</time>
      </trkpt>
      <trkpt lat="45.95921" lon="4.85346">
        <ele>266</ele>
        <time>2018-06-27T09:37:57Z</time>
      </trkpt>
      <trkpt lat="45.95918" lon="4.85344">
        <ele>266</ele>
        <time>2018-06-27T09:37:58Z</time>
      </trkpt>
      <trkpt lat="45.95911" lon="4.8534">
        <ele>267</ele>
        <time>2018-06-27T09:38:00Z</time>
      </trkpt>
      <trkpt lat="45.95907" lon="4.85338">
        <ele>267</ele>
        <time>2018-06-27T09:38:01Z</time>
      </trkpt>
      <trkpt lat="45.95899" lon="4.85331">
        <ele>268</ele>
        <time>2018-06-27T09:38:03Z</time>
      </trkpt>
      <trkpt lat="45.95896" lon="4.85328">
        <ele>268</ele>
        <time>2018-06-27T09:38:04Z</time>
      </trkpt>
      <trkpt lat="45.95892" lon="4.85324">
        <ele>269</ele>
        <time>2018-06-27T09:38:05Z</time>
      </trkpt>
      <trkpt lat="45.95889" lon="4.85319">
        <ele>269</ele>
        <time>2018-06-27T09:38:06Z</time>
      </trkpt>
      <trkpt lat="45.95882" lon="4.85311">
        <ele>269</ele>
        <time>2018-06-27T09:38:08Z</time>
      </trkpt>
      <trkpt lat="45.95879" lon="4.85305">
        <ele>269</ele>
        <time>2018-06-27T09:38:09Z</time>
      </trkpt>
      <trkpt lat="45.95875" lon="4.853">
        <ele>269</ele>
        <time>2018-06-27T09:38:10Z</time>
      </trkpt>
      <trkpt lat="45.95872" lon="4.85295">
        <ele>269</ele>
        <time>2018-06-27T09:38:11Z</time>
      </trkpt>
      <trkpt lat="45.95868" lon="4.8529">
        <ele>269</ele>
        <time>2018-06-27T09:38:12Z</time>
      </trkpt>
      <trkpt lat="45.95865" lon="4.85284">
        <ele>270</ele>
        <time>2018-06-27T09:38:13Z</time>
      </trkpt>
      <trkpt lat="45.95861" lon="4.85274">
        <ele>270</ele>
        <time>2018-06-27T09:38:15Z</time>
      </trkpt>
      <trkpt lat="45.95858" lon="4.8527">
        <ele>270</ele>
        <time>2018-06-27T09:38:16Z</time>
      </trkpt>
      <trkpt lat="45.95853" lon="4.85261">
        <ele>270</ele>
        <time>2018-06-27T09:38:18Z</time>
      </trkpt>
      <trkpt lat="45.95851" lon="4.85257">
        <ele>270</ele>
        <time>2018-06-27T09:38:19Z</time>
      </trkpt>
      <trkpt lat="45.95847" lon="4.85247">
        <ele>271</ele>
        <time>2018-06-27T09:38:21Z</time>
      </trkpt>
      <trkpt lat="45.95844" lon="4.85243">
        <ele>271</ele>
        <time>2018-06-27T09:38:22Z</time>
      </trkpt>
      <trkpt lat="45.9584" lon="4.85234">
        <ele>271</ele>
        <time>2018-06-27T09:38:24Z</time>
      </trkpt>
      <trkpt lat="45.95838" lon="4.8523">
        <ele>270</ele>
        <time>2018-06-27T09:38:25Z</time>
      </trkpt>
      <trkpt lat="45.95833" lon="4.85221">
        <ele>274</ele>
        <time>2018-06-27T09:38:27Z</time>
      </trkpt>
      <trkpt lat="45.9583" lon="4.85217">
        <ele>274</ele>
        <time>2018-06-27T09:38:28Z</time>
      </trkpt>
      <trkpt lat="45.95825" lon="4.85208">
        <ele>274</ele>
        <time>2018-06-27T09:38:30Z</time>
      </trkpt>
      <trkpt lat="45.95822" lon="4.85204">
        <ele>274</ele>
        <time>2018-06-27T09:38:31Z</time>
      </trkpt>
      <trkpt lat="45.95816" lon="4.85197">
        <ele>274</ele>
        <time>2018-06-27T09:38:33Z</time>
      </trkpt>
      <trkpt lat="45.95813" lon="4.85194">
        <ele>275</ele>
        <time>2018-06-27T09:38:34Z</time>
      </trkpt>
      <trkpt lat="45.95809" lon="4.85189">
        <ele>275</ele>
        <time>2018-06-27T09:38:36Z</time>
      </trkpt>
      <trkpt lat="45.95804" lon="4.85186">
        <ele>275</ele>
        <time>2018-06-27T09:38:37Z</time>
      </trkpt>
      <trkpt lat="45.95799" lon="4.85182">
        <ele>275</ele>
        <time>2018-06-27T09:38:39Z</time>
      </trkpt>
      <trkpt lat="45.95794" lon="4.85178">
        <ele>276</ele>
        <time>2018-06-27T09:38:40Z</time>
      </trkpt>
      <trkpt lat="45.95786" lon="4.85171">
        <ele>276</ele>
        <time>2018-06-27T09:38:42Z</time>
      </trkpt>
      <trkpt lat="45.95783" lon="4.85167">
        <ele>276</ele>
        <time>2018-06-27T09:38:43Z</time>
      </trkpt>
      <trkpt lat="45.95777" lon="4.85162">
        <ele>276</ele>
        <time>2018-06-27T09:38:46Z</time>
      </trkpt>
      <trkpt lat="45.95775" lon="4.85159">
        <ele>276</ele>
        <time>2018-06-27T09:38:47Z</time>
      </trkpt>
      <trkpt lat="45.95773" lon="4.85157">
        <ele>276</ele>
        <time>2018-06-27T09:38:48Z</time>
      </trkpt>
      <trkpt lat="45.95765" lon="4.85148">
        <ele>276</ele>
        <time>2018-06-27T09:38:49Z</time>
      </trkpt>
      <trkpt lat="45.95761" lon="4.85143">
        <ele>276</ele>
        <time>2018-06-27T09:38:50Z</time>
      </trkpt>
      <trkpt lat="45.95758" lon="4.8514">
        <ele>276</ele>
        <time>2018-06-27T09:38:51Z</time>
      </trkpt>
      <trkpt lat="45.95753" lon="4.85132">
        <ele>276</ele>
        <time>2018-06-27T09:38:53Z</time>
      </trkpt>
      <trkpt lat="45.95751" lon="4.85128">
        <ele>276</ele>
        <time>2018-06-27T09:38:54Z</time>
      </trkpt>
      <trkpt lat="45.95747" lon="4.85124">
        <ele>279</ele>
        <time>2018-06-27T09:38:55Z</time>
      </trkpt>
      <trkpt lat="45.95744" lon="4.8512">
        <ele>279</ele>
        <time>2018-06-27T09:38:56Z</time>
      </trkpt>
      <trkpt lat="45.95738" lon="4.85111">
        <ele>279</ele>
        <time>2018-06-27T09:38:58Z</time>
      </trkpt>
      <trkpt lat="45.95735" lon="4.85106">
        <ele>279</ele>
        <time>2018-06-27T09:38:59Z</time>
      </trkpt>
      <trkpt lat="45.95729" lon="4.85098">
        <ele>279</ele>
        <time>2018-06-27T09:39:01Z</time>
      </trkpt>
      <trkpt lat="45.95726" lon="4.85094">
        <ele>279</ele>
        <time>2018-06-27T09:39:02Z</time>
      </trkpt>
      <trkpt lat="45.95723" lon="4.85088">
        <ele>279</ele>
        <time>2018-06-27T09:39:04Z</time>
      </trkpt>
      <trkpt lat="45.9572" lon="4.85081">
        <ele>277</ele>
        <time>2018-06-27T09:39:05Z</time>
      </trkpt>
      <trkpt lat="45.95718" lon="4.85076">
        <ele>277</ele>
        <time>2018-06-27T09:39:06Z</time>
      </trkpt>
      <trkpt lat="45.95715" lon="4.8507">
        <ele>277</ele>
        <time>2018-06-27T09:39:07Z</time>
      </trkpt>
      <trkpt lat="45.95712" lon="4.85065">
        <ele>277</ele>
        <time>2018-06-27T09:39:08Z</time>
      </trkpt>
      <trkpt lat="45.95707" lon="4.85061">
        <ele>277</ele>
        <time>2018-06-27T09:39:09Z</time>
      </trkpt>
      <trkpt lat="45.95704" lon="4.85055">
        <ele>276</ele>
        <time>2018-06-27T09:39:10Z</time>
      </trkpt>
      <trkpt lat="45.95701" lon="4.8505">
        <ele>276</ele>
        <time>2018-06-27T09:39:11Z</time>
      </trkpt>
      <trkpt lat="45.95698" lon="4.85044">
        <ele>276</ele>
        <time>2018-06-27T09:39:12Z</time>
      </trkpt>
      <trkpt lat="45.95695" lon="4.85038">
        <ele>276</ele>
        <time>2018-06-27T09:39:13Z</time>
      </trkpt>
      <trkpt lat="45.95692" lon="4.85032">
        <ele>276</ele>
        <time>2018-06-27T09:39:14Z</time>
      </trkpt>
      <trkpt lat="45.95689" lon="4.85027">
        <ele>276</ele>
        <time>2018-06-27T09:39:15Z</time>
      </trkpt>
      <trkpt lat="45.95686" lon="4.85021">
        <ele>275</ele>
        <time>2018-06-27T09:39:16Z</time>
      </trkpt>
      <trkpt lat="45.95682" lon="4.85015">
        <ele>275</ele>
        <time>2018-06-27T09:39:17Z</time>
      </trkpt>
      <trkpt lat="45.95679" lon="4.85009">
        <ele>275</ele>
        <time>2018-06-27T09:39:18Z</time>
      </trkpt>
      <trkpt lat="45.95675" lon="4.85003">
        <ele>274</ele>
        <time>2018-06-27T09:39:19Z</time>
      </trkpt>
      <trkpt lat="45.9567" lon="4.84997">
        <ele>273</ele>
        <time>2018-06-27T09:39:20Z</time>
      </trkpt>
      <trkpt lat="45.95666" lon="4.84992">
        <ele>272</ele>
        <time>2018-06-27T09:39:21Z</time>
      </trkpt>
      <trkpt lat="45.95661" lon="4.84986">
        <ele>272</ele>
        <time>2018-06-27T09:39:22Z</time>
      </trkpt>
      <trkpt lat="45.95657" lon="4.8498">
        <ele>272</ele>
        <time>2018-06-27T09:39:23Z</time>
      </trkpt>
      <trkpt lat="45.95653" lon="4.84975">
        <ele>271</ele>
        <time>2018-06-27T09:39:24Z</time>
      </trkpt>
      <trkpt lat="45.95648" lon="4.84971">
        <ele>271</ele>
        <time>2018-06-27T09:39:25Z</time>
      </trkpt>
      <trkpt lat="45.95643" lon="4.84966">
        <ele>271</ele>
        <time>2018-06-27T09:39:26Z</time>
      </trkpt>
      <trkpt lat="45.9564" lon="4.84961">
        <ele>271</ele>
        <time>2018-06-27T09:39:27Z</time>
      </trkpt>
      <trkpt lat="45.95634" lon="4.84956">
        <ele>271</ele>
        <time>2018-06-27T09:39:28Z</time>
      </trkpt>
      <trkpt lat="45.95628" lon="4.84951">
        <ele>271</ele>
        <time>2018-06-27T09:39:29Z</time>
      </trkpt>
      <trkpt lat="45.95623" lon="4.84947">
        <ele>271</ele>
        <time>2018-06-27T09:39:30Z</time>
      </trkpt>
      <trkpt lat="45.9562" lon="4.84943">
        <ele>270</ele>
        <time>2018-06-27T09:39:31Z</time>
      </trkpt>
      <trkpt lat="45.95615" lon="4.84938">
        <ele>270</ele>
        <time>2018-06-27T09:39:32Z</time>
      </trkpt>
      <trkpt lat="45.9561" lon="4.84935">
        <ele>270</ele>
        <time>2018-06-27T09:39:33Z</time>
      </trkpt>
      <trkpt lat="45.95604" lon="4.84931">
        <ele>270</ele>
        <time>2018-06-27T09:39:34Z</time>
      </trkpt>
      <trkpt lat="45.95599" lon="4.84927">
        <ele>270</ele>
        <time>2018-06-27T09:39:35Z</time>
      </trkpt>
      <trkpt lat="45.95595" lon="4.84924">
        <ele>270</ele>
        <time>2018-06-27T09:39:36Z</time>
      </trkpt>
      <trkpt lat="45.95589" lon="4.8492">
        <ele>269</ele>
        <time>2018-06-27T09:39:37Z</time>
      </trkpt>
      <trkpt lat="45.95584" lon="4.84917">
        <ele>269</ele>
        <time>2018-06-27T09:39:38Z</time>
      </trkpt>
      <trkpt lat="45.95579" lon="4.84913">
        <ele>269</ele>
        <time>2018-06-27T09:39:39Z</time>
      </trkpt>
      <trkpt lat="45.95574" lon="4.84909">
        <ele>269</ele>
        <time>2018-06-27T09:39:40Z</time>
      </trkpt>
      <trkpt lat="45.95568" lon="4.84906">
        <ele>268</ele>
        <time>2018-06-27T09:39:41Z</time>
      </trkpt>
      <trkpt lat="45.95563" lon="4.84903">
        <ele>268</ele>
        <time>2018-06-27T09:39:42Z</time>
      </trkpt>
      <trkpt lat="45.95558" lon="4.84899">
        <ele>268</ele>
        <time>2018-06-27T09:39:43Z</time>
      </trkpt>
      <trkpt lat="45.95553" lon="4.84895">
        <ele>268</ele>
        <time>2018-06-27T09:39:44Z</time>
      </trkpt>
      <trkpt lat="45.95548" lon="4.84893">
        <ele>268</ele>
        <time>2018-06-27T09:39:45Z</time>
      </trkpt>
      <trkpt lat="45.95543" lon="4.84889">
        <ele>268</ele>
        <time>2018-06-27T09:39:46Z</time>
      </trkpt>
      <trkpt lat="45.95538" lon="4.84884">
        <ele>268</ele>
        <time>2018-06-27T09:39:47Z</time>
      </trkpt>
      <trkpt lat="45.95533" lon="4.8488">
        <ele>268</ele>
        <time>2018-06-27T09:39:48Z</time>
      </trkpt>
      <trkpt lat="45.95528" lon="4.84875">
        <ele>268</ele>
        <time>2018-06-27T09:39:49Z</time>
      </trkpt>
      <trkpt lat="45.95523" lon="4.84869">
        <ele>268</ele>
        <time>2018-06-27T09:39:50Z</time>
      </trkpt>
      <trkpt lat="45.95519" lon="4.84863">
        <ele>268</ele>
        <time>2018-06-27T09:39:51Z</time>
      </trkpt>
      <trkpt lat="45.95514" lon="4.84857">
        <ele>268</ele>
        <time>2018-06-27T09:39:52Z</time>
      </trkpt>
      <trkpt lat="45.95509" lon="4.84851">
        <ele>268</ele>
        <time>2018-06-27T09:39:53Z</time>
      </trkpt>
      <trkpt lat="45.95504" lon="4.84845">
        <ele>267</ele>
        <time>2018-06-27T09:39:54Z</time>
      </trkpt>
      <trkpt lat="45.95499" lon="4.8484">
        <ele>267</ele>
        <time>2018-06-27T09:39:55Z</time>
      </trkpt>
      <trkpt lat="45.95493" lon="4.84834">
        <ele>267</ele>
        <time>2018-06-27T09:39:56Z</time>
      </trkpt>
      <trkpt lat="45.95489" lon="4.84828">
        <ele>267</ele>
        <time>2018-06-27T09:39:57Z</time>
      </trkpt>
      <trkpt lat="45.95484" lon="4.84823">
        <ele>267</ele>
        <time>2018-06-27T09:39:58Z</time>
      </trkpt>
      <trkpt lat="45.95479" lon="4.84817">
        <ele>267</ele>
        <time>2018-06-27T09:39:59Z</time>
      </trkpt>
      <trkpt lat="45.95474" lon="4.84812">
        <ele>267</ele>
        <time>2018-06-27T09:40:00Z</time>
      </trkpt>
      <trkpt lat="45.95469" lon="4.84807">
        <ele>267</ele>
        <time>2018-06-27T09:40:01Z</time>
      </trkpt>
      <trkpt lat="45.95464" lon="4.84801">
        <ele>267</ele>
        <time>2018-06-27T09:40:02Z</time>
      </trkpt>
      <trkpt lat="45.9546" lon="4.84796">
        <ele>267</ele>
        <time>2018-06-27T09:40:03Z</time>
      </trkpt>
      <trkpt lat="45.95455" lon="4.84791">
        <ele>267</ele>
        <time>2018-06-27T09:40:04Z</time>
      </trkpt>
      <trkpt lat="45.95451" lon="4.84786">
        <ele>267</ele>
        <time>2018-06-27T09:40:05Z</time>
      </trkpt>
      <trkpt lat="45.95446" lon="4.8478">
        <ele>267</ele>
        <time>2018-06-27T09:40:06Z</time>
      </trkpt>
      <trkpt lat="45.95441" lon="4.84775">
        <ele>267</ele>
        <time>2018-06-27T09:40:07Z</time>
      </trkpt>
      <trkpt lat="45.95436" lon="4.84769">
        <ele>267</ele>
        <time>2018-06-27T09:40:08Z</time>
      </trkpt>
      <trkpt lat="45.95431" lon="4.84764">
        <ele>267</ele>
        <time>2018-06-27T09:40:09Z</time>
      </trkpt>
      <trkpt lat="45.95424" lon="4.84758">
        <ele>267</ele>
        <time>2018-06-27T09:40:10Z</time>
      </trkpt>
      <trkpt lat="45.95418" lon="4.84752">
        <ele>267</ele>
        <time>2018-06-27T09:40:11Z</time>
      </trkpt>
      <trkpt lat="45.95412" lon="4.84747">
        <ele>267</ele>
        <time>2018-06-27T09:40:12Z</time>
      </trkpt>
      <trkpt lat="45.95407" lon="4.84741">
        <ele>267</ele>
        <time>2018-06-27T09:40:13Z</time>
      </trkpt>
      <trkpt lat="45.95401" lon="4.84736">
        <ele>266</ele>
        <time>2018-06-27T09:40:14Z</time>
      </trkpt>
      <trkpt lat="45.95395" lon="4.8473">
        <ele>266</ele>
        <time>2018-06-27T09:40:15Z</time>
      </trkpt>
      <trkpt lat="45.95389" lon="4.84725">
        <ele>266</ele>
        <time>2018-06-27T09:40:16Z</time>
      </trkpt>
      <trkpt lat="45.95383" lon="4.8472">
        <ele>266</ele>
        <time>2018-06-27T09:40:17Z</time>
      </trkpt>
      <trkpt lat="45.95376" lon="4.84714">
        <ele>266</ele>
        <time>2018-06-27T09:40:18Z</time>
      </trkpt>
      <trkpt lat="45.9537" lon="4.84709">
        <ele>266</ele>
        <time>2018-06-27T09:40:19Z</time>
      </trkpt>
      <trkpt lat="45.95364" lon="4.84704">
        <ele>266</ele>
        <time>2018-06-27T09:40:20Z</time>
      </trkpt>
      <trkpt lat="45.95358" lon="4.847">
        <ele>266</ele>
        <time>2018-06-27T09:40:21Z</time>
      </trkpt>
      <trkpt lat="45.95352" lon="4.84696">
        <ele>266</ele>
        <time>2018-06-27T09:40:22Z</time>
      </trkpt>
      <trkpt lat="45.95345" lon="4.8469">
        <ele>266</ele>
        <time>2018-06-27T09:40:23Z</time>
      </trkpt>
      <trkpt lat="45.95339" lon="4.84685">
        <ele>266</ele>
        <time>2018-06-27T09:40:24Z</time>
      </trkpt>
      <trkpt lat="45.95333" lon="4.8468">
        <ele>265</ele>
        <time>2018-06-27T09:40:25Z</time>
      </trkpt>
      <trkpt lat="45.95328" lon="4.84675">
        <ele>265</ele>
        <time>2018-06-27T09:40:26Z</time>
      </trkpt>
      <trkpt lat="45.95322" lon="4.8467">
        <ele>265</ele>
        <time>2018-06-27T09:40:27Z</time>
      </trkpt>
      <trkpt lat="45.95316" lon="4.84664">
        <ele>265</ele>
        <time>2018-06-27T09:40:28Z</time>
      </trkpt>
      <trkpt lat="45.95311" lon="4.84659">
        <ele>265</ele>
        <time>2018-06-27T09:40:29Z</time>
      </trkpt>
      <trkpt lat="45.95305" lon="4.84653">
        <ele>264</ele>
        <time>2018-06-27T09:40:30Z</time>
      </trkpt>
      <trkpt lat="45.95298" lon="4.84647">
        <ele>264</ele>
        <time>2018-06-27T09:40:31Z</time>
      </trkpt>
      <trkpt lat="45.95292" lon="4.84641">
        <ele>264</ele>
        <time>2018-06-27T09:40:32Z</time>
      </trkpt>
      <trkpt lat="45.95287" lon="4.84636">
        <ele>264</ele>
        <time>2018-06-27T09:40:33Z</time>
      </trkpt>
      <trkpt lat="45.95281" lon="4.8463">
        <ele>264</ele>
        <time>2018-06-27T09:40:34Z</time>
      </trkpt>
      <trkpt lat="45.95276" lon="4.84623">
        <ele>264</ele>
        <time>2018-06-27T09:40:35Z</time>
      </trkpt>
      <trkpt lat="45.9527" lon="4.84617">
        <ele>264</ele>
        <time>2018-06-27T09:40:36Z</time>
      </trkpt>
      <trkpt lat="45.95266" lon="4.84612">
        <ele>264</ele>
        <time>2018-06-27T09:40:37Z</time>
      </trkpt>
      <trkpt lat="45.95261" lon="4.84604">
        <ele>264</ele>
        <time>2018-06-27T09:40:38Z</time>
      </trkpt>
      <trkpt lat="45.95258" lon="4.84598">
        <ele>264</ele>
        <time>2018-06-27T09:40:39Z</time>
      </trkpt>
      <trkpt lat="45.95252" lon="4.84592">
        <ele>264</ele>
        <time>2018-06-27T09:40:40Z</time>
      </trkpt>
      <trkpt lat="45.95247" lon="4.84586">
        <ele>264</ele>
        <time>2018-06-27T09:40:41Z</time>
      </trkpt>
      <trkpt lat="45.95243" lon="4.8458">
        <ele>264</ele>
        <time>2018-06-27T09:40:42Z</time>
      </trkpt>
      <trkpt lat="45.95239" lon="4.84574">
        <ele>264</ele>
        <time>2018-06-27T09:40:43Z</time>
      </trkpt>
      <trkpt lat="45.95234" lon="4.84568">
        <ele>264</ele>
        <time>2018-06-27T09:40:44Z</time>
      </trkpt>
      <trkpt lat="45.95229" lon="4.84563">
        <ele>264</ele>
        <time>2018-06-27T09:40:45Z</time>
      </trkpt>
      <trkpt lat="45.95225" lon="4.84557">
        <ele>264</ele>
        <time>2018-06-27T09:40:46Z</time>
      </trkpt>
      <trkpt lat="45.95219" lon="4.84551">
        <ele>264</ele>
        <time>2018-06-27T09:40:47Z</time>
      </trkpt>
      <trkpt lat="45.95214" lon="4.84544">
        <ele>264</ele>
        <time>2018-06-27T09:40:48Z</time>
      </trkpt>
      <trkpt lat="45.95209" lon="4.84537">
        <ele>265</ele>
        <time>2018-06-27T09:40:49Z</time>
      </trkpt>
      <trkpt lat="45.95203" lon="4.8453">
        <ele>265</ele>
        <time>2018-06-27T09:40:50Z</time>
      </trkpt>
      <trkpt lat="45.95198" lon="4.84524">
        <ele>265</ele>
        <time>2018-06-27T09:40:51Z</time>
      </trkpt>
      <trkpt lat="45.95192" lon="4.84517">
        <ele>265</ele>
        <time>2018-06-27T09:40:52Z</time>
      </trkpt>
      <trkpt lat="45.95187" lon="4.84511">
        <ele>265</ele>
        <time>2018-06-27T09:40:53Z</time>
      </trkpt>
      <trkpt lat="45.95182" lon="4.84503">
        <ele>265</ele>
        <time>2018-06-27T09:40:54Z</time>
      </trkpt>
      <trkpt lat="45.95176" lon="4.84498">
        <ele>266</ele>
        <time>2018-06-27T09:40:55Z</time>
      </trkpt>
      <trkpt lat="45.95171" lon="4.84492">
        <ele>266</ele>
        <time>2018-06-27T09:40:56Z</time>
      </trkpt>
      <trkpt lat="45.95167" lon="4.84487">
        <ele>266</ele>
        <time>2018-06-27T09:40:57Z</time>
      </trkpt>
      <trkpt lat="45.95162" lon="4.8448">
        <ele>266</ele>
        <time>2018-06-27T09:40:58Z</time>
      </trkpt>
      <trkpt lat="45.95157" lon="4.84476">
        <ele>266</ele>
        <time>2018-06-27T09:40:59Z</time>
      </trkpt>
      <trkpt lat="45.95152" lon="4.84471">
        <ele>266</ele>
        <time>2018-06-27T09:41:00Z</time>
      </trkpt>
      <trkpt lat="45.95147" lon="4.84465">
        <ele>266</ele>
        <time>2018-06-27T09:41:01Z</time>
      </trkpt>
      <trkpt lat="45.95143" lon="4.8446">
        <ele>266</ele>
        <time>2018-06-27T09:41:02Z</time>
      </trkpt>
      <trkpt lat="45.95139" lon="4.84455">
        <ele>267</ele>
        <time>2018-06-27T09:41:03Z</time>
      </trkpt>
      <trkpt lat="45.95134" lon="4.8445">
        <ele>267</ele>
        <time>2018-06-27T09:41:04Z</time>
      </trkpt>
      <trkpt lat="45.9513" lon="4.84444">
        <ele>267</ele>
        <time>2018-06-27T09:41:05Z</time>
      </trkpt>
      <trkpt lat="45.95125" lon="4.84439">
        <ele>267</ele>
        <time>2018-06-27T09:41:06Z</time>
      </trkpt>
      <trkpt lat="45.9512" lon="4.84435">
        <ele>267</ele>
        <time>2018-06-27T09:41:07Z</time>
      </trkpt>
      <trkpt lat="45.95114" lon="4.84429">
        <ele>267</ele>
        <time>2018-06-27T09:41:08Z</time>
      </trkpt>
      <trkpt lat="45.95109" lon="4.84424">
        <ele>267</ele>
        <time>2018-06-27T09:41:09Z</time>
      </trkpt>
      <trkpt lat="45.95104" lon="4.84419">
        <ele>267</ele>
        <time>2018-06-27T09:41:10Z</time>
      </trkpt>
      <trkpt lat="45.95099" lon="4.84414">
        <ele>267</ele>
        <time>2018-06-27T09:41:11Z</time>
      </trkpt>
      <trkpt lat="45.95093" lon="4.84409">
        <ele>267</ele>
        <time>2018-06-27T09:41:12Z</time>
      </trkpt>
      <trkpt lat="45.95087" lon="4.84404">
        <ele>267</ele>
        <time>2018-06-27T09:41:13Z</time>
      </trkpt>
      <trkpt lat="45.95081" lon="4.84399">
        <ele>267</ele>
        <time>2018-06-27T09:41:14Z</time>
      </trkpt>
      <trkpt lat="45.95076" lon="4.84393">
        <ele>267</ele>
        <time>2018-06-27T09:41:15Z</time>
      </trkpt>
      <trkpt lat="45.95071" lon="4.84388">
        <ele>267</ele>
        <time>2018-06-27T09:41:16Z</time>
      </trkpt>
      <trkpt lat="45.95067" lon="4.84382">
        <ele>267</ele>
        <time>2018-06-27T09:41:17Z</time>
      </trkpt>
      <trkpt lat="45.95062" lon="4.84376">
        <ele>267</ele>
        <time>2018-06-27T09:41:18Z</time>
      </trkpt>
      <trkpt lat="45.95057" lon="4.84371">
        <ele>267</ele>
        <time>2018-06-27T09:41:19Z</time>
      </trkpt>
      <trkpt lat="45.95053" lon="4.84366">
        <ele>267</ele>
        <time>2018-06-27T09:41:20Z</time>
      </trkpt>
      <trkpt lat="45.95049" lon="4.8436">
        <ele>267</ele>
        <time>2018-06-27T09:41:21Z</time>
      </trkpt>
      <trkpt lat="45.95045" lon="4.84355">
        <ele>267</ele>
        <time>2018-06-27T09:41:22Z</time>
      </trkpt>
      <trkpt lat="45.95042" lon="4.84348">
        <ele>267</ele>
        <time>2018-06-27T09:41:23Z</time>
      </trkpt>
      <trkpt lat="45.95039" lon="4.84342">
        <ele>267</ele>
        <time>2018-06-27T09:41:24Z</time>
      </trkpt>
      <trkpt lat="45.95036" lon="4.84336">
        <ele>267</ele>
        <time>2018-06-27T09:41:25Z</time>
      </trkpt>
      <trkpt lat="45.95032" lon="4.84329">
        <ele>267</ele>
        <time>2018-06-27T09:41:26Z</time>
      </trkpt>
      <trkpt lat="45.95028" lon="4.84323">
        <ele>267</ele>
        <time>2018-06-27T09:41:27Z</time>
      </trkpt>
      <trkpt lat="45.95024" lon="4.84316">
        <ele>267</ele>
        <time>2018-06-27T09:41:28Z</time>
      </trkpt>
      <trkpt lat="45.95021" lon="4.84309">
        <ele>267</ele>
        <time>2018-06-27T09:41:29Z</time>
      </trkpt>
      <trkpt lat="45.95017" lon="4.84302">
        <ele>267</ele>
        <time>2018-06-27T09:41:30Z</time>
      </trkpt>
      <trkpt lat="45.95014" lon="4.84296">
        <ele>267</ele>
        <time>2018-06-27T09:41:31Z</time>
      </trkpt>
      <trkpt lat="45.9501" lon="4.84291">
        <ele>267</ele>
        <time>2018-06-27T09:41:32Z</time>
      </trkpt>
      <trkpt lat="45.95007" lon="4.84285">
        <ele>267</ele>
        <time>2018-06-27T09:41:33Z</time>
      </trkpt>
      <trkpt lat="45.95004" lon="4.84279">
        <ele>267</ele>
        <time>2018-06-27T09:41:34Z</time>
      </trkpt>
      <trkpt lat="45.95001" lon="4.84274">
        <ele>267</ele>
        <time>2018-06-27T09:41:35Z</time>
      </trkpt>
      <trkpt lat="45.94998" lon="4.84268">
        <ele>267</ele>
        <time>2018-06-27T09:41:36Z</time>
      </trkpt>
      <trkpt lat="45.94994" lon="4.84263">
        <ele>267</ele>
        <time>2018-06-27T09:41:37Z</time>
      </trkpt>
      <trkpt lat="45.94992" lon="4.84257">
        <ele>267</ele>
        <time>2018-06-27T09:41:38Z</time>
      </trkpt>
      <trkpt lat="45.94987" lon="4.84251">
        <ele>267</ele>
        <time>2018-06-27T09:41:39Z</time>
      </trkpt>
      <trkpt lat="45.94983" lon="4.84246">
        <ele>267</ele>
        <time>2018-06-27T09:41:40Z</time>
      </trkpt>
      <trkpt lat="45.94979" lon="4.8424">
        <ele>267</ele>
        <time>2018-06-27T09:41:41Z</time>
      </trkpt>
      <trkpt lat="45.94975" lon="4.84233">
        <ele>267</ele>
        <time>2018-06-27T09:41:42Z</time>
      </trkpt>
      <trkpt lat="45.94971" lon="4.84227">
        <ele>267</ele>
        <time>2018-06-27T09:41:43Z</time>
      </trkpt>
      <trkpt lat="45.94966" lon="4.8422">
        <ele>267</ele>
        <time>2018-06-27T09:41:44Z</time>
      </trkpt>
      <trkpt lat="45.94962" lon="4.84214">
        <ele>267</ele>
        <time>2018-06-27T09:41:45Z</time>
      </trkpt>
      <trkpt lat="45.94957" lon="4.84207">
        <ele>267</ele>
        <time>2018-06-27T09:41:46Z</time>
      </trkpt>
      <trkpt lat="45.94955" lon="4.842">
        <ele>267</ele>
        <time>2018-06-27T09:41:47Z</time>
      </trkpt>
      <trkpt lat="45.94951" lon="4.84193">
        <ele>267</ele>
        <time>2018-06-27T09:41:48Z</time>
      </trkpt>
      <trkpt lat="45.94947" lon="4.84186">
        <ele>267</ele>
        <time>2018-06-27T09:41:49Z</time>
      </trkpt>
      <trkpt lat="45.94941" lon="4.84179">
        <ele>267</ele>
        <time>2018-06-27T09:41:50Z</time>
      </trkpt>
      <trkpt lat="45.94936" lon="4.84172">
        <ele>267</ele>
        <time>2018-06-27T09:41:51Z</time>
      </trkpt>
      <trkpt lat="45.94931" lon="4.84166">
        <ele>268</ele>
        <time>2018-06-27T09:41:52Z</time>
      </trkpt>
      <trkpt lat="45.94926" lon="4.84159">
        <ele>268</ele>
        <time>2018-06-27T09:41:53Z</time>
      </trkpt>
      <trkpt lat="45.94921" lon="4.84152">
        <ele>268</ele>
        <time>2018-06-27T09:41:54Z</time>
      </trkpt>
      <trkpt lat="45.94917" lon="4.84144">
        <ele>268</ele>
        <time>2018-06-27T09:41:55Z</time>
      </trkpt>
      <trkpt lat="45.94914" lon="4.84136">
        <ele>268</ele>
        <time>2018-06-27T09:41:56Z</time>
      </trkpt>
      <trkpt lat="45.94909" lon="4.84129">
        <ele>268</ele>
        <time>2018-06-27T09:41:57Z</time>
      </trkpt>
      <trkpt lat="45.94906" lon="4.84121">
        <ele>267</ele>
        <time>2018-06-27T09:41:58Z</time>
      </trkpt>
      <trkpt lat="45.94901" lon="4.84114">
        <ele>267</ele>
        <time>2018-06-27T09:41:59Z</time>
      </trkpt>
      <trkpt lat="45.94897" lon="4.84107">
        <ele>267</ele>
        <time>2018-06-27T09:42:00Z</time>
      </trkpt>
      <trkpt lat="45.94894" lon="4.841">
        <ele>267</ele>
        <time>2018-06-27T09:42:01Z</time>
      </trkpt>
      <trkpt lat="45.94891" lon="4.84092">
        <ele>267</ele>
        <time>2018-06-27T09:42:02Z</time>
      </trkpt>
      <trkpt lat="45.94888" lon="4.84085">
        <ele>267</ele>
        <time>2018-06-27T09:42:03Z</time>
      </trkpt>
      <trkpt lat="45.9489" lon="4.84077">
        <ele>267</ele>
        <time>2018-06-27T09:42:04Z</time>
      </trkpt>
      <trkpt lat="45.94886" lon="4.8407">
        <ele>267</ele>
        <time>2018-06-27T09:42:05Z</time>
      </trkpt>
      <trkpt lat="45.9488" lon="4.84061">
        <ele>267</ele>
        <time>2018-06-27T09:42:06Z</time>
      </trkpt>
      <trkpt lat="45.94876" lon="4.84052">
        <ele>267</ele>
        <time>2018-06-27T09:42:07Z</time>
      </trkpt>
      <trkpt lat="45.94873" lon="4.84044">
        <ele>267</ele>
        <time>2018-06-27T09:42:08Z</time>
      </trkpt>
      <trkpt lat="45.94869" lon="4.84035">
        <ele>266</ele>
        <time>2018-06-27T09:42:09Z</time>
      </trkpt>
      <trkpt lat="45.94866" lon="4.84027">
        <ele>266</ele>
        <time>2018-06-27T09:42:10Z</time>
      </trkpt>
      <trkpt lat="45.94863" lon="4.84019">
        <ele>266</ele>
        <time>2018-06-27T09:42:11Z</time>
      </trkpt>
      <trkpt lat="45.9486" lon="4.8401">
        <ele>266</ele>
        <time>2018-06-27T09:42:12Z</time>
      </trkpt>
      <trkpt lat="45.94857" lon="4.84002">
        <ele>266</ele>
        <time>2018-06-27T09:42:13Z</time>
      </trkpt>
      <trkpt lat="45.94854" lon="4.83994">
        <ele>265</ele>
        <time>2018-06-27T09:42:14Z</time>
      </trkpt>
      <trkpt lat="45.9485" lon="4.83986">
        <ele>265</ele>
        <time>2018-06-27T09:42:15Z</time>
      </trkpt>
      <trkpt lat="45.94847" lon="4.83978">
        <ele>265</ele>
        <time>2018-06-27T09:42:16Z</time>
      </trkpt>
      <trkpt lat="45.94845" lon="4.83971">
        <ele>265</ele>
        <time>2018-06-27T09:42:17Z</time>
      </trkpt>
      <trkpt lat="45.94842" lon="4.83964">
        <ele>265</ele>
        <time>2018-06-27T09:42:18Z</time>
      </trkpt>
      <trkpt lat="45.9484" lon="4.83958">
        <ele>265</ele>
        <time>2018-06-27T09:42:19Z</time>
      </trkpt>
      <trkpt lat="45.94836" lon="4.8395">
        <ele>265</ele>
        <time>2018-06-27T09:42:20Z</time>
      </trkpt>
      <trkpt lat="45.94833" lon="4.83943">
        <ele>266</ele>
        <time>2018-06-27T09:42:21Z</time>
      </trkpt>
      <trkpt lat="45.94829" lon="4.83935">
        <ele>266</ele>
        <time>2018-06-27T09:42:22Z</time>
      </trkpt>
      <trkpt lat="45.94825" lon="4.83928">
        <ele>266</ele>
        <time>2018-06-27T09:42:23Z</time>
      </trkpt>
      <trkpt lat="45.94821" lon="4.8392">
        <ele>266</ele>
        <time>2018-06-27T09:42:24Z</time>
      </trkpt>
      <trkpt lat="45.94817" lon="4.83913">
        <ele>265</ele>
        <time>2018-06-27T09:42:25Z</time>
      </trkpt>
      <trkpt lat="45.94813" lon="4.83905">
        <ele>265</ele>
        <time>2018-06-27T09:42:26Z</time>
      </trkpt>
      <trkpt lat="45.94808" lon="4.83898">
        <ele>265</ele>
        <time>2018-06-27T09:42:27Z</time>
      </trkpt>
      <trkpt lat="45.94804" lon="4.83891">
        <ele>265</ele>
        <time>2018-06-27T09:42:28Z</time>
      </trkpt>
      <trkpt lat="45.948" lon="4.83884">
        <ele>265</ele>
        <time>2018-06-27T09:42:29Z</time>
      </trkpt>
      <trkpt lat="45.94797" lon="4.83877">
        <ele>265</ele>
        <time>2018-06-27T09:42:30Z</time>
      </trkpt>
      <trkpt lat="45.94793" lon="4.8387">
        <ele>265</ele>
        <time>2018-06-27T09:42:31Z</time>
      </trkpt>
      <trkpt lat="45.94788" lon="4.83863">
        <ele>265</ele>
        <time>2018-06-27T09:42:32Z</time>
      </trkpt>
      <trkpt lat="45.94784" lon="4.83856">
        <ele>265</ele>
        <time>2018-06-27T09:42:33Z</time>
      </trkpt>
      <trkpt lat="45.9478" lon="4.83849">
        <ele>265</ele>
        <time>2018-06-27T09:42:34Z</time>
      </trkpt>
      <trkpt lat="45.94776" lon="4.83843">
        <ele>265</ele>
        <time>2018-06-27T09:42:35Z</time>
      </trkpt>
      <trkpt lat="45.94771" lon="4.83837">
        <ele>265</ele>
        <time>2018-06-27T09:42:36Z</time>
      </trkpt>
      <trkpt lat="45.94766" lon="4.8383">
        <ele>264</ele>
        <time>2018-06-27T09:42:37Z</time>
      </trkpt>
      <trkpt lat="45.94761" lon="4.83824">
        <ele>264</ele>
        <time>2018-06-27T09:42:38Z</time>
      </trkpt>
      <trkpt lat="45.94755" lon="4.83817">
        <ele>264</ele>
        <time>2018-06-27T09:42:39Z</time>
      </trkpt>
      <trkpt lat="45.94751" lon="4.83811">
        <ele>264</ele>
        <time>2018-06-27T09:42:40Z</time>
      </trkpt>
      <trkpt lat="45.94746" lon="4.83804">
        <ele>264</ele>
        <time>2018-06-27T09:42:41Z</time>
      </trkpt>
      <trkpt lat="45.9474" lon="4.83798">
        <ele>264</ele>
        <time>2018-06-27T09:42:42Z</time>
      </trkpt>
      <trkpt lat="45.94734" lon="4.83791">
        <ele>263</ele>
        <time>2018-06-27T09:42:43Z</time>
      </trkpt>
      <trkpt lat="45.94728" lon="4.83784">
        <ele>263</ele>
        <time>2018-06-27T09:42:44Z</time>
      </trkpt>
      <trkpt lat="45.94722" lon="4.83778">
        <ele>263</ele>
        <time>2018-06-27T09:42:45Z</time>
      </trkpt>
      <trkpt lat="45.94715" lon="4.83771">
        <ele>263</ele>
        <time>2018-06-27T09:42:46Z</time>
      </trkpt>
      <trkpt lat="45.94709" lon="4.83764">
        <ele>263</ele>
        <time>2018-06-27T09:42:47Z</time>
      </trkpt>
      <trkpt lat="45.94702" lon="4.83757">
        <ele>263</ele>
        <time>2018-06-27T09:42:48Z</time>
      </trkpt>
      <trkpt lat="45.94696" lon="4.83749">
        <ele>262</ele>
        <time>2018-06-27T09:42:49Z</time>
      </trkpt>
      <trkpt lat="45.9469" lon="4.83741">
        <ele>262</ele>
        <time>2018-06-27T09:42:50Z</time>
      </trkpt>
      <trkpt lat="45.94683" lon="4.83734">
        <ele>262</ele>
        <time>2018-06-27T09:42:51Z</time>
      </trkpt>
      <trkpt lat="45.94676" lon="4.83727">
        <ele>261</ele>
        <time>2018-06-27T09:42:52Z</time>
      </trkpt>
      <trkpt lat="45.94669" lon="4.8372">
        <ele>261</ele>
        <time>2018-06-27T09:42:53Z</time>
      </trkpt>
      <trkpt lat="45.94663" lon="4.83713">
        <ele>261</ele>
        <time>2018-06-27T09:42:54Z</time>
      </trkpt>
      <trkpt lat="45.94656" lon="4.83706">
        <ele>261</ele>
        <time>2018-06-27T09:42:55Z</time>
      </trkpt>
      <trkpt lat="45.9465" lon="4.83699">
        <ele>261</ele>
        <time>2018-06-27T09:42:56Z</time>
      </trkpt>
      <trkpt lat="45.94643" lon="4.83693">
        <ele>261</ele>
        <time>2018-06-27T09:42:57Z</time>
      </trkpt>
      <trkpt lat="45.94637" lon="4.83687">
        <ele>261</ele>
        <time>2018-06-27T09:42:58Z</time>
      </trkpt>
      <trkpt lat="45.9463" lon="4.83681">
        <ele>261</ele>
        <time>2018-06-27T09:42:59Z</time>
      </trkpt>
      <trkpt lat="45.94624" lon="4.83675">
        <ele>261</ele>
        <time>2018-06-27T09:43:00Z</time>
      </trkpt>
      <trkpt lat="45.94618" lon="4.83669">
        <ele>261</ele>
        <time>2018-06-27T09:43:01Z</time>
      </trkpt>
      <trkpt lat="45.94612" lon="4.83664">
        <ele>260</ele>
        <time>2018-06-27T09:43:02Z</time>
      </trkpt>
      <trkpt lat="45.94606" lon="4.83659">
        <ele>260</ele>
        <time>2018-06-27T09:43:03Z</time>
      </trkpt>
      <trkpt lat="45.94601" lon="4.83653">
        <ele>260</ele>
        <time>2018-06-27T09:43:04Z</time>
      </trkpt>
      <trkpt lat="45.94595" lon="4.83648">
        <ele>260</ele>
        <time>2018-06-27T09:43:05Z</time>
      </trkpt>
      <trkpt lat="45.94589" lon="4.83643">
        <ele>260</ele>
        <time>2018-06-27T09:43:06Z</time>
      </trkpt>
      <trkpt lat="45.94585" lon="4.83638">
        <ele>260</ele>
        <time>2018-06-27T09:43:07Z</time>
      </trkpt>
      <trkpt lat="45.9458" lon="4.83633">
        <ele>261</ele>
        <time>2018-06-27T09:43:08Z</time>
      </trkpt>
      <trkpt lat="45.94575" lon="4.83629">
        <ele>261</ele>
        <time>2018-06-27T09:43:09Z</time>
      </trkpt>
      <trkpt lat="45.9457" lon="4.83625">
        <ele>261</ele>
        <time>2018-06-27T09:43:10Z</time>
      </trkpt>
      <trkpt lat="45.94565" lon="4.8362">
        <ele>261</ele>
        <time>2018-06-27T09:43:11Z</time>
      </trkpt>
      <trkpt lat="45.94559" lon="4.83615">
        <ele>261</ele>
        <time>2018-06-27T09:43:12Z</time>
      </trkpt>
      <trkpt lat="45.94554" lon="4.83609">
        <ele>261</ele>
        <time>2018-06-27T09:43:13Z</time>
      </trkpt>
      <trkpt lat="45.94549" lon="4.83603">
        <ele>261</ele>
        <time>2018-06-27T09:43:14Z</time>
      </trkpt>
      <trkpt lat="45.94545" lon="4.83597">
        <ele>261</ele>
        <time>2018-06-27T09:43:15Z</time>
      </trkpt>
      <trkpt lat="45.94541" lon="4.83592">
        <ele>261</ele>
        <time>2018-06-27T09:43:16Z</time>
      </trkpt>
      <trkpt lat="45.94537" lon="4.83586">
        <ele>261</ele>
        <time>2018-06-27T09:43:17Z</time>
      </trkpt>
      <trkpt lat="45.94533" lon="4.83582">
        <ele>261</ele>
        <time>2018-06-27T09:43:18Z</time>
      </trkpt>
      <trkpt lat="45.94529" lon="4.83577">
        <ele>261</ele>
        <time>2018-06-27T09:43:19Z</time>
      </trkpt>
      <trkpt lat="45.94523" lon="4.83569">
        <ele>261</ele>
        <time>2018-06-27T09:43:21Z</time>
      </trkpt>
      <trkpt lat="45.9452" lon="4.83564">
        <ele>261</ele>
        <time>2018-06-27T09:43:22Z</time>
      </trkpt>
      <trkpt lat="45.94517" lon="4.83558">
        <ele>261</ele>
        <time>2018-06-27T09:43:23Z</time>
      </trkpt>
      <trkpt lat="45.94513" lon="4.83552">
        <ele>261</ele>
        <time>2018-06-27T09:43:24Z</time>
      </trkpt>
      <trkpt lat="45.9451" lon="4.83545">
        <ele>261</ele>
        <time>2018-06-27T09:43:25Z</time>
      </trkpt>
      <trkpt lat="45.94507" lon="4.83539">
        <ele>262</ele>
        <time>2018-06-27T09:43:26Z</time>
      </trkpt>
      <trkpt lat="45.94503" lon="4.83532">
        <ele>262</ele>
        <time>2018-06-27T09:43:27Z</time>
      </trkpt>
      <trkpt lat="45.94499" lon="4.83525">
        <ele>262</ele>
        <time>2018-06-27T09:43:28Z</time>
      </trkpt>
      <trkpt lat="45.94496" lon="4.83519">
        <ele>262</ele>
        <time>2018-06-27T09:43:29Z</time>
      </trkpt>
      <trkpt lat="45.94492" lon="4.83511">
        <ele>262</ele>
        <time>2018-06-27T09:43:30Z</time>
      </trkpt>
      <trkpt lat="45.94488" lon="4.83505">
        <ele>262</ele>
        <time>2018-06-27T09:43:31Z</time>
      </trkpt>
      <trkpt lat="45.94483" lon="4.83498">
        <ele>263</ele>
        <time>2018-06-27T09:43:32Z</time>
      </trkpt>
      <trkpt lat="45.94479" lon="4.8349">
        <ele>263</ele>
        <time>2018-06-27T09:43:33Z</time>
      </trkpt>
      <trkpt lat="45.94476" lon="4.83483">
        <ele>263</ele>
        <time>2018-06-27T09:43:34Z</time>
      </trkpt>
      <trkpt lat="45.94472" lon="4.83476">
        <ele>263</ele>
        <time>2018-06-27T09:43:35Z</time>
      </trkpt>
      <trkpt lat="45.94468" lon="4.8347">
        <ele>263</ele>
        <time>2018-06-27T09:43:36Z</time>
      </trkpt>
      <trkpt lat="45.94464" lon="4.83463">
        <ele>263</ele>
        <time>2018-06-27T09:43:37Z</time>
      </trkpt>
      <trkpt lat="45.9446" lon="4.83456">
        <ele>263</ele>
        <time>2018-06-27T09:43:38Z</time>
      </trkpt>
      <trkpt lat="45.94457" lon="4.8345">
        <ele>263</ele>
        <time>2018-06-27T09:43:39Z</time>
      </trkpt>
      <trkpt lat="45.94454" lon="4.83444">
        <ele>263</ele>
        <time>2018-06-27T09:43:40Z</time>
      </trkpt>
      <trkpt lat="45.94451" lon="4.83438">
        <ele>263</ele>
        <time>2018-06-27T09:43:41Z</time>
      </trkpt>
      <trkpt lat="45.94448" lon="4.83432">
        <ele>263</ele>
        <time>2018-06-27T09:43:42Z</time>
      </trkpt>
      <trkpt lat="45.94445" lon="4.83425">
        <ele>264</ele>
        <time>2018-06-27T09:43:43Z</time>
      </trkpt>
      <trkpt lat="45.94442" lon="4.83418">
        <ele>264</ele>
        <time>2018-06-27T09:43:44Z</time>
      </trkpt>
      <trkpt lat="45.94437" lon="4.83411">
        <ele>264</ele>
        <time>2018-06-27T09:43:45Z</time>
      </trkpt>
      <trkpt lat="45.94434" lon="4.83405">
        <ele>264</ele>
        <time>2018-06-27T09:43:46Z</time>
      </trkpt>
      <trkpt lat="45.94431" lon="4.83398">
        <ele>264</ele>
        <time>2018-06-27T09:43:47Z</time>
      </trkpt>
      <trkpt lat="45.94428" lon="4.83392">
        <ele>264</ele>
        <time>2018-06-27T09:43:48Z</time>
      </trkpt>
      <trkpt lat="45.94425" lon="4.83385">
        <ele>264</ele>
        <time>2018-06-27T09:43:49Z</time>
      </trkpt>
      <trkpt lat="45.94422" lon="4.83379">
        <ele>264</ele>
        <time>2018-06-27T09:43:50Z</time>
      </trkpt>
      <trkpt lat="45.94418" lon="4.83372">
        <ele>264</ele>
        <time>2018-06-27T09:43:51Z</time>
      </trkpt>
      <trkpt lat="45.94415" lon="4.83365">
        <ele>264</ele>
        <time>2018-06-27T09:43:52Z</time>
      </trkpt>
      <trkpt lat="45.94412" lon="4.83357">
        <ele>263</ele>
        <time>2018-06-27T09:43:53Z</time>
      </trkpt>
      <trkpt lat="45.94409" lon="4.8335">
        <ele>263</ele>
        <time>2018-06-27T09:43:54Z</time>
      </trkpt>
      <trkpt lat="45.94406" lon="4.83342">
        <ele>263</ele>
        <time>2018-06-27T09:43:55Z</time>
      </trkpt>
      <trkpt lat="45.94402" lon="4.83335">
        <ele>263</ele>
        <time>2018-06-27T09:43:56Z</time>
      </trkpt>
      <trkpt lat="45.944" lon="4.83327">
        <ele>264</ele>
        <time>2018-06-27T09:43:57Z</time>
      </trkpt>
      <trkpt lat="45.94397" lon="4.83319">
        <ele>264</ele>
        <time>2018-06-27T09:43:58Z</time>
      </trkpt>
      <trkpt lat="45.94394" lon="4.83311">
        <ele>264</ele>
        <time>2018-06-27T09:43:59Z</time>
      </trkpt>
      <trkpt lat="45.94392" lon="4.83303">
        <ele>264</ele>
        <time>2018-06-27T09:44:00Z</time>
      </trkpt>
      <trkpt lat="45.94389" lon="4.83295">
        <ele>264</ele>
        <time>2018-06-27T09:44:01Z</time>
      </trkpt>
      <trkpt lat="45.94386" lon="4.83287">
        <ele>264</ele>
        <time>2018-06-27T09:44:02Z</time>
      </trkpt>
      <trkpt lat="45.94384" lon="4.83279">
        <ele>264</ele>
        <time>2018-06-27T09:44:03Z</time>
      </trkpt>
      <trkpt lat="45.94381" lon="4.83271">
        <ele>264</ele>
        <time>2018-06-27T09:44:04Z</time>
      </trkpt>
      <trkpt lat="45.94377" lon="4.83263">
        <ele>264</ele>
        <time>2018-06-27T09:44:05Z</time>
      </trkpt>
      <trkpt lat="45.94374" lon="4.83255">
        <ele>265</ele>
        <time>2018-06-27T09:44:06Z</time>
      </trkpt>
      <trkpt lat="45.94371" lon="4.83249">
        <ele>265</ele>
        <time>2018-06-27T09:44:07Z</time>
      </trkpt>
      <trkpt lat="45.9437" lon="4.83243">
        <ele>265</ele>
        <time>2018-06-27T09:44:08Z</time>
      </trkpt>
      <trkpt lat="45.94368" lon="4.83236">
        <ele>266</ele>
        <time>2018-06-27T09:44:09Z</time>
      </trkpt>
      <trkpt lat="45.94366" lon="4.8323">
        <ele>266</ele>
        <time>2018-06-27T09:44:10Z</time>
      </trkpt>
      <trkpt lat="45.94364" lon="4.83224">
        <ele>266</ele>
        <time>2018-06-27T09:44:11Z</time>
      </trkpt>
      <trkpt lat="45.94362" lon="4.83217">
        <ele>266</ele>
        <time>2018-06-27T09:44:12Z</time>
      </trkpt>
      <trkpt lat="45.9436" lon="4.83211">
        <ele>266</ele>
        <time>2018-06-27T09:44:13Z</time>
      </trkpt>
      <trkpt lat="45.94357" lon="4.83204">
        <ele>266</ele>
        <time>2018-06-27T09:44:14Z</time>
      </trkpt>
      <trkpt lat="45.94355" lon="4.83198">
        <ele>266</ele>
        <time>2018-06-27T09:44:15Z</time>
      </trkpt>
      <trkpt lat="45.94353" lon="4.83191">
        <ele>266</ele>
        <time>2018-06-27T09:44:16Z</time>
      </trkpt>
      <trkpt lat="45.9435" lon="4.83185">
        <ele>266</ele>
        <time>2018-06-27T09:44:17Z</time>
      </trkpt>
      <trkpt lat="45.94348" lon="4.83178">
        <ele>266</ele>
        <time>2018-06-27T09:44:18Z</time>
      </trkpt>
      <trkpt lat="45.94346" lon="4.83171">
        <ele>266</ele>
        <time>2018-06-27T09:44:19Z</time>
      </trkpt>
      <trkpt lat="45.94343" lon="4.83163">
        <ele>266</ele>
        <time>2018-06-27T09:44:20Z</time>
      </trkpt>
      <trkpt lat="45.94341" lon="4.83156">
        <ele>266</ele>
        <time>2018-06-27T09:44:21Z</time>
      </trkpt>
      <trkpt lat="45.94338" lon="4.83149">
        <ele>266</ele>
        <time>2018-06-27T09:44:22Z</time>
      </trkpt>
      <trkpt lat="45.94336" lon="4.83143">
        <ele>266</ele>
        <time>2018-06-27T09:44:23Z</time>
      </trkpt>
      <trkpt lat="45.94333" lon="4.83137">
        <ele>266</ele>
        <time>2018-06-27T09:44:24Z</time>
      </trkpt>
      <trkpt lat="45.9433" lon="4.83131">
        <ele>266</ele>
        <time>2018-06-27T09:44:25Z</time>
      </trkpt>
      <trkpt lat="45.94329" lon="4.83125">
        <ele>266</ele>
        <time>2018-06-27T09:44:26Z</time>
      </trkpt>
      <trkpt lat="45.94327" lon="4.83119">
        <ele>266</ele>
        <time>2018-06-27T09:44:27Z</time>
      </trkpt>
      <trkpt lat="45.94325" lon="4.83112">
        <ele>266</ele>
        <time>2018-06-27T09:44:28Z</time>
      </trkpt>
      <trkpt lat="45.94325" lon="4.83106">
        <ele>266</ele>
        <time>2018-06-27T09:44:29Z</time>
      </trkpt>
      <trkpt lat="45.94322" lon="4.831">
        <ele>266</ele>
        <time>2018-06-27T09:44:30Z</time>
      </trkpt>
      <trkpt lat="45.9432" lon="4.83092">
        <ele>266</ele>
        <time>2018-06-27T09:44:31Z</time>
      </trkpt>
      <trkpt lat="45.94318" lon="4.83084">
        <ele>266</ele>
        <time>2018-06-27T09:44:32Z</time>
      </trkpt>
      <trkpt lat="45.94315" lon="4.83077">
        <ele>266</ele>
        <time>2018-06-27T09:44:33Z</time>
      </trkpt>
      <trkpt lat="45.94313" lon="4.8307">
        <ele>266</ele>
        <time>2018-06-27T09:44:34Z</time>
      </trkpt>
      <trkpt lat="45.9431" lon="4.83063">
        <ele>266</ele>
        <time>2018-06-27T09:44:35Z</time>
      </trkpt>
      <trkpt lat="45.94308" lon="4.83056">
        <ele>266</ele>
        <time>2018-06-27T09:44:36Z</time>
      </trkpt>
      <trkpt lat="45.94306" lon="4.83049">
        <ele>266</ele>
        <time>2018-06-27T09:44:37Z</time>
      </trkpt>
      <trkpt lat="45.94305" lon="4.83042">
        <ele>266</ele>
        <time>2018-06-27T09:44:38Z</time>
      </trkpt>
      <trkpt lat="45.94303" lon="4.83036">
        <ele>266</ele>
        <time>2018-06-27T09:44:39Z</time>
      </trkpt>
      <trkpt lat="45.943" lon="4.83029">
        <ele>266</ele>
        <time>2018-06-27T09:44:40Z</time>
      </trkpt>
      <trkpt lat="45.94299" lon="4.83022">
        <ele>266</ele>
        <time>2018-06-27T09:44:41Z</time>
      </trkpt>
      <trkpt lat="45.94297" lon="4.83015">
        <ele>266</ele>
        <time>2018-06-27T09:44:42Z</time>
      </trkpt>
      <trkpt lat="45.94296" lon="4.83007">
        <ele>266</ele>
        <time>2018-06-27T09:44:43Z</time>
      </trkpt>
      <trkpt lat="45.94295" lon="4.82999">
        <ele>265</ele>
        <time>2018-06-27T09:44:44Z</time>
      </trkpt>
      <trkpt lat="45.94293" lon="4.82992">
        <ele>265</ele>
        <time>2018-06-27T09:44:45Z</time>
      </trkpt>
      <trkpt lat="45.94292" lon="4.82985">
        <ele>265</ele>
        <time>2018-06-27T09:44:46Z</time>
      </trkpt>
      <trkpt lat="45.9429" lon="4.82978">
        <ele>265</ele>
        <time>2018-06-27T09:44:47Z</time>
      </trkpt>
      <trkpt lat="45.94287" lon="4.82972">
        <ele>265</ele>
        <time>2018-06-27T09:44:48Z</time>
      </trkpt>
      <trkpt lat="45.94285" lon="4.82966">
        <ele>265</ele>
        <time>2018-06-27T09:44:49Z</time>
      </trkpt>
      <trkpt lat="45.94284" lon="4.82959">
        <ele>265</ele>
        <time>2018-06-27T09:44:50Z</time>
      </trkpt>
      <trkpt lat="45.94285" lon="4.82952">
        <ele>265</ele>
        <time>2018-06-27T09:44:51Z</time>
      </trkpt>
      <trkpt lat="45.94283" lon="4.82945">
        <ele>265</ele>
        <time>2018-06-27T09:44:52Z</time>
      </trkpt>
      <trkpt lat="45.94287" lon="4.82937">
        <ele>265</ele>
        <time>2018-06-27T09:44:53Z</time>
      </trkpt>
      <trkpt lat="45.94287" lon="4.82929">
        <ele>265</ele>
        <time>2018-06-27T09:44:54Z</time>
      </trkpt>
      <trkpt lat="45.94288" lon="4.8292">
        <ele>265</ele>
        <time>2018-06-27T09:44:55Z</time>
      </trkpt>
      <trkpt lat="45.94288" lon="4.82912">
        <ele>265</ele>
        <time>2018-06-27T09:44:56Z</time>
      </trkpt>
      <trkpt lat="45.94288" lon="4.82904">
        <ele>265</ele>
        <time>2018-06-27T09:44:57Z</time>
      </trkpt>
      <trkpt lat="45.94289" lon="4.82896">
        <ele>265</ele>
        <time>2018-06-27T09:44:58Z</time>
      </trkpt>
      <trkpt lat="45.9429" lon="4.82888">
        <ele>265</ele>
        <time>2018-06-27T09:44:59Z</time>
      </trkpt>
      <trkpt lat="45.9429" lon="4.8288">
        <ele>265</ele>
        <time>2018-06-27T09:45:00Z</time>
      </trkpt>
      <trkpt lat="45.9429" lon="4.82872">
        <ele>265</ele>
        <time>2018-06-27T09:45:01Z</time>
      </trkpt>
      <trkpt lat="45.94291" lon="4.82864">
        <ele>265</ele>
        <time>2018-06-27T09:45:02Z</time>
      </trkpt>
      <trkpt lat="45.94291" lon="4.82856">
        <ele>265</ele>
        <time>2018-06-27T09:45:03Z</time>
      </trkpt>
      <trkpt lat="45.94291" lon="4.82848">
        <ele>265</ele>
        <time>2018-06-27T09:45:04Z</time>
      </trkpt>
      <trkpt lat="45.94291" lon="4.8284">
        <ele>265</ele>
        <time>2018-06-27T09:45:05Z</time>
      </trkpt>
      <trkpt lat="45.94291" lon="4.82833">
        <ele>265</ele>
        <time>2018-06-27T09:45:06Z</time>
      </trkpt>
      <trkpt lat="45.94293" lon="4.82826">
        <ele>265</ele>
        <time>2018-06-27T09:45:07Z</time>
      </trkpt>
      <trkpt lat="45.94294" lon="4.82819">
        <ele>265</ele>
        <time>2018-06-27T09:45:08Z</time>
      </trkpt>
      <trkpt lat="45.94294" lon="4.8281">
        <ele>265</ele>
        <time>2018-06-27T09:45:09Z</time>
      </trkpt>
      <trkpt lat="45.94294" lon="4.82801">
        <ele>265</ele>
        <time>2018-06-27T09:45:10Z</time>
      </trkpt>
      <trkpt lat="45.94293" lon="4.82793">
        <ele>265</ele>
        <time>2018-06-27T09:45:11Z</time>
      </trkpt>
      <trkpt lat="45.94294" lon="4.82785">
        <ele>265</ele>
        <time>2018-06-27T09:45:12Z</time>
      </trkpt>
      <trkpt lat="45.94294" lon="4.82776">
        <ele>265</ele>
        <time>2018-06-27T09:45:13Z</time>
      </trkpt>
      <trkpt lat="45.94295" lon="4.82767">
        <ele>265</ele>
        <time>2018-06-27T09:45:14Z</time>
      </trkpt>
      <trkpt lat="45.94295" lon="4.82757">
        <ele>265</ele>
        <time>2018-06-27T09:45:15Z</time>
      </trkpt>
      <trkpt lat="45.94295" lon="4.82747">
        <ele>265</ele>
        <time>2018-06-27T09:45:16Z</time>
      </trkpt>
      <trkpt lat="45.94296" lon="4.82737">
        <ele>265</ele>
        <time>2018-06-27T09:45:17Z</time>
      </trkpt>
      <trkpt lat="45.94297" lon="4.82728">
        <ele>265</ele>
        <time>2018-06-27T09:45:18Z</time>
      </trkpt>
      <trkpt lat="45.94296" lon="4.82718">
        <ele>265</ele>
        <time>2018-06-27T09:45:19Z</time>
      </trkpt>
      <trkpt lat="45.94296" lon="4.8271">
        <ele>265</ele>
        <time>2018-06-27T09:45:20Z</time>
      </trkpt>
      <trkpt lat="45.94296" lon="4.82701">
        <ele>265</ele>
        <time>2018-06-27T09:45:21Z</time>
      </trkpt>
      <trkpt lat="45.94294" lon="4.82692">
        <ele>265</ele>
        <time>2018-06-27T09:45:22Z</time>
      </trkpt>
      <trkpt lat="45.94294" lon="4.82684">
        <ele>265</ele>
        <time>2018-06-27T09:45:23Z</time>
      </trkpt>
      <trkpt lat="45.94294" lon="4.82675">
        <ele>265</ele>
        <time>2018-06-27T09:45:24Z</time>
      </trkpt>
      <trkpt lat="45.94294" lon="4.82667">
        <ele>265</ele>
        <time>2018-06-27T09:45:25Z</time>
      </trkpt>
      <trkpt lat="45.94297" lon="4.82659">
        <ele>265</ele>
        <time>2018-06-27T09:45:26Z</time>
      </trkpt>
      <trkpt lat="45.94296" lon="4.82649">
        <ele>265</ele>
        <time>2018-06-27T09:45:27Z</time>
      </trkpt>
      <trkpt lat="45.94296" lon="4.82641">
        <ele>265</ele>
        <time>2018-06-27T09:45:28Z</time>
      </trkpt>
      <trkpt lat="45.94299" lon="4.82632">
        <ele>265</ele>
        <time>2018-06-27T09:45:29Z</time>
      </trkpt>
      <trkpt lat="45.943" lon="4.82624">
        <ele>265</ele>
        <time>2018-06-27T09:45:30Z</time>
      </trkpt>
      <trkpt lat="45.94298" lon="4.82616">
        <ele>265</ele>
        <time>2018-06-27T09:45:31Z</time>
      </trkpt>
      <trkpt lat="45.94298" lon="4.82607">
        <ele>265</ele>
        <time>2018-06-27T09:45:32Z</time>
      </trkpt>
      <trkpt lat="45.94296" lon="4.82597">
        <ele>265</ele>
        <time>2018-06-27T09:45:33Z</time>
      </trkpt>
      <trkpt lat="45.94295" lon="4.82588">
        <ele>265</ele>
        <time>2018-06-27T09:45:34Z</time>
      </trkpt>
      <trkpt lat="45.94296" lon="4.82579">
        <ele>264</ele>
        <time>2018-06-27T09:45:35Z</time>
      </trkpt>
      <trkpt lat="45.94298" lon="4.82571">
        <ele>264</ele>
        <time>2018-06-27T09:45:36Z</time>
      </trkpt>
      <trkpt lat="45.94299" lon="4.82562">
        <ele>264</ele>
        <time>2018-06-27T09:45:37Z</time>
      </trkpt>
      <trkpt lat="45.943" lon="4.82552">
        <ele>264</ele>
        <time>2018-06-27T09:45:38Z</time>
      </trkpt>
      <trkpt lat="45.94301" lon="4.82542">
        <ele>264</ele>
        <time>2018-06-27T09:45:39Z</time>
      </trkpt>
      <trkpt lat="45.94301" lon="4.82532">
        <ele>264</ele>
        <time>2018-06-27T09:45:40Z</time>
      </trkpt>
      <trkpt lat="45.94299" lon="4.82522">
        <ele>264</ele>
        <time>2018-06-27T09:45:41Z</time>
      </trkpt>
      <trkpt lat="45.94298" lon="4.82512">
        <ele>264</ele>
        <time>2018-06-27T09:45:42Z</time>
      </trkpt>
      <trkpt lat="45.94298" lon="4.82502">
        <ele>264</ele>
        <time>2018-06-27T09:45:43Z</time>
      </trkpt>
      <trkpt lat="45.94298" lon="4.82492">
        <ele>264</ele>
        <time>2018-06-27T09:45:44Z</time>
      </trkpt>
      <trkpt lat="45.94297" lon="4.82483">
        <ele>264</ele>
        <time>2018-06-27T09:45:45Z</time>
      </trkpt>
      <trkpt lat="45.94297" lon="4.82475">
        <ele>264</ele>
        <time>2018-06-27T09:45:46Z</time>
      </trkpt>
      <trkpt lat="45.94296" lon="4.82464">
        <ele>264</ele>
        <time>2018-06-27T09:45:47Z</time>
      </trkpt>
      <trkpt lat="45.94295" lon="4.82455">
        <ele>264</ele>
        <time>2018-06-27T09:45:48Z</time>
      </trkpt>
      <trkpt lat="45.94296" lon="4.82446">
        <ele>264</ele>
        <time>2018-06-27T09:45:49Z</time>
      </trkpt>
      <trkpt lat="45.94295" lon="4.82438">
        <ele>264</ele>
        <time>2018-06-27T09:45:50Z</time>
      </trkpt>
      <trkpt lat="45.94295" lon="4.8243">
        <ele>264</ele>
        <time>2018-06-27T09:45:51Z</time>
      </trkpt>
      <trkpt lat="45.94297" lon="4.82421">
        <ele>264</ele>
        <time>2018-06-27T09:45:52Z</time>
      </trkpt>
      <trkpt lat="45.94298" lon="4.82411">
        <ele>264</ele>
        <time>2018-06-27T09:45:53Z</time>
      </trkpt>
      <trkpt lat="45.94298" lon="4.824">
        <ele>264</ele>
        <time>2018-06-27T09:45:54Z</time>
      </trkpt>
      <trkpt lat="45.94298" lon="4.82391">
        <ele>264</ele>
        <time>2018-06-27T09:45:55Z</time>
      </trkpt>
      <trkpt lat="45.94297" lon="4.8238">
        <ele>264</ele>
        <time>2018-06-27T09:45:56Z</time>
      </trkpt>
      <trkpt lat="45.94297" lon="4.82371">
        <ele>264</ele>
        <time>2018-06-27T09:45:57Z</time>
      </trkpt>
      <trkpt lat="45.94296" lon="4.82361">
        <ele>264</ele>
        <time>2018-06-27T09:45:58Z</time>
      </trkpt>
      <trkpt lat="45.94295" lon="4.82351">
        <ele>264</ele>
        <time>2018-06-27T09:45:59Z</time>
      </trkpt>
      <trkpt lat="45.94295" lon="4.82343">
        <ele>264</ele>
        <time>2018-06-27T09:46:00Z</time>
      </trkpt>
      <trkpt lat="45.94294" lon="4.82333">
        <ele>265</ele>
        <time>2018-06-27T09:46:01Z</time>
      </trkpt>
      <trkpt lat="45.94299" lon="4.82323">
        <ele>265</ele>
        <time>2018-06-27T09:46:02Z</time>
      </trkpt>
      <trkpt lat="45.94294" lon="4.82314">
        <ele>265</ele>
        <time>2018-06-27T09:46:03Z</time>
      </trkpt>
      <trkpt lat="45.94294" lon="4.82305">
        <ele>265</ele>
        <time>2018-06-27T09:46:04Z</time>
      </trkpt>
      <trkpt lat="45.94294" lon="4.82295">
        <ele>265</ele>
        <time>2018-06-27T09:46:05Z</time>
      </trkpt>
      <trkpt lat="45.94294" lon="4.82286">
        <ele>265</ele>
        <time>2018-06-27T09:46:06Z</time>
      </trkpt>
      <trkpt lat="45.94293" lon="4.82276">
        <ele>265</ele>
        <time>2018-06-27T09:46:07Z</time>
      </trkpt>
      <trkpt lat="45.94292" lon="4.82267">
        <ele>265</ele>
        <time>2018-06-27T09:46:08Z</time>
      </trkpt>
      <trkpt lat="45.94291" lon="4.82259">
        <ele>265</ele>
        <time>2018-06-27T09:46:09Z</time>
      </trkpt>
      <trkpt lat="45.94292" lon="4.8225">
        <ele>264</ele>
        <time>2018-06-27T09:46:10Z</time>
      </trkpt>
      <trkpt lat="45.94291" lon="4.8224">
        <ele>264</ele>
        <time>2018-06-27T09:46:11Z</time>
      </trkpt>
      <trkpt lat="45.94291" lon="4.8223">
        <ele>264</ele>
        <time>2018-06-27T09:46:12Z</time>
      </trkpt>
      <trkpt lat="45.94291" lon="4.82221">
        <ele>264</ele>
        <time>2018-06-27T09:46:13Z</time>
      </trkpt>
      <trkpt lat="45.9429" lon="4.82212">
        <ele>264</ele>
        <time>2018-06-27T09:46:14Z</time>
      </trkpt>
      <trkpt lat="45.94288" lon="4.82202">
        <ele>264</ele>
        <time>2018-06-27T09:46:15Z</time>
      </trkpt>
      <trkpt lat="45.94286" lon="4.82191">
        <ele>264</ele>
        <time>2018-06-27T09:46:16Z</time>
      </trkpt>
      <trkpt lat="45.94284" lon="4.82181">
        <ele>264</ele>
        <time>2018-06-27T09:46:17Z</time>
      </trkpt>
      <trkpt lat="45.94283" lon="4.82172">
        <ele>264</ele>
        <time>2018-06-27T09:46:18Z</time>
      </trkpt>
      <trkpt lat="45.94279" lon="4.82162">
        <ele>263</ele>
        <time>2018-06-27T09:46:19Z</time>
      </trkpt>
      <trkpt lat="45.94277" lon="4.82152">
        <ele>263</ele>
        <time>2018-06-27T09:46:20Z</time>
      </trkpt>
      <trkpt lat="45.94277" lon="4.82145">
        <ele>263</ele>
        <time>2018-06-27T09:46:21Z</time>
      </trkpt>
      <trkpt lat="45.94275" lon="4.82136">
        <ele>263</ele>
        <time>2018-06-27T09:46:22Z</time>
      </trkpt>
      <trkpt lat="45.94276" lon="4.82125">
        <ele>263</ele>
        <time>2018-06-27T09:46:23Z</time>
      </trkpt>
      <trkpt lat="45.94273" lon="4.82118">
        <ele>263</ele>
        <time>2018-06-27T09:46:24Z</time>
      </trkpt>
      <trkpt lat="45.94271" lon="4.82112">
        <ele>263</ele>
        <time>2018-06-27T09:46:25Z</time>
      </trkpt>
      <trkpt lat="45.9427" lon="4.82104">
        <ele>263</ele>
        <time>2018-06-27T09:46:26Z</time>
      </trkpt>
      <trkpt lat="45.94269" lon="4.82097">
        <ele>262</ele>
        <time>2018-06-27T09:46:27Z</time>
      </trkpt>
      <trkpt lat="45.94266" lon="4.82089">
        <ele>262</ele>
        <time>2018-06-27T09:46:28Z</time>
      </trkpt>
      <trkpt lat="45.94264" lon="4.82084">
        <ele>262</ele>
        <time>2018-06-27T09:46:29Z</time>
      </trkpt>
      <trkpt lat="45.94263" lon="4.82077">
        <ele>262</ele>
        <time>2018-06-27T09:46:30Z</time>
      </trkpt>
      <trkpt lat="45.9426" lon="4.82069">
        <ele>262</ele>
        <time>2018-06-27T09:46:31Z</time>
      </trkpt>
      <trkpt lat="45.94258" lon="4.82062">
        <ele>262</ele>
        <time>2018-06-27T09:46:32Z</time>
      </trkpt>
      <trkpt lat="45.94254" lon="4.82054">
        <ele>262</ele>
        <time>2018-06-27T09:46:33Z</time>
      </trkpt>
      <trkpt lat="45.94251" lon="4.82044">
        <ele>262</ele>
        <time>2018-06-27T09:46:34Z</time>
      </trkpt>
      <trkpt lat="45.9425" lon="4.82035">
        <ele>263</ele>
        <time>2018-06-27T09:46:35Z</time>
      </trkpt>
      <trkpt lat="45.94248" lon="4.82027">
        <ele>263</ele>
        <time>2018-06-27T09:46:36Z</time>
      </trkpt>
      <trkpt lat="45.94244" lon="4.82017">
        <ele>263</ele>
        <time>2018-06-27T09:46:37Z</time>
      </trkpt>
      <trkpt lat="45.94241" lon="4.82008">
        <ele>263</ele>
        <time>2018-06-27T09:46:38Z</time>
      </trkpt>
      <trkpt lat="45.9424" lon="4.81998">
        <ele>263</ele>
        <time>2018-06-27T09:46:39Z</time>
      </trkpt>
      <trkpt lat="45.94238" lon="4.81988">
        <ele>263</ele>
        <time>2018-06-27T09:46:40Z</time>
      </trkpt>
      <trkpt lat="45.94236" lon="4.81979">
        <ele>263</ele>
        <time>2018-06-27T09:46:41Z</time>
      </trkpt>
      <trkpt lat="45.94236" lon="4.81971">
        <ele>263</ele>
        <time>2018-06-27T09:46:42Z</time>
      </trkpt>
      <trkpt lat="45.94234" lon="4.81963">
        <ele>264</ele>
        <time>2018-06-27T09:46:43Z</time>
      </trkpt>
      <trkpt lat="45.94233" lon="4.81954">
        <ele>264</ele>
        <time>2018-06-27T09:46:44Z</time>
      </trkpt>
      <trkpt lat="45.94233" lon="4.81945">
        <ele>264</ele>
        <time>2018-06-27T09:46:45Z</time>
      </trkpt>
      <trkpt lat="45.94231" lon="4.81935">
        <ele>264</ele>
        <time>2018-06-27T09:46:46Z</time>
      </trkpt>
      <trkpt lat="45.94229" lon="4.81927">
        <ele>263</ele>
        <time>2018-06-27T09:46:47Z</time>
      </trkpt>
      <trkpt lat="45.94226" lon="4.81919">
        <ele>264</ele>
        <time>2018-06-27T09:46:48Z</time>
      </trkpt>
      <trkpt lat="45.94224" lon="4.81911">
        <ele>264</ele>
        <time>2018-06-27T09:46:49Z</time>
      </trkpt>
      <trkpt lat="45.94223" lon="4.81902">
        <ele>264</ele>
        <time>2018-06-27T09:46:50Z</time>
      </trkpt>
      <trkpt lat="45.94217" lon="4.81893">
        <ele>265</ele>
        <time>2018-06-27T09:46:51Z</time>
      </trkpt>
      <trkpt lat="45.94215" lon="4.81885">
        <ele>265</ele>
        <time>2018-06-27T09:46:52Z</time>
      </trkpt>
      <trkpt lat="45.94214" lon="4.81878">
        <ele>265</ele>
        <time>2018-06-27T09:46:53Z</time>
      </trkpt>
      <trkpt lat="45.94213" lon="4.81869">
        <ele>265</ele>
        <time>2018-06-27T09:46:54Z</time>
      </trkpt>
      <trkpt lat="45.94211" lon="4.81862">
        <ele>265</ele>
        <time>2018-06-27T09:46:55Z</time>
      </trkpt>
      <trkpt lat="45.94211" lon="4.81855">
        <ele>265</ele>
        <time>2018-06-27T09:46:56Z</time>
      </trkpt>
      <trkpt lat="45.9421" lon="4.81848">
        <ele>265</ele>
        <time>2018-06-27T09:46:57Z</time>
      </trkpt>
      <trkpt lat="45.94208" lon="4.81841">
        <ele>266</ele>
        <time>2018-06-27T09:46:58Z</time>
      </trkpt>
      <trkpt lat="45.94205" lon="4.81833">
        <ele>266</ele>
        <time>2018-06-27T09:46:59Z</time>
      </trkpt>
      <trkpt lat="45.94204" lon="4.81826">
        <ele>266</ele>
        <time>2018-06-27T09:47:00Z</time>
      </trkpt>
      <trkpt lat="45.94204" lon="4.81818">
        <ele>266</ele>
        <time>2018-06-27T09:47:01Z</time>
      </trkpt>
      <trkpt lat="45.94203" lon="4.8181">
        <ele>266</ele>
        <time>2018-06-27T09:47:02Z</time>
      </trkpt>
      <trkpt lat="45.94203" lon="4.81803">
        <ele>266</ele>
        <time>2018-06-27T09:47:03Z</time>
      </trkpt>
      <trkpt lat="45.94202" lon="4.81795">
        <ele>266</ele>
        <time>2018-06-27T09:47:04Z</time>
      </trkpt>
      <trkpt lat="45.94198" lon="4.81788">
        <ele>266</ele>
        <time>2018-06-27T09:47:05Z</time>
      </trkpt>
      <trkpt lat="45.94201" lon="4.81782">
        <ele>266</ele>
        <time>2018-06-27T09:47:06Z</time>
      </trkpt>
      <trkpt lat="45.94202" lon="4.81775">
        <ele>266</ele>
        <time>2018-06-27T09:47:07Z</time>
      </trkpt>
      <trkpt lat="45.94203" lon="4.81768">
        <ele>266</ele>
        <time>2018-06-27T09:47:08Z</time>
      </trkpt>
      <trkpt lat="45.94209" lon="4.81762">
        <ele>265</ele>
        <time>2018-06-27T09:47:09Z</time>
      </trkpt>
      <trkpt lat="45.94212" lon="4.81756">
        <ele>265</ele>
        <time>2018-06-27T09:47:10Z</time>
      </trkpt>
      <trkpt lat="45.94216" lon="4.8175">
        <ele>265</ele>
        <time>2018-06-27T09:47:11Z</time>
      </trkpt>
      <trkpt lat="45.94218" lon="4.81744">
        <ele>265</ele>
        <time>2018-06-27T09:47:12Z</time>
      </trkpt>
      <trkpt lat="45.94221" lon="4.81737">
        <ele>265</ele>
        <time>2018-06-27T09:47:13Z</time>
      </trkpt>
      <trkpt lat="45.9422" lon="4.81729">
        <ele>265</ele>
        <time>2018-06-27T09:47:14Z</time>
      </trkpt>
      <trkpt lat="45.9422" lon="4.81722">
        <ele>266</ele>
        <time>2018-06-27T09:47:15Z</time>
      </trkpt>
      <trkpt lat="45.94218" lon="4.81715">
        <ele>266</ele>
        <time>2018-06-27T09:47:16Z</time>
      </trkpt>
      <trkpt lat="45.94215" lon="4.81709">
        <ele>266</ele>
        <time>2018-06-27T09:47:17Z</time>
      </trkpt>
      <trkpt lat="45.94212" lon="4.81705">
        <ele>266</ele>
        <time>2018-06-27T09:47:18Z</time>
      </trkpt>
      <trkpt lat="45.94206" lon="4.81702">
        <ele>266</ele>
        <time>2018-06-27T09:47:19Z</time>
      </trkpt>
      <trkpt lat="45.942" lon="4.81699">
        <ele>267</ele>
        <time>2018-06-27T09:47:20Z</time>
      </trkpt>
      <trkpt lat="45.94195" lon="4.81695">
        <ele>267</ele>
        <time>2018-06-27T09:47:21Z</time>
      </trkpt>
      <trkpt lat="45.94189" lon="4.81686">
        <ele>267</ele>
        <time>2018-06-27T09:47:22Z</time>
      </trkpt>
      <trkpt lat="45.94184" lon="4.81677">
        <ele>268</ele>
        <time>2018-06-27T09:47:23Z</time>
      </trkpt>
      <trkpt lat="45.9418" lon="4.81667">
        <ele>268</ele>
        <time>2018-06-27T09:47:24Z</time>
      </trkpt>
      <trkpt lat="45.94178" lon="4.81655">
        <ele>268</ele>
        <time>2018-06-27T09:47:25Z</time>
      </trkpt>
      <trkpt lat="45.94175" lon="4.81643">
        <ele>268</ele>
        <time>2018-06-27T09:47:26Z</time>
      </trkpt>
      <trkpt lat="45.94172" lon="4.8163">
        <ele>267</ele>
        <time>2018-06-27T09:47:27Z</time>
      </trkpt>
      <trkpt lat="45.94169" lon="4.81617">
        <ele>267</ele>
        <time>2018-06-27T09:47:28Z</time>
      </trkpt>
      <trkpt lat="45.94167" lon="4.81605">
        <ele>267</ele>
        <time>2018-06-27T09:47:29Z</time>
      </trkpt>
      <trkpt lat="45.94164" lon="4.81591">
        <ele>267</ele>
        <time>2018-06-27T09:47:30Z</time>
      </trkpt>
      <trkpt lat="45.9416" lon="4.81578">
        <ele>266</ele>
        <time>2018-06-27T09:47:31Z</time>
      </trkpt>
      <trkpt lat="45.94158" lon="4.81563">
        <ele>265</ele>
        <time>2018-06-27T09:47:32Z</time>
      </trkpt>
      <trkpt lat="45.94156" lon="4.81549">
        <ele>264</ele>
        <time>2018-06-27T09:47:33Z</time>
      </trkpt>
      <trkpt lat="45.94157" lon="4.81537">
        <ele>264</ele>
        <time>2018-06-27T09:47:34Z</time>
      </trkpt>
      <trkpt lat="45.94156" lon="4.81522">
        <ele>263</ele>
        <time>2018-06-27T09:47:35Z</time>
      </trkpt>
      <trkpt lat="45.94153" lon="4.81509">
        <ele>263</ele>
        <time>2018-06-27T09:47:36Z</time>
      </trkpt>
      <trkpt lat="45.94152" lon="4.81496">
        <ele>260</ele>
        <time>2018-06-27T09:47:37Z</time>
      </trkpt>
      <trkpt lat="45.9415" lon="4.8148">
        <ele>259</ele>
        <time>2018-06-27T09:47:38Z</time>
      </trkpt>
      <trkpt lat="45.94152" lon="4.81462">
        <ele>257</ele>
        <time>2018-06-27T09:47:39Z</time>
      </trkpt>
      <trkpt lat="45.94156" lon="4.8145">
        <ele>257</ele>
        <time>2018-06-27T09:47:40Z</time>
      </trkpt>
      <trkpt lat="45.94162" lon="4.81434">
        <ele>256</ele>
        <time>2018-06-27T09:47:41Z</time>
      </trkpt>
      <trkpt lat="45.94163" lon="4.81414">
        <ele>255</ele>
        <time>2018-06-27T09:47:42Z</time>
      </trkpt>
      <trkpt lat="45.94164" lon="4.814">
        <ele>253</ele>
        <time>2018-06-27T09:47:43Z</time>
      </trkpt>
      <trkpt lat="45.94167" lon="4.81383">
        <ele>258</ele>
        <time>2018-06-27T09:47:44Z</time>
      </trkpt>
      <trkpt lat="45.9417" lon="4.81369">
        <ele>257</ele>
        <time>2018-06-27T09:47:45Z</time>
      </trkpt>
      <trkpt lat="45.94169" lon="4.81354">
        <ele>256</ele>
        <time>2018-06-27T09:47:46Z</time>
      </trkpt>
      <trkpt lat="45.94173" lon="4.81336">
        <ele>254</ele>
        <time>2018-06-27T09:47:47Z</time>
      </trkpt>
      <trkpt lat="45.94174" lon="4.81322">
        <ele>254</ele>
        <time>2018-06-27T09:47:48Z</time>
      </trkpt>
      <trkpt lat="45.94176" lon="4.81306">
        <ele>256</ele>
        <time>2018-06-27T09:47:49Z</time>
      </trkpt>
      <trkpt lat="45.94178" lon="4.81291">
        <ele>256</ele>
        <time>2018-06-27T09:47:50Z</time>
      </trkpt>
      <trkpt lat="45.94173" lon="4.81274">
        <ele>255</ele>
        <time>2018-06-27T09:47:51Z</time>
      </trkpt>
      <trkpt lat="45.94168" lon="4.81256">
        <ele>252</ele>
        <time>2018-06-27T09:47:52Z</time>
      </trkpt>
      <trkpt lat="45.94168" lon="4.8124">
        <ele>252</ele>
        <time>2018-06-27T09:47:53Z</time>
      </trkpt>
      <trkpt lat="45.94167" lon="4.81224">
        <ele>253</ele>
        <time>2018-06-27T09:47:54Z</time>
      </trkpt>
      <trkpt lat="45.94165" lon="4.81207">
        <ele>245</ele>
        <time>2018-06-27T09:47:55Z</time>
      </trkpt>
      <trkpt lat="45.94162" lon="4.81191">
        <ele>245</ele>
        <time>2018-06-27T09:47:56Z</time>
      </trkpt>
      <trkpt lat="45.94153" lon="4.81176">
        <ele>245</ele>
        <time>2018-06-27T09:47:57Z</time>
      </trkpt>
      <trkpt lat="45.94147" lon="4.81162">
        <ele>245</ele>
        <time>2018-06-27T09:47:58Z</time>
      </trkpt>
      <trkpt lat="45.9414" lon="4.81147">
        <ele>244</ele>
        <time>2018-06-27T09:47:59Z</time>
      </trkpt>
      <trkpt lat="45.94133" lon="4.81133">
        <ele>244</ele>
        <time>2018-06-27T09:48:00Z</time>
      </trkpt>
      <trkpt lat="45.94127" lon="4.8112">
        <ele>244</ele>
        <time>2018-06-27T09:48:01Z</time>
      </trkpt>
      <trkpt lat="45.94118" lon="4.81106">
        <ele>243</ele>
        <time>2018-06-27T09:48:02Z</time>
      </trkpt>
      <trkpt lat="45.94111" lon="4.81093">
        <ele>242</ele>
        <time>2018-06-27T09:48:03Z</time>
      </trkpt>
      <trkpt lat="45.94101" lon="4.81079">
        <ele>242</ele>
        <time>2018-06-27T09:48:04Z</time>
      </trkpt>
      <trkpt lat="45.94095" lon="4.81065">
        <ele>242</ele>
        <time>2018-06-27T09:48:05Z</time>
      </trkpt>
      <trkpt lat="45.94089" lon="4.8105">
        <ele>243</ele>
        <time>2018-06-27T09:48:06Z</time>
      </trkpt>
      <trkpt lat="45.94084" lon="4.81036">
        <ele>244</ele>
        <time>2018-06-27T09:48:07Z</time>
      </trkpt>
      <trkpt lat="45.9408" lon="4.81022">
        <ele>235</ele>
        <time>2018-06-27T09:48:08Z</time>
      </trkpt>
      <trkpt lat="45.94076" lon="4.81006">
        <ele>237</ele>
        <time>2018-06-27T09:48:09Z</time>
      </trkpt>
      <trkpt lat="45.94073" lon="4.80991">
        <ele>236</ele>
        <time>2018-06-27T09:48:10Z</time>
      </trkpt>
      <trkpt lat="45.9407" lon="4.80975">
        <ele>233</ele>
        <time>2018-06-27T09:48:11Z</time>
      </trkpt>
      <trkpt lat="45.94069" lon="4.8096">
        <ele>232</ele>
        <time>2018-06-27T09:48:12Z</time>
      </trkpt>
      <trkpt lat="45.94068" lon="4.80944">
        <ele>233</ele>
        <time>2018-06-27T09:48:13Z</time>
      </trkpt>
      <trkpt lat="45.94066" lon="4.80929">
        <ele>233</ele>
        <time>2018-06-27T09:48:14Z</time>
      </trkpt>
      <trkpt lat="45.94062" lon="4.80914">
        <ele>233</ele>
        <time>2018-06-27T09:48:15Z</time>
      </trkpt>
      <trkpt lat="45.94061" lon="4.80898">
        <ele>232</ele>
        <time>2018-06-27T09:48:16Z</time>
      </trkpt>
      <trkpt lat="45.94057" lon="4.80883">
        <ele>231</ele>
        <time>2018-06-27T09:48:17Z</time>
      </trkpt>
      <trkpt lat="45.94057" lon="4.80867">
        <ele>231</ele>
        <time>2018-06-27T09:48:18Z</time>
      </trkpt>
      <trkpt lat="45.94055" lon="4.80852">
        <ele>231</ele>
        <time>2018-06-27T09:48:19Z</time>
      </trkpt>
      <trkpt lat="45.94054" lon="4.80837">
        <ele>231</ele>
        <time>2018-06-27T09:48:20Z</time>
      </trkpt>
      <trkpt lat="45.94051" lon="4.80822">
        <ele>230</ele>
        <time>2018-06-27T09:48:21Z</time>
      </trkpt>
      <trkpt lat="45.9405" lon="4.80807">
        <ele>229</ele>
        <time>2018-06-27T09:48:22Z</time>
      </trkpt>
      <trkpt lat="45.94048" lon="4.80793">
        <ele>229</ele>
        <time>2018-06-27T09:48:23Z</time>
      </trkpt>
      <trkpt lat="45.94047" lon="4.80779">
        <ele>229</ele>
        <time>2018-06-27T09:48:24Z</time>
      </trkpt>
      <trkpt lat="45.94044" lon="4.80764">
        <ele>228</ele>
        <time>2018-06-27T09:48:25Z</time>
      </trkpt>
      <trkpt lat="45.94042" lon="4.8075">
        <ele>228</ele>
        <time>2018-06-27T09:48:26Z</time>
      </trkpt>
      <trkpt lat="45.9404" lon="4.80738">
        <ele>227</ele>
        <time>2018-06-27T09:48:27Z</time>
      </trkpt>
      <trkpt lat="45.9404" lon="4.80724">
        <ele>227</ele>
        <time>2018-06-27T09:48:28Z</time>
      </trkpt>
      <trkpt lat="45.94038" lon="4.8071">
        <ele>226</ele>
        <time>2018-06-27T09:48:29Z</time>
      </trkpt>
      <trkpt lat="45.94036" lon="4.80696">
        <ele>226</ele>
        <time>2018-06-27T09:48:30Z</time>
      </trkpt>
      <trkpt lat="45.94035" lon="4.80682">
        <ele>225</ele>
        <time>2018-06-27T09:48:31Z</time>
      </trkpt>
      <trkpt lat="45.94033" lon="4.80668">
        <ele>225</ele>
        <time>2018-06-27T09:48:32Z</time>
      </trkpt>
      <trkpt lat="45.94031" lon="4.80655">
        <ele>225</ele>
        <time>2018-06-27T09:48:33Z</time>
      </trkpt>
      <trkpt lat="45.9403" lon="4.80641">
        <ele>225</ele>
        <time>2018-06-27T09:48:34Z</time>
      </trkpt>
      <trkpt lat="45.94028" lon="4.80627">
        <ele>225</ele>
        <time>2018-06-27T09:48:35Z</time>
      </trkpt>
      <trkpt lat="45.94027" lon="4.80613">
        <ele>225</ele>
        <time>2018-06-27T09:48:36Z</time>
      </trkpt>
      <trkpt lat="45.94025" lon="4.80598">
        <ele>224</ele>
        <time>2018-06-27T09:48:37Z</time>
      </trkpt>
      <trkpt lat="45.94024" lon="4.80583">
        <ele>224</ele>
        <time>2018-06-27T09:48:38Z</time>
      </trkpt>
      <trkpt lat="45.94023" lon="4.8057">
        <ele>224</ele>
        <time>2018-06-27T09:48:39Z</time>
      </trkpt>
      <trkpt lat="45.94024" lon="4.80556">
        <ele>225</ele>
        <time>2018-06-27T09:48:40Z</time>
      </trkpt>
      <trkpt lat="45.94024" lon="4.8054">
        <ele>225</ele>
        <time>2018-06-27T09:48:41Z</time>
      </trkpt>
      <trkpt lat="45.94022" lon="4.80526">
        <ele>225</ele>
        <time>2018-06-27T09:48:42Z</time>
      </trkpt>
      <trkpt lat="45.94022" lon="4.80511">
        <ele>224</ele>
        <time>2018-06-27T09:48:43Z</time>
      </trkpt>
      <trkpt lat="45.94021" lon="4.80497">
        <ele>223</ele>
        <time>2018-06-27T09:48:44Z</time>
      </trkpt>
      <trkpt lat="45.94022" lon="4.80483">
        <ele>223</ele>
        <time>2018-06-27T09:48:45Z</time>
      </trkpt>
      <trkpt lat="45.94025" lon="4.80467">
        <ele>224</ele>
        <time>2018-06-27T09:48:46Z</time>
      </trkpt>
      <trkpt lat="45.94027" lon="4.80453">
        <ele>224</ele>
        <time>2018-06-27T09:48:47Z</time>
      </trkpt>
      <trkpt lat="45.94024" lon="4.80438">
        <ele>223</ele>
        <time>2018-06-27T09:48:48Z</time>
      </trkpt>
      <trkpt lat="45.9402" lon="4.80423">
        <ele>221</ele>
        <time>2018-06-27T09:48:49Z</time>
      </trkpt>
      <trkpt lat="45.94016" lon="4.80408">
        <ele>218</ele>
        <time>2018-06-27T09:48:50Z</time>
      </trkpt>
      <trkpt lat="45.94013" lon="4.80393">
        <ele>217</ele>
        <time>2018-06-27T09:48:51Z</time>
      </trkpt>
      <trkpt lat="45.94008" lon="4.8038">
        <ele>217</ele>
        <time>2018-06-27T09:48:52Z</time>
      </trkpt>
      <trkpt lat="45.94004" lon="4.80365">
        <ele>215</ele>
        <time>2018-06-27T09:48:53Z</time>
      </trkpt>
      <trkpt lat="45.93999" lon="4.80351">
        <ele>206</ele>
        <time>2018-06-27T09:48:54Z</time>
      </trkpt>
      <trkpt lat="45.93995" lon="4.80336">
        <ele>206</ele>
        <time>2018-06-27T09:48:55Z</time>
      </trkpt>
      <trkpt lat="45.93991" lon="4.80322">
        <ele>204</ele>
        <time>2018-06-27T09:48:56Z</time>
      </trkpt>
      <trkpt lat="45.93986" lon="4.80307">
        <ele>203</ele>
        <time>2018-06-27T09:48:57Z</time>
      </trkpt>
      <trkpt lat="45.93982" lon="4.80292">
        <ele>203</ele>
        <time>2018-06-27T09:48:58Z</time>
      </trkpt>
      <trkpt lat="45.93978" lon="4.80277">
        <ele>203</ele>
        <time>2018-06-27T09:48:59Z</time>
      </trkpt>
      <trkpt lat="45.93973" lon="4.80263">
        <ele>203</ele>
        <time>2018-06-27T09:49:00Z</time>
      </trkpt>
      <trkpt lat="45.93969" lon="4.80249">
        <ele>204</ele>
        <time>2018-06-27T09:49:01Z</time>
      </trkpt>
      <trkpt lat="45.93965" lon="4.80235">
        <ele>205</ele>
        <time>2018-06-27T09:49:02Z</time>
      </trkpt>
      <trkpt lat="45.93962" lon="4.80222">
        <ele>205</ele>
        <time>2018-06-27T09:49:03Z</time>
      </trkpt>
      <trkpt lat="45.93958" lon="4.80209">
        <ele>205</ele>
        <time>2018-06-27T09:49:04Z</time>
      </trkpt>
      <trkpt lat="45.93955" lon="4.80196">
        <ele>206</ele>
        <time>2018-06-27T09:49:05Z</time>
      </trkpt>
      <trkpt lat="45.93952" lon="4.80184">
        <ele>206</ele>
        <time>2018-06-27T09:49:06Z</time>
      </trkpt>
      <trkpt lat="45.9395" lon="4.80172">
        <ele>206</ele>
        <time>2018-06-27T09:49:07Z</time>
      </trkpt>
      <trkpt lat="45.93948" lon="4.80161">
        <ele>208</ele>
        <time>2018-06-27T09:49:08Z</time>
      </trkpt>
      <trkpt lat="45.93947" lon="4.80148">
        <ele>208</ele>
        <time>2018-06-27T09:49:09Z</time>
      </trkpt>
      <trkpt lat="45.93945" lon="4.80136">
        <ele>209</ele>
        <time>2018-06-27T09:49:10Z</time>
      </trkpt>
      <trkpt lat="45.93944" lon="4.80126">
        <ele>209</ele>
        <time>2018-06-27T09:49:11Z</time>
      </trkpt>
      <trkpt lat="45.93943" lon="4.80115">
        <ele>209</ele>
        <time>2018-06-27T09:49:12Z</time>
      </trkpt>
      <trkpt lat="45.93942" lon="4.80103">
        <ele>209</ele>
        <time>2018-06-27T09:49:13Z</time>
      </trkpt>
      <trkpt lat="45.93942" lon="4.80092">
        <ele>208</ele>
        <time>2018-06-27T09:49:14Z</time>
      </trkpt>
      <trkpt lat="45.93943" lon="4.80082">
        <ele>208</ele>
        <time>2018-06-27T09:49:15Z</time>
      </trkpt>
      <trkpt lat="45.93943" lon="4.80071">
        <ele>208</ele>
        <time>2018-06-27T09:49:16Z</time>
      </trkpt>
      <trkpt lat="45.93944" lon="4.8006">
        <ele>208</ele>
        <time>2018-06-27T09:49:17Z</time>
      </trkpt>
      <trkpt lat="45.93945" lon="4.8005">
        <ele>208</ele>
        <time>2018-06-27T09:49:18Z</time>
      </trkpt>
      <trkpt lat="45.93944" lon="4.80041">
        <ele>207</ele>
        <time>2018-06-27T09:49:19Z</time>
      </trkpt>
      <trkpt lat="45.93945" lon="4.80031">
        <ele>207</ele>
        <time>2018-06-27T09:49:20Z</time>
      </trkpt>
      <trkpt lat="45.93947" lon="4.80022">
        <ele>207</ele>
        <time>2018-06-27T09:49:21Z</time>
      </trkpt>
      <trkpt lat="45.93951" lon="4.80012">
        <ele>207</ele>
        <time>2018-06-27T09:49:22Z</time>
      </trkpt>
      <trkpt lat="45.93951" lon="4.80001">
        <ele>207</ele>
        <time>2018-06-27T09:49:23Z</time>
      </trkpt>
      <trkpt lat="45.93953" lon="4.79992">
        <ele>205</ele>
        <time>2018-06-27T09:49:24Z</time>
      </trkpt>
      <trkpt lat="45.93954" lon="4.79983">
        <ele>205</ele>
        <time>2018-06-27T09:49:25Z</time>
      </trkpt>
      <trkpt lat="45.93955" lon="4.79972">
        <ele>205</ele>
        <time>2018-06-27T09:49:26Z</time>
      </trkpt>
      <trkpt lat="45.93956" lon="4.79962">
        <ele>205</ele>
        <time>2018-06-27T09:49:27Z</time>
      </trkpt>
      <trkpt lat="45.93959" lon="4.79953">
        <ele>205</ele>
        <time>2018-06-27T09:49:28Z</time>
      </trkpt>
      <trkpt lat="45.93959" lon="4.79942">
        <ele>205</ele>
        <time>2018-06-27T09:49:29Z</time>
      </trkpt>
      <trkpt lat="45.93958" lon="4.79931">
        <ele>205</ele>
        <time>2018-06-27T09:49:30Z</time>
      </trkpt>
      <trkpt lat="45.93958" lon="4.79922">
        <ele>205</ele>
        <time>2018-06-27T09:49:31Z</time>
      </trkpt>
      <trkpt lat="45.9396" lon="4.79913">
        <ele>206</ele>
        <time>2018-06-27T09:49:32Z</time>
      </trkpt>
      <trkpt lat="45.93962" lon="4.79904">
        <ele>206</ele>
        <time>2018-06-27T09:49:33Z</time>
      </trkpt>
      <trkpt lat="45.93962" lon="4.79893">
        <ele>206</ele>
        <time>2018-06-27T09:49:34Z</time>
      </trkpt>
      <trkpt lat="45.93964" lon="4.79884">
        <ele>206</ele>
        <time>2018-06-27T09:49:35Z</time>
      </trkpt>
      <trkpt lat="45.93965" lon="4.79875">
        <ele>206</ele>
        <time>2018-06-27T09:49:36Z</time>
      </trkpt>
      <trkpt lat="45.93968" lon="4.79866">
        <ele>206</ele>
        <time>2018-06-27T09:49:37Z</time>
      </trkpt>
      <trkpt lat="45.93969" lon="4.79857">
        <ele>206</ele>
        <time>2018-06-27T09:49:38Z</time>
      </trkpt>
      <trkpt lat="45.93971" lon="4.79847">
        <ele>207</ele>
        <time>2018-06-27T09:49:39Z</time>
      </trkpt>
      <trkpt lat="45.93973" lon="4.79838">
        <ele>207</ele>
        <time>2018-06-27T09:49:40Z</time>
      </trkpt>
      <trkpt lat="45.93974" lon="4.79831">
        <ele>207</ele>
        <time>2018-06-27T09:49:41Z</time>
      </trkpt>
      <trkpt lat="45.93975" lon="4.79823">
        <ele>207</ele>
        <time>2018-06-27T09:49:42Z</time>
      </trkpt>
      <trkpt lat="45.93976" lon="4.79814">
        <ele>207</ele>
        <time>2018-06-27T09:49:43Z</time>
      </trkpt>
      <trkpt lat="45.93975" lon="4.79806">
        <ele>207</ele>
        <time>2018-06-27T09:49:44Z</time>
      </trkpt>
      <trkpt lat="45.93976" lon="4.79798">
        <ele>207</ele>
        <time>2018-06-27T09:49:45Z</time>
      </trkpt>
      <trkpt lat="45.93977" lon="4.79789">
        <ele>207</ele>
        <time>2018-06-27T09:49:46Z</time>
      </trkpt>
      <trkpt lat="45.93976" lon="4.79779">
        <ele>206</ele>
        <time>2018-06-27T09:49:47Z</time>
      </trkpt>
      <trkpt lat="45.93975" lon="4.79769">
        <ele>206</ele>
        <time>2018-06-27T09:49:48Z</time>
      </trkpt>
      <trkpt lat="45.93975" lon="4.79759">
        <ele>207</ele>
        <time>2018-06-27T09:49:49Z</time>
      </trkpt>
      <trkpt lat="45.93974" lon="4.79749">
        <ele>207</ele>
        <time>2018-06-27T09:49:50Z</time>
      </trkpt>
      <trkpt lat="45.93973" lon="4.7974">
        <ele>207</ele>
        <time>2018-06-27T09:49:51Z</time>
      </trkpt>
      <trkpt lat="45.93972" lon="4.7973">
        <ele>207</ele>
        <time>2018-06-27T09:49:52Z</time>
      </trkpt>
      <trkpt lat="45.93971" lon="4.7972">
        <ele>207</ele>
        <time>2018-06-27T09:49:53Z</time>
      </trkpt>
      <trkpt lat="45.9397" lon="4.79709">
        <ele>207</ele>
        <time>2018-06-27T09:49:54Z</time>
      </trkpt>
      <trkpt lat="45.9397" lon="4.79699">
        <ele>207</ele>
        <time>2018-06-27T09:49:55Z</time>
      </trkpt>
      <trkpt lat="45.93971" lon="4.7969">
        <ele>207</ele>
        <time>2018-06-27T09:49:56Z</time>
      </trkpt>
      <trkpt lat="45.93971" lon="4.7968">
        <ele>207</ele>
        <time>2018-06-27T09:49:57Z</time>
      </trkpt>
      <trkpt lat="45.9397" lon="4.79668">
        <ele>208</ele>
        <time>2018-06-27T09:49:58Z</time>
      </trkpt>
      <trkpt lat="45.93968" lon="4.79659">
        <ele>208</ele>
        <time>2018-06-27T09:49:59Z</time>
      </trkpt>
      <trkpt lat="45.93967" lon="4.7965">
        <ele>208</ele>
        <time>2018-06-27T09:50:00Z</time>
      </trkpt>
      <trkpt lat="45.93966" lon="4.79641">
        <ele>207</ele>
        <time>2018-06-27T09:50:01Z</time>
      </trkpt>
      <trkpt lat="45.93964" lon="4.79631">
        <ele>207</ele>
        <time>2018-06-27T09:50:02Z</time>
      </trkpt>
      <trkpt lat="45.93962" lon="4.79621">
        <ele>207</ele>
        <time>2018-06-27T09:50:03Z</time>
      </trkpt>
      <trkpt lat="45.9396" lon="4.79612">
        <ele>207</ele>
        <time>2018-06-27T09:50:04Z</time>
      </trkpt>
      <trkpt lat="45.93959" lon="4.79602">
        <ele>207</ele>
        <time>2018-06-27T09:50:05Z</time>
      </trkpt>
      <trkpt lat="45.93958" lon="4.79593">
        <ele>207</ele>
        <time>2018-06-27T09:50:06Z</time>
      </trkpt>
      <trkpt lat="45.93957" lon="4.79584">
        <ele>207</ele>
        <time>2018-06-27T09:50:07Z</time>
      </trkpt>
      <trkpt lat="45.93957" lon="4.79574">
        <ele>205</ele>
        <time>2018-06-27T09:50:08Z</time>
      </trkpt>
      <trkpt lat="45.93956" lon="4.79564">
        <ele>205</ele>
        <time>2018-06-27T09:50:09Z</time>
      </trkpt>
      <trkpt lat="45.93954" lon="4.79553">
        <ele>205</ele>
        <time>2018-06-27T09:50:10Z</time>
      </trkpt>
      <trkpt lat="45.93953" lon="4.79542">
        <ele>205</ele>
        <time>2018-06-27T09:50:11Z</time>
      </trkpt>
      <trkpt lat="45.93953" lon="4.79531">
        <ele>204</ele>
        <time>2018-06-27T09:50:12Z</time>
      </trkpt>
      <trkpt lat="45.93953" lon="4.7952">
        <ele>204</ele>
        <time>2018-06-27T09:50:13Z</time>
      </trkpt>
      <trkpt lat="45.93952" lon="4.79509">
        <ele>204</ele>
        <time>2018-06-27T09:50:14Z</time>
      </trkpt>
      <trkpt lat="45.93951" lon="4.79497">
        <ele>202</ele>
        <time>2018-06-27T09:50:15Z</time>
      </trkpt>
      <trkpt lat="45.93951" lon="4.79486">
        <ele>202</ele>
        <time>2018-06-27T09:50:16Z</time>
      </trkpt>
      <trkpt lat="45.93951" lon="4.79476">
        <ele>202</ele>
        <time>2018-06-27T09:50:17Z</time>
      </trkpt>
      <trkpt lat="45.93951" lon="4.79465">
        <ele>202</ele>
        <time>2018-06-27T09:50:18Z</time>
      </trkpt>
      <trkpt lat="45.93954" lon="4.79452">
        <ele>203</ele>
        <time>2018-06-27T09:50:19Z</time>
      </trkpt>
      <trkpt lat="45.93953" lon="4.79441">
        <ele>202</ele>
        <time>2018-06-27T09:50:20Z</time>
      </trkpt>
      <trkpt lat="45.93952" lon="4.79429">
        <ele>202</ele>
        <time>2018-06-27T09:50:21Z</time>
      </trkpt>
      <trkpt lat="45.93951" lon="4.79418">
        <ele>202</ele>
        <time>2018-06-27T09:50:22Z</time>
      </trkpt>
      <trkpt lat="45.93953" lon="4.79407">
        <ele>201</ele>
        <time>2018-06-27T09:50:23Z</time>
      </trkpt>
      <trkpt lat="45.93951" lon="4.79397">
        <ele>201</ele>
        <time>2018-06-27T09:50:24Z</time>
      </trkpt>
      <trkpt lat="45.93951" lon="4.79386">
        <ele>201</ele>
        <time>2018-06-27T09:50:25Z</time>
      </trkpt>
      <trkpt lat="45.93952" lon="4.79374">
        <ele>201</ele>
        <time>2018-06-27T09:50:26Z</time>
      </trkpt>
      <trkpt lat="45.93952" lon="4.79362">
        <ele>201</ele>
        <time>2018-06-27T09:50:27Z</time>
      </trkpt>
      <trkpt lat="45.93953" lon="4.79351">
        <ele>200</ele>
        <time>2018-06-27T09:50:28Z</time>
      </trkpt>
      <trkpt lat="45.93953" lon="4.7934">
        <ele>200</ele>
        <time>2018-06-27T09:50:29Z</time>
      </trkpt>
      <trkpt lat="45.93952" lon="4.79329">
        <ele>199</ele>
        <time>2018-06-27T09:50:30Z</time>
      </trkpt>
      <trkpt lat="45.93954" lon="4.79316">
        <ele>199</ele>
        <time>2018-06-27T09:50:31Z</time>
      </trkpt>
      <trkpt lat="45.93955" lon="4.79304">
        <ele>199</ele>
        <time>2018-06-27T09:50:32Z</time>
      </trkpt>
      <trkpt lat="45.93954" lon="4.79293">
        <ele>199</ele>
        <time>2018-06-27T09:50:33Z</time>
      </trkpt>
      <trkpt lat="45.93954" lon="4.79282">
        <ele>198</ele>
        <time>2018-06-27T09:50:34Z</time>
      </trkpt>
      <trkpt lat="45.93954" lon="4.79272">
        <ele>198</ele>
        <time>2018-06-27T09:50:35Z</time>
      </trkpt>
      <trkpt lat="45.93953" lon="4.7926">
        <ele>198</ele>
        <time>2018-06-27T09:50:36Z</time>
      </trkpt>
      <trkpt lat="45.93954" lon="4.79249">
        <ele>197</ele>
        <time>2018-06-27T09:50:37Z</time>
      </trkpt>
      <trkpt lat="45.93951" lon="4.79236">
        <ele>197</ele>
        <time>2018-06-27T09:50:38Z</time>
      </trkpt>
      <trkpt lat="45.93951" lon="4.79224">
        <ele>197</ele>
        <time>2018-06-27T09:50:39Z</time>
      </trkpt>
      <trkpt lat="45.9395" lon="4.79212">
        <ele>197</ele>
        <time>2018-06-27T09:50:40Z</time>
      </trkpt>
      <trkpt lat="45.93949" lon="4.79201">
        <ele>197</ele>
        <time>2018-06-27T09:50:41Z</time>
      </trkpt>
      <trkpt lat="45.9395" lon="4.79189">
        <ele>197</ele>
        <time>2018-06-27T09:50:42Z</time>
      </trkpt>
      <trkpt lat="45.9395" lon="4.79177">
        <ele>197</ele>
        <time>2018-06-27T09:50:43Z</time>
      </trkpt>
      <trkpt lat="45.9395" lon="4.79167">
        <ele>197</ele>
        <time>2018-06-27T09:50:44Z</time>
      </trkpt>
      <trkpt lat="45.9395" lon="4.79156">
        <ele>197</ele>
        <time>2018-06-27T09:50:45Z</time>
      </trkpt>
      <trkpt lat="45.93951" lon="4.79146">
        <ele>197</ele>
        <time>2018-06-27T09:50:46Z</time>
      </trkpt>
      <trkpt lat="45.93952" lon="4.79136">
        <ele>197</ele>
        <time>2018-06-27T09:50:47Z</time>
      </trkpt>
      <trkpt lat="45.93952" lon="4.79126">
        <ele>197</ele>
        <time>2018-06-27T09:50:48Z</time>
      </trkpt>
      <trkpt lat="45.93953" lon="4.79115">
        <ele>197</ele>
        <time>2018-06-27T09:50:49Z</time>
      </trkpt>
      <trkpt lat="45.93952" lon="4.79104">
        <ele>197</ele>
        <time>2018-06-27T09:50:50Z</time>
      </trkpt>
      <trkpt lat="45.93951" lon="4.79093">
        <ele>197</ele>
        <time>2018-06-27T09:50:51Z</time>
      </trkpt>
      <trkpt lat="45.9395" lon="4.79081">
        <ele>196</ele>
        <time>2018-06-27T09:50:52Z</time>
      </trkpt>
      <trkpt lat="45.93948" lon="4.7907">
        <ele>196</ele>
        <time>2018-06-27T09:50:53Z</time>
      </trkpt>
      <trkpt lat="45.93948" lon="4.79059">
        <ele>196</ele>
        <time>2018-06-27T09:50:54Z</time>
      </trkpt>
      <trkpt lat="45.93947" lon="4.79048">
        <ele>196</ele>
        <time>2018-06-27T09:50:55Z</time>
      </trkpt>
      <trkpt lat="45.9395" lon="4.79036">
        <ele>196</ele>
        <time>2018-06-27T09:50:56Z</time>
      </trkpt>
      <trkpt lat="45.9395" lon="4.79025">
        <ele>195</ele>
        <time>2018-06-27T09:50:57Z</time>
      </trkpt>
      <trkpt lat="45.9395" lon="4.79015">
        <ele>195</ele>
        <time>2018-06-27T09:50:58Z</time>
      </trkpt>
      <trkpt lat="45.93949" lon="4.79004">
        <ele>195</ele>
        <time>2018-06-27T09:50:59Z</time>
      </trkpt>
      <trkpt lat="45.93948" lon="4.78993">
        <ele>194</ele>
        <time>2018-06-27T09:51:00Z</time>
      </trkpt>
      <trkpt lat="45.93952" lon="4.78985">
        <ele>194</ele>
        <time>2018-06-27T09:51:01Z</time>
      </trkpt>
      <trkpt lat="45.93952" lon="4.78974">
        <ele>194</ele>
        <time>2018-06-27T09:51:02Z</time>
      </trkpt>
      <trkpt lat="45.93951" lon="4.78964">
        <ele>194</ele>
        <time>2018-06-27T09:51:03Z</time>
      </trkpt>
      <trkpt lat="45.9395" lon="4.78953">
        <ele>194</ele>
        <time>2018-06-27T09:51:04Z</time>
      </trkpt>
      <trkpt lat="45.9395" lon="4.78943">
        <ele>194</ele>
        <time>2018-06-27T09:51:05Z</time>
      </trkpt>
      <trkpt lat="45.93949" lon="4.78932">
        <ele>194</ele>
        <time>2018-06-27T09:51:06Z</time>
      </trkpt>
      <trkpt lat="45.93954" lon="4.78925">
        <ele>194</ele>
        <time>2018-06-27T09:51:07Z</time>
      </trkpt>
      <trkpt lat="45.93954" lon="4.78915">
        <ele>194</ele>
        <time>2018-06-27T09:51:08Z</time>
      </trkpt>
      <trkpt lat="45.93954" lon="4.78906">
        <ele>194</ele>
        <time>2018-06-27T09:51:09Z</time>
      </trkpt>
      <trkpt lat="45.93952" lon="4.78894">
        <ele>194</ele>
        <time>2018-06-27T09:51:10Z</time>
      </trkpt>
      <trkpt lat="45.93951" lon="4.78885">
        <ele>194</ele>
        <time>2018-06-27T09:51:11Z</time>
      </trkpt>
      <trkpt lat="45.9395" lon="4.78874">
        <ele>194</ele>
        <time>2018-06-27T09:51:12Z</time>
      </trkpt>
      <trkpt lat="45.93951" lon="4.78864">
        <ele>194</ele>
        <time>2018-06-27T09:51:13Z</time>
      </trkpt>
      <trkpt lat="45.9395" lon="4.78853">
        <ele>194</ele>
        <time>2018-06-27T09:51:14Z</time>
      </trkpt>
      <trkpt lat="45.93949" lon="4.78843">
        <ele>194</ele>
        <time>2018-06-27T09:51:15Z</time>
      </trkpt>
      <trkpt lat="45.93947" lon="4.78832">
        <ele>194</ele>
        <time>2018-06-27T09:51:16Z</time>
      </trkpt>
      <trkpt lat="45.93947" lon="4.78822">
        <ele>194</ele>
        <time>2018-06-27T09:51:17Z</time>
      </trkpt>
      <trkpt lat="45.93943" lon="4.78809">
        <ele>194</ele>
        <time>2018-06-27T09:51:18Z</time>
      </trkpt>
      <trkpt lat="45.93942" lon="4.78799">
        <ele>194</ele>
        <time>2018-06-27T09:51:19Z</time>
      </trkpt>
      <trkpt lat="45.93941" lon="4.78789">
        <ele>194</ele>
        <time>2018-06-27T09:51:20Z</time>
      </trkpt>
      <trkpt lat="45.93939" lon="4.7878">
        <ele>194</ele>
        <time>2018-06-27T09:51:21Z</time>
      </trkpt>
      <trkpt lat="45.93939" lon="4.78771">
        <ele>194</ele>
        <time>2018-06-27T09:51:22Z</time>
      </trkpt>
      <trkpt lat="45.9394" lon="4.78763">
        <ele>193</ele>
        <time>2018-06-27T09:51:23Z</time>
      </trkpt>
      <trkpt lat="45.93939" lon="4.78755">
        <ele>193</ele>
        <time>2018-06-27T09:51:24Z</time>
      </trkpt>
      <trkpt lat="45.93939" lon="4.78746">
        <ele>193</ele>
        <time>2018-06-27T09:51:25Z</time>
      </trkpt>
      <trkpt lat="45.9394" lon="4.78739">
        <ele>194</ele>
        <time>2018-06-27T09:51:26Z</time>
      </trkpt>
      <trkpt lat="45.93939" lon="4.78729">
        <ele>194</ele>
        <time>2018-06-27T09:51:27Z</time>
      </trkpt>
      <trkpt lat="45.9394" lon="4.78722">
        <ele>194</ele>
        <time>2018-06-27T09:51:28Z</time>
      </trkpt>
      <trkpt lat="45.9394" lon="4.78715">
        <ele>194</ele>
        <time>2018-06-27T09:51:29Z</time>
      </trkpt>
      <trkpt lat="45.93941" lon="4.78706">
        <ele>194</ele>
        <time>2018-06-27T09:51:30Z</time>
      </trkpt>
      <trkpt lat="45.93941" lon="4.78698">
        <ele>194</ele>
        <time>2018-06-27T09:51:31Z</time>
      </trkpt>
      <trkpt lat="45.93943" lon="4.7869">
        <ele>194</ele>
        <time>2018-06-27T09:51:32Z</time>
      </trkpt>
      <trkpt lat="45.93943" lon="4.78682">
        <ele>194</ele>
        <time>2018-06-27T09:51:33Z</time>
      </trkpt>
      <trkpt lat="45.93943" lon="4.78674">
        <ele>194</ele>
        <time>2018-06-27T09:51:34Z</time>
      </trkpt>
      <trkpt lat="45.93945" lon="4.78665">
        <ele>195</ele>
        <time>2018-06-27T09:51:35Z</time>
      </trkpt>
      <trkpt lat="45.93942" lon="4.78656">
        <ele>195</ele>
        <time>2018-06-27T09:51:36Z</time>
      </trkpt>
      <trkpt lat="45.93942" lon="4.78647">
        <ele>195</ele>
        <time>2018-06-27T09:51:37Z</time>
      </trkpt>
      <trkpt lat="45.93942" lon="4.78638">
        <ele>195</ele>
        <time>2018-06-27T09:51:38Z</time>
      </trkpt>
      <trkpt lat="45.93942" lon="4.7863">
        <ele>196</ele>
        <time>2018-06-27T09:51:39Z</time>
      </trkpt>
      <trkpt lat="45.93942" lon="4.78622">
        <ele>196</ele>
        <time>2018-06-27T09:51:40Z</time>
      </trkpt>
      <trkpt lat="45.93939" lon="4.78614">
        <ele>196</ele>
        <time>2018-06-27T09:51:41Z</time>
      </trkpt>
      <trkpt lat="45.93938" lon="4.78607">
        <ele>196</ele>
        <time>2018-06-27T09:51:42Z</time>
      </trkpt>
      <trkpt lat="45.93941" lon="4.78597">
        <ele>196</ele>
        <time>2018-06-27T09:51:43Z</time>
      </trkpt>
      <trkpt lat="45.93941" lon="4.7859">
        <ele>196</ele>
        <time>2018-06-27T09:51:44Z</time>
      </trkpt>
      <trkpt lat="45.9394" lon="4.78583">
        <ele>196</ele>
        <time>2018-06-27T09:51:45Z</time>
      </trkpt>
      <trkpt lat="45.93941" lon="4.78576">
        <ele>197</ele>
        <time>2018-06-27T09:51:46Z</time>
      </trkpt>
      <trkpt lat="45.93939" lon="4.78564">
        <ele>197</ele>
        <time>2018-06-27T09:51:48Z</time>
      </trkpt>
      <trkpt lat="45.93939" lon="4.78559">
        <ele>197</ele>
        <time>2018-06-27T09:51:49Z</time>
      </trkpt>
      <trkpt lat="45.93938" lon="4.78549">
        <ele>197</ele>
        <time>2018-06-27T09:51:51Z</time>
      </trkpt>
      <trkpt lat="45.93937" lon="4.78542">
        <ele>197</ele>
        <time>2018-06-27T09:51:52Z</time>
      </trkpt>
      <trkpt lat="45.93937" lon="4.78536">
        <ele>197</ele>
        <time>2018-06-27T09:51:53Z</time>
      </trkpt>
      <trkpt lat="45.93939" lon="4.78528">
        <ele>197</ele>
        <time>2018-06-27T09:51:54Z</time>
      </trkpt>
      <trkpt lat="45.9394" lon="4.78522">
        <ele>197</ele>
        <time>2018-06-27T09:51:55Z</time>
      </trkpt>
      <trkpt lat="45.9394" lon="4.78515">
        <ele>197</ele>
        <time>2018-06-27T09:51:56Z</time>
      </trkpt>
      <trkpt lat="45.93941" lon="4.78508">
        <ele>197</ele>
        <time>2018-06-27T09:51:57Z</time>
      </trkpt>
      <trkpt lat="45.93941" lon="4.78502">
        <ele>197</ele>
        <time>2018-06-27T09:51:58Z</time>
      </trkpt>
      <trkpt lat="45.93942" lon="4.78495">
        <ele>197</ele>
        <time>2018-06-27T09:51:59Z</time>
      </trkpt>
      <trkpt lat="45.93944" lon="4.78488">
        <ele>197</ele>
        <time>2018-06-27T09:52:00Z</time>
      </trkpt>
      <trkpt lat="45.93945" lon="4.78482">
        <ele>197</ele>
        <time>2018-06-27T09:52:01Z</time>
      </trkpt>
      <trkpt lat="45.93945" lon="4.78474">
        <ele>197</ele>
        <time>2018-06-27T09:52:02Z</time>
      </trkpt>
      <trkpt lat="45.93946" lon="4.78466">
        <ele>197</ele>
        <time>2018-06-27T09:52:03Z</time>
      </trkpt>
      <trkpt lat="45.93948" lon="4.7846">
        <ele>197</ele>
        <time>2018-06-27T09:52:04Z</time>
      </trkpt>
      <trkpt lat="45.9395" lon="4.78453">
        <ele>197</ele>
        <time>2018-06-27T09:52:05Z</time>
      </trkpt>
      <trkpt lat="45.93951" lon="4.78445">
        <ele>197</ele>
        <time>2018-06-27T09:52:06Z</time>
      </trkpt>
      <trkpt lat="45.93951" lon="4.78438">
        <ele>197</ele>
        <time>2018-06-27T09:52:07Z</time>
      </trkpt>
      <trkpt lat="45.93952" lon="4.7843">
        <ele>197</ele>
        <time>2018-06-27T09:52:08Z</time>
      </trkpt>
      <trkpt lat="45.93953" lon="4.78423">
        <ele>197</ele>
        <time>2018-06-27T09:52:09Z</time>
      </trkpt>
      <trkpt lat="45.93954" lon="4.78417">
        <ele>197</ele>
        <time>2018-06-27T09:52:10Z</time>
      </trkpt>
      <trkpt lat="45.93956" lon="4.78409">
        <ele>197</ele>
        <time>2018-06-27T09:52:11Z</time>
      </trkpt>
      <trkpt lat="45.93957" lon="4.78401">
        <ele>197</ele>
        <time>2018-06-27T09:52:12Z</time>
      </trkpt>
      <trkpt lat="45.93958" lon="4.78395">
        <ele>197</ele>
        <time>2018-06-27T09:52:13Z</time>
      </trkpt>
      <trkpt lat="45.93962" lon="4.78389">
        <ele>197</ele>
        <time>2018-06-27T09:52:14Z</time>
      </trkpt>
      <trkpt lat="45.93963" lon="4.78382">
        <ele>197</ele>
        <time>2018-06-27T09:52:15Z</time>
      </trkpt>
      <trkpt lat="45.93961" lon="4.78375">
        <ele>197</ele>
        <time>2018-06-27T09:52:16Z</time>
      </trkpt>
      <trkpt lat="45.93961" lon="4.78367">
        <ele>197</ele>
        <time>2018-06-27T09:52:17Z</time>
      </trkpt>
      <trkpt lat="45.93962" lon="4.7836">
        <ele>197</ele>
        <time>2018-06-27T09:52:18Z</time>
      </trkpt>
      <trkpt lat="45.93963" lon="4.78348">
        <ele>197</ele>
        <time>2018-06-27T09:52:21Z</time>
      </trkpt>
      <trkpt lat="45.93964" lon="4.78338">
        <ele>197</ele>
        <time>2018-06-27T09:52:22Z</time>
      </trkpt>
      <trkpt lat="45.93965" lon="4.78328">
        <ele>196</ele>
        <time>2018-06-27T09:52:24Z</time>
      </trkpt>
      <trkpt lat="45.93966" lon="4.78323">
        <ele>196</ele>
        <time>2018-06-27T09:52:25Z</time>
      </trkpt>
      <trkpt lat="45.93969" lon="4.78311">
        <ele>196</ele>
        <time>2018-06-27T09:52:27Z</time>
      </trkpt>
      <trkpt lat="45.93968" lon="4.78303">
        <ele>196</ele>
        <time>2018-06-27T09:52:28Z</time>
      </trkpt>
      <trkpt lat="45.93969" lon="4.78296">
        <ele>196</ele>
        <time>2018-06-27T09:52:29Z</time>
      </trkpt>
      <trkpt lat="45.93969" lon="4.78288">
        <ele>196</ele>
        <time>2018-06-27T09:52:30Z</time>
      </trkpt>
      <trkpt lat="45.9397" lon="4.78281">
        <ele>196</ele>
        <time>2018-06-27T09:52:31Z</time>
      </trkpt>
      <trkpt lat="45.93972" lon="4.78275">
        <ele>196</ele>
        <time>2018-06-27T09:52:32Z</time>
      </trkpt>
      <trkpt lat="45.93973" lon="4.78269">
        <ele>196</ele>
        <time>2018-06-27T09:52:33Z</time>
      </trkpt>
      <trkpt lat="45.93974" lon="4.78262">
        <ele>196</ele>
        <time>2018-06-27T09:52:34Z</time>
      </trkpt>
      <trkpt lat="45.93974" lon="4.78249">
        <ele>197</ele>
        <time>2018-06-27T09:52:36Z</time>
      </trkpt>
      <trkpt lat="45.93976" lon="4.78242">
        <ele>197</ele>
        <time>2018-06-27T09:52:37Z</time>
      </trkpt>
      <trkpt lat="45.93975" lon="4.78231">
        <ele>196</ele>
        <time>2018-06-27T09:52:39Z</time>
      </trkpt>
      <trkpt lat="45.93976" lon="4.78224">
        <ele>196</ele>
        <time>2018-06-27T09:52:40Z</time>
      </trkpt>
      <trkpt lat="45.93976" lon="4.78218">
        <ele>197</ele>
        <time>2018-06-27T09:52:41Z</time>
      </trkpt>
      <trkpt lat="45.93973" lon="4.78211">
        <ele>196</ele>
        <time>2018-06-27T09:52:42Z</time>
      </trkpt>
      <trkpt lat="45.93975" lon="4.782">
        <ele>197</ele>
        <time>2018-06-27T09:52:44Z</time>
      </trkpt>
      <trkpt lat="45.93977" lon="4.78194">
        <ele>197</ele>
        <time>2018-06-27T09:52:45Z</time>
      </trkpt>
      <trkpt lat="45.93981" lon="4.78184">
        <ele>198</ele>
        <time>2018-06-27T09:52:47Z</time>
      </trkpt>
      <trkpt lat="45.93983" lon="4.78182">
        <ele>198</ele>
        <time>2018-06-27T09:52:48Z</time>
      </trkpt>
      <trkpt lat="45.93988" lon="4.78174">
        <ele>199</ele>
        <time>2018-06-27T09:52:51Z</time>
      </trkpt>
      <trkpt lat="45.93989" lon="4.78171">
        <ele>199</ele>
        <time>2018-06-27T09:52:52Z</time>
      </trkpt>
      <trkpt lat="45.93994" lon="4.78161">
        <ele>199</ele>
        <time>2018-06-27T09:52:53Z</time>
      </trkpt>
      <trkpt lat="45.93996" lon="4.78156">
        <ele>199</ele>
        <time>2018-06-27T09:52:54Z</time>
      </trkpt>
      <trkpt lat="45.93998" lon="4.78149">
        <ele>199</ele>
        <time>2018-06-27T09:52:55Z</time>
      </trkpt>
      <trkpt lat="45.93999" lon="4.78141">
        <ele>198</ele>
        <time>2018-06-27T09:52:56Z</time>
      </trkpt>
      <trkpt lat="45.94" lon="4.78134">
        <ele>198</ele>
        <time>2018-06-27T09:52:57Z</time>
      </trkpt>
      <trkpt lat="45.94002" lon="4.78127">
        <ele>203</ele>
        <time>2018-06-27T09:52:58Z</time>
      </trkpt>
      <trkpt lat="45.94004" lon="4.7812">
        <ele>203</ele>
        <time>2018-06-27T09:52:59Z</time>
      </trkpt>
      <trkpt lat="45.94004" lon="4.78113">
        <ele>203</ele>
        <time>2018-06-27T09:53:00Z</time>
      </trkpt>
      <trkpt lat="45.94004" lon="4.78105">
        <ele>202</ele>
        <time>2018-06-27T09:53:01Z</time>
      </trkpt>
      <trkpt lat="45.94001" lon="4.78097">
        <ele>201</ele>
        <time>2018-06-27T09:53:02Z</time>
      </trkpt>
      <trkpt lat="45.94002" lon="4.78089">
        <ele>200</ele>
        <time>2018-06-27T09:53:03Z</time>
      </trkpt>
      <trkpt lat="45.94005" lon="4.78083">
        <ele>200</ele>
        <time>2018-06-27T09:53:04Z</time>
      </trkpt>
      <trkpt lat="45.94006" lon="4.78076">
        <ele>200</ele>
        <time>2018-06-27T09:53:05Z</time>
      </trkpt>
      <trkpt lat="45.94008" lon="4.78069">
        <ele>201</ele>
        <time>2018-06-27T09:53:06Z</time>
      </trkpt>
      <trkpt lat="45.94008" lon="4.78061">
        <ele>201</ele>
        <time>2018-06-27T09:53:07Z</time>
      </trkpt>
      <trkpt lat="45.94009" lon="4.78054">
        <ele>201</ele>
        <time>2018-06-27T09:53:08Z</time>
      </trkpt>
      <trkpt lat="45.94011" lon="4.78046">
        <ele>201</ele>
        <time>2018-06-27T09:53:09Z</time>
      </trkpt>
      <trkpt lat="45.94013" lon="4.7804">
        <ele>201</ele>
        <time>2018-06-27T09:53:10Z</time>
      </trkpt>
      <trkpt lat="45.94016" lon="4.78033">
        <ele>201</ele>
        <time>2018-06-27T09:53:11Z</time>
      </trkpt>
      <trkpt lat="45.94018" lon="4.78026">
        <ele>201</ele>
        <time>2018-06-27T09:53:12Z</time>
      </trkpt>
      <trkpt lat="45.94019" lon="4.7802">
        <ele>201</ele>
        <time>2018-06-27T09:53:13Z</time>
      </trkpt>
      <trkpt lat="45.9402" lon="4.7801">
        <ele>200</ele>
        <time>2018-06-27T09:53:14Z</time>
      </trkpt>
      <trkpt lat="45.94022" lon="4.78003">
        <ele>200</ele>
        <time>2018-06-27T09:53:15Z</time>
      </trkpt>
      <trkpt lat="45.94025" lon="4.77996">
        <ele>200</ele>
        <time>2018-06-27T09:53:16Z</time>
      </trkpt>
      <trkpt lat="45.94027" lon="4.77989">
        <ele>200</ele>
        <time>2018-06-27T09:53:17Z</time>
      </trkpt>
      <trkpt lat="45.94029" lon="4.7798">
        <ele>201</ele>
        <time>2018-06-27T09:53:18Z</time>
      </trkpt>
      <trkpt lat="45.9403" lon="4.77971">
        <ele>201</ele>
        <time>2018-06-27T09:53:19Z</time>
      </trkpt>
      <trkpt lat="45.94031" lon="4.77964">
        <ele>201</ele>
        <time>2018-06-27T09:53:20Z</time>
      </trkpt>
      <trkpt lat="45.94026" lon="4.77953">
        <ele>200</ele>
        <time>2018-06-27T09:53:21Z</time>
      </trkpt>
      <trkpt lat="45.94026" lon="4.77946">
        <ele>200</ele>
        <time>2018-06-27T09:53:22Z</time>
      </trkpt>
      <trkpt lat="45.94029" lon="4.77939">
        <ele>200</ele>
        <time>2018-06-27T09:53:23Z</time>
      </trkpt>
      <trkpt lat="45.94032" lon="4.77934">
        <ele>200</ele>
        <time>2018-06-27T09:53:24Z</time>
      </trkpt>
      <trkpt lat="45.94028" lon="4.77922">
        <ele>199</ele>
        <time>2018-06-27T09:53:26Z</time>
      </trkpt>
      <trkpt lat="45.94024" lon="4.77921">
        <ele>199</ele>
        <time>2018-06-27T09:53:27Z</time>
      </trkpt>
      <trkpt lat="45.94018" lon="4.77922">
        <ele>198</ele>
        <time>2018-06-27T09:53:28Z</time>
      </trkpt>
      <trkpt lat="45.94009" lon="4.77919">
        <ele>196</ele>
        <time>2018-06-27T09:53:29Z</time>
      </trkpt>
      <trkpt lat="45.94003" lon="4.77918">
        <ele>195</ele>
        <time>2018-06-27T09:53:30Z</time>
      </trkpt>
      <trkpt lat="45.93998" lon="4.77922">
        <ele>193</ele>
        <time>2018-06-27T09:53:31Z</time>
      </trkpt>
      <trkpt lat="45.93991" lon="4.77925">
        <ele>192</ele>
        <time>2018-06-27T09:53:32Z</time>
      </trkpt>
      <trkpt lat="45.93985" lon="4.77931">
        <ele>192</ele>
        <time>2018-06-27T09:53:33Z</time>
      </trkpt>
      <trkpt lat="45.93978" lon="4.77936">
        <ele>191</ele>
        <time>2018-06-27T09:53:34Z</time>
      </trkpt>
      <trkpt lat="45.93971" lon="4.77941">
        <ele>191</ele>
        <time>2018-06-27T09:53:35Z</time>
      </trkpt>
      <trkpt lat="45.93964" lon="4.77946">
        <ele>190</ele>
        <time>2018-06-27T09:53:36Z</time>
      </trkpt>
      <trkpt lat="45.93956" lon="4.77952">
        <ele>190</ele>
        <time>2018-06-27T09:53:37Z</time>
      </trkpt>
      <trkpt lat="45.93951" lon="4.77957">
        <ele>190</ele>
        <time>2018-06-27T09:53:38Z</time>
      </trkpt>
      <trkpt lat="45.93946" lon="4.77961">
        <ele>189</ele>
        <time>2018-06-27T09:53:39Z</time>
      </trkpt>
      <trkpt lat="45.93937" lon="4.77969">
        <ele>189</ele>
        <time>2018-06-27T09:53:40Z</time>
      </trkpt>
      <trkpt lat="45.9393" lon="4.77973">
        <ele>189</ele>
        <time>2018-06-27T09:53:41Z</time>
      </trkpt>
      <trkpt lat="45.93924" lon="4.77977">
        <ele>188</ele>
        <time>2018-06-27T09:53:42Z</time>
      </trkpt>
      <trkpt lat="45.93914" lon="4.77984">
        <ele>183</ele>
        <time>2018-06-27T09:53:43Z</time>
      </trkpt>
      <trkpt lat="45.93908" lon="4.77991">
        <ele>183</ele>
        <time>2018-06-27T09:53:44Z</time>
      </trkpt>
      <trkpt lat="45.93902" lon="4.77998">
        <ele>183</ele>
        <time>2018-06-27T09:53:45Z</time>
      </trkpt>
      <trkpt lat="45.93895" lon="4.78004">
        <ele>185</ele>
        <time>2018-06-27T09:53:47Z</time>
      </trkpt>
      <trkpt lat="45.93893" lon="4.78007">
        <ele>184</ele>
        <time>2018-06-27T09:53:48Z</time>
      </trkpt>
      <trkpt lat="45.93886" lon="4.78013">
        <ele>184</ele>
        <time>2018-06-27T09:53:51Z</time>
      </trkpt>
      <trkpt lat="45.93884" lon="4.78014">
        <ele>184</ele>
        <time>2018-06-27T09:53:52Z</time>
      </trkpt>
      <trkpt lat="45.93876" lon="4.78012">
        <ele>183</ele>
        <time>2018-06-27T09:54:05Z</time>
      </trkpt>
      <trkpt lat="45.93875" lon="4.78012">
        <ele>183</ele>
        <time>2018-06-27T09:54:06Z</time>
      </trkpt>
      <trkpt lat="45.93871" lon="4.78007">
        <ele>183</ele>
        <time>2018-06-27T09:54:09Z</time>
      </trkpt>
      <trkpt lat="45.93866" lon="4.77999">
        <ele>180</ele>
        <time>2018-06-27T09:54:10Z</time>
      </trkpt>
      <trkpt lat="45.9386" lon="4.77993">
        <ele>179</ele>
        <time>2018-06-27T09:54:12Z</time>
      </trkpt>
      <trkpt lat="45.93856" lon="4.77991">
        <ele>179</ele>
        <time>2018-06-27T09:54:13Z</time>
      </trkpt>
      <trkpt lat="45.93851" lon="4.77989">
        <ele>179</ele>
        <time>2018-06-27T09:54:14Z</time>
      </trkpt>
      <trkpt lat="45.93847" lon="4.77987">
        <ele>179</ele>
        <time>2018-06-27T09:54:15Z</time>
      </trkpt>
      <trkpt lat="45.93843" lon="4.77984">
        <ele>178</ele>
        <time>2018-06-27T09:54:16Z</time>
      </trkpt>
      <trkpt lat="45.93839" lon="4.7798">
        <ele>178</ele>
        <time>2018-06-27T09:54:17Z</time>
      </trkpt>
      <trkpt lat="45.93833" lon="4.77971">
        <ele>172</ele>
        <time>2018-06-27T09:54:19Z</time>
      </trkpt>
      <trkpt lat="45.93832" lon="4.77969">
        <ele>172</ele>
        <time>2018-06-27T09:54:20Z</time>
      </trkpt>
      <trkpt lat="45.93828" lon="4.77963">
        <ele>171</ele>
        <time>2018-06-27T09:54:21Z</time>
      </trkpt>
      <trkpt lat="45.93826" lon="4.77959">
        <ele>170</ele>
        <time>2018-06-27T09:54:22Z</time>
      </trkpt>
      <trkpt lat="45.9382" lon="4.7795">
        <ele>170</ele>
        <time>2018-06-27T09:54:24Z</time>
      </trkpt>
      <trkpt lat="45.93817" lon="4.77946">
        <ele>169</ele>
        <time>2018-06-27T09:54:25Z</time>
      </trkpt>
      <trkpt lat="45.9381" lon="4.77937">
        <ele>169</ele>
        <time>2018-06-27T09:54:27Z</time>
      </trkpt>
      <trkpt lat="45.93807" lon="4.77933">
        <ele>168</ele>
        <time>2018-06-27T09:54:28Z</time>
      </trkpt>
      <trkpt lat="45.93803" lon="4.77929">
        <ele>168</ele>
        <time>2018-06-27T09:54:29Z</time>
      </trkpt>
      <trkpt lat="45.93799" lon="4.77924">
        <ele>168</ele>
        <time>2018-06-27T09:54:30Z</time>
      </trkpt>
      <trkpt lat="45.93795" lon="4.7792">
        <ele>168</ele>
        <time>2018-06-27T09:54:31Z</time>
      </trkpt>
      <trkpt lat="45.93791" lon="4.77915">
        <ele>166</ele>
        <time>2018-06-27T09:54:32Z</time>
      </trkpt>
      <trkpt lat="45.93787" lon="4.77911">
        <ele>166</ele>
        <time>2018-06-27T09:54:33Z</time>
      </trkpt>
      <trkpt lat="45.93784" lon="4.77906">
        <ele>166</ele>
        <time>2018-06-27T09:54:34Z</time>
      </trkpt>
      <trkpt lat="45.9378" lon="4.77902">
        <ele>166</ele>
        <time>2018-06-27T09:54:35Z</time>
      </trkpt>
      <trkpt lat="45.93777" lon="4.77898">
        <ele>166</ele>
        <time>2018-06-27T09:54:36Z</time>
      </trkpt>
      <trkpt lat="45.93773" lon="4.77893">
        <ele>166</ele>
        <time>2018-06-27T09:54:37Z</time>
      </trkpt>
      <trkpt lat="45.93769" lon="4.77888">
        <ele>166</ele>
        <time>2018-06-27T09:54:38Z</time>
      </trkpt>
      <trkpt lat="45.93765" lon="4.77883">
        <ele>166</ele>
        <time>2018-06-27T09:54:39Z</time>
      </trkpt>
      <trkpt lat="45.93762" lon="4.77877">
        <ele>166</ele>
        <time>2018-06-27T09:54:40Z</time>
      </trkpt>
      <trkpt lat="45.93758" lon="4.77872">
        <ele>166</ele>
        <time>2018-06-27T09:54:41Z</time>
      </trkpt>
      <trkpt lat="45.93754" lon="4.77866">
        <ele>166</ele>
        <time>2018-06-27T09:54:42Z</time>
      </trkpt>
      <trkpt lat="45.9375" lon="4.7786">
        <ele>167</ele>
        <time>2018-06-27T09:54:43Z</time>
      </trkpt>
      <trkpt lat="45.93746" lon="4.77856">
        <ele>167</ele>
        <time>2018-06-27T09:54:44Z</time>
      </trkpt>
      <trkpt lat="45.93744" lon="4.77851">
        <ele>167</ele>
        <time>2018-06-27T09:54:45Z</time>
      </trkpt>
      <trkpt lat="45.93739" lon="4.77846">
        <ele>167</ele>
        <time>2018-06-27T09:54:46Z</time>
      </trkpt>
      <trkpt lat="45.93736" lon="4.7784">
        <ele>167</ele>
        <time>2018-06-27T09:54:47Z</time>
      </trkpt>
      <trkpt lat="45.93731" lon="4.77834">
        <ele>167</ele>
        <time>2018-06-27T09:54:48Z</time>
      </trkpt>
      <trkpt lat="45.93729" lon="4.77828">
        <ele>168</ele>
        <time>2018-06-27T09:54:49Z</time>
      </trkpt>
      <trkpt lat="45.93724" lon="4.77822">
        <ele>168</ele>
        <time>2018-06-27T09:54:50Z</time>
      </trkpt>
      <trkpt lat="45.93719" lon="4.77816">
        <ele>169</ele>
        <time>2018-06-27T09:54:51Z</time>
      </trkpt>
      <trkpt lat="45.93714" lon="4.7781">
        <ele>169</ele>
        <time>2018-06-27T09:54:52Z</time>
      </trkpt>
      <trkpt lat="45.93709" lon="4.77803">
        <ele>169</ele>
        <time>2018-06-27T09:54:53Z</time>
      </trkpt>
      <trkpt lat="45.93704" lon="4.77798">
        <ele>169</ele>
        <time>2018-06-27T09:54:54Z</time>
      </trkpt>
      <trkpt lat="45.93699" lon="4.77792">
        <ele>169</ele>
        <time>2018-06-27T09:54:55Z</time>
      </trkpt>
      <trkpt lat="45.93694" lon="4.77786">
        <ele>170</ele>
        <time>2018-06-27T09:54:56Z</time>
      </trkpt>
      <trkpt lat="45.93689" lon="4.77779">
        <ele>170</ele>
        <time>2018-06-27T09:54:57Z</time>
      </trkpt>
      <trkpt lat="45.93685" lon="4.77772">
        <ele>170</ele>
        <time>2018-06-27T09:54:58Z</time>
      </trkpt>
      <trkpt lat="45.9368" lon="4.77766">
        <ele>170</ele>
        <time>2018-06-27T09:54:59Z</time>
      </trkpt>
      <trkpt lat="45.93674" lon="4.77759">
        <ele>170</ele>
        <time>2018-06-27T09:55:00Z</time>
      </trkpt>
      <trkpt lat="45.93666" lon="4.77753">
        <ele>171</ele>
        <time>2018-06-27T09:55:01Z</time>
      </trkpt>
      <trkpt lat="45.93662" lon="4.77746">
        <ele>171</ele>
        <time>2018-06-27T09:55:02Z</time>
      </trkpt>
      <trkpt lat="45.93658" lon="4.77739">
        <ele>170</ele>
        <time>2018-06-27T09:55:03Z</time>
      </trkpt>
      <trkpt lat="45.93653" lon="4.7773">
        <ele>170</ele>
        <time>2018-06-27T09:55:04Z</time>
      </trkpt>
      <trkpt lat="45.93648" lon="4.7772">
        <ele>170</ele>
        <time>2018-06-27T09:55:05Z</time>
      </trkpt>
      <trkpt lat="45.93643" lon="4.77711">
        <ele>170</ele>
        <time>2018-06-27T09:55:06Z</time>
      </trkpt>
      <trkpt lat="45.93637" lon="4.77701">
        <ele>170</ele>
        <time>2018-06-27T09:55:07Z</time>
      </trkpt>
      <trkpt lat="45.93632" lon="4.77691">
        <ele>169</ele>
        <time>2018-06-27T09:55:08Z</time>
      </trkpt>
      <trkpt lat="45.93627" lon="4.7768">
        <ele>169</ele>
        <time>2018-06-27T09:55:09Z</time>
      </trkpt>
      <trkpt lat="45.93623" lon="4.7767">
        <ele>169</ele>
        <time>2018-06-27T09:55:10Z</time>
      </trkpt>
      <trkpt lat="45.93618" lon="4.7766">
        <ele>169</ele>
        <time>2018-06-27T09:55:11Z</time>
      </trkpt>
      <trkpt lat="45.93614" lon="4.7765">
        <ele>169</ele>
        <time>2018-06-27T09:55:12Z</time>
      </trkpt>
      <trkpt lat="45.93609" lon="4.77639">
        <ele>169</ele>
        <time>2018-06-27T09:55:13Z</time>
      </trkpt>
      <trkpt lat="45.93605" lon="4.77629">
        <ele>169</ele>
        <time>2018-06-27T09:55:14Z</time>
      </trkpt>
      <trkpt lat="45.93602" lon="4.77618">
        <ele>170</ele>
        <time>2018-06-27T09:55:15Z</time>
      </trkpt>
      <trkpt lat="45.93599" lon="4.77609">
        <ele>170</ele>
        <time>2018-06-27T09:55:16Z</time>
      </trkpt>
      <trkpt lat="45.93595" lon="4.776">
        <ele>170</ele>
        <time>2018-06-27T09:55:17Z</time>
      </trkpt>
      <trkpt lat="45.93592" lon="4.77591">
        <ele>170</ele>
        <time>2018-06-27T09:55:18Z</time>
      </trkpt>
      <trkpt lat="45.93589" lon="4.77583">
        <ele>170</ele>
        <time>2018-06-27T09:55:19Z</time>
      </trkpt>
      <trkpt lat="45.93586" lon="4.77575">
        <ele>170</ele>
        <time>2018-06-27T09:55:20Z</time>
      </trkpt>
      <trkpt lat="45.93583" lon="4.77567">
        <ele>170</ele>
        <time>2018-06-27T09:55:21Z</time>
      </trkpt>
      <trkpt lat="45.9358" lon="4.77559">
        <ele>169</ele>
        <time>2018-06-27T09:55:22Z</time>
      </trkpt>
      <trkpt lat="45.93579" lon="4.77551">
        <ele>169</ele>
        <time>2018-06-27T09:55:23Z</time>
      </trkpt>
      <trkpt lat="45.93578" lon="4.77543">
        <ele>169</ele>
        <time>2018-06-27T09:55:24Z</time>
      </trkpt>
      <trkpt lat="45.93576" lon="4.77535">
        <ele>169</ele>
        <time>2018-06-27T09:55:25Z</time>
      </trkpt>
      <trkpt lat="45.93575" lon="4.77526">
        <ele>169</ele>
        <time>2018-06-27T09:55:26Z</time>
      </trkpt>
      <trkpt lat="45.93572" lon="4.77518">
        <ele>169</ele>
        <time>2018-06-27T09:55:27Z</time>
      </trkpt>
      <trkpt lat="45.93572" lon="4.7751">
        <ele>169</ele>
        <time>2018-06-27T09:55:28Z</time>
      </trkpt>
      <trkpt lat="45.93569" lon="4.77502">
        <ele>169</ele>
        <time>2018-06-27T09:55:29Z</time>
      </trkpt>
      <trkpt lat="45.93572" lon="4.77497">
        <ele>169</ele>
        <time>2018-06-27T09:55:30Z</time>
      </trkpt>
      <trkpt lat="45.93569" lon="4.77487">
        <ele>169</ele>
        <time>2018-06-27T09:55:31Z</time>
      </trkpt>
      <trkpt lat="45.93567" lon="4.77477">
        <ele>169</ele>
        <time>2018-06-27T09:55:32Z</time>
      </trkpt>
      <trkpt lat="45.93564" lon="4.77467">
        <ele>169</ele>
        <time>2018-06-27T09:55:33Z</time>
      </trkpt>
      <trkpt lat="45.93561" lon="4.77457">
        <ele>169</ele>
        <time>2018-06-27T09:55:34Z</time>
      </trkpt>
      <trkpt lat="45.93559" lon="4.77448">
        <ele>169</ele>
        <time>2018-06-27T09:55:35Z</time>
      </trkpt>
      <trkpt lat="45.93556" lon="4.77439">
        <ele>169</ele>
        <time>2018-06-27T09:55:36Z</time>
      </trkpt>
      <trkpt lat="45.93554" lon="4.7743">
        <ele>170</ele>
        <time>2018-06-27T09:55:37Z</time>
      </trkpt>
      <trkpt lat="45.93552" lon="4.7742">
        <ele>170</ele>
        <time>2018-06-27T09:55:38Z</time>
      </trkpt>
      <trkpt lat="45.93549" lon="4.77411">
        <ele>170</ele>
        <time>2018-06-27T09:55:39Z</time>
      </trkpt>
      <trkpt lat="45.93547" lon="4.77402">
        <ele>170</ele>
        <time>2018-06-27T09:55:40Z</time>
      </trkpt>
      <trkpt lat="45.93546" lon="4.77393">
        <ele>170</ele>
        <time>2018-06-27T09:55:41Z</time>
      </trkpt>
      <trkpt lat="45.93542" lon="4.77384">
        <ele>170</ele>
        <time>2018-06-27T09:55:42Z</time>
      </trkpt>
      <trkpt lat="45.9354" lon="4.77375">
        <ele>170</ele>
        <time>2018-06-27T09:55:43Z</time>
      </trkpt>
      <trkpt lat="45.93538" lon="4.77365">
        <ele>170</ele>
        <time>2018-06-27T09:55:44Z</time>
      </trkpt>
      <trkpt lat="45.93537" lon="4.77355">
        <ele>170</ele>
        <time>2018-06-27T09:55:45Z</time>
      </trkpt>
      <trkpt lat="45.93534" lon="4.77346">
        <ele>170</ele>
        <time>2018-06-27T09:55:46Z</time>
      </trkpt>
      <trkpt lat="45.93533" lon="4.77337">
        <ele>170</ele>
        <time>2018-06-27T09:55:47Z</time>
      </trkpt>
      <trkpt lat="45.93531" lon="4.77328">
        <ele>170</ele>
        <time>2018-06-27T09:55:48Z</time>
      </trkpt>
      <trkpt lat="45.93528" lon="4.77319">
        <ele>170</ele>
        <time>2018-06-27T09:55:49Z</time>
      </trkpt>
      <trkpt lat="45.93527" lon="4.7731">
        <ele>170</ele>
        <time>2018-06-27T09:55:50Z</time>
      </trkpt>
      <trkpt lat="45.93525" lon="4.77301">
        <ele>170</ele>
        <time>2018-06-27T09:55:51Z</time>
      </trkpt>
      <trkpt lat="45.93523" lon="4.77292">
        <ele>170</ele>
        <time>2018-06-27T09:55:52Z</time>
      </trkpt>
      <trkpt lat="45.93522" lon="4.77284">
        <ele>170</ele>
        <time>2018-06-27T09:55:53Z</time>
      </trkpt>
      <trkpt lat="45.93521" lon="4.77276">
        <ele>170</ele>
        <time>2018-06-27T09:55:54Z</time>
      </trkpt>
      <trkpt lat="45.93519" lon="4.77268">
        <ele>170</ele>
        <time>2018-06-27T09:55:55Z</time>
      </trkpt>
      <trkpt lat="45.93517" lon="4.7726">
        <ele>170</ele>
        <time>2018-06-27T09:55:56Z</time>
      </trkpt>
      <trkpt lat="45.93514" lon="4.77252">
        <ele>170</ele>
        <time>2018-06-27T09:55:57Z</time>
      </trkpt>
      <trkpt lat="45.93512" lon="4.77243">
        <ele>169</ele>
        <time>2018-06-27T09:55:58Z</time>
      </trkpt>
      <trkpt lat="45.93511" lon="4.77234">
        <ele>169</ele>
        <time>2018-06-27T09:55:59Z</time>
      </trkpt>
      <trkpt lat="45.93513" lon="4.77225">
        <ele>169</ele>
        <time>2018-06-27T09:56:00Z</time>
      </trkpt>
      <trkpt lat="45.9351" lon="4.77217">
        <ele>169</ele>
        <time>2018-06-27T09:56:01Z</time>
      </trkpt>
      <trkpt lat="45.93508" lon="4.77208">
        <ele>169</ele>
        <time>2018-06-27T09:56:02Z</time>
      </trkpt>
      <trkpt lat="45.93508" lon="4.77202">
        <ele>169</ele>
        <time>2018-06-27T09:56:03Z</time>
      </trkpt>
      <trkpt lat="45.93507" lon="4.77195">
        <ele>169</ele>
        <time>2018-06-27T09:56:04Z</time>
      </trkpt>
      <trkpt lat="45.93504" lon="4.77187">
        <ele>169</ele>
        <time>2018-06-27T09:56:05Z</time>
      </trkpt>
      <trkpt lat="45.93504" lon="4.77178">
        <ele>169</ele>
        <time>2018-06-27T09:56:06Z</time>
      </trkpt>
      <trkpt lat="45.935" lon="4.7717">
        <ele>169</ele>
        <time>2018-06-27T09:56:07Z</time>
      </trkpt>
      <trkpt lat="45.93498" lon="4.7716">
        <ele>169</ele>
        <time>2018-06-27T09:56:08Z</time>
      </trkpt>
      <trkpt lat="45.93497" lon="4.77152">
        <ele>169</ele>
        <time>2018-06-27T09:56:09Z</time>
      </trkpt>
      <trkpt lat="45.93496" lon="4.77143">
        <ele>169</ele>
        <time>2018-06-27T09:56:10Z</time>
      </trkpt>
      <trkpt lat="45.93495" lon="4.77136">
        <ele>169</ele>
        <time>2018-06-27T09:56:11Z</time>
      </trkpt>
      <trkpt lat="45.93493" lon="4.77127">
        <ele>169</ele>
        <time>2018-06-27T09:56:12Z</time>
      </trkpt>
      <trkpt lat="45.93491" lon="4.77119">
        <ele>169</ele>
        <time>2018-06-27T09:56:13Z</time>
      </trkpt>
      <trkpt lat="45.9349" lon="4.77111">
        <ele>169</ele>
        <time>2018-06-27T09:56:14Z</time>
      </trkpt>
      <trkpt lat="45.93489" lon="4.77102">
        <ele>169</ele>
        <time>2018-06-27T09:56:15Z</time>
      </trkpt>
      <trkpt lat="45.93484" lon="4.77093">
        <ele>169</ele>
        <time>2018-06-27T09:56:16Z</time>
      </trkpt>
      <trkpt lat="45.93482" lon="4.77084">
        <ele>169</ele>
        <time>2018-06-27T09:56:17Z</time>
      </trkpt>
      <trkpt lat="45.9348" lon="4.77076">
        <ele>170</ele>
        <time>2018-06-27T09:56:18Z</time>
      </trkpt>
      <trkpt lat="45.93478" lon="4.77068">
        <ele>170</ele>
        <time>2018-06-27T09:56:19Z</time>
      </trkpt>
      <trkpt lat="45.93476" lon="4.77059">
        <ele>170</ele>
        <time>2018-06-27T09:56:20Z</time>
      </trkpt>
      <trkpt lat="45.93478" lon="4.77051">
        <ele>170</ele>
        <time>2018-06-27T09:56:21Z</time>
      </trkpt>
      <trkpt lat="45.93478" lon="4.77042">
        <ele>170</ele>
        <time>2018-06-27T09:56:22Z</time>
      </trkpt>
      <trkpt lat="45.93478" lon="4.77034">
        <ele>170</ele>
        <time>2018-06-27T09:56:23Z</time>
      </trkpt>
      <trkpt lat="45.93476" lon="4.77026">
        <ele>170</ele>
        <time>2018-06-27T09:56:24Z</time>
      </trkpt>
      <trkpt lat="45.93473" lon="4.77016">
        <ele>170</ele>
        <time>2018-06-27T09:56:25Z</time>
      </trkpt>
      <trkpt lat="45.9347" lon="4.77008">
        <ele>170</ele>
        <time>2018-06-27T09:56:26Z</time>
      </trkpt>
      <trkpt lat="45.9347" lon="4.77">
        <ele>170</ele>
        <time>2018-06-27T09:56:27Z</time>
      </trkpt>
      <trkpt lat="45.93469" lon="4.76991">
        <ele>170</ele>
        <time>2018-06-27T09:56:28Z</time>
      </trkpt>
      <trkpt lat="45.93466" lon="4.76981">
        <ele>170</ele>
        <time>2018-06-27T09:56:29Z</time>
      </trkpt>
      <trkpt lat="45.93467" lon="4.76973">
        <ele>170</ele>
        <time>2018-06-27T09:56:30Z</time>
      </trkpt>
      <trkpt lat="45.93465" lon="4.76965">
        <ele>170</ele>
        <time>2018-06-27T09:56:31Z</time>
      </trkpt>
      <trkpt lat="45.93464" lon="4.76956">
        <ele>170</ele>
        <time>2018-06-27T09:56:32Z</time>
      </trkpt>
      <trkpt lat="45.93462" lon="4.76948">
        <ele>170</ele>
        <time>2018-06-27T09:56:33Z</time>
      </trkpt>
      <trkpt lat="45.93461" lon="4.7694">
        <ele>170</ele>
        <time>2018-06-27T09:56:34Z</time>
      </trkpt>
      <trkpt lat="45.9346" lon="4.76931">
        <ele>170</ele>
        <time>2018-06-27T09:56:35Z</time>
      </trkpt>
      <trkpt lat="45.93457" lon="4.76922">
        <ele>170</ele>
        <time>2018-06-27T09:56:36Z</time>
      </trkpt>
      <trkpt lat="45.93453" lon="4.76912">
        <ele>170</ele>
        <time>2018-06-27T09:56:37Z</time>
      </trkpt>
      <trkpt lat="45.93452" lon="4.76903">
        <ele>170</ele>
        <time>2018-06-27T09:56:38Z</time>
      </trkpt>
      <trkpt lat="45.9345" lon="4.76895">
        <ele>170</ele>
        <time>2018-06-27T09:56:39Z</time>
      </trkpt>
      <trkpt lat="45.93447" lon="4.76886">
        <ele>170</ele>
        <time>2018-06-27T09:56:40Z</time>
      </trkpt>
      <trkpt lat="45.93445" lon="4.76877">
        <ele>170</ele>
        <time>2018-06-27T09:56:41Z</time>
      </trkpt>
      <trkpt lat="45.93442" lon="4.76869">
        <ele>171</ele>
        <time>2018-06-27T09:56:42Z</time>
      </trkpt>
      <trkpt lat="45.93438" lon="4.76862">
        <ele>171</ele>
        <time>2018-06-27T09:56:43Z</time>
      </trkpt>
      <trkpt lat="45.93435" lon="4.76855">
        <ele>171</ele>
        <time>2018-06-27T09:56:44Z</time>
      </trkpt>
      <trkpt lat="45.93431" lon="4.76847">
        <ele>171</ele>
        <time>2018-06-27T09:56:45Z</time>
      </trkpt>
      <trkpt lat="45.93428" lon="4.76841">
        <ele>171</ele>
        <time>2018-06-27T09:56:46Z</time>
      </trkpt>
      <trkpt lat="45.93424" lon="4.76833">
        <ele>172</ele>
        <time>2018-06-27T09:56:47Z</time>
      </trkpt>
      <trkpt lat="45.9342" lon="4.76826">
        <ele>172</ele>
        <time>2018-06-27T09:56:48Z</time>
      </trkpt>
      <trkpt lat="45.93416" lon="4.7682">
        <ele>172</ele>
        <time>2018-06-27T09:56:49Z</time>
      </trkpt>
      <trkpt lat="45.93411" lon="4.76815">
        <ele>172</ele>
        <time>2018-06-27T09:56:50Z</time>
      </trkpt>
      <trkpt lat="45.93405" lon="4.76808">
        <ele>172</ele>
        <time>2018-06-27T09:56:51Z</time>
      </trkpt>
      <trkpt lat="45.93401" lon="4.76802">
        <ele>172</ele>
        <time>2018-06-27T09:56:52Z</time>
      </trkpt>
      <trkpt lat="45.93396" lon="4.76797">
        <ele>172</ele>
        <time>2018-06-27T09:56:53Z</time>
      </trkpt>
      <trkpt lat="45.93391" lon="4.76791">
        <ele>172</ele>
        <time>2018-06-27T09:56:54Z</time>
      </trkpt>
      <trkpt lat="45.93387" lon="4.76786">
        <ele>172</ele>
        <time>2018-06-27T09:56:55Z</time>
      </trkpt>
      <trkpt lat="45.93383" lon="4.76781">
        <ele>172</ele>
        <time>2018-06-27T09:56:56Z</time>
      </trkpt>
      <trkpt lat="45.93377" lon="4.76776">
        <ele>172</ele>
        <time>2018-06-27T09:56:57Z</time>
      </trkpt>
      <trkpt lat="45.93372" lon="4.76767">
        <ele>172</ele>
        <time>2018-06-27T09:56:59Z</time>
      </trkpt>
      <trkpt lat="45.93366" lon="4.76762">
        <ele>172</ele>
        <time>2018-06-27T09:57:00Z</time>
      </trkpt>
      <trkpt lat="45.9336" lon="4.76758">
        <ele>172</ele>
        <time>2018-06-27T09:57:01Z</time>
      </trkpt>
      <trkpt lat="45.93355" lon="4.76753">
        <ele>172</ele>
        <time>2018-06-27T09:57:02Z</time>
      </trkpt>
      <trkpt lat="45.9335" lon="4.76747">
        <ele>172</ele>
        <time>2018-06-27T09:57:03Z</time>
      </trkpt>
      <trkpt lat="45.93345" lon="4.76742">
        <ele>172</ele>
        <time>2018-06-27T09:57:04Z</time>
      </trkpt>
      <trkpt lat="45.93339" lon="4.76736">
        <ele>172</ele>
        <time>2018-06-27T09:57:05Z</time>
      </trkpt>
      <trkpt lat="45.93334" lon="4.76731">
        <ele>172</ele>
        <time>2018-06-27T09:57:06Z</time>
      </trkpt>
      <trkpt lat="45.93328" lon="4.76727">
        <ele>172</ele>
        <time>2018-06-27T09:57:07Z</time>
      </trkpt>
      <trkpt lat="45.93322" lon="4.76721">
        <ele>172</ele>
        <time>2018-06-27T09:57:08Z</time>
      </trkpt>
      <trkpt lat="45.93317" lon="4.76715">
        <ele>172</ele>
        <time>2018-06-27T09:57:09Z</time>
      </trkpt>
      <trkpt lat="45.93312" lon="4.76711">
        <ele>172</ele>
        <time>2018-06-27T09:57:10Z</time>
      </trkpt>
      <trkpt lat="45.93306" lon="4.76706">
        <ele>172</ele>
        <time>2018-06-27T09:57:11Z</time>
      </trkpt>
      <trkpt lat="45.93302" lon="4.767">
        <ele>172</ele>
        <time>2018-06-27T09:57:12Z</time>
      </trkpt>
      <trkpt lat="45.93298" lon="4.76694">
        <ele>172</ele>
        <time>2018-06-27T09:57:13Z</time>
      </trkpt>
      <trkpt lat="45.93292" lon="4.76688">
        <ele>172</ele>
        <time>2018-06-27T09:57:14Z</time>
      </trkpt>
      <trkpt lat="45.93287" lon="4.76682">
        <ele>172</ele>
        <time>2018-06-27T09:57:15Z</time>
      </trkpt>
      <trkpt lat="45.93281" lon="4.76676">
        <ele>172</ele>
        <time>2018-06-27T09:57:16Z</time>
      </trkpt>
      <trkpt lat="45.93276" lon="4.76671">
        <ele>172</ele>
        <time>2018-06-27T09:57:17Z</time>
      </trkpt>
      <trkpt lat="45.93271" lon="4.76666">
        <ele>171</ele>
        <time>2018-06-27T09:57:18Z</time>
      </trkpt>
      <trkpt lat="45.93267" lon="4.76662">
        <ele>171</ele>
        <time>2018-06-27T09:57:19Z</time>
      </trkpt>
      <trkpt lat="45.93262" lon="4.76658">
        <ele>171</ele>
        <time>2018-06-27T09:57:20Z</time>
      </trkpt>
      <trkpt lat="45.93256" lon="4.76648">
        <ele>171</ele>
        <time>2018-06-27T09:57:22Z</time>
      </trkpt>
      <trkpt lat="45.93251" lon="4.76644">
        <ele>170</ele>
        <time>2018-06-27T09:57:23Z</time>
      </trkpt>
      <trkpt lat="45.93246" lon="4.76639">
        <ele>171</ele>
        <time>2018-06-27T09:57:24Z</time>
      </trkpt>
      <trkpt lat="45.93239" lon="4.76633">
        <ele>170</ele>
        <time>2018-06-27T09:57:25Z</time>
      </trkpt>
      <trkpt lat="45.93234" lon="4.76628">
        <ele>170</ele>
        <time>2018-06-27T09:57:26Z</time>
      </trkpt>
      <trkpt lat="45.93229" lon="4.76623">
        <ele>170</ele>
        <time>2018-06-27T09:57:27Z</time>
      </trkpt>
      <trkpt lat="45.93224" lon="4.76618">
        <ele>170</ele>
        <time>2018-06-27T09:57:28Z</time>
      </trkpt>
      <trkpt lat="45.9322" lon="4.76612">
        <ele>170</ele>
        <time>2018-06-27T09:57:29Z</time>
      </trkpt>
      <trkpt lat="45.93214" lon="4.76606">
        <ele>170</ele>
        <time>2018-06-27T09:57:30Z</time>
      </trkpt>
      <trkpt lat="45.93208" lon="4.76601">
        <ele>170</ele>
        <time>2018-06-27T09:57:31Z</time>
      </trkpt>
      <trkpt lat="45.93202" lon="4.76596">
        <ele>170</ele>
        <time>2018-06-27T09:57:32Z</time>
      </trkpt>
      <trkpt lat="45.93196" lon="4.76591">
        <ele>170</ele>
        <time>2018-06-27T09:57:33Z</time>
      </trkpt>
      <trkpt lat="45.93191" lon="4.76586">
        <ele>170</ele>
        <time>2018-06-27T09:57:34Z</time>
      </trkpt>
      <trkpt lat="45.93185" lon="4.76581">
        <ele>170</ele>
        <time>2018-06-27T09:57:35Z</time>
      </trkpt>
      <trkpt lat="45.9318" lon="4.76576">
        <ele>170</ele>
        <time>2018-06-27T09:57:36Z</time>
      </trkpt>
      <trkpt lat="45.93175" lon="4.76572">
        <ele>170</ele>
        <time>2018-06-27T09:57:37Z</time>
      </trkpt>
      <trkpt lat="45.9317" lon="4.76567">
        <ele>170</ele>
        <time>2018-06-27T09:57:38Z</time>
      </trkpt>
      <trkpt lat="45.93164" lon="4.76561">
        <ele>170</ele>
        <time>2018-06-27T09:57:39Z</time>
      </trkpt>
      <trkpt lat="45.93159" lon="4.76555">
        <ele>170</ele>
        <time>2018-06-27T09:57:40Z</time>
      </trkpt>
      <trkpt lat="45.93155" lon="4.7655">
        <ele>170</ele>
        <time>2018-06-27T09:57:41Z</time>
      </trkpt>
      <trkpt lat="45.9315" lon="4.76545">
        <ele>170</ele>
        <time>2018-06-27T09:57:42Z</time>
      </trkpt>
      <trkpt lat="45.93148" lon="4.7654">
        <ele>170</ele>
        <time>2018-06-27T09:57:43Z</time>
      </trkpt>
      <trkpt lat="45.93143" lon="4.76535">
        <ele>170</ele>
        <time>2018-06-27T09:57:44Z</time>
      </trkpt>
      <trkpt lat="45.93137" lon="4.76531">
        <ele>170</ele>
        <time>2018-06-27T09:57:45Z</time>
      </trkpt>
      <trkpt lat="45.93132" lon="4.76526">
        <ele>170</ele>
        <time>2018-06-27T09:57:46Z</time>
      </trkpt>
      <trkpt lat="45.93123" lon="4.76521">
        <ele>170</ele>
        <time>2018-06-27T09:57:47Z</time>
      </trkpt>
      <trkpt lat="45.93117" lon="4.76516">
        <ele>170</ele>
        <time>2018-06-27T09:57:48Z</time>
      </trkpt>
      <trkpt lat="45.93112" lon="4.7651">
        <ele>170</ele>
        <time>2018-06-27T09:57:49Z</time>
      </trkpt>
      <trkpt lat="45.93106" lon="4.76506">
        <ele>170</ele>
        <time>2018-06-27T09:57:50Z</time>
      </trkpt>
      <trkpt lat="45.93101" lon="4.76501">
        <ele>170</ele>
        <time>2018-06-27T09:57:51Z</time>
      </trkpt>
      <trkpt lat="45.93095" lon="4.76496">
        <ele>170</ele>
        <time>2018-06-27T09:57:52Z</time>
      </trkpt>
      <trkpt lat="45.93087" lon="4.7649">
        <ele>170</ele>
        <time>2018-06-27T09:57:53Z</time>
      </trkpt>
      <trkpt lat="45.93077" lon="4.76486">
        <ele>170</ele>
        <time>2018-06-27T09:57:54Z</time>
      </trkpt>
      <trkpt lat="45.93074" lon="4.76482">
        <ele>169</ele>
        <time>2018-06-27T09:57:55Z</time>
      </trkpt>
      <trkpt lat="45.93067" lon="4.76477">
        <ele>169</ele>
        <time>2018-06-27T09:57:56Z</time>
      </trkpt>
      <trkpt lat="45.93061" lon="4.76469">
        <ele>169</ele>
        <time>2018-06-27T09:57:58Z</time>
      </trkpt>
      <trkpt lat="45.93056" lon="4.76465">
        <ele>169</ele>
        <time>2018-06-27T09:57:59Z</time>
      </trkpt>
      <trkpt lat="45.93053" lon="4.76458">
        <ele>169</ele>
        <time>2018-06-27T09:58:00Z</time>
      </trkpt>
      <trkpt lat="45.93048" lon="4.76453">
        <ele>169</ele>
        <time>2018-06-27T09:58:01Z</time>
      </trkpt>
      <trkpt lat="45.93043" lon="4.76448">
        <ele>169</ele>
        <time>2018-06-27T09:58:02Z</time>
      </trkpt>
      <trkpt lat="45.9304" lon="4.76444">
        <ele>169</ele>
        <time>2018-06-27T09:58:03Z</time>
      </trkpt>
      <trkpt lat="45.93034" lon="4.76439">
        <ele>169</ele>
        <time>2018-06-27T09:58:04Z</time>
      </trkpt>
      <trkpt lat="45.9303" lon="4.76434">
        <ele>169</ele>
        <time>2018-06-27T09:58:05Z</time>
      </trkpt>
      <trkpt lat="45.93025" lon="4.76429">
        <ele>169</ele>
        <time>2018-06-27T09:58:06Z</time>
      </trkpt>
      <trkpt lat="45.93021" lon="4.76422">
        <ele>169</ele>
        <time>2018-06-27T09:58:07Z</time>
      </trkpt>
      <trkpt lat="45.93016" lon="4.76417">
        <ele>169</ele>
        <time>2018-06-27T09:58:08Z</time>
      </trkpt>
      <trkpt lat="45.9301" lon="4.76411">
        <ele>169</ele>
        <time>2018-06-27T09:58:09Z</time>
      </trkpt>
      <trkpt lat="45.93004" lon="4.76405">
        <ele>169</ele>
        <time>2018-06-27T09:58:10Z</time>
      </trkpt>
      <trkpt lat="45.92998" lon="4.764">
        <ele>169</ele>
        <time>2018-06-27T09:58:11Z</time>
      </trkpt>
      <trkpt lat="45.92995" lon="4.76395">
        <ele>169</ele>
        <time>2018-06-27T09:58:12Z</time>
      </trkpt>
      <trkpt lat="45.92991" lon="4.7639">
        <ele>169</ele>
        <time>2018-06-27T09:58:13Z</time>
      </trkpt>
      <trkpt lat="45.92986" lon="4.76383">
        <ele>169</ele>
        <time>2018-06-27T09:58:14Z</time>
      </trkpt>
      <trkpt lat="45.92981" lon="4.76378">
        <ele>169</ele>
        <time>2018-06-27T09:58:15Z</time>
      </trkpt>
      <trkpt lat="45.92978" lon="4.76373">
        <ele>169</ele>
        <time>2018-06-27T09:58:16Z</time>
      </trkpt>
      <trkpt lat="45.92972" lon="4.76367">
        <ele>169</ele>
        <time>2018-06-27T09:58:17Z</time>
      </trkpt>
      <trkpt lat="45.92967" lon="4.76362">
        <ele>169</ele>
        <time>2018-06-27T09:58:18Z</time>
      </trkpt>
      <trkpt lat="45.92961" lon="4.76357">
        <ele>169</ele>
        <time>2018-06-27T09:58:19Z</time>
      </trkpt>
      <trkpt lat="45.92956" lon="4.76351">
        <ele>169</ele>
        <time>2018-06-27T09:58:20Z</time>
      </trkpt>
      <trkpt lat="45.9295" lon="4.76345">
        <ele>169</ele>
        <time>2018-06-27T09:58:21Z</time>
      </trkpt>
      <trkpt lat="45.92944" lon="4.7634">
        <ele>169</ele>
        <time>2018-06-27T09:58:22Z</time>
      </trkpt>
      <trkpt lat="45.9294" lon="4.76334">
        <ele>169</ele>
        <time>2018-06-27T09:58:23Z</time>
      </trkpt>
      <trkpt lat="45.92935" lon="4.7633">
        <ele>169</ele>
        <time>2018-06-27T09:58:24Z</time>
      </trkpt>
      <trkpt lat="45.9293" lon="4.76324">
        <ele>169</ele>
        <time>2018-06-27T09:58:25Z</time>
      </trkpt>
      <trkpt lat="45.92921" lon="4.7632">
        <ele>169</ele>
        <time>2018-06-27T09:58:26Z</time>
      </trkpt>
      <trkpt lat="45.92915" lon="4.76315">
        <ele>169</ele>
        <time>2018-06-27T09:58:27Z</time>
      </trkpt>
      <trkpt lat="45.9291" lon="4.7631">
        <ele>169</ele>
        <time>2018-06-27T09:58:28Z</time>
      </trkpt>
      <trkpt lat="45.92905" lon="4.76304">
        <ele>169</ele>
        <time>2018-06-27T09:58:29Z</time>
      </trkpt>
      <trkpt lat="45.929" lon="4.76299">
        <ele>169</ele>
        <time>2018-06-27T09:58:30Z</time>
      </trkpt>
      <trkpt lat="45.92895" lon="4.76294">
        <ele>169</ele>
        <time>2018-06-27T09:58:31Z</time>
      </trkpt>
      <trkpt lat="45.9289" lon="4.7629">
        <ele>169</ele>
        <time>2018-06-27T09:58:32Z</time>
      </trkpt>
      <trkpt lat="45.92884" lon="4.76285">
        <ele>169</ele>
        <time>2018-06-27T09:58:33Z</time>
      </trkpt>
      <trkpt lat="45.9288" lon="4.7628">
        <ele>169</ele>
        <time>2018-06-27T09:58:34Z</time>
      </trkpt>
      <trkpt lat="45.92874" lon="4.76274">
        <ele>169</ele>
        <time>2018-06-27T09:58:35Z</time>
      </trkpt>
      <trkpt lat="45.92869" lon="4.76268">
        <ele>169</ele>
        <time>2018-06-27T09:58:36Z</time>
      </trkpt>
      <trkpt lat="45.92863" lon="4.76264">
        <ele>169</ele>
        <time>2018-06-27T09:58:37Z</time>
      </trkpt>
      <trkpt lat="45.92857" lon="4.76258">
        <ele>169</ele>
        <time>2018-06-27T09:58:38Z</time>
      </trkpt>
      <trkpt lat="45.92851" lon="4.76252">
        <ele>169</ele>
        <time>2018-06-27T09:58:39Z</time>
      </trkpt>
      <trkpt lat="45.92846" lon="4.76247">
        <ele>169</ele>
        <time>2018-06-27T09:58:40Z</time>
      </trkpt>
      <trkpt lat="45.92839" lon="4.76241">
        <ele>169</ele>
        <time>2018-06-27T09:58:41Z</time>
      </trkpt>
      <trkpt lat="45.92833" lon="4.76236">
        <ele>169</ele>
        <time>2018-06-27T09:58:42Z</time>
      </trkpt>
      <trkpt lat="45.92828" lon="4.76231">
        <ele>168</ele>
        <time>2018-06-27T09:58:43Z</time>
      </trkpt>
      <trkpt lat="45.92823" lon="4.76225">
        <ele>168</ele>
        <time>2018-06-27T09:58:44Z</time>
      </trkpt>
      <trkpt lat="45.92817" lon="4.7622">
        <ele>168</ele>
        <time>2018-06-27T09:58:45Z</time>
      </trkpt>
      <trkpt lat="45.92811" lon="4.76214">
        <ele>168</ele>
        <time>2018-06-27T09:58:46Z</time>
      </trkpt>
      <trkpt lat="45.92804" lon="4.76209">
        <ele>168</ele>
        <time>2018-06-27T09:58:47Z</time>
      </trkpt>
      <trkpt lat="45.92799" lon="4.76203">
        <ele>168</ele>
        <time>2018-06-27T09:58:48Z</time>
      </trkpt>
      <trkpt lat="45.92795" lon="4.76197">
        <ele>168</ele>
        <time>2018-06-27T09:58:49Z</time>
      </trkpt>
      <trkpt lat="45.92789" lon="4.76192">
        <ele>168</ele>
        <time>2018-06-27T09:58:50Z</time>
      </trkpt>
      <trkpt lat="45.92785" lon="4.76186">
        <ele>168</ele>
        <time>2018-06-27T09:58:51Z</time>
      </trkpt>
      <trkpt lat="45.92778" lon="4.7618">
        <ele>167</ele>
        <time>2018-06-27T09:58:52Z</time>
      </trkpt>
      <trkpt lat="45.92772" lon="4.76175">
        <ele>167</ele>
        <time>2018-06-27T09:58:53Z</time>
      </trkpt>
      <trkpt lat="45.92767" lon="4.7617">
        <ele>167</ele>
        <time>2018-06-27T09:58:54Z</time>
      </trkpt>
      <trkpt lat="45.9276" lon="4.76165">
        <ele>167</ele>
        <time>2018-06-27T09:58:55Z</time>
      </trkpt>
      <trkpt lat="45.92752" lon="4.7616">
        <ele>167</ele>
        <time>2018-06-27T09:58:56Z</time>
      </trkpt>
      <trkpt lat="45.92746" lon="4.76155">
        <ele>168</ele>
        <time>2018-06-27T09:58:57Z</time>
      </trkpt>
      <trkpt lat="45.9274" lon="4.76149">
        <ele>168</ele>
        <time>2018-06-27T09:58:58Z</time>
      </trkpt>
      <trkpt lat="45.92734" lon="4.76145">
        <ele>168</ele>
        <time>2018-06-27T09:58:59Z</time>
      </trkpt>
      <trkpt lat="45.92729" lon="4.76141">
        <ele>168</ele>
        <time>2018-06-27T09:59:00Z</time>
      </trkpt>
      <trkpt lat="45.92724" lon="4.76137">
        <ele>168</ele>
        <time>2018-06-27T09:59:01Z</time>
      </trkpt>
      <trkpt lat="45.92719" lon="4.76134">
        <ele>168</ele>
        <time>2018-06-27T09:59:02Z</time>
      </trkpt>
      <trkpt lat="45.92714" lon="4.7613">
        <ele>168</ele>
        <time>2018-06-27T09:59:03Z</time>
      </trkpt>
      <trkpt lat="45.92708" lon="4.76126">
        <ele>168</ele>
        <time>2018-06-27T09:59:04Z</time>
      </trkpt>
      <trkpt lat="45.92704" lon="4.76121">
        <ele>169</ele>
        <time>2018-06-27T09:59:05Z</time>
      </trkpt>
      <trkpt lat="45.92699" lon="4.76117">
        <ele>169</ele>
        <time>2018-06-27T09:59:06Z</time>
      </trkpt>
      <trkpt lat="45.92694" lon="4.76114">
        <ele>169</ele>
        <time>2018-06-27T09:59:07Z</time>
      </trkpt>
      <trkpt lat="45.92688" lon="4.76109">
        <ele>169</ele>
        <time>2018-06-27T09:59:08Z</time>
      </trkpt>
      <trkpt lat="45.92684" lon="4.76105">
        <ele>169</ele>
        <time>2018-06-27T09:59:09Z</time>
      </trkpt>
      <trkpt lat="45.9268" lon="4.76102">
        <ele>169</ele>
        <time>2018-06-27T09:59:10Z</time>
      </trkpt>
      <trkpt lat="45.92676" lon="4.76098">
        <ele>169</ele>
        <time>2018-06-27T09:59:11Z</time>
      </trkpt>
      <trkpt lat="45.92672" lon="4.76094">
        <ele>169</ele>
        <time>2018-06-27T09:59:12Z</time>
      </trkpt>
      <trkpt lat="45.92665" lon="4.76088">
        <ele>170</ele>
        <time>2018-06-27T09:59:14Z</time>
      </trkpt>
      <trkpt lat="45.9266" lon="4.76085">
        <ele>170</ele>
        <time>2018-06-27T09:59:15Z</time>
      </trkpt>
      <trkpt lat="45.92652" lon="4.76079">
        <ele>170</ele>
        <time>2018-06-27T09:59:17Z</time>
      </trkpt>
      <trkpt lat="45.92648" lon="4.76075">
        <ele>170</ele>
        <time>2018-06-27T09:59:18Z</time>
      </trkpt>
      <trkpt lat="45.9264" lon="4.7607">
        <ele>170</ele>
        <time>2018-06-27T09:59:20Z</time>
      </trkpt>
      <trkpt lat="45.92636" lon="4.76067">
        <ele>170</ele>
        <time>2018-06-27T09:59:21Z</time>
      </trkpt>
      <trkpt lat="45.92632" lon="4.76065">
        <ele>170</ele>
        <time>2018-06-27T09:59:22Z</time>
      </trkpt>
      <trkpt lat="45.92627" lon="4.76062">
        <ele>170</ele>
        <time>2018-06-27T09:59:23Z</time>
      </trkpt>
      <trkpt lat="45.92619" lon="4.76057">
        <ele>171</ele>
        <time>2018-06-27T09:59:25Z</time>
      </trkpt>
      <trkpt lat="45.92615" lon="4.76053">
        <ele>171</ele>
        <time>2018-06-27T09:59:26Z</time>
      </trkpt>
      <trkpt lat="45.92609" lon="4.76048">
        <ele>171</ele>
        <time>2018-06-27T09:59:28Z</time>
      </trkpt>
      <trkpt lat="45.92605" lon="4.76045">
        <ele>171</ele>
        <time>2018-06-27T09:59:29Z</time>
      </trkpt>
      <trkpt lat="45.92597" lon="4.76039">
        <ele>171</ele>
        <time>2018-06-27T09:59:31Z</time>
      </trkpt>
      <trkpt lat="45.92593" lon="4.76036">
        <ele>171</ele>
        <time>2018-06-27T09:59:32Z</time>
      </trkpt>
      <trkpt lat="45.92585" lon="4.76032">
        <ele>171</ele>
        <time>2018-06-27T09:59:34Z</time>
      </trkpt>
      <trkpt lat="45.92582" lon="4.76029">
        <ele>172</ele>
        <time>2018-06-27T09:59:35Z</time>
      </trkpt>
      <trkpt lat="45.92575" lon="4.76023">
        <ele>172</ele>
        <time>2018-06-27T09:59:37Z</time>
      </trkpt>
      <trkpt lat="45.92571" lon="4.7602">
        <ele>172</ele>
        <time>2018-06-27T09:59:38Z</time>
      </trkpt>
      <trkpt lat="45.92563" lon="4.76015">
        <ele>172</ele>
        <time>2018-06-27T09:59:40Z</time>
      </trkpt>
      <trkpt lat="45.92558" lon="4.76013">
        <ele>172</ele>
        <time>2018-06-27T09:59:41Z</time>
      </trkpt>
      <trkpt lat="45.92551" lon="4.76008">
        <ele>172</ele>
        <time>2018-06-27T09:59:43Z</time>
      </trkpt>
      <trkpt lat="45.92547" lon="4.76005">
        <ele>172</ele>
        <time>2018-06-27T09:59:44Z</time>
      </trkpt>
      <trkpt lat="45.92539" lon="4.76">
        <ele>172</ele>
        <time>2018-06-27T09:59:46Z</time>
      </trkpt>
      <trkpt lat="45.92536" lon="4.75998">
        <ele>172</ele>
        <time>2018-06-27T09:59:47Z</time>
      </trkpt>
      <trkpt lat="45.92532" lon="4.75996">
        <ele>172</ele>
        <time>2018-06-27T09:59:48Z</time>
      </trkpt>
      <trkpt lat="45.92528" lon="4.75993">
        <ele>172</ele>
        <time>2018-06-27T09:59:49Z</time>
      </trkpt>
      <trkpt lat="45.92524" lon="4.7599">
        <ele>172</ele>
        <time>2018-06-27T09:59:50Z</time>
      </trkpt>
      <trkpt lat="45.92517" lon="4.75987">
        <ele>172</ele>
        <time>2018-06-27T09:59:51Z</time>
      </trkpt>
      <trkpt lat="45.92513" lon="4.75983">
        <ele>172</ele>
        <time>2018-06-27T09:59:52Z</time>
      </trkpt>
      <trkpt lat="45.92508" lon="4.7598">
        <ele>172</ele>
        <time>2018-06-27T09:59:53Z</time>
      </trkpt>
      <trkpt lat="45.92504" lon="4.75977">
        <ele>172</ele>
        <time>2018-06-27T09:59:54Z</time>
      </trkpt>
      <trkpt lat="45.92499" lon="4.75973">
        <ele>172</ele>
        <time>2018-06-27T09:59:55Z</time>
      </trkpt>
      <trkpt lat="45.92494" lon="4.7597">
        <ele>172</ele>
        <time>2018-06-27T09:59:56Z</time>
      </trkpt>
      <trkpt lat="45.92488" lon="4.75967">
        <ele>172</ele>
        <time>2018-06-27T09:59:57Z</time>
      </trkpt>
      <trkpt lat="45.92483" lon="4.75963">
        <ele>172</ele>
        <time>2018-06-27T09:59:58Z</time>
      </trkpt>
      <trkpt lat="45.92479" lon="4.75961">
        <ele>172</ele>
        <time>2018-06-27T09:59:59Z</time>
      </trkpt>
      <trkpt lat="45.92475" lon="4.75958">
        <ele>172</ele>
        <time>2018-06-27T10:00:00Z</time>
      </trkpt>
      <trkpt lat="45.92469" lon="4.75955">
        <ele>172</ele>
        <time>2018-06-27T10:00:01Z</time>
      </trkpt>
      <trkpt lat="45.92464" lon="4.75951">
        <ele>172</ele>
        <time>2018-06-27T10:00:02Z</time>
      </trkpt>
      <trkpt lat="45.92459" lon="4.75948">
        <ele>172</ele>
        <time>2018-06-27T10:00:03Z</time>
      </trkpt>
      <trkpt lat="45.92454" lon="4.75945">
        <ele>172</ele>
        <time>2018-06-27T10:00:04Z</time>
      </trkpt>
      <trkpt lat="45.92446" lon="4.75943">
        <ele>172</ele>
        <time>2018-06-27T10:00:05Z</time>
      </trkpt>
      <trkpt lat="45.92441" lon="4.75939">
        <ele>172</ele>
        <time>2018-06-27T10:00:06Z</time>
      </trkpt>
      <trkpt lat="45.92438" lon="4.75935">
        <ele>172</ele>
        <time>2018-06-27T10:00:07Z</time>
      </trkpt>
      <trkpt lat="45.92431" lon="4.7593">
        <ele>172</ele>
        <time>2018-06-27T10:00:08Z</time>
      </trkpt>
      <trkpt lat="45.92426" lon="4.75926">
        <ele>172</ele>
        <time>2018-06-27T10:00:09Z</time>
      </trkpt>
      <trkpt lat="45.9242" lon="4.75922">
        <ele>172</ele>
        <time>2018-06-27T10:00:10Z</time>
      </trkpt>
      <trkpt lat="45.92414" lon="4.75917">
        <ele>172</ele>
        <time>2018-06-27T10:00:11Z</time>
      </trkpt>
      <trkpt lat="45.92407" lon="4.75912">
        <ele>172</ele>
        <time>2018-06-27T10:00:12Z</time>
      </trkpt>
      <trkpt lat="45.92401" lon="4.75908">
        <ele>173</ele>
        <time>2018-06-27T10:00:13Z</time>
      </trkpt>
      <trkpt lat="45.92395" lon="4.75903">
        <ele>173</ele>
        <time>2018-06-27T10:00:14Z</time>
      </trkpt>
      <trkpt lat="45.92389" lon="4.75898">
        <ele>173</ele>
        <time>2018-06-27T10:00:15Z</time>
      </trkpt>
      <trkpt lat="45.92383" lon="4.75893">
        <ele>173</ele>
        <time>2018-06-27T10:00:16Z</time>
      </trkpt>
      <trkpt lat="45.92376" lon="4.75891">
        <ele>173</ele>
        <time>2018-06-27T10:00:17Z</time>
      </trkpt>
      <trkpt lat="45.92369" lon="4.75887">
        <ele>173</ele>
        <time>2018-06-27T10:00:18Z</time>
      </trkpt>
      <trkpt lat="45.92363" lon="4.75883">
        <ele>173</ele>
        <time>2018-06-27T10:00:19Z</time>
      </trkpt>
      <trkpt lat="45.92356" lon="4.7588">
        <ele>173</ele>
        <time>2018-06-27T10:00:20Z</time>
      </trkpt>
      <trkpt lat="45.9235" lon="4.75874">
        <ele>173</ele>
        <time>2018-06-27T10:00:21Z</time>
      </trkpt>
      <trkpt lat="45.92345" lon="4.75872">
        <ele>173</ele>
        <time>2018-06-27T10:00:22Z</time>
      </trkpt>
      <trkpt lat="45.92339" lon="4.75868">
        <ele>173</ele>
        <time>2018-06-27T10:00:23Z</time>
      </trkpt>
      <trkpt lat="45.92334" lon="4.75864">
        <ele>173</ele>
        <time>2018-06-27T10:00:24Z</time>
      </trkpt>
      <trkpt lat="45.92329" lon="4.75861">
        <ele>173</ele>
        <time>2018-06-27T10:00:25Z</time>
      </trkpt>
      <trkpt lat="45.92325" lon="4.75859">
        <ele>173</ele>
        <time>2018-06-27T10:00:26Z</time>
      </trkpt>
      <trkpt lat="45.92318" lon="4.75856">
        <ele>173</ele>
        <time>2018-06-27T10:00:27Z</time>
      </trkpt>
      <trkpt lat="45.92312" lon="4.75848">
        <ele>173</ele>
        <time>2018-06-27T10:00:29Z</time>
      </trkpt>
      <trkpt lat="45.92307" lon="4.75844">
        <ele>173</ele>
        <time>2018-06-27T10:00:30Z</time>
      </trkpt>
      <trkpt lat="45.92301" lon="4.75841">
        <ele>173</ele>
        <time>2018-06-27T10:00:31Z</time>
      </trkpt>
      <trkpt lat="45.92295" lon="4.75837">
        <ele>173</ele>
        <time>2018-06-27T10:00:32Z</time>
      </trkpt>
      <trkpt lat="45.9229" lon="4.75834">
        <ele>173</ele>
        <time>2018-06-27T10:00:33Z</time>
      </trkpt>
      <trkpt lat="45.92284" lon="4.7583">
        <ele>174</ele>
        <time>2018-06-27T10:00:34Z</time>
      </trkpt>
      <trkpt lat="45.92279" lon="4.75826">
        <ele>174</ele>
        <time>2018-06-27T10:00:35Z</time>
      </trkpt>
      <trkpt lat="45.92274" lon="4.7582">
        <ele>174</ele>
        <time>2018-06-27T10:00:36Z</time>
      </trkpt>
      <trkpt lat="45.9227" lon="4.75814">
        <ele>174</ele>
        <time>2018-06-27T10:00:37Z</time>
      </trkpt>
      <trkpt lat="45.92266" lon="4.75808">
        <ele>174</ele>
        <time>2018-06-27T10:00:38Z</time>
      </trkpt>
      <trkpt lat="45.92262" lon="4.75801">
        <ele>174</ele>
        <time>2018-06-27T10:00:39Z</time>
      </trkpt>
      <trkpt lat="45.92259" lon="4.75794">
        <ele>174</ele>
        <time>2018-06-27T10:00:40Z</time>
      </trkpt>
      <trkpt lat="45.92258" lon="4.75788">
        <ele>174</ele>
        <time>2018-06-27T10:00:41Z</time>
      </trkpt>
      <trkpt lat="45.92258" lon="4.75779">
        <ele>174</ele>
        <time>2018-06-27T10:00:42Z</time>
      </trkpt>
      <trkpt lat="45.92257" lon="4.75771">
        <ele>174</ele>
        <time>2018-06-27T10:00:43Z</time>
      </trkpt>
      <trkpt lat="45.92254" lon="4.75762">
        <ele>174</ele>
        <time>2018-06-27T10:00:44Z</time>
      </trkpt>
      <trkpt lat="45.92254" lon="4.75754">
        <ele>174</ele>
        <time>2018-06-27T10:00:45Z</time>
      </trkpt>
      <trkpt lat="45.92252" lon="4.75746">
        <ele>174</ele>
        <time>2018-06-27T10:00:46Z</time>
      </trkpt>
      <trkpt lat="45.9225" lon="4.75738">
        <ele>174</ele>
        <time>2018-06-27T10:00:47Z</time>
      </trkpt>
      <trkpt lat="45.92249" lon="4.7573">
        <ele>174</ele>
        <time>2018-06-27T10:00:48Z</time>
      </trkpt>
      <trkpt lat="45.92246" lon="4.75722">
        <ele>174</ele>
        <time>2018-06-27T10:00:49Z</time>
      </trkpt>
      <trkpt lat="45.92242" lon="4.75715">
        <ele>174</ele>
        <time>2018-06-27T10:00:50Z</time>
      </trkpt>
      <trkpt lat="45.92239" lon="4.75707">
        <ele>174</ele>
        <time>2018-06-27T10:00:51Z</time>
      </trkpt>
      <trkpt lat="45.92235" lon="4.75701">
        <ele>174</ele>
        <time>2018-06-27T10:00:52Z</time>
      </trkpt>
      <trkpt lat="45.92231" lon="4.75696">
        <ele>174</ele>
        <time>2018-06-27T10:00:53Z</time>
      </trkpt>
      <trkpt lat="45.92226" lon="4.7569">
        <ele>174</ele>
        <time>2018-06-27T10:00:54Z</time>
      </trkpt>
      <trkpt lat="45.92222" lon="4.75685">
        <ele>174</ele>
        <time>2018-06-27T10:00:55Z</time>
      </trkpt>
      <trkpt lat="45.92217" lon="4.75681">
        <ele>174</ele>
        <time>2018-06-27T10:00:56Z</time>
      </trkpt>
      <trkpt lat="45.92212" lon="4.75676">
        <ele>174</ele>
        <time>2018-06-27T10:00:57Z</time>
      </trkpt>
      <trkpt lat="45.92208" lon="4.75672">
        <ele>174</ele>
        <time>2018-06-27T10:00:58Z</time>
      </trkpt>
      <trkpt lat="45.92202" lon="4.75667">
        <ele>174</ele>
        <time>2018-06-27T10:00:59Z</time>
      </trkpt>
      <trkpt lat="45.92197" lon="4.75662">
        <ele>174</ele>
        <time>2018-06-27T10:01:00Z</time>
      </trkpt>
      <trkpt lat="45.92193" lon="4.75657">
        <ele>174</ele>
        <time>2018-06-27T10:01:01Z</time>
      </trkpt>
      <trkpt lat="45.92189" lon="4.75653">
        <ele>174</ele>
        <time>2018-06-27T10:01:02Z</time>
      </trkpt>
      <trkpt lat="45.92184" lon="4.75649">
        <ele>174</ele>
        <time>2018-06-27T10:01:03Z</time>
      </trkpt>
      <trkpt lat="45.92179" lon="4.75644">
        <ele>174</ele>
        <time>2018-06-27T10:01:04Z</time>
      </trkpt>
      <trkpt lat="45.92176" lon="4.7564">
        <ele>174</ele>
        <time>2018-06-27T10:01:05Z</time>
      </trkpt>
      <trkpt lat="45.9217" lon="4.75636">
        <ele>174</ele>
        <time>2018-06-27T10:01:06Z</time>
      </trkpt>
      <trkpt lat="45.92166" lon="4.7563">
        <ele>174</ele>
        <time>2018-06-27T10:01:07Z</time>
      </trkpt>
      <trkpt lat="45.92161" lon="4.75625">
        <ele>174</ele>
        <time>2018-06-27T10:01:08Z</time>
      </trkpt>
      <trkpt lat="45.92155" lon="4.7562">
        <ele>174</ele>
        <time>2018-06-27T10:01:09Z</time>
      </trkpt>
      <trkpt lat="45.92152" lon="4.75615">
        <ele>174</ele>
        <time>2018-06-27T10:01:10Z</time>
      </trkpt>
      <trkpt lat="45.92146" lon="4.7561">
        <ele>174</ele>
        <time>2018-06-27T10:01:11Z</time>
      </trkpt>
      <trkpt lat="45.92141" lon="4.75606">
        <ele>174</ele>
        <time>2018-06-27T10:01:12Z</time>
      </trkpt>
      <trkpt lat="45.92136" lon="4.756">
        <ele>174</ele>
        <time>2018-06-27T10:01:13Z</time>
      </trkpt>
      <trkpt lat="45.92133" lon="4.75596">
        <ele>174</ele>
        <time>2018-06-27T10:01:14Z</time>
      </trkpt>
      <trkpt lat="45.92128" lon="4.75591">
        <ele>174</ele>
        <time>2018-06-27T10:01:15Z</time>
      </trkpt>
      <trkpt lat="45.92124" lon="4.75587">
        <ele>174</ele>
        <time>2018-06-27T10:01:16Z</time>
      </trkpt>
      <trkpt lat="45.9212" lon="4.75583">
        <ele>174</ele>
        <time>2018-06-27T10:01:17Z</time>
      </trkpt>
      <trkpt lat="45.92118" lon="4.75578">
        <ele>174</ele>
        <time>2018-06-27T10:01:18Z</time>
      </trkpt>
      <trkpt lat="45.92117" lon="4.75567">
        <ele>174</ele>
        <time>2018-06-27T10:01:20Z</time>
      </trkpt>
      <trkpt lat="45.92117" lon="4.75561">
        <ele>174</ele>
        <time>2018-06-27T10:01:21Z</time>
      </trkpt>
      <trkpt lat="45.92117" lon="4.75557">
        <ele>174</ele>
        <time>2018-06-27T10:01:23Z</time>
      </trkpt>
      <trkpt lat="45.92121" lon="4.75549">
        <ele>174</ele>
        <time>2018-06-27T10:01:24Z</time>
      </trkpt>
      <trkpt lat="45.92124" lon="4.75544">
        <ele>174</ele>
        <time>2018-06-27T10:01:25Z</time>
      </trkpt>
      <trkpt lat="45.92127" lon="4.75539">
        <ele>174</ele>
        <time>2018-06-27T10:01:26Z</time>
      </trkpt>
      <trkpt lat="45.92133" lon="4.7553">
        <ele>174</ele>
        <time>2018-06-27T10:01:28Z</time>
      </trkpt>
      <trkpt lat="45.92136" lon="4.75525">
        <ele>174</ele>
        <time>2018-06-27T10:01:29Z</time>
      </trkpt>
      <trkpt lat="45.9214" lon="4.75519">
        <ele>174</ele>
        <time>2018-06-27T10:01:30Z</time>
      </trkpt>
      <trkpt lat="45.92143" lon="4.75514">
        <ele>174</ele>
        <time>2018-06-27T10:01:31Z</time>
      </trkpt>
      <trkpt lat="45.92144" lon="4.75507">
        <ele>175</ele>
        <time>2018-06-27T10:01:32Z</time>
      </trkpt>
      <trkpt lat="45.92147" lon="4.75501">
        <ele>175</ele>
        <time>2018-06-27T10:01:33Z</time>
      </trkpt>
      <trkpt lat="45.9215" lon="4.75493">
        <ele>175</ele>
        <time>2018-06-27T10:01:34Z</time>
      </trkpt>
      <trkpt lat="45.92153" lon="4.75487">
        <ele>176</ele>
        <time>2018-06-27T10:01:35Z</time>
      </trkpt>
      <trkpt lat="45.92157" lon="4.7548">
        <ele>176</ele>
        <time>2018-06-27T10:01:36Z</time>
      </trkpt>
      <trkpt lat="45.92159" lon="4.75474">
        <ele>176</ele>
        <time>2018-06-27T10:01:37Z</time>
      </trkpt>
      <trkpt lat="45.92161" lon="4.75468">
        <ele>176</ele>
        <time>2018-06-27T10:01:38Z</time>
      </trkpt>
      <trkpt lat="45.92163" lon="4.75461">
        <ele>176</ele>
        <time>2018-06-27T10:01:39Z</time>
      </trkpt>
      <trkpt lat="45.92166" lon="4.75455">
        <ele>176</ele>
        <time>2018-06-27T10:01:40Z</time>
      </trkpt>
      <trkpt lat="45.92169" lon="4.75449">
        <ele>176</ele>
        <time>2018-06-27T10:01:41Z</time>
      </trkpt>
      <trkpt lat="45.92171" lon="4.75442">
        <ele>177</ele>
        <time>2018-06-27T10:01:42Z</time>
      </trkpt>
      <trkpt lat="45.92173" lon="4.75435">
        <ele>177</ele>
        <time>2018-06-27T10:01:43Z</time>
      </trkpt>
      <trkpt lat="45.92175" lon="4.75428">
        <ele>177</ele>
        <time>2018-06-27T10:01:44Z</time>
      </trkpt>
      <trkpt lat="45.92177" lon="4.75421">
        <ele>177</ele>
        <time>2018-06-27T10:01:45Z</time>
      </trkpt>
      <trkpt lat="45.92181" lon="4.75414">
        <ele>177</ele>
        <time>2018-06-27T10:01:46Z</time>
      </trkpt>
      <trkpt lat="45.92182" lon="4.75408">
        <ele>177</ele>
        <time>2018-06-27T10:01:47Z</time>
      </trkpt>
      <trkpt lat="45.92183" lon="4.75401">
        <ele>177</ele>
        <time>2018-06-27T10:01:48Z</time>
      </trkpt>
      <trkpt lat="45.92186" lon="4.75394">
        <ele>177</ele>
        <time>2018-06-27T10:01:49Z</time>
      </trkpt>
      <trkpt lat="45.9219" lon="4.75387">
        <ele>177</ele>
        <time>2018-06-27T10:01:50Z</time>
      </trkpt>
      <trkpt lat="45.92191" lon="4.75381">
        <ele>177</ele>
        <time>2018-06-27T10:01:51Z</time>
      </trkpt>
      <trkpt lat="45.92194" lon="4.75375">
        <ele>177</ele>
        <time>2018-06-27T10:01:52Z</time>
      </trkpt>
      <trkpt lat="45.92197" lon="4.75367">
        <ele>177</ele>
        <time>2018-06-27T10:01:53Z</time>
      </trkpt>
      <trkpt lat="45.92201" lon="4.75358">
        <ele>177</ele>
        <time>2018-06-27T10:01:54Z</time>
      </trkpt>
      <trkpt lat="45.92204" lon="4.75352">
        <ele>177</ele>
        <time>2018-06-27T10:01:55Z</time>
      </trkpt>
      <trkpt lat="45.92206" lon="4.75345">
        <ele>177</ele>
        <time>2018-06-27T10:01:56Z</time>
      </trkpt>
      <trkpt lat="45.92208" lon="4.75337">
        <ele>177</ele>
        <time>2018-06-27T10:01:57Z</time>
      </trkpt>
      <trkpt lat="45.92208" lon="4.75329">
        <ele>176</ele>
        <time>2018-06-27T10:01:58Z</time>
      </trkpt>
      <trkpt lat="45.92212" lon="4.75321">
        <ele>176</ele>
        <time>2018-06-27T10:01:59Z</time>
      </trkpt>
      <trkpt lat="45.9221" lon="4.75311">
        <ele>176</ele>
        <time>2018-06-27T10:02:00Z</time>
      </trkpt>
      <trkpt lat="45.92211" lon="4.75304">
        <ele>176</ele>
        <time>2018-06-27T10:02:01Z</time>
      </trkpt>
      <trkpt lat="45.9221" lon="4.75297">
        <ele>176</ele>
        <time>2018-06-27T10:02:02Z</time>
      </trkpt>
      <trkpt lat="45.92211" lon="4.75289">
        <ele>176</ele>
        <time>2018-06-27T10:02:03Z</time>
      </trkpt>
      <trkpt lat="45.92211" lon="4.75282">
        <ele>176</ele>
        <time>2018-06-27T10:02:04Z</time>
      </trkpt>
      <trkpt lat="45.92211" lon="4.75273">
        <ele>176</ele>
        <time>2018-06-27T10:02:05Z</time>
      </trkpt>
      <trkpt lat="45.92208" lon="4.75263">
        <ele>176</ele>
        <time>2018-06-27T10:02:06Z</time>
      </trkpt>
      <trkpt lat="45.9221" lon="4.75255">
        <ele>175</ele>
        <time>2018-06-27T10:02:07Z</time>
      </trkpt>
      <trkpt lat="45.92212" lon="4.75247">
        <ele>175</ele>
        <time>2018-06-27T10:02:08Z</time>
      </trkpt>
      <trkpt lat="45.92215" lon="4.75238">
        <ele>175</ele>
        <time>2018-06-27T10:02:09Z</time>
      </trkpt>
      <trkpt lat="45.92217" lon="4.7523">
        <ele>175</ele>
        <time>2018-06-27T10:02:10Z</time>
      </trkpt>
      <trkpt lat="45.92218" lon="4.7522">
        <ele>175</ele>
        <time>2018-06-27T10:02:11Z</time>
      </trkpt>
      <trkpt lat="45.92218" lon="4.75211">
        <ele>175</ele>
        <time>2018-06-27T10:02:12Z</time>
      </trkpt>
      <trkpt lat="45.9222" lon="4.75199">
        <ele>175</ele>
        <time>2018-06-27T10:02:13Z</time>
      </trkpt>
      <trkpt lat="45.92223" lon="4.75189">
        <ele>175</ele>
        <time>2018-06-27T10:02:14Z</time>
      </trkpt>
      <trkpt lat="45.92225" lon="4.75181">
        <ele>175</ele>
        <time>2018-06-27T10:02:15Z</time>
      </trkpt>
      <trkpt lat="45.92228" lon="4.75172">
        <ele>175</ele>
        <time>2018-06-27T10:02:16Z</time>
      </trkpt>
      <trkpt lat="45.9223" lon="4.75162">
        <ele>174</ele>
        <time>2018-06-27T10:02:17Z</time>
      </trkpt>
      <trkpt lat="45.92233" lon="4.75154">
        <ele>174</ele>
        <time>2018-06-27T10:02:18Z</time>
      </trkpt>
      <trkpt lat="45.92237" lon="4.75145">
        <ele>174</ele>
        <time>2018-06-27T10:02:19Z</time>
      </trkpt>
      <trkpt lat="45.92241" lon="4.75137">
        <ele>174</ele>
        <time>2018-06-27T10:02:20Z</time>
      </trkpt>
      <trkpt lat="45.92246" lon="4.7513">
        <ele>174</ele>
        <time>2018-06-27T10:02:21Z</time>
      </trkpt>
      <trkpt lat="45.92251" lon="4.75125">
        <ele>174</ele>
        <time>2018-06-27T10:02:22Z</time>
      </trkpt>
      <trkpt lat="45.92256" lon="4.75119">
        <ele>174</ele>
        <time>2018-06-27T10:02:23Z</time>
      </trkpt>
      <trkpt lat="45.92262" lon="4.75113">
        <ele>174</ele>
        <time>2018-06-27T10:02:24Z</time>
      </trkpt>
      <trkpt lat="45.92265" lon="4.7511">
        <ele>174</ele>
        <time>2018-06-27T10:02:25Z</time>
      </trkpt>
      <trkpt lat="45.92271" lon="4.75105">
        <ele>174</ele>
        <time>2018-06-27T10:02:26Z</time>
      </trkpt>
      <trkpt lat="45.92276" lon="4.75099">
        <ele>173</ele>
        <time>2018-06-27T10:02:27Z</time>
      </trkpt>
      <trkpt lat="45.9228" lon="4.75094">
        <ele>173</ele>
        <time>2018-06-27T10:02:28Z</time>
      </trkpt>
      <trkpt lat="45.92286" lon="4.7509">
        <ele>173</ele>
        <time>2018-06-27T10:02:29Z</time>
      </trkpt>
      <trkpt lat="45.92292" lon="4.75085">
        <ele>173</ele>
        <time>2018-06-27T10:02:30Z</time>
      </trkpt>
      <trkpt lat="45.92295" lon="4.75079">
        <ele>172</ele>
        <time>2018-06-27T10:02:31Z</time>
      </trkpt>
      <trkpt lat="45.92301" lon="4.75073">
        <ele>172</ele>
        <time>2018-06-27T10:02:32Z</time>
      </trkpt>
      <trkpt lat="45.92304" lon="4.75067">
        <ele>172</ele>
        <time>2018-06-27T10:02:33Z</time>
      </trkpt>
      <trkpt lat="45.9231" lon="4.7506">
        <ele>172</ele>
        <time>2018-06-27T10:02:34Z</time>
      </trkpt>
      <trkpt lat="45.92315" lon="4.75056">
        <ele>172</ele>
        <time>2018-06-27T10:02:35Z</time>
      </trkpt>
      <trkpt lat="45.9232" lon="4.75047">
        <ele>172</ele>
        <time>2018-06-27T10:02:36Z</time>
      </trkpt>
      <trkpt lat="45.92325" lon="4.75039">
        <ele>171</ele>
        <time>2018-06-27T10:02:37Z</time>
      </trkpt>
      <trkpt lat="45.92328" lon="4.7503">
        <ele>171</ele>
        <time>2018-06-27T10:02:38Z</time>
      </trkpt>
      <trkpt lat="45.92332" lon="4.75023">
        <ele>171</ele>
        <time>2018-06-27T10:02:39Z</time>
      </trkpt>
      <trkpt lat="45.92335" lon="4.75017">
        <ele>170</ele>
        <time>2018-06-27T10:02:40Z</time>
      </trkpt>
      <trkpt lat="45.92338" lon="4.75011">
        <ele>170</ele>
        <time>2018-06-27T10:02:41Z</time>
      </trkpt>
      <trkpt lat="45.92342" lon="4.75004">
        <ele>170</ele>
        <time>2018-06-27T10:02:42Z</time>
      </trkpt>
      <trkpt lat="45.92344" lon="4.74998">
        <ele>170</ele>
        <time>2018-06-27T10:02:43Z</time>
      </trkpt>
      <trkpt lat="45.92349" lon="4.74986">
        <ele>170</ele>
        <time>2018-06-27T10:02:44Z</time>
      </trkpt>
      <trkpt lat="45.92353" lon="4.74975">
        <ele>170</ele>
        <time>2018-06-27T10:02:46Z</time>
      </trkpt>
      <trkpt lat="45.92356" lon="4.74964">
        <ele>170</ele>
        <time>2018-06-27T10:02:47Z</time>
      </trkpt>
      <trkpt lat="45.92359" lon="4.74957">
        <ele>170</ele>
        <time>2018-06-27T10:02:48Z</time>
      </trkpt>
      <trkpt lat="45.92363" lon="4.7495">
        <ele>170</ele>
        <time>2018-06-27T10:02:49Z</time>
      </trkpt>
      <trkpt lat="45.92366" lon="4.74942">
        <ele>170</ele>
        <time>2018-06-27T10:02:50Z</time>
      </trkpt>
      <trkpt lat="45.92369" lon="4.74936">
        <ele>170</ele>
        <time>2018-06-27T10:02:51Z</time>
      </trkpt>
      <trkpt lat="45.92372" lon="4.74928">
        <ele>170</ele>
        <time>2018-06-27T10:02:52Z</time>
      </trkpt>
      <trkpt lat="45.92374" lon="4.74919">
        <ele>170</ele>
        <time>2018-06-27T10:02:53Z</time>
      </trkpt>
      <trkpt lat="45.92376" lon="4.74912">
        <ele>171</ele>
        <time>2018-06-27T10:02:54Z</time>
      </trkpt>
      <trkpt lat="45.92379" lon="4.74905">
        <ele>171</ele>
        <time>2018-06-27T10:02:55Z</time>
      </trkpt>
      <trkpt lat="45.92381" lon="4.74898">
        <ele>171</ele>
        <time>2018-06-27T10:02:56Z</time>
      </trkpt>
      <trkpt lat="45.92382" lon="4.7489">
        <ele>171</ele>
        <time>2018-06-27T10:02:57Z</time>
      </trkpt>
      <trkpt lat="45.92386" lon="4.74881">
        <ele>171</ele>
        <time>2018-06-27T10:02:58Z</time>
      </trkpt>
      <trkpt lat="45.92389" lon="4.74873">
        <ele>171</ele>
        <time>2018-06-27T10:02:59Z</time>
      </trkpt>
      <trkpt lat="45.92392" lon="4.74864">
        <ele>171</ele>
        <time>2018-06-27T10:03:00Z</time>
      </trkpt>
      <trkpt lat="45.92395" lon="4.74857">
        <ele>171</ele>
        <time>2018-06-27T10:03:01Z</time>
      </trkpt>
      <trkpt lat="45.92398" lon="4.74849">
        <ele>171</ele>
        <time>2018-06-27T10:03:02Z</time>
      </trkpt>
      <trkpt lat="45.92399" lon="4.74841">
        <ele>171</ele>
        <time>2018-06-27T10:03:03Z</time>
      </trkpt>
      <trkpt lat="45.92401" lon="4.74835">
        <ele>171</ele>
        <time>2018-06-27T10:03:04Z</time>
      </trkpt>
      <trkpt lat="45.92403" lon="4.74829">
        <ele>171</ele>
        <time>2018-06-27T10:03:05Z</time>
      </trkpt>
      <trkpt lat="45.92405" lon="4.7482">
        <ele>171</ele>
        <time>2018-06-27T10:03:06Z</time>
      </trkpt>
      <trkpt lat="45.92407" lon="4.74813">
        <ele>171</ele>
        <time>2018-06-27T10:03:07Z</time>
      </trkpt>
      <trkpt lat="45.92408" lon="4.74805">
        <ele>171</ele>
        <time>2018-06-27T10:03:08Z</time>
      </trkpt>
      <trkpt lat="45.92411" lon="4.74797">
        <ele>171</ele>
        <time>2018-06-27T10:03:09Z</time>
      </trkpt>
      <trkpt lat="45.92413" lon="4.7479">
        <ele>171</ele>
        <time>2018-06-27T10:03:10Z</time>
      </trkpt>
      <trkpt lat="45.92413" lon="4.74781">
        <ele>171</ele>
        <time>2018-06-27T10:03:11Z</time>
      </trkpt>
      <trkpt lat="45.92415" lon="4.74773">
        <ele>172</ele>
        <time>2018-06-27T10:03:12Z</time>
      </trkpt>
      <trkpt lat="45.92417" lon="4.74766">
        <ele>172</ele>
        <time>2018-06-27T10:03:13Z</time>
      </trkpt>
      <trkpt lat="45.92419" lon="4.74756">
        <ele>172</ele>
        <time>2018-06-27T10:03:14Z</time>
      </trkpt>
      <trkpt lat="45.92422" lon="4.74749">
        <ele>172</ele>
        <time>2018-06-27T10:03:15Z</time>
      </trkpt>
      <trkpt lat="45.92424" lon="4.7474">
        <ele>172</ele>
        <time>2018-06-27T10:03:16Z</time>
      </trkpt>
      <trkpt lat="45.92428" lon="4.74733">
        <ele>171</ele>
        <time>2018-06-27T10:03:17Z</time>
      </trkpt>
      <trkpt lat="45.9243" lon="4.74725">
        <ele>171</ele>
        <time>2018-06-27T10:03:18Z</time>
      </trkpt>
      <trkpt lat="45.92433" lon="4.74717">
        <ele>171</ele>
        <time>2018-06-27T10:03:19Z</time>
      </trkpt>
      <trkpt lat="45.92435" lon="4.74707">
        <ele>171</ele>
        <time>2018-06-27T10:03:20Z</time>
      </trkpt>
      <trkpt lat="45.92438" lon="4.74699">
        <ele>171</ele>
        <time>2018-06-27T10:03:21Z</time>
      </trkpt>
      <trkpt lat="45.92439" lon="4.7469">
        <ele>171</ele>
        <time>2018-06-27T10:03:22Z</time>
      </trkpt>
      <trkpt lat="45.92443" lon="4.74682">
        <ele>171</ele>
        <time>2018-06-27T10:03:23Z</time>
      </trkpt>
      <trkpt lat="45.92446" lon="4.74674">
        <ele>171</ele>
        <time>2018-06-27T10:03:24Z</time>
      </trkpt>
      <trkpt lat="45.9245" lon="4.74666">
        <ele>171</ele>
        <time>2018-06-27T10:03:25Z</time>
      </trkpt>
      <trkpt lat="45.92454" lon="4.74659">
        <ele>171</ele>
        <time>2018-06-27T10:03:26Z</time>
      </trkpt>
      <trkpt lat="45.92458" lon="4.74652">
        <ele>171</ele>
        <time>2018-06-27T10:03:27Z</time>
      </trkpt>
      <trkpt lat="45.92478" lon="4.74632">
        <ele>171</ele>
        <time>2018-06-27T10:03:31Z</time>
      </trkpt>
      <trkpt lat="45.92482" lon="4.74626">
        <ele>171</ele>
        <time>2018-06-27T10:03:32Z</time>
      </trkpt>
      <trkpt lat="45.92485" lon="4.7462">
        <ele>171</ele>
        <time>2018-06-27T10:03:33Z</time>
      </trkpt>
      <trkpt lat="45.92491" lon="4.74613">
        <ele>171</ele>
        <time>2018-06-27T10:03:34Z</time>
      </trkpt>
      <trkpt lat="45.92495" lon="4.74609">
        <ele>171</ele>
        <time>2018-06-27T10:03:35Z</time>
      </trkpt>
      <trkpt lat="45.925" lon="4.74603">
        <ele>171</ele>
        <time>2018-06-27T10:03:36Z</time>
      </trkpt>
      <trkpt lat="45.92504" lon="4.74597">
        <ele>171</ele>
        <time>2018-06-27T10:03:37Z</time>
      </trkpt>
      <trkpt lat="45.92508" lon="4.74591">
        <ele>171</ele>
        <time>2018-06-27T10:03:38Z</time>
      </trkpt>
      <trkpt lat="45.92513" lon="4.74584">
        <ele>171</ele>
        <time>2018-06-27T10:03:39Z</time>
      </trkpt>
      <trkpt lat="45.92517" lon="4.7458">
        <ele>171</ele>
        <time>2018-06-27T10:03:40Z</time>
      </trkpt>
      <trkpt lat="45.92521" lon="4.74575">
        <ele>171</ele>
        <time>2018-06-27T10:03:41Z</time>
      </trkpt>
      <trkpt lat="45.92524" lon="4.7457">
        <ele>171</ele>
        <time>2018-06-27T10:03:42Z</time>
      </trkpt>
      <trkpt lat="45.92529" lon="4.74564">
        <ele>171</ele>
        <time>2018-06-27T10:03:43Z</time>
      </trkpt>
      <trkpt lat="45.92533" lon="4.74558">
        <ele>171</ele>
        <time>2018-06-27T10:03:44Z</time>
      </trkpt>
      <trkpt lat="45.92537" lon="4.74551">
        <ele>171</ele>
        <time>2018-06-27T10:03:45Z</time>
      </trkpt>
      <trkpt lat="45.92541" lon="4.74544">
        <ele>171</ele>
        <time>2018-06-27T10:03:46Z</time>
      </trkpt>
      <trkpt lat="45.92545" lon="4.74537">
        <ele>170</ele>
        <time>2018-06-27T10:03:47Z</time>
      </trkpt>
      <trkpt lat="45.92549" lon="4.74531">
        <ele>170</ele>
        <time>2018-06-27T10:03:48Z</time>
      </trkpt>
      <trkpt lat="45.92553" lon="4.74525">
        <ele>170</ele>
        <time>2018-06-27T10:03:49Z</time>
      </trkpt>
      <trkpt lat="45.92556" lon="4.74518">
        <ele>170</ele>
        <time>2018-06-27T10:03:50Z</time>
      </trkpt>
      <trkpt lat="45.92559" lon="4.74511">
        <ele>170</ele>
        <time>2018-06-27T10:03:51Z</time>
      </trkpt>
      <trkpt lat="45.92564" lon="4.74504">
        <ele>170</ele>
        <time>2018-06-27T10:03:52Z</time>
      </trkpt>
      <trkpt lat="45.92567" lon="4.74498">
        <ele>170</ele>
        <time>2018-06-27T10:03:53Z</time>
      </trkpt>
      <trkpt lat="45.92571" lon="4.74492">
        <ele>170</ele>
        <time>2018-06-27T10:03:54Z</time>
      </trkpt>
      <trkpt lat="45.92574" lon="4.74486">
        <ele>170</ele>
        <time>2018-06-27T10:03:55Z</time>
      </trkpt>
      <trkpt lat="45.92577" lon="4.74479">
        <ele>170</ele>
        <time>2018-06-27T10:03:56Z</time>
      </trkpt>
      <trkpt lat="45.92582" lon="4.74471">
        <ele>170</ele>
        <time>2018-06-27T10:03:57Z</time>
      </trkpt>
      <trkpt lat="45.92586" lon="4.74466">
        <ele>170</ele>
        <time>2018-06-27T10:03:58Z</time>
      </trkpt>
      <trkpt lat="45.9259" lon="4.74459">
        <ele>170</ele>
        <time>2018-06-27T10:03:59Z</time>
      </trkpt>
      <trkpt lat="45.92594" lon="4.74452">
        <ele>170</ele>
        <time>2018-06-27T10:04:00Z</time>
      </trkpt>
      <trkpt lat="45.92597" lon="4.74445">
        <ele>170</ele>
        <time>2018-06-27T10:04:01Z</time>
      </trkpt>
      <trkpt lat="45.926" lon="4.74439">
        <ele>170</ele>
        <time>2018-06-27T10:04:02Z</time>
      </trkpt>
      <trkpt lat="45.92604" lon="4.74433">
        <ele>170</ele>
        <time>2018-06-27T10:04:03Z</time>
      </trkpt>
      <trkpt lat="45.92608" lon="4.74425">
        <ele>170</ele>
        <time>2018-06-27T10:04:04Z</time>
      </trkpt>
      <trkpt lat="45.92612" lon="4.7442">
        <ele>170</ele>
        <time>2018-06-27T10:04:05Z</time>
      </trkpt>
      <trkpt lat="45.92616" lon="4.74412">
        <ele>170</ele>
        <time>2018-06-27T10:04:06Z</time>
      </trkpt>
      <trkpt lat="45.92619" lon="4.74405">
        <ele>170</ele>
        <time>2018-06-27T10:04:07Z</time>
      </trkpt>
      <trkpt lat="45.92623" lon="4.74397">
        <ele>170</ele>
        <time>2018-06-27T10:04:08Z</time>
      </trkpt>
      <trkpt lat="45.92627" lon="4.74391">
        <ele>170</ele>
        <time>2018-06-27T10:04:09Z</time>
      </trkpt>
      <trkpt lat="45.92631" lon="4.74383">
        <ele>170</ele>
        <time>2018-06-27T10:04:10Z</time>
      </trkpt>
      <trkpt lat="45.92636" lon="4.74375">
        <ele>171</ele>
        <time>2018-06-27T10:04:11Z</time>
      </trkpt>
      <trkpt lat="45.9264" lon="4.74367">
        <ele>171</ele>
        <time>2018-06-27T10:04:12Z</time>
      </trkpt>
      <trkpt lat="45.92643" lon="4.74361">
        <ele>171</ele>
        <time>2018-06-27T10:04:13Z</time>
      </trkpt>
      <trkpt lat="45.92647" lon="4.74355">
        <ele>171</ele>
        <time>2018-06-27T10:04:14Z</time>
      </trkpt>
      <trkpt lat="45.9265" lon="4.74348">
        <ele>171</ele>
        <time>2018-06-27T10:04:15Z</time>
      </trkpt>
      <trkpt lat="45.92654" lon="4.74341">
        <ele>171</ele>
        <time>2018-06-27T10:04:16Z</time>
      </trkpt>
      <trkpt lat="45.92657" lon="4.74334">
        <ele>171</ele>
        <time>2018-06-27T10:04:17Z</time>
      </trkpt>
      <trkpt lat="45.9266" lon="4.74328">
        <ele>171</ele>
        <time>2018-06-27T10:04:18Z</time>
      </trkpt>
      <trkpt lat="45.92664" lon="4.74321">
        <ele>171</ele>
        <time>2018-06-27T10:04:19Z</time>
      </trkpt>
      <trkpt lat="45.92668" lon="4.74314">
        <ele>171</ele>
        <time>2018-06-27T10:04:20Z</time>
      </trkpt>
      <trkpt lat="45.92672" lon="4.74306">
        <ele>171</ele>
        <time>2018-06-27T10:04:21Z</time>
      </trkpt>
      <trkpt lat="45.92675" lon="4.74299">
        <ele>171</ele>
        <time>2018-06-27T10:04:22Z</time>
      </trkpt>
      <trkpt lat="45.9268" lon="4.74291">
        <ele>171</ele>
        <time>2018-06-27T10:04:23Z</time>
      </trkpt>
      <trkpt lat="45.92684" lon="4.74285">
        <ele>171</ele>
        <time>2018-06-27T10:04:24Z</time>
      </trkpt>
      <trkpt lat="45.92688" lon="4.74278">
        <ele>171</ele>
        <time>2018-06-27T10:04:25Z</time>
      </trkpt>
      <trkpt lat="45.92691" lon="4.74271">
        <ele>171</ele>
        <time>2018-06-27T10:04:26Z</time>
      </trkpt>
      <trkpt lat="45.92695" lon="4.74264">
        <ele>171</ele>
        <time>2018-06-27T10:04:27Z</time>
      </trkpt>
      <trkpt lat="45.92698" lon="4.74258">
        <ele>171</ele>
        <time>2018-06-27T10:04:28Z</time>
      </trkpt>
      <trkpt lat="45.92702" lon="4.74252">
        <ele>171</ele>
        <time>2018-06-27T10:04:29Z</time>
      </trkpt>
      <trkpt lat="45.92706" lon="4.74247">
        <ele>171</ele>
        <time>2018-06-27T10:04:30Z</time>
      </trkpt>
      <trkpt lat="45.92711" lon="4.74241">
        <ele>171</ele>
        <time>2018-06-27T10:04:31Z</time>
      </trkpt>
      <trkpt lat="45.92715" lon="4.74235">
        <ele>171</ele>
        <time>2018-06-27T10:04:32Z</time>
      </trkpt>
      <trkpt lat="45.92719" lon="4.74228">
        <ele>171</ele>
        <time>2018-06-27T10:04:33Z</time>
      </trkpt>
      <trkpt lat="45.92723" lon="4.74223">
        <ele>171</ele>
        <time>2018-06-27T10:04:34Z</time>
      </trkpt>
      <trkpt lat="45.92728" lon="4.74217">
        <ele>171</ele>
        <time>2018-06-27T10:04:35Z</time>
      </trkpt>
      <trkpt lat="45.92732" lon="4.74211">
        <ele>171</ele>
        <time>2018-06-27T10:04:36Z</time>
      </trkpt>
      <trkpt lat="45.92737" lon="4.74205">
        <ele>171</ele>
        <time>2018-06-27T10:04:37Z</time>
      </trkpt>
      <trkpt lat="45.92742" lon="4.742">
        <ele>171</ele>
        <time>2018-06-27T10:04:38Z</time>
      </trkpt>
      <trkpt lat="45.92746" lon="4.74195">
        <ele>171</ele>
        <time>2018-06-27T10:04:39Z</time>
      </trkpt>
      <trkpt lat="45.92751" lon="4.74189">
        <ele>172</ele>
        <time>2018-06-27T10:04:40Z</time>
      </trkpt>
      <trkpt lat="45.92755" lon="4.74183">
        <ele>172</ele>
        <time>2018-06-27T10:04:41Z</time>
      </trkpt>
      <trkpt lat="45.9276" lon="4.74178">
        <ele>172</ele>
        <time>2018-06-27T10:04:42Z</time>
      </trkpt>
      <trkpt lat="45.92764" lon="4.74173">
        <ele>172</ele>
        <time>2018-06-27T10:04:43Z</time>
      </trkpt>
      <trkpt lat="45.92768" lon="4.74168">
        <ele>172</ele>
        <time>2018-06-27T10:04:44Z</time>
      </trkpt>
      <trkpt lat="45.92772" lon="4.74162">
        <ele>172</ele>
        <time>2018-06-27T10:04:45Z</time>
      </trkpt>
      <trkpt lat="45.92776" lon="4.74157">
        <ele>172</ele>
        <time>2018-06-27T10:04:46Z</time>
      </trkpt>
      <trkpt lat="45.92781" lon="4.74153">
        <ele>172</ele>
        <time>2018-06-27T10:04:47Z</time>
      </trkpt>
      <trkpt lat="45.92785" lon="4.74149">
        <ele>172</ele>
        <time>2018-06-27T10:04:48Z</time>
      </trkpt>
      <trkpt lat="45.9279" lon="4.74144">
        <ele>172</ele>
        <time>2018-06-27T10:04:49Z</time>
      </trkpt>
      <trkpt lat="45.92795" lon="4.7414">
        <ele>172</ele>
        <time>2018-06-27T10:04:50Z</time>
      </trkpt>
      <trkpt lat="45.928" lon="4.74135">
        <ele>172</ele>
        <time>2018-06-27T10:04:51Z</time>
      </trkpt>
      <trkpt lat="45.92804" lon="4.7413">
        <ele>172</ele>
        <time>2018-06-27T10:04:52Z</time>
      </trkpt>
      <trkpt lat="45.92807" lon="4.74125">
        <ele>172</ele>
        <time>2018-06-27T10:04:53Z</time>
      </trkpt>
      <trkpt lat="45.92811" lon="4.74121">
        <ele>172</ele>
        <time>2018-06-27T10:04:54Z</time>
      </trkpt>
      <trkpt lat="45.92817" lon="4.74114">
        <ele>172</ele>
        <time>2018-06-27T10:04:55Z</time>
      </trkpt>
      <trkpt lat="45.92821" lon="4.7411">
        <ele>171</ele>
        <time>2018-06-27T10:04:56Z</time>
      </trkpt>
      <trkpt lat="45.92827" lon="4.74103">
        <ele>171</ele>
        <time>2018-06-27T10:04:57Z</time>
      </trkpt>
      <trkpt lat="45.92833" lon="4.74096">
        <ele>171</ele>
        <time>2018-06-27T10:04:58Z</time>
      </trkpt>
      <trkpt lat="45.92837" lon="4.74091">
        <ele>171</ele>
        <time>2018-06-27T10:04:59Z</time>
      </trkpt>
      <trkpt lat="45.92841" lon="4.74086">
        <ele>171</ele>
        <time>2018-06-27T10:05:00Z</time>
      </trkpt>
      <trkpt lat="45.92845" lon="4.74081">
        <ele>172</ele>
        <time>2018-06-27T10:05:01Z</time>
      </trkpt>
      <trkpt lat="45.9285" lon="4.74073">
        <ele>172</ele>
        <time>2018-06-27T10:05:02Z</time>
      </trkpt>
      <trkpt lat="45.92853" lon="4.74069">
        <ele>172</ele>
        <time>2018-06-27T10:05:03Z</time>
      </trkpt>
      <trkpt lat="45.9286" lon="4.74061">
        <ele>172</ele>
        <time>2018-06-27T10:05:05Z</time>
      </trkpt>
      <trkpt lat="45.92863" lon="4.74055">
        <ele>172</ele>
        <time>2018-06-27T10:05:06Z</time>
      </trkpt>
      <trkpt lat="45.92867" lon="4.7405">
        <ele>172</ele>
        <time>2018-06-27T10:05:07Z</time>
      </trkpt>
      <trkpt lat="45.92871" lon="4.74046">
        <ele>172</ele>
        <time>2018-06-27T10:05:08Z</time>
      </trkpt>
      <trkpt lat="45.92875" lon="4.74042">
        <ele>172</ele>
        <time>2018-06-27T10:05:09Z</time>
      </trkpt>
      <trkpt lat="45.9288" lon="4.74038">
        <ele>172</ele>
        <time>2018-06-27T10:05:10Z</time>
      </trkpt>
      <trkpt lat="45.92884" lon="4.74036">
        <ele>172</ele>
        <time>2018-06-27T10:05:11Z</time>
      </trkpt>
      <trkpt lat="45.9289" lon="4.74036">
        <ele>172</ele>
        <time>2018-06-27T10:05:12Z</time>
      </trkpt>
      <trkpt lat="45.92894" lon="4.74036">
        <ele>172</ele>
        <time>2018-06-27T10:05:13Z</time>
      </trkpt>
      <trkpt lat="45.92899" lon="4.74037">
        <ele>172</ele>
        <time>2018-06-27T10:05:14Z</time>
      </trkpt>
      <trkpt lat="45.92903" lon="4.74037">
        <ele>172</ele>
        <time>2018-06-27T10:05:15Z</time>
      </trkpt>
      <trkpt lat="45.92908" lon="4.74035">
        <ele>172</ele>
        <time>2018-06-27T10:05:16Z</time>
      </trkpt>
      <trkpt lat="45.92912" lon="4.74033">
        <ele>172</ele>
        <time>2018-06-27T10:05:17Z</time>
      </trkpt>
      <trkpt lat="45.92916" lon="4.74029">
        <ele>172</ele>
        <time>2018-06-27T10:05:18Z</time>
      </trkpt>
      <trkpt lat="45.92919" lon="4.7402">
        <ele>172</ele>
        <time>2018-06-27T10:05:20Z</time>
      </trkpt>
      <trkpt lat="45.92919" lon="4.74015">
        <ele>172</ele>
        <time>2018-06-27T10:05:21Z</time>
      </trkpt>
      <trkpt lat="45.92918" lon="4.74009">
        <ele>172</ele>
        <time>2018-06-27T10:05:22Z</time>
      </trkpt>
      <trkpt lat="45.92916" lon="4.74002">
        <ele>172</ele>
        <time>2018-06-27T10:05:23Z</time>
      </trkpt>
      <trkpt lat="45.92913" lon="4.73995">
        <ele>172</ele>
        <time>2018-06-27T10:05:24Z</time>
      </trkpt>
      <trkpt lat="45.9291" lon="4.73991">
        <ele>172</ele>
        <time>2018-06-27T10:05:25Z</time>
      </trkpt>
      <trkpt lat="45.92902" lon="4.73985">
        <ele>172</ele>
        <time>2018-06-27T10:05:27Z</time>
      </trkpt>
      <trkpt lat="45.92898" lon="4.73984">
        <ele>172</ele>
        <time>2018-06-27T10:05:28Z</time>
      </trkpt>
      <trkpt lat="45.92894" lon="4.73975">
        <ele>172</ele>
        <time>2018-06-27T10:05:31Z</time>
      </trkpt>
      <trkpt lat="45.92893" lon="4.73971">
        <ele>172</ele>
        <time>2018-06-27T10:05:32Z</time>
      </trkpt>
      <trkpt lat="45.92892" lon="4.73968">
        <ele>172</ele>
        <time>2018-06-27T10:05:33Z</time>
      </trkpt>
      <trkpt lat="45.9289" lon="4.73955">
        <ele>172</ele>
        <time>2018-06-27T10:05:34Z</time>
      </trkpt>
      <trkpt lat="45.92891" lon="4.73948">
        <ele>172</ele>
        <time>2018-06-27T10:05:35Z</time>
      </trkpt>
      <trkpt lat="45.9289" lon="4.73941">
        <ele>172</ele>
        <time>2018-06-27T10:05:36Z</time>
      </trkpt>
      <trkpt lat="45.9289" lon="4.73934">
        <ele>172</ele>
        <time>2018-06-27T10:05:37Z</time>
      </trkpt>
      <trkpt lat="45.92889" lon="4.73925">
        <ele>172</ele>
        <time>2018-06-27T10:05:38Z</time>
      </trkpt>
      <trkpt lat="45.92886" lon="4.73918">
        <ele>172</ele>
        <time>2018-06-27T10:05:39Z</time>
      </trkpt>
      <trkpt lat="45.92884" lon="4.73909">
        <ele>173</ele>
        <time>2018-06-27T10:05:40Z</time>
      </trkpt>
      <trkpt lat="45.92884" lon="4.739">
        <ele>173</ele>
        <time>2018-06-27T10:05:41Z</time>
      </trkpt>
      <trkpt lat="45.92882" lon="4.7389">
        <ele>173</ele>
        <time>2018-06-27T10:05:42Z</time>
      </trkpt>
      <trkpt lat="45.92881" lon="4.73881">
        <ele>173</ele>
        <time>2018-06-27T10:05:43Z</time>
      </trkpt>
      <trkpt lat="45.92876" lon="4.73872">
        <ele>173</ele>
        <time>2018-06-27T10:05:44Z</time>
      </trkpt>
      <trkpt lat="45.92872" lon="4.73863">
        <ele>173</ele>
        <time>2018-06-27T10:05:45Z</time>
      </trkpt>
      <trkpt lat="45.92868" lon="4.73853">
        <ele>173</ele>
        <time>2018-06-27T10:05:46Z</time>
      </trkpt>
      <trkpt lat="45.92866" lon="4.73838">
        <ele>173</ele>
        <time>2018-06-27T10:05:48Z</time>
      </trkpt>
      <trkpt lat="45.92868" lon="4.73832">
        <ele>173</ele>
        <time>2018-06-27T10:05:49Z</time>
      </trkpt>
      <trkpt lat="45.92865" lon="4.73824">
        <ele>173</ele>
        <time>2018-06-27T10:05:50Z</time>
      </trkpt>
      <trkpt lat="45.92862" lon="4.73816">
        <ele>173</ele>
        <time>2018-06-27T10:05:51Z</time>
      </trkpt>
      <trkpt lat="45.92859" lon="4.73808">
        <ele>173</ele>
        <time>2018-06-27T10:05:52Z</time>
      </trkpt>
      <trkpt lat="45.92855" lon="4.738">
        <ele>173</ele>
        <time>2018-06-27T10:05:53Z</time>
      </trkpt>
      <trkpt lat="45.9285" lon="4.73792">
        <ele>173</ele>
        <time>2018-06-27T10:05:54Z</time>
      </trkpt>
      <trkpt lat="45.92845" lon="4.73787">
        <ele>173</ele>
        <time>2018-06-27T10:05:55Z</time>
      </trkpt>
      <trkpt lat="45.9284" lon="4.73783">
        <ele>173</ele>
        <time>2018-06-27T10:05:56Z</time>
      </trkpt>
      <trkpt lat="45.92834" lon="4.73779">
        <ele>172</ele>
        <time>2018-06-27T10:05:57Z</time>
      </trkpt>
      <trkpt lat="45.92829" lon="4.73776">
        <ele>173</ele>
        <time>2018-06-27T10:05:58Z</time>
      </trkpt>
      <trkpt lat="45.92825" lon="4.73772">
        <ele>173</ele>
        <time>2018-06-27T10:05:59Z</time>
      </trkpt>
      <trkpt lat="45.92818" lon="4.73769">
        <ele>173</ele>
        <time>2018-06-27T10:06:00Z</time>
      </trkpt>
      <trkpt lat="45.9281" lon="4.73764">
        <ele>173</ele>
        <time>2018-06-27T10:06:02Z</time>
      </trkpt>
      <trkpt lat="45.92805" lon="4.73762">
        <ele>173</ele>
        <time>2018-06-27T10:06:03Z</time>
      </trkpt>
      <trkpt lat="45.92799" lon="4.73758">
        <ele>173</ele>
        <time>2018-06-27T10:06:04Z</time>
      </trkpt>
      <trkpt lat="45.92794" lon="4.73755">
        <ele>173</ele>
        <time>2018-06-27T10:06:05Z</time>
      </trkpt>
      <trkpt lat="45.92789" lon="4.73751">
        <ele>173</ele>
        <time>2018-06-27T10:06:06Z</time>
      </trkpt>
      <trkpt lat="45.92785" lon="4.73748">
        <ele>172</ele>
        <time>2018-06-27T10:06:07Z</time>
      </trkpt>
      <trkpt lat="45.92781" lon="4.73737">
        <ele>172</ele>
        <time>2018-06-27T10:06:09Z</time>
      </trkpt>
      <trkpt lat="45.92778" lon="4.73732">
        <ele>172</ele>
        <time>2018-06-27T10:06:10Z</time>
      </trkpt>
      <trkpt lat="45.92771" lon="4.73727">
        <ele>172</ele>
        <time>2018-06-27T10:06:12Z</time>
      </trkpt>
      <trkpt lat="45.92766" lon="4.73726">
        <ele>172</ele>
        <time>2018-06-27T10:06:13Z</time>
      </trkpt>
      <trkpt lat="45.92759" lon="4.73722">
        <ele>172</ele>
        <time>2018-06-27T10:06:15Z</time>
      </trkpt>
      <trkpt lat="45.92755" lon="4.7372">
        <ele>172</ele>
        <time>2018-06-27T10:06:16Z</time>
      </trkpt>
      <trkpt lat="45.92748" lon="4.73723">
        <ele>173</ele>
        <time>2018-06-27T10:06:17Z</time>
      </trkpt>
      <trkpt lat="45.92741" lon="4.73722">
        <ele>173</ele>
        <time>2018-06-27T10:06:18Z</time>
      </trkpt>
      <trkpt lat="45.92736" lon="4.73721">
        <ele>173</ele>
        <time>2018-06-27T10:06:19Z</time>
      </trkpt>
      <trkpt lat="45.92731" lon="4.7372">
        <ele>173</ele>
        <time>2018-06-27T10:06:20Z</time>
      </trkpt>
      <trkpt lat="45.92724" lon="4.73719">
        <ele>173</ele>
        <time>2018-06-27T10:06:21Z</time>
      </trkpt>
      <trkpt lat="45.92718" lon="4.7372">
        <ele>173</ele>
        <time>2018-06-27T10:06:22Z</time>
      </trkpt>
      <trkpt lat="45.92712" lon="4.73718">
        <ele>173</ele>
        <time>2018-06-27T10:06:23Z</time>
      </trkpt>
      <trkpt lat="45.92706" lon="4.73717">
        <ele>173</ele>
        <time>2018-06-27T10:06:24Z</time>
      </trkpt>
      <trkpt lat="45.92702" lon="4.73715">
        <ele>173</ele>
        <time>2018-06-27T10:06:25Z</time>
      </trkpt>
      <trkpt lat="45.92696" lon="4.73714">
        <ele>173</ele>
        <time>2018-06-27T10:06:26Z</time>
      </trkpt>
      <trkpt lat="45.92689" lon="4.73712">
        <ele>173</ele>
        <time>2018-06-27T10:06:27Z</time>
      </trkpt>
      <trkpt lat="45.92683" lon="4.7371">
        <ele>173</ele>
        <time>2018-06-27T10:06:28Z</time>
      </trkpt>
      <trkpt lat="45.92677" lon="4.73708">
        <ele>173</ele>
        <time>2018-06-27T10:06:29Z</time>
      </trkpt>
      <trkpt lat="45.92671" lon="4.73704">
        <ele>174</ele>
        <time>2018-06-27T10:06:30Z</time>
      </trkpt>
      <trkpt lat="45.92665" lon="4.73701">
        <ele>173</ele>
        <time>2018-06-27T10:06:31Z</time>
      </trkpt>
      <trkpt lat="45.9266" lon="4.73697">
        <ele>173</ele>
        <time>2018-06-27T10:06:32Z</time>
      </trkpt>
      <trkpt lat="45.92655" lon="4.73692">
        <ele>173</ele>
        <time>2018-06-27T10:06:33Z</time>
      </trkpt>
      <trkpt lat="45.92651" lon="4.73687">
        <ele>173</ele>
        <time>2018-06-27T10:06:34Z</time>
      </trkpt>
      <trkpt lat="45.92647" lon="4.73681">
        <ele>173</ele>
        <time>2018-06-27T10:06:35Z</time>
      </trkpt>
      <trkpt lat="45.92643" lon="4.73675">
        <ele>173</ele>
        <time>2018-06-27T10:06:36Z</time>
      </trkpt>
      <trkpt lat="45.9264" lon="4.73669">
        <ele>173</ele>
        <time>2018-06-27T10:06:37Z</time>
      </trkpt>
      <trkpt lat="45.92638" lon="4.73663">
        <ele>173</ele>
        <time>2018-06-27T10:06:38Z</time>
      </trkpt>
      <trkpt lat="45.92636" lon="4.73657">
        <ele>173</ele>
        <time>2018-06-27T10:06:39Z</time>
      </trkpt>
      <trkpt lat="45.92634" lon="4.73651">
        <ele>173</ele>
        <time>2018-06-27T10:06:40Z</time>
      </trkpt>
      <trkpt lat="45.92631" lon="4.73644">
        <ele>173</ele>
        <time>2018-06-27T10:06:41Z</time>
      </trkpt>
      <trkpt lat="45.92626" lon="4.73638">
        <ele>173</ele>
        <time>2018-06-27T10:06:42Z</time>
      </trkpt>
      <trkpt lat="45.92622" lon="4.73631">
        <ele>173</ele>
        <time>2018-06-27T10:06:43Z</time>
      </trkpt>
      <trkpt lat="45.92617" lon="4.73626">
        <ele>173</ele>
        <time>2018-06-27T10:06:44Z</time>
      </trkpt>
      <trkpt lat="45.92611" lon="4.73622">
        <ele>173</ele>
        <time>2018-06-27T10:06:45Z</time>
      </trkpt>
      <trkpt lat="45.92606" lon="4.7362">
        <ele>173</ele>
        <time>2018-06-27T10:06:46Z</time>
      </trkpt>
      <trkpt lat="45.92601" lon="4.73618">
        <ele>173</ele>
        <time>2018-06-27T10:06:47Z</time>
      </trkpt>
      <trkpt lat="45.92595" lon="4.73618">
        <ele>173</ele>
        <time>2018-06-27T10:06:48Z</time>
      </trkpt>
      <trkpt lat="45.92589" lon="4.73619">
        <ele>173</ele>
        <time>2018-06-27T10:06:49Z</time>
      </trkpt>
      <trkpt lat="45.92582" lon="4.73621">
        <ele>173</ele>
        <time>2018-06-27T10:06:50Z</time>
      </trkpt>
      <trkpt lat="45.92577" lon="4.73622">
        <ele>173</ele>
        <time>2018-06-27T10:06:51Z</time>
      </trkpt>
      <trkpt lat="45.9257" lon="4.73622">
        <ele>173</ele>
        <time>2018-06-27T10:06:52Z</time>
      </trkpt>
      <trkpt lat="45.92565" lon="4.73623">
        <ele>173</ele>
        <time>2018-06-27T10:06:53Z</time>
      </trkpt>
      <trkpt lat="45.9256" lon="4.73625">
        <ele>173</ele>
        <time>2018-06-27T10:06:54Z</time>
      </trkpt>
      <trkpt lat="45.92555" lon="4.73625">
        <ele>173</ele>
        <time>2018-06-27T10:06:55Z</time>
      </trkpt>
      <trkpt lat="45.9255" lon="4.73625">
        <ele>173</ele>
        <time>2018-06-27T10:06:56Z</time>
      </trkpt>
      <trkpt lat="45.92544" lon="4.73627">
        <ele>173</ele>
        <time>2018-06-27T10:06:57Z</time>
      </trkpt>
      <trkpt lat="45.92537" lon="4.7363">
        <ele>173</ele>
        <time>2018-06-27T10:06:58Z</time>
      </trkpt>
      <trkpt lat="45.92531" lon="4.73634">
        <ele>173</ele>
        <time>2018-06-27T10:06:59Z</time>
      </trkpt>
      <trkpt lat="45.92525" lon="4.73635">
        <ele>173</ele>
        <time>2018-06-27T10:07:00Z</time>
      </trkpt>
      <trkpt lat="45.9252" lon="4.73637">
        <ele>173</ele>
        <time>2018-06-27T10:07:01Z</time>
      </trkpt>
      <trkpt lat="45.92515" lon="4.73637">
        <ele>173</ele>
        <time>2018-06-27T10:07:02Z</time>
      </trkpt>
      <trkpt lat="45.9251" lon="4.73637">
        <ele>174</ele>
        <time>2018-06-27T10:07:03Z</time>
      </trkpt>
      <trkpt lat="45.92503" lon="4.73637">
        <ele>174</ele>
        <time>2018-06-27T10:07:04Z</time>
      </trkpt>
      <trkpt lat="45.92498" lon="4.73636">
        <ele>174</ele>
        <time>2018-06-27T10:07:05Z</time>
      </trkpt>
      <trkpt lat="45.92492" lon="4.73636">
        <ele>174</ele>
        <time>2018-06-27T10:07:06Z</time>
      </trkpt>
      <trkpt lat="45.92487" lon="4.73634">
        <ele>174</ele>
        <time>2018-06-27T10:07:07Z</time>
      </trkpt>
      <trkpt lat="45.92482" lon="4.73636">
        <ele>174</ele>
        <time>2018-06-27T10:07:08Z</time>
      </trkpt>
      <trkpt lat="45.92474" lon="4.73636">
        <ele>174</ele>
        <time>2018-06-27T10:07:10Z</time>
      </trkpt>
      <trkpt lat="45.92469" lon="4.73642">
        <ele>174</ele>
        <time>2018-06-27T10:07:11Z</time>
      </trkpt>
      <trkpt lat="45.92465" lon="4.73653">
        <ele>174</ele>
        <time>2018-06-27T10:07:13Z</time>
      </trkpt>
      <trkpt lat="45.92462" lon="4.73661">
        <ele>174</ele>
        <time>2018-06-27T10:07:14Z</time>
      </trkpt>
      <trkpt lat="45.9246" lon="4.73673">
        <ele>174</ele>
        <time>2018-06-27T10:07:16Z</time>
      </trkpt>
      <trkpt lat="45.92461" lon="4.73679">
        <ele>174</ele>
        <time>2018-06-27T10:07:17Z</time>
      </trkpt>
      <trkpt lat="45.92461" lon="4.73691">
        <ele>174</ele>
        <time>2018-06-27T10:07:19Z</time>
      </trkpt>
      <trkpt lat="45.92461" lon="4.73697">
        <ele>174</ele>
        <time>2018-06-27T10:07:20Z</time>
      </trkpt>
      <trkpt lat="45.92461" lon="4.73709">
        <ele>174</ele>
        <time>2018-06-27T10:07:24Z</time>
      </trkpt>
      <trkpt lat="45.92461" lon="4.7371">
        <ele>174</ele>
        <time>2018-06-27T10:07:25Z</time>
      </trkpt>
      <trkpt lat="45.92457" lon="4.7371">
        <ele>174</ele>
        <time>2018-06-27T10:08:07.818Z</time>
      </trkpt>
    </trkseg>
  </trk>
</gpx>